<?xml version="1.0" encoding="UTF-8" standalone="no" ?>
<gpx xmlns="http://www.topografix.com/GPX/1/1" xmlns:xsi="http://www.w3.org/2001/XMLSchema-instance" xsi:schemaLocation="http://www.topografix.com/GPX/1/1 http://www.topografix.com/GPX/1/1/gpx.xsd" version="1.1" creator="VisuGPX - https://www.visugpx.com">
  <metadata>
    <name>S-E-St Aignan Pont St Martin La Chevrolière Montbert Chateau Thébaud Vertou Rezé Le Chêne Les Couets</name>
    <desc><![CDATA[S-E-St Aignan Pont St Martin La Chevrolière Montbert Chateau Thébaud Vertou Rezé Le Chêne Les Couets]]></desc>
  </metadata>
  <trk>
    <name><![CDATA[2021-08-29 10:53 +02:00]]></name>
    <trkseg>
      <trkpt lat="47.16783" lon="-1.62653">
        <ele>62</ele>
        <time>2021-08-29T08:53:11.000Z</time>
      </trkpt>
      <trkpt lat="47.1678" lon="-1.62672">
        <ele>69</ele>
        <time>2021-08-29T08:55:40.000Z</time>
      </trkpt>
      <trkpt lat="47.16771" lon="-1.62679">
        <ele>68</ele>
        <time>2021-08-29T08:55:42.000Z</time>
      </trkpt>
      <trkpt lat="47.1676" lon="-1.62674">
        <ele>68</ele>
        <time>2021-08-29T08:55:44.000Z</time>
      </trkpt>
      <trkpt lat="47.16749" lon="-1.62673">
        <ele>68</ele>
        <time>2021-08-29T08:55:46.000Z</time>
      </trkpt>
      <trkpt lat="47.16738" lon="-1.6268">
        <ele>68</ele>
        <time>2021-08-29T08:55:48.000Z</time>
      </trkpt>
      <trkpt lat="47.16728" lon="-1.62687">
        <ele>68</ele>
        <time>2021-08-29T08:55:50.000Z</time>
      </trkpt>
      <trkpt lat="47.1672" lon="-1.62693">
        <ele>68</ele>
        <time>2021-08-29T08:55:52.000Z</time>
      </trkpt>
      <trkpt lat="47.16709" lon="-1.62692">
        <ele>68</ele>
        <time>2021-08-29T08:55:55.000Z</time>
      </trkpt>
      <trkpt lat="47.16702" lon="-1.62678">
        <ele>68</ele>
        <time>2021-08-29T08:55:57.000Z</time>
      </trkpt>
      <trkpt lat="47.16698" lon="-1.62662">
        <ele>68</ele>
        <time>2021-08-29T08:55:59.000Z</time>
      </trkpt>
      <trkpt lat="47.16696" lon="-1.62645">
        <ele>69</ele>
        <time>2021-08-29T08:56:01.000Z</time>
      </trkpt>
      <trkpt lat="47.16695" lon="-1.62627">
        <ele>69</ele>
        <time>2021-08-29T08:56:03.000Z</time>
      </trkpt>
      <trkpt lat="47.16695" lon="-1.62609">
        <ele>68</ele>
        <time>2021-08-29T08:56:05.000Z</time>
      </trkpt>
      <trkpt lat="47.16696" lon="-1.6259">
        <ele>68</ele>
        <time>2021-08-29T08:56:07.000Z</time>
      </trkpt>
      <trkpt lat="47.16697" lon="-1.62572">
        <ele>67</ele>
        <time>2021-08-29T08:56:09.000Z</time>
      </trkpt>
      <trkpt lat="47.16699" lon="-1.62553">
        <ele>66</ele>
        <time>2021-08-29T08:56:11.000Z</time>
      </trkpt>
      <trkpt lat="47.16702" lon="-1.62535">
        <ele>65</ele>
        <time>2021-08-29T08:56:13.000Z</time>
      </trkpt>
      <trkpt lat="47.16705" lon="-1.62516">
        <ele>65</ele>
        <time>2021-08-29T08:56:15.000Z</time>
      </trkpt>
      <trkpt lat="47.16707" lon="-1.62499">
        <ele>65</ele>
        <time>2021-08-29T08:56:17.000Z</time>
      </trkpt>
      <trkpt lat="47.16711" lon="-1.62481">
        <ele>65</ele>
        <time>2021-08-29T08:56:19.000Z</time>
      </trkpt>
      <trkpt lat="47.16713" lon="-1.62464">
        <ele>65</ele>
        <time>2021-08-29T08:56:21.000Z</time>
      </trkpt>
      <trkpt lat="47.16715" lon="-1.62447">
        <ele>64</ele>
        <time>2021-08-29T08:56:23.000Z</time>
      </trkpt>
      <trkpt lat="47.16718" lon="-1.6243">
        <ele>64</ele>
        <time>2021-08-29T08:56:25.000Z</time>
      </trkpt>
      <trkpt lat="47.16723" lon="-1.62416">
        <ele>64</ele>
        <time>2021-08-29T08:56:27.000Z</time>
      </trkpt>
      <trkpt lat="47.16718" lon="-1.62399">
        <ele>65</ele>
        <time>2021-08-29T08:56:30.000Z</time>
      </trkpt>
      <trkpt lat="47.16709" lon="-1.62387">
        <ele>65</ele>
        <time>2021-08-29T08:56:32.000Z</time>
      </trkpt>
      <trkpt lat="47.16701" lon="-1.62376">
        <ele>66</ele>
        <time>2021-08-29T08:56:34.000Z</time>
      </trkpt>
      <trkpt lat="47.1669" lon="-1.62366">
        <ele>67</ele>
        <time>2021-08-29T08:56:36.000Z</time>
      </trkpt>
      <trkpt lat="47.16679" lon="-1.62361">
        <ele>67</ele>
        <time>2021-08-29T08:56:38.000Z</time>
      </trkpt>
      <trkpt lat="47.16666" lon="-1.62361">
        <ele>67</ele>
        <time>2021-08-29T08:56:40.000Z</time>
      </trkpt>
      <trkpt lat="47.16655" lon="-1.62365">
        <ele>66</ele>
        <time>2021-08-29T08:56:42.000Z</time>
      </trkpt>
      <trkpt lat="47.16646" lon="-1.62374">
        <ele>67</ele>
        <time>2021-08-29T08:56:44.000Z</time>
      </trkpt>
      <trkpt lat="47.16639" lon="-1.62386">
        <ele>68</ele>
        <time>2021-08-29T08:56:46.000Z</time>
      </trkpt>
      <trkpt lat="47.1663" lon="-1.62398">
        <ele>70</ele>
        <time>2021-08-29T08:56:48.000Z</time>
      </trkpt>
      <trkpt lat="47.16621" lon="-1.62411">
        <ele>70</ele>
        <time>2021-08-29T08:56:50.000Z</time>
      </trkpt>
      <trkpt lat="47.16614" lon="-1.62424">
        <ele>71</ele>
        <time>2021-08-29T08:56:52.000Z</time>
      </trkpt>
      <trkpt lat="47.16606" lon="-1.62437">
        <ele>70</ele>
        <time>2021-08-29T08:56:54.000Z</time>
      </trkpt>
      <trkpt lat="47.16599" lon="-1.62452">
        <ele>70</ele>
        <time>2021-08-29T08:56:56.000Z</time>
      </trkpt>
      <trkpt lat="47.16592" lon="-1.62466">
        <ele>70</ele>
        <time>2021-08-29T08:56:58.000Z</time>
      </trkpt>
      <trkpt lat="47.16586" lon="-1.6248">
        <ele>70</ele>
        <time>2021-08-29T08:57:00.000Z</time>
      </trkpt>
      <trkpt lat="47.16579" lon="-1.62495">
        <ele>70</ele>
        <time>2021-08-29T08:57:02.000Z</time>
      </trkpt>
      <trkpt lat="47.16573" lon="-1.6251">
        <ele>70</ele>
        <time>2021-08-29T08:57:04.000Z</time>
      </trkpt>
      <trkpt lat="47.16567" lon="-1.62524">
        <ele>70</ele>
        <time>2021-08-29T08:57:06.000Z</time>
      </trkpt>
      <trkpt lat="47.16561" lon="-1.62538">
        <ele>71</ele>
        <time>2021-08-29T08:57:08.000Z</time>
      </trkpt>
      <trkpt lat="47.16553" lon="-1.62549">
        <ele>72</ele>
        <time>2021-08-29T08:57:10.000Z</time>
      </trkpt>
      <trkpt lat="47.16544" lon="-1.62559">
        <ele>72</ele>
        <time>2021-08-29T08:57:12.000Z</time>
      </trkpt>
      <trkpt lat="47.16533" lon="-1.62565">
        <ele>72</ele>
        <time>2021-08-29T08:57:14.000Z</time>
      </trkpt>
      <trkpt lat="47.16521" lon="-1.62565">
        <ele>72</ele>
        <time>2021-08-29T08:57:16.000Z</time>
      </trkpt>
      <trkpt lat="47.16509" lon="-1.62561">
        <ele>72</ele>
        <time>2021-08-29T08:57:18.000Z</time>
      </trkpt>
      <trkpt lat="47.16497" lon="-1.62557">
        <ele>73</ele>
        <time>2021-08-29T08:57:20.000Z</time>
      </trkpt>
      <trkpt lat="47.16486" lon="-1.62553">
        <ele>74</ele>
        <time>2021-08-29T08:57:22.000Z</time>
      </trkpt>
      <trkpt lat="47.16474" lon="-1.6255">
        <ele>74</ele>
        <time>2021-08-29T08:57:24.000Z</time>
      </trkpt>
      <trkpt lat="47.16462" lon="-1.62547">
        <ele>74</ele>
        <time>2021-08-29T08:57:26.000Z</time>
      </trkpt>
      <trkpt lat="47.16451" lon="-1.62543">
        <ele>75</ele>
        <time>2021-08-29T08:57:28.000Z</time>
      </trkpt>
      <trkpt lat="47.1644" lon="-1.6254">
        <ele>75</ele>
        <time>2021-08-29T08:57:30.000Z</time>
      </trkpt>
      <trkpt lat="47.16429" lon="-1.62544">
        <ele>74</ele>
        <time>2021-08-29T08:57:32.000Z</time>
      </trkpt>
      <trkpt lat="47.1642" lon="-1.62553">
        <ele>74</ele>
        <time>2021-08-29T08:57:34.000Z</time>
      </trkpt>
      <trkpt lat="47.1641" lon="-1.62563">
        <ele>74</ele>
        <time>2021-08-29T08:57:36.000Z</time>
      </trkpt>
      <trkpt lat="47.16399" lon="-1.62573">
        <ele>73</ele>
        <time>2021-08-29T08:57:38.000Z</time>
      </trkpt>
      <trkpt lat="47.16387" lon="-1.62581">
        <ele>73</ele>
        <time>2021-08-29T08:57:40.000Z</time>
      </trkpt>
      <trkpt lat="47.16374" lon="-1.62584">
        <ele>73</ele>
        <time>2021-08-29T08:57:42.000Z</time>
      </trkpt>
      <trkpt lat="47.1636" lon="-1.62583">
        <ele>72</ele>
        <time>2021-08-29T08:57:44.000Z</time>
      </trkpt>
      <trkpt lat="47.16347" lon="-1.6258">
        <ele>72</ele>
        <time>2021-08-29T08:57:46.000Z</time>
      </trkpt>
      <trkpt lat="47.16335" lon="-1.62575">
        <ele>72</ele>
        <time>2021-08-29T08:57:48.000Z</time>
      </trkpt>
      <trkpt lat="47.16323" lon="-1.62571">
        <ele>73</ele>
        <time>2021-08-29T08:57:50.000Z</time>
      </trkpt>
      <trkpt lat="47.16311" lon="-1.62571">
        <ele>73</ele>
        <time>2021-08-29T08:57:52.000Z</time>
      </trkpt>
      <trkpt lat="47.163" lon="-1.62576">
        <ele>73</ele>
        <time>2021-08-29T08:57:54.000Z</time>
      </trkpt>
      <trkpt lat="47.16291" lon="-1.62589">
        <ele>73</ele>
        <time>2021-08-29T08:57:56.000Z</time>
      </trkpt>
      <trkpt lat="47.16286" lon="-1.62605">
        <ele>72</ele>
        <time>2021-08-29T08:57:58.000Z</time>
      </trkpt>
      <trkpt lat="47.16282" lon="-1.62622">
        <ele>72</ele>
        <time>2021-08-29T08:58:00.000Z</time>
      </trkpt>
      <trkpt lat="47.16278" lon="-1.62639">
        <ele>71</ele>
        <time>2021-08-29T08:58:02.000Z</time>
      </trkpt>
      <trkpt lat="47.16276" lon="-1.62657">
        <ele>70</ele>
        <time>2021-08-29T08:58:04.000Z</time>
      </trkpt>
      <trkpt lat="47.16276" lon="-1.62675">
        <ele>70</ele>
        <time>2021-08-29T08:58:06.000Z</time>
      </trkpt>
      <trkpt lat="47.16276" lon="-1.62691">
        <ele>70</ele>
        <time>2021-08-29T08:58:08.000Z</time>
      </trkpt>
      <trkpt lat="47.16278" lon="-1.62704">
        <ele>70</ele>
        <time>2021-08-29T08:58:10.000Z</time>
      </trkpt>
      <trkpt lat="47.1628" lon="-1.62724">
        <ele>70</ele>
        <time>2021-08-29T08:58:13.000Z</time>
      </trkpt>
      <trkpt lat="47.16273" lon="-1.62736">
        <ele>72</ele>
        <time>2021-08-29T08:58:16.000Z</time>
      </trkpt>
      <trkpt lat="47.16263" lon="-1.6274">
        <ele>71</ele>
        <time>2021-08-29T08:58:18.000Z</time>
      </trkpt>
      <trkpt lat="47.1625" lon="-1.62746">
        <ele>71</ele>
        <time>2021-08-29T08:58:20.000Z</time>
      </trkpt>
      <trkpt lat="47.16237" lon="-1.62753">
        <ele>71</ele>
        <time>2021-08-29T08:58:22.000Z</time>
      </trkpt>
      <trkpt lat="47.16223" lon="-1.62759">
        <ele>70</ele>
        <time>2021-08-29T08:58:24.000Z</time>
      </trkpt>
      <trkpt lat="47.16209" lon="-1.62767">
        <ele>68</ele>
        <time>2021-08-29T08:58:26.000Z</time>
      </trkpt>
      <trkpt lat="47.16196" lon="-1.62777">
        <ele>67</ele>
        <time>2021-08-29T08:58:28.000Z</time>
      </trkpt>
      <trkpt lat="47.16183" lon="-1.62789">
        <ele>67</ele>
        <time>2021-08-29T08:58:30.000Z</time>
      </trkpt>
      <trkpt lat="47.16169" lon="-1.62801">
        <ele>66</ele>
        <time>2021-08-29T08:58:32.000Z</time>
      </trkpt>
      <trkpt lat="47.16155" lon="-1.62812">
        <ele>66</ele>
        <time>2021-08-29T08:58:34.000Z</time>
      </trkpt>
      <trkpt lat="47.16142" lon="-1.62824">
        <ele>65</ele>
        <time>2021-08-29T08:58:36.000Z</time>
      </trkpt>
      <trkpt lat="47.16129" lon="-1.62835">
        <ele>65</ele>
        <time>2021-08-29T08:58:38.000Z</time>
      </trkpt>
      <trkpt lat="47.16115" lon="-1.62847">
        <ele>64</ele>
        <time>2021-08-29T08:58:40.000Z</time>
      </trkpt>
      <trkpt lat="47.16101" lon="-1.62858">
        <ele>64</ele>
        <time>2021-08-29T08:58:42.000Z</time>
      </trkpt>
      <trkpt lat="47.16088" lon="-1.6287">
        <ele>64</ele>
        <time>2021-08-29T08:58:44.000Z</time>
      </trkpt>
      <trkpt lat="47.16074" lon="-1.62883">
        <ele>64</ele>
        <time>2021-08-29T08:58:46.000Z</time>
      </trkpt>
      <trkpt lat="47.16059" lon="-1.62896">
        <ele>63</ele>
        <time>2021-08-29T08:58:48.000Z</time>
      </trkpt>
      <trkpt lat="47.16045" lon="-1.62909">
        <ele>63</ele>
        <time>2021-08-29T08:58:50.000Z</time>
      </trkpt>
      <trkpt lat="47.1603" lon="-1.62922">
        <ele>63</ele>
        <time>2021-08-29T08:58:52.000Z</time>
      </trkpt>
      <trkpt lat="47.16015" lon="-1.62936">
        <ele>62</ele>
        <time>2021-08-29T08:58:54.000Z</time>
      </trkpt>
      <trkpt lat="47.16" lon="-1.62949">
        <ele>61</ele>
        <time>2021-08-29T08:58:56.000Z</time>
      </trkpt>
      <trkpt lat="47.15985" lon="-1.62962">
        <ele>60</ele>
        <time>2021-08-29T08:58:58.000Z</time>
      </trkpt>
      <trkpt lat="47.15977" lon="-1.62969">
        <ele>60</ele>
        <time>2021-08-29T08:58:59.000Z</time>
      </trkpt>
      <trkpt lat="47.15969" lon="-1.62977">
        <ele>60</ele>
        <time>2021-08-29T08:59:00.000Z</time>
      </trkpt>
      <trkpt lat="47.15961" lon="-1.62984">
        <ele>59</ele>
        <time>2021-08-29T08:59:01.000Z</time>
      </trkpt>
      <trkpt lat="47.15953" lon="-1.62991">
        <ele>59</ele>
        <time>2021-08-29T08:59:02.000Z</time>
      </trkpt>
      <trkpt lat="47.15945" lon="-1.62998">
        <ele>59</ele>
        <time>2021-08-29T08:59:03.000Z</time>
      </trkpt>
      <trkpt lat="47.15937" lon="-1.63005">
        <ele>59</ele>
        <time>2021-08-29T08:59:04.000Z</time>
      </trkpt>
      <trkpt lat="47.15929" lon="-1.63012">
        <ele>58</ele>
        <time>2021-08-29T08:59:05.000Z</time>
      </trkpt>
      <trkpt lat="47.15921" lon="-1.63019">
        <ele>58</ele>
        <time>2021-08-29T08:59:06.000Z</time>
      </trkpt>
      <trkpt lat="47.15914" lon="-1.63026">
        <ele>58</ele>
        <time>2021-08-29T08:59:07.000Z</time>
      </trkpt>
      <trkpt lat="47.15906" lon="-1.63033">
        <ele>58</ele>
        <time>2021-08-29T08:59:08.000Z</time>
      </trkpt>
      <trkpt lat="47.15898" lon="-1.6304">
        <ele>58</ele>
        <time>2021-08-29T08:59:09.000Z</time>
      </trkpt>
      <trkpt lat="47.15883" lon="-1.63053">
        <ele>58</ele>
        <time>2021-08-29T08:59:11.000Z</time>
      </trkpt>
      <trkpt lat="47.15868" lon="-1.63066">
        <ele>58</ele>
        <time>2021-08-29T08:59:13.000Z</time>
      </trkpt>
      <trkpt lat="47.15854" lon="-1.63078">
        <ele>59</ele>
        <time>2021-08-29T08:59:15.000Z</time>
      </trkpt>
      <trkpt lat="47.15841" lon="-1.63089">
        <ele>59</ele>
        <time>2021-08-29T08:59:17.000Z</time>
      </trkpt>
      <trkpt lat="47.15828" lon="-1.63101">
        <ele>59</ele>
        <time>2021-08-29T08:59:19.000Z</time>
      </trkpt>
      <trkpt lat="47.15815" lon="-1.63112">
        <ele>60</ele>
        <time>2021-08-29T08:59:21.000Z</time>
      </trkpt>
      <trkpt lat="47.15803" lon="-1.63123">
        <ele>60</ele>
        <time>2021-08-29T08:59:23.000Z</time>
      </trkpt>
      <trkpt lat="47.15791" lon="-1.63133">
        <ele>60</ele>
        <time>2021-08-29T08:59:25.000Z</time>
      </trkpt>
      <trkpt lat="47.15779" lon="-1.63144">
        <ele>61</ele>
        <time>2021-08-29T08:59:27.000Z</time>
      </trkpt>
      <trkpt lat="47.15768" lon="-1.63154">
        <ele>61</ele>
        <time>2021-08-29T08:59:29.000Z</time>
      </trkpt>
      <trkpt lat="47.15756" lon="-1.63164">
        <ele>61</ele>
        <time>2021-08-29T08:59:31.000Z</time>
      </trkpt>
      <trkpt lat="47.15745" lon="-1.63175">
        <ele>61</ele>
        <time>2021-08-29T08:59:33.000Z</time>
      </trkpt>
      <trkpt lat="47.15733" lon="-1.63186">
        <ele>61</ele>
        <time>2021-08-29T08:59:35.000Z</time>
      </trkpt>
      <trkpt lat="47.1572" lon="-1.63197">
        <ele>61</ele>
        <time>2021-08-29T08:59:37.000Z</time>
      </trkpt>
      <trkpt lat="47.15707" lon="-1.63208">
        <ele>61</ele>
        <time>2021-08-29T08:59:39.000Z</time>
      </trkpt>
      <trkpt lat="47.15695" lon="-1.63219">
        <ele>61</ele>
        <time>2021-08-29T08:59:41.000Z</time>
      </trkpt>
      <trkpt lat="47.15682" lon="-1.6323">
        <ele>61</ele>
        <time>2021-08-29T08:59:43.000Z</time>
      </trkpt>
      <trkpt lat="47.15668" lon="-1.63241">
        <ele>61</ele>
        <time>2021-08-29T08:59:45.000Z</time>
      </trkpt>
      <trkpt lat="47.15656" lon="-1.63252">
        <ele>62</ele>
        <time>2021-08-29T08:59:47.000Z</time>
      </trkpt>
      <trkpt lat="47.15643" lon="-1.63264">
        <ele>63</ele>
        <time>2021-08-29T08:59:49.000Z</time>
      </trkpt>
      <trkpt lat="47.15631" lon="-1.63275">
        <ele>63</ele>
        <time>2021-08-29T08:59:51.000Z</time>
      </trkpt>
      <trkpt lat="47.15618" lon="-1.63286">
        <ele>63</ele>
        <time>2021-08-29T08:59:53.000Z</time>
      </trkpt>
      <trkpt lat="47.15605" lon="-1.63298">
        <ele>63</ele>
        <time>2021-08-29T08:59:55.000Z</time>
      </trkpt>
      <trkpt lat="47.15592" lon="-1.63309">
        <ele>63</ele>
        <time>2021-08-29T08:59:57.000Z</time>
      </trkpt>
      <trkpt lat="47.15579" lon="-1.6332">
        <ele>63</ele>
        <time>2021-08-29T08:59:59.000Z</time>
      </trkpt>
      <trkpt lat="47.15567" lon="-1.6333">
        <ele>63</ele>
        <time>2021-08-29T09:00:01.000Z</time>
      </trkpt>
      <trkpt lat="47.15555" lon="-1.63341">
        <ele>64</ele>
        <time>2021-08-29T09:00:03.000Z</time>
      </trkpt>
      <trkpt lat="47.15543" lon="-1.63351">
        <ele>64</ele>
        <time>2021-08-29T09:00:05.000Z</time>
      </trkpt>
      <trkpt lat="47.15532" lon="-1.63361">
        <ele>65</ele>
        <time>2021-08-29T09:00:07.000Z</time>
      </trkpt>
      <trkpt lat="47.1552" lon="-1.63371">
        <ele>65</ele>
        <time>2021-08-29T09:00:09.000Z</time>
      </trkpt>
      <trkpt lat="47.15509" lon="-1.63381">
        <ele>66</ele>
        <time>2021-08-29T09:00:11.000Z</time>
      </trkpt>
      <trkpt lat="47.15498" lon="-1.63392">
        <ele>67</ele>
        <time>2021-08-29T09:00:13.000Z</time>
      </trkpt>
      <trkpt lat="47.15487" lon="-1.63402">
        <ele>67</ele>
        <time>2021-08-29T09:00:15.000Z</time>
      </trkpt>
      <trkpt lat="47.15475" lon="-1.63413">
        <ele>67</ele>
        <time>2021-08-29T09:00:17.000Z</time>
      </trkpt>
      <trkpt lat="47.15463" lon="-1.63423">
        <ele>67</ele>
        <time>2021-08-29T09:00:19.000Z</time>
      </trkpt>
      <trkpt lat="47.15452" lon="-1.63434">
        <ele>68</ele>
        <time>2021-08-29T09:00:21.000Z</time>
      </trkpt>
      <trkpt lat="47.15441" lon="-1.63444">
        <ele>68</ele>
        <time>2021-08-29T09:00:23.000Z</time>
      </trkpt>
      <trkpt lat="47.1543" lon="-1.63454">
        <ele>68</ele>
        <time>2021-08-29T09:00:25.000Z</time>
      </trkpt>
      <trkpt lat="47.15419" lon="-1.63464">
        <ele>68</ele>
        <time>2021-08-29T09:00:27.000Z</time>
      </trkpt>
      <trkpt lat="47.15409" lon="-1.63475">
        <ele>69</ele>
        <time>2021-08-29T09:00:29.000Z</time>
      </trkpt>
      <trkpt lat="47.154" lon="-1.63487">
        <ele>69</ele>
        <time>2021-08-29T09:00:31.000Z</time>
      </trkpt>
      <trkpt lat="47.15392" lon="-1.63499">
        <ele>69</ele>
        <time>2021-08-29T09:00:33.000Z</time>
      </trkpt>
      <trkpt lat="47.15383" lon="-1.63508">
        <ele>69</ele>
        <time>2021-08-29T09:00:35.000Z</time>
      </trkpt>
      <trkpt lat="47.15371" lon="-1.6351">
        <ele>69</ele>
        <time>2021-08-29T09:00:37.000Z</time>
      </trkpt>
      <trkpt lat="47.1536" lon="-1.63517">
        <ele>69</ele>
        <time>2021-08-29T09:00:39.000Z</time>
      </trkpt>
      <trkpt lat="47.1535" lon="-1.63529">
        <ele>69</ele>
        <time>2021-08-29T09:00:41.000Z</time>
      </trkpt>
      <trkpt lat="47.15339" lon="-1.63539">
        <ele>69</ele>
        <time>2021-08-29T09:00:43.000Z</time>
      </trkpt>
      <trkpt lat="47.15329" lon="-1.63549">
        <ele>69</ele>
        <time>2021-08-29T09:00:45.000Z</time>
      </trkpt>
      <trkpt lat="47.15317" lon="-1.63557">
        <ele>69</ele>
        <time>2021-08-29T09:00:47.000Z</time>
      </trkpt>
      <trkpt lat="47.15306" lon="-1.63563">
        <ele>69</ele>
        <time>2021-08-29T09:00:49.000Z</time>
      </trkpt>
      <trkpt lat="47.15297" lon="-1.63571">
        <ele>69</ele>
        <time>2021-08-29T09:00:51.000Z</time>
      </trkpt>
      <trkpt lat="47.15288" lon="-1.6358">
        <ele>69</ele>
        <time>2021-08-29T09:00:53.000Z</time>
      </trkpt>
      <trkpt lat="47.15277" lon="-1.6359">
        <ele>69</ele>
        <time>2021-08-29T09:00:55.000Z</time>
      </trkpt>
      <trkpt lat="47.15268" lon="-1.63599">
        <ele>70</ele>
        <time>2021-08-29T09:00:57.000Z</time>
      </trkpt>
      <trkpt lat="47.15258" lon="-1.63607">
        <ele>70</ele>
        <time>2021-08-29T09:00:59.000Z</time>
      </trkpt>
      <trkpt lat="47.15248" lon="-1.63617">
        <ele>70</ele>
        <time>2021-08-29T09:01:01.000Z</time>
      </trkpt>
      <trkpt lat="47.15237" lon="-1.63627">
        <ele>70</ele>
        <time>2021-08-29T09:01:03.000Z</time>
      </trkpt>
      <trkpt lat="47.15226" lon="-1.63637">
        <ele>70</ele>
        <time>2021-08-29T09:01:05.000Z</time>
      </trkpt>
      <trkpt lat="47.15215" lon="-1.63646">
        <ele>71</ele>
        <time>2021-08-29T09:01:07.000Z</time>
      </trkpt>
      <trkpt lat="47.15204" lon="-1.63656">
        <ele>70</ele>
        <time>2021-08-29T09:01:09.000Z</time>
      </trkpt>
      <trkpt lat="47.15193" lon="-1.63665">
        <ele>70</ele>
        <time>2021-08-29T09:01:11.000Z</time>
      </trkpt>
      <trkpt lat="47.15182" lon="-1.63675">
        <ele>70</ele>
        <time>2021-08-29T09:01:13.000Z</time>
      </trkpt>
      <trkpt lat="47.1517" lon="-1.63685">
        <ele>70</ele>
        <time>2021-08-29T09:01:15.000Z</time>
      </trkpt>
      <trkpt lat="47.15158" lon="-1.63695">
        <ele>70</ele>
        <time>2021-08-29T09:01:17.000Z</time>
      </trkpt>
      <trkpt lat="47.15147" lon="-1.63706">
        <ele>70</ele>
        <time>2021-08-29T09:01:19.000Z</time>
      </trkpt>
      <trkpt lat="47.15135" lon="-1.63717">
        <ele>70</ele>
        <time>2021-08-29T09:01:21.000Z</time>
      </trkpt>
      <trkpt lat="47.15123" lon="-1.63729">
        <ele>70</ele>
        <time>2021-08-29T09:01:23.000Z</time>
      </trkpt>
      <trkpt lat="47.15113" lon="-1.6374">
        <ele>70</ele>
        <time>2021-08-29T09:01:25.000Z</time>
      </trkpt>
      <trkpt lat="47.15102" lon="-1.63752">
        <ele>70</ele>
        <time>2021-08-29T09:01:27.000Z</time>
      </trkpt>
      <trkpt lat="47.15091" lon="-1.63764">
        <ele>70</ele>
        <time>2021-08-29T09:01:29.000Z</time>
      </trkpt>
      <trkpt lat="47.1508" lon="-1.63777">
        <ele>70</ele>
        <time>2021-08-29T09:01:31.000Z</time>
      </trkpt>
      <trkpt lat="47.15069" lon="-1.63789">
        <ele>70</ele>
        <time>2021-08-29T09:01:33.000Z</time>
      </trkpt>
      <trkpt lat="47.15059" lon="-1.63802">
        <ele>70</ele>
        <time>2021-08-29T09:01:35.000Z</time>
      </trkpt>
      <trkpt lat="47.1505" lon="-1.63815">
        <ele>70</ele>
        <time>2021-08-29T09:01:37.000Z</time>
      </trkpt>
      <trkpt lat="47.1504" lon="-1.63828">
        <ele>70</ele>
        <time>2021-08-29T09:01:39.000Z</time>
      </trkpt>
      <trkpt lat="47.1503" lon="-1.63841">
        <ele>70</ele>
        <time>2021-08-29T09:01:41.000Z</time>
      </trkpt>
      <trkpt lat="47.1502" lon="-1.63855">
        <ele>70</ele>
        <time>2021-08-29T09:01:43.000Z</time>
      </trkpt>
      <trkpt lat="47.15011" lon="-1.63869">
        <ele>70</ele>
        <time>2021-08-29T09:01:45.000Z</time>
      </trkpt>
      <trkpt lat="47.15001" lon="-1.63883">
        <ele>70</ele>
        <time>2021-08-29T09:01:47.000Z</time>
      </trkpt>
      <trkpt lat="47.14993" lon="-1.63897">
        <ele>70</ele>
        <time>2021-08-29T09:01:49.000Z</time>
      </trkpt>
      <trkpt lat="47.14984" lon="-1.63911">
        <ele>71</ele>
        <time>2021-08-29T09:01:51.000Z</time>
      </trkpt>
      <trkpt lat="47.14975" lon="-1.63925">
        <ele>71</ele>
        <time>2021-08-29T09:01:53.000Z</time>
      </trkpt>
      <trkpt lat="47.14966" lon="-1.6394">
        <ele>72</ele>
        <time>2021-08-29T09:01:55.000Z</time>
      </trkpt>
      <trkpt lat="47.14957" lon="-1.63955">
        <ele>72</ele>
        <time>2021-08-29T09:01:57.000Z</time>
      </trkpt>
      <trkpt lat="47.14946" lon="-1.63973">
        <ele>71</ele>
        <time>2021-08-29T09:01:59.000Z</time>
      </trkpt>
      <trkpt lat="47.14935" lon="-1.63987">
        <ele>71</ele>
        <time>2021-08-29T09:02:01.000Z</time>
      </trkpt>
      <trkpt lat="47.14924" lon="-1.64003">
        <ele>71</ele>
        <time>2021-08-29T09:02:03.000Z</time>
      </trkpt>
      <trkpt lat="47.14912" lon="-1.6402">
        <ele>71</ele>
        <time>2021-08-29T09:02:05.000Z</time>
      </trkpt>
      <trkpt lat="47.14901" lon="-1.64037">
        <ele>71</ele>
        <time>2021-08-29T09:02:07.000Z</time>
      </trkpt>
      <trkpt lat="47.14879" lon="-1.6403">
        <ele>70</ele>
        <time>2021-08-29T09:02:10.000Z</time>
      </trkpt>
      <trkpt lat="47.1487" lon="-1.64014">
        <ele>71</ele>
        <time>2021-08-29T09:02:12.000Z</time>
      </trkpt>
      <trkpt lat="47.14855" lon="-1.63994">
        <ele>72</ele>
        <time>2021-08-29T09:02:15.000Z</time>
      </trkpt>
      <trkpt lat="47.1484" lon="-1.63988">
        <ele>72</ele>
        <time>2021-08-29T09:02:17.000Z</time>
      </trkpt>
      <trkpt lat="47.14825" lon="-1.6399">
        <ele>72</ele>
        <time>2021-08-29T09:02:19.000Z</time>
      </trkpt>
      <trkpt lat="47.14812" lon="-1.64">
        <ele>72</ele>
        <time>2021-08-29T09:02:21.000Z</time>
      </trkpt>
      <trkpt lat="47.148" lon="-1.64012">
        <ele>72</ele>
        <time>2021-08-29T09:02:23.000Z</time>
      </trkpt>
      <trkpt lat="47.14789" lon="-1.64025">
        <ele>71</ele>
        <time>2021-08-29T09:02:25.000Z</time>
      </trkpt>
      <trkpt lat="47.1477" lon="-1.64042">
        <ele>72</ele>
        <time>2021-08-29T09:02:28.000Z</time>
      </trkpt>
      <trkpt lat="47.14757" lon="-1.64052">
        <ele>72</ele>
        <time>2021-08-29T09:02:30.000Z</time>
      </trkpt>
      <trkpt lat="47.14743" lon="-1.64058">
        <ele>72</ele>
        <time>2021-08-29T09:02:32.000Z</time>
      </trkpt>
      <trkpt lat="47.14727" lon="-1.64064">
        <ele>72</ele>
        <time>2021-08-29T09:02:34.000Z</time>
      </trkpt>
      <trkpt lat="47.14713" lon="-1.6407">
        <ele>73</ele>
        <time>2021-08-29T09:02:36.000Z</time>
      </trkpt>
      <trkpt lat="47.14698" lon="-1.64076">
        <ele>73</ele>
        <time>2021-08-29T09:02:38.000Z</time>
      </trkpt>
      <trkpt lat="47.14684" lon="-1.64081">
        <ele>73</ele>
        <time>2021-08-29T09:02:40.000Z</time>
      </trkpt>
      <trkpt lat="47.1467" lon="-1.64087">
        <ele>72</ele>
        <time>2021-08-29T09:02:42.000Z</time>
      </trkpt>
      <trkpt lat="47.14656" lon="-1.64094">
        <ele>72</ele>
        <time>2021-08-29T09:02:44.000Z</time>
      </trkpt>
      <trkpt lat="47.14643" lon="-1.64101">
        <ele>72</ele>
        <time>2021-08-29T09:02:46.000Z</time>
      </trkpt>
      <trkpt lat="47.1463" lon="-1.64109">
        <ele>72</ele>
        <time>2021-08-29T09:02:48.000Z</time>
      </trkpt>
      <trkpt lat="47.14616" lon="-1.64117">
        <ele>72</ele>
        <time>2021-08-29T09:02:50.000Z</time>
      </trkpt>
      <trkpt lat="47.14602" lon="-1.64124">
        <ele>72</ele>
        <time>2021-08-29T09:02:52.000Z</time>
      </trkpt>
      <trkpt lat="47.14589" lon="-1.64132">
        <ele>72</ele>
        <time>2021-08-29T09:02:54.000Z</time>
      </trkpt>
      <trkpt lat="47.14574" lon="-1.64141">
        <ele>71</ele>
        <time>2021-08-29T09:02:56.000Z</time>
      </trkpt>
      <trkpt lat="47.14559" lon="-1.6415">
        <ele>70</ele>
        <time>2021-08-29T09:02:58.000Z</time>
      </trkpt>
      <trkpt lat="47.14545" lon="-1.64159">
        <ele>70</ele>
        <time>2021-08-29T09:03:00.000Z</time>
      </trkpt>
      <trkpt lat="47.14532" lon="-1.64166">
        <ele>71</ele>
        <time>2021-08-29T09:03:02.000Z</time>
      </trkpt>
      <trkpt lat="47.14518" lon="-1.64176">
        <ele>71</ele>
        <time>2021-08-29T09:03:04.000Z</time>
      </trkpt>
      <trkpt lat="47.14504" lon="-1.64185">
        <ele>70</ele>
        <time>2021-08-29T09:03:06.000Z</time>
      </trkpt>
      <trkpt lat="47.14488" lon="-1.64194">
        <ele>69</ele>
        <time>2021-08-29T09:03:08.000Z</time>
      </trkpt>
      <trkpt lat="47.14474" lon="-1.64202">
        <ele>68</ele>
        <time>2021-08-29T09:03:10.000Z</time>
      </trkpt>
      <trkpt lat="47.1446" lon="-1.64211">
        <ele>68</ele>
        <time>2021-08-29T09:03:12.000Z</time>
      </trkpt>
      <trkpt lat="47.14446" lon="-1.64216">
        <ele>69</ele>
        <time>2021-08-29T09:03:14.000Z</time>
      </trkpt>
      <trkpt lat="47.14431" lon="-1.64219">
        <ele>70</ele>
        <time>2021-08-29T09:03:16.000Z</time>
      </trkpt>
      <trkpt lat="47.14416" lon="-1.64221">
        <ele>70</ele>
        <time>2021-08-29T09:03:18.000Z</time>
      </trkpt>
      <trkpt lat="47.144" lon="-1.64223">
        <ele>70</ele>
        <time>2021-08-29T09:03:20.000Z</time>
      </trkpt>
      <trkpt lat="47.14387" lon="-1.64226">
        <ele>70</ele>
        <time>2021-08-29T09:03:22.000Z</time>
      </trkpt>
      <trkpt lat="47.14372" lon="-1.64228">
        <ele>70</ele>
        <time>2021-08-29T09:03:24.000Z</time>
      </trkpt>
      <trkpt lat="47.1436" lon="-1.6423">
        <ele>70</ele>
        <time>2021-08-29T09:03:26.000Z</time>
      </trkpt>
      <trkpt lat="47.14347" lon="-1.64232">
        <ele>70</ele>
        <time>2021-08-29T09:03:28.000Z</time>
      </trkpt>
      <trkpt lat="47.14331" lon="-1.64233">
        <ele>70</ele>
        <time>2021-08-29T09:03:30.000Z</time>
      </trkpt>
      <trkpt lat="47.14317" lon="-1.64237">
        <ele>70</ele>
        <time>2021-08-29T09:03:32.000Z</time>
      </trkpt>
      <trkpt lat="47.14304" lon="-1.64241">
        <ele>70</ele>
        <time>2021-08-29T09:03:34.000Z</time>
      </trkpt>
      <trkpt lat="47.14291" lon="-1.64247">
        <ele>70</ele>
        <time>2021-08-29T09:03:36.000Z</time>
      </trkpt>
      <trkpt lat="47.14277" lon="-1.64255">
        <ele>70</ele>
        <time>2021-08-29T09:03:38.000Z</time>
      </trkpt>
      <trkpt lat="47.14265" lon="-1.64265">
        <ele>69</ele>
        <time>2021-08-29T09:03:40.000Z</time>
      </trkpt>
      <trkpt lat="47.14251" lon="-1.64276">
        <ele>68</ele>
        <time>2021-08-29T09:03:42.000Z</time>
      </trkpt>
      <trkpt lat="47.14237" lon="-1.64288">
        <ele>68</ele>
        <time>2021-08-29T09:03:44.000Z</time>
      </trkpt>
      <trkpt lat="47.14224" lon="-1.643">
        <ele>68</ele>
        <time>2021-08-29T09:03:46.000Z</time>
      </trkpt>
      <trkpt lat="47.14211" lon="-1.64312">
        <ele>68</ele>
        <time>2021-08-29T09:03:48.000Z</time>
      </trkpt>
      <trkpt lat="47.14197" lon="-1.64326">
        <ele>67</ele>
        <time>2021-08-29T09:03:50.000Z</time>
      </trkpt>
      <trkpt lat="47.14185" lon="-1.64341">
        <ele>67</ele>
        <time>2021-08-29T09:03:52.000Z</time>
      </trkpt>
      <trkpt lat="47.14171" lon="-1.64356">
        <ele>67</ele>
        <time>2021-08-29T09:03:54.000Z</time>
      </trkpt>
      <trkpt lat="47.14157" lon="-1.64367">
        <ele>66</ele>
        <time>2021-08-29T09:03:56.000Z</time>
      </trkpt>
      <trkpt lat="47.14144" lon="-1.64377">
        <ele>66</ele>
        <time>2021-08-29T09:03:58.000Z</time>
      </trkpt>
      <trkpt lat="47.1413" lon="-1.64388">
        <ele>65</ele>
        <time>2021-08-29T09:04:00.000Z</time>
      </trkpt>
      <trkpt lat="47.14114" lon="-1.64399">
        <ele>64</ele>
        <time>2021-08-29T09:04:02.000Z</time>
      </trkpt>
      <trkpt lat="47.141" lon="-1.6441">
        <ele>64</ele>
        <time>2021-08-29T09:04:04.000Z</time>
      </trkpt>
      <trkpt lat="47.14086" lon="-1.64421">
        <ele>64</ele>
        <time>2021-08-29T09:04:06.000Z</time>
      </trkpt>
      <trkpt lat="47.14073" lon="-1.64431">
        <ele>63</ele>
        <time>2021-08-29T09:04:08.000Z</time>
      </trkpt>
      <trkpt lat="47.14059" lon="-1.64442">
        <ele>63</ele>
        <time>2021-08-29T09:04:10.000Z</time>
      </trkpt>
      <trkpt lat="47.14046" lon="-1.64452">
        <ele>63</ele>
        <time>2021-08-29T09:04:12.000Z</time>
      </trkpt>
      <trkpt lat="47.14032" lon="-1.64463">
        <ele>63</ele>
        <time>2021-08-29T09:04:14.000Z</time>
      </trkpt>
      <trkpt lat="47.14018" lon="-1.64474">
        <ele>63</ele>
        <time>2021-08-29T09:04:16.000Z</time>
      </trkpt>
      <trkpt lat="47.14005" lon="-1.64484">
        <ele>63</ele>
        <time>2021-08-29T09:04:18.000Z</time>
      </trkpt>
      <trkpt lat="47.13992" lon="-1.64494">
        <ele>62</ele>
        <time>2021-08-29T09:04:20.000Z</time>
      </trkpt>
      <trkpt lat="47.13981" lon="-1.64505">
        <ele>62</ele>
        <time>2021-08-29T09:04:22.000Z</time>
      </trkpt>
      <trkpt lat="47.13967" lon="-1.6452">
        <ele>62</ele>
        <time>2021-08-29T09:04:24.000Z</time>
      </trkpt>
      <trkpt lat="47.13953" lon="-1.64534">
        <ele>61</ele>
        <time>2021-08-29T09:04:26.000Z</time>
      </trkpt>
      <trkpt lat="47.1394" lon="-1.64547">
        <ele>60</ele>
        <time>2021-08-29T09:04:28.000Z</time>
      </trkpt>
      <trkpt lat="47.13927" lon="-1.64559">
        <ele>61</ele>
        <time>2021-08-29T09:04:30.000Z</time>
      </trkpt>
      <trkpt lat="47.13915" lon="-1.64572">
        <ele>61</ele>
        <time>2021-08-29T09:04:32.000Z</time>
      </trkpt>
      <trkpt lat="47.13901" lon="-1.64583">
        <ele>62</ele>
        <time>2021-08-29T09:04:34.000Z</time>
      </trkpt>
      <trkpt lat="47.13888" lon="-1.64592">
        <ele>63</ele>
        <time>2021-08-29T09:04:36.000Z</time>
      </trkpt>
      <trkpt lat="47.13874" lon="-1.64598">
        <ele>64</ele>
        <time>2021-08-29T09:04:38.000Z</time>
      </trkpt>
      <trkpt lat="47.1386" lon="-1.64601">
        <ele>64</ele>
        <time>2021-08-29T09:04:40.000Z</time>
      </trkpt>
      <trkpt lat="47.13846" lon="-1.64603">
        <ele>64</ele>
        <time>2021-08-29T09:04:42.000Z</time>
      </trkpt>
      <trkpt lat="47.13831" lon="-1.64604">
        <ele>64</ele>
        <time>2021-08-29T09:04:44.000Z</time>
      </trkpt>
      <trkpt lat="47.13816" lon="-1.64603">
        <ele>64</ele>
        <time>2021-08-29T09:04:46.000Z</time>
      </trkpt>
      <trkpt lat="47.13803" lon="-1.64601">
        <ele>63</ele>
        <time>2021-08-29T09:04:48.000Z</time>
      </trkpt>
      <trkpt lat="47.1379" lon="-1.64599">
        <ele>63</ele>
        <time>2021-08-29T09:04:50.000Z</time>
      </trkpt>
      <trkpt lat="47.13775" lon="-1.64596">
        <ele>63</ele>
        <time>2021-08-29T09:04:52.000Z</time>
      </trkpt>
      <trkpt lat="47.1376" lon="-1.64592">
        <ele>63</ele>
        <time>2021-08-29T09:04:54.000Z</time>
      </trkpt>
      <trkpt lat="47.13746" lon="-1.6459">
        <ele>63</ele>
        <time>2021-08-29T09:04:56.000Z</time>
      </trkpt>
      <trkpt lat="47.1373" lon="-1.64587">
        <ele>64</ele>
        <time>2021-08-29T09:04:58.000Z</time>
      </trkpt>
      <trkpt lat="47.13716" lon="-1.64584">
        <ele>64</ele>
        <time>2021-08-29T09:05:00.000Z</time>
      </trkpt>
      <trkpt lat="47.13703" lon="-1.64581">
        <ele>64</ele>
        <time>2021-08-29T09:05:02.000Z</time>
      </trkpt>
      <trkpt lat="47.1369" lon="-1.64578">
        <ele>64</ele>
        <time>2021-08-29T09:05:04.000Z</time>
      </trkpt>
      <trkpt lat="47.13678" lon="-1.64575">
        <ele>65</ele>
        <time>2021-08-29T09:05:06.000Z</time>
      </trkpt>
      <trkpt lat="47.13665" lon="-1.64571">
        <ele>66</ele>
        <time>2021-08-29T09:05:08.000Z</time>
      </trkpt>
      <trkpt lat="47.13652" lon="-1.64568">
        <ele>65</ele>
        <time>2021-08-29T09:05:10.000Z</time>
      </trkpt>
      <trkpt lat="47.1364" lon="-1.64565">
        <ele>65</ele>
        <time>2021-08-29T09:05:12.000Z</time>
      </trkpt>
      <trkpt lat="47.13627" lon="-1.64563">
        <ele>66</ele>
        <time>2021-08-29T09:05:14.000Z</time>
      </trkpt>
      <trkpt lat="47.13615" lon="-1.64561">
        <ele>67</ele>
        <time>2021-08-29T09:05:16.000Z</time>
      </trkpt>
      <trkpt lat="47.13603" lon="-1.64558">
        <ele>67</ele>
        <time>2021-08-29T09:05:18.000Z</time>
      </trkpt>
      <trkpt lat="47.13591" lon="-1.64559">
        <ele>67</ele>
        <time>2021-08-29T09:05:20.000Z</time>
      </trkpt>
      <trkpt lat="47.13579" lon="-1.64563">
        <ele>67</ele>
        <time>2021-08-29T09:05:22.000Z</time>
      </trkpt>
      <trkpt lat="47.13567" lon="-1.64569">
        <ele>67</ele>
        <time>2021-08-29T09:05:24.000Z</time>
      </trkpt>
      <trkpt lat="47.13555" lon="-1.64577">
        <ele>67</ele>
        <time>2021-08-29T09:05:26.000Z</time>
      </trkpt>
      <trkpt lat="47.13544" lon="-1.64587">
        <ele>67</ele>
        <time>2021-08-29T09:05:28.000Z</time>
      </trkpt>
      <trkpt lat="47.13533" lon="-1.64598">
        <ele>67</ele>
        <time>2021-08-29T09:05:30.000Z</time>
      </trkpt>
      <trkpt lat="47.13522" lon="-1.64609">
        <ele>67</ele>
        <time>2021-08-29T09:05:32.000Z</time>
      </trkpt>
      <trkpt lat="47.13511" lon="-1.6462">
        <ele>67</ele>
        <time>2021-08-29T09:05:34.000Z</time>
      </trkpt>
      <trkpt lat="47.13501" lon="-1.64631">
        <ele>67</ele>
        <time>2021-08-29T09:05:36.000Z</time>
      </trkpt>
      <trkpt lat="47.1349" lon="-1.64639">
        <ele>67</ele>
        <time>2021-08-29T09:05:38.000Z</time>
      </trkpt>
      <trkpt lat="47.13478" lon="-1.64644">
        <ele>67</ele>
        <time>2021-08-29T09:05:40.000Z</time>
      </trkpt>
      <trkpt lat="47.13466" lon="-1.64647">
        <ele>67</ele>
        <time>2021-08-29T09:05:42.000Z</time>
      </trkpt>
      <trkpt lat="47.13453" lon="-1.64646">
        <ele>67</ele>
        <time>2021-08-29T09:05:44.000Z</time>
      </trkpt>
      <trkpt lat="47.1344" lon="-1.64645">
        <ele>67</ele>
        <time>2021-08-29T09:05:46.000Z</time>
      </trkpt>
      <trkpt lat="47.13428" lon="-1.64644">
        <ele>68</ele>
        <time>2021-08-29T09:05:48.000Z</time>
      </trkpt>
      <trkpt lat="47.13416" lon="-1.64642">
        <ele>67</ele>
        <time>2021-08-29T09:05:50.000Z</time>
      </trkpt>
      <trkpt lat="47.13406" lon="-1.64642">
        <ele>66</ele>
        <time>2021-08-29T09:05:52.000Z</time>
      </trkpt>
      <trkpt lat="47.13395" lon="-1.64637">
        <ele>66</ele>
        <time>2021-08-29T09:05:56.000Z</time>
      </trkpt>
      <trkpt lat="47.13393" lon="-1.64622">
        <ele>67</ele>
        <time>2021-08-29T09:05:58.000Z</time>
      </trkpt>
      <trkpt lat="47.13391" lon="-1.64606">
        <ele>67</ele>
        <time>2021-08-29T09:06:00.000Z</time>
      </trkpt>
      <trkpt lat="47.13388" lon="-1.64589">
        <ele>67</ele>
        <time>2021-08-29T09:06:02.000Z</time>
      </trkpt>
      <trkpt lat="47.13384" lon="-1.64572">
        <ele>68</ele>
        <time>2021-08-29T09:06:04.000Z</time>
      </trkpt>
      <trkpt lat="47.1338" lon="-1.64554">
        <ele>68</ele>
        <time>2021-08-29T09:06:06.000Z</time>
      </trkpt>
      <trkpt lat="47.13376" lon="-1.64537">
        <ele>68</ele>
        <time>2021-08-29T09:06:08.000Z</time>
      </trkpt>
      <trkpt lat="47.13372" lon="-1.64521">
        <ele>68</ele>
        <time>2021-08-29T09:06:10.000Z</time>
      </trkpt>
      <trkpt lat="47.13366" lon="-1.64504">
        <ele>69</ele>
        <time>2021-08-29T09:06:12.000Z</time>
      </trkpt>
      <trkpt lat="47.1336" lon="-1.64488">
        <ele>68</ele>
        <time>2021-08-29T09:06:14.000Z</time>
      </trkpt>
      <trkpt lat="47.13352" lon="-1.64472">
        <ele>68</ele>
        <time>2021-08-29T09:06:16.000Z</time>
      </trkpt>
      <trkpt lat="47.13345" lon="-1.64456">
        <ele>68</ele>
        <time>2021-08-29T09:06:18.000Z</time>
      </trkpt>
      <trkpt lat="47.13338" lon="-1.6444">
        <ele>67</ele>
        <time>2021-08-29T09:06:20.000Z</time>
      </trkpt>
      <trkpt lat="47.1333" lon="-1.64422">
        <ele>66</ele>
        <time>2021-08-29T09:06:22.000Z</time>
      </trkpt>
      <trkpt lat="47.13321" lon="-1.64404">
        <ele>65</ele>
        <time>2021-08-29T09:06:24.000Z</time>
      </trkpt>
      <trkpt lat="47.13312" lon="-1.64386">
        <ele>65</ele>
        <time>2021-08-29T09:06:26.000Z</time>
      </trkpt>
      <trkpt lat="47.13303" lon="-1.64367">
        <ele>65</ele>
        <time>2021-08-29T09:06:28.000Z</time>
      </trkpt>
      <trkpt lat="47.13295" lon="-1.64348">
        <ele>64</ele>
        <time>2021-08-29T09:06:30.000Z</time>
      </trkpt>
      <trkpt lat="47.13286" lon="-1.6433">
        <ele>64</ele>
        <time>2021-08-29T09:06:32.000Z</time>
      </trkpt>
      <trkpt lat="47.13276" lon="-1.6431">
        <ele>64</ele>
        <time>2021-08-29T09:06:34.000Z</time>
      </trkpt>
      <trkpt lat="47.13267" lon="-1.64291">
        <ele>64</ele>
        <time>2021-08-29T09:06:36.000Z</time>
      </trkpt>
      <trkpt lat="47.13257" lon="-1.64271">
        <ele>63</ele>
        <time>2021-08-29T09:06:38.000Z</time>
      </trkpt>
      <trkpt lat="47.13248" lon="-1.64251">
        <ele>62</ele>
        <time>2021-08-29T09:06:40.000Z</time>
      </trkpt>
      <trkpt lat="47.1324" lon="-1.64231">
        <ele>62</ele>
        <time>2021-08-29T09:06:42.000Z</time>
      </trkpt>
      <trkpt lat="47.13231" lon="-1.64212">
        <ele>61</ele>
        <time>2021-08-29T09:06:44.000Z</time>
      </trkpt>
      <trkpt lat="47.13222" lon="-1.64194">
        <ele>61</ele>
        <time>2021-08-29T09:06:46.000Z</time>
      </trkpt>
      <trkpt lat="47.13213" lon="-1.64176">
        <ele>61</ele>
        <time>2021-08-29T09:06:48.000Z</time>
      </trkpt>
      <trkpt lat="47.13205" lon="-1.64157">
        <ele>60</ele>
        <time>2021-08-29T09:06:50.000Z</time>
      </trkpt>
      <trkpt lat="47.13197" lon="-1.64138">
        <ele>60</ele>
        <time>2021-08-29T09:06:52.000Z</time>
      </trkpt>
      <trkpt lat="47.13188" lon="-1.64119">
        <ele>60</ele>
        <time>2021-08-29T09:06:54.000Z</time>
      </trkpt>
      <trkpt lat="47.1318" lon="-1.641">
        <ele>60</ele>
        <time>2021-08-29T09:06:56.000Z</time>
      </trkpt>
      <trkpt lat="47.13171" lon="-1.64081">
        <ele>60</ele>
        <time>2021-08-29T09:06:58.000Z</time>
      </trkpt>
      <trkpt lat="47.13163" lon="-1.64063">
        <ele>60</ele>
        <time>2021-08-29T09:07:00.000Z</time>
      </trkpt>
      <trkpt lat="47.13155" lon="-1.64044">
        <ele>60</ele>
        <time>2021-08-29T09:07:02.000Z</time>
      </trkpt>
      <trkpt lat="47.13149" lon="-1.64026">
        <ele>60</ele>
        <time>2021-08-29T09:07:04.000Z</time>
      </trkpt>
      <trkpt lat="47.13143" lon="-1.64006">
        <ele>60</ele>
        <time>2021-08-29T09:07:06.000Z</time>
      </trkpt>
      <trkpt lat="47.13134" lon="-1.63987">
        <ele>60</ele>
        <time>2021-08-29T09:07:08.000Z</time>
      </trkpt>
      <trkpt lat="47.13125" lon="-1.63968">
        <ele>60</ele>
        <time>2021-08-29T09:07:10.000Z</time>
      </trkpt>
      <trkpt lat="47.13117" lon="-1.63947">
        <ele>59</ele>
        <time>2021-08-29T09:07:12.000Z</time>
      </trkpt>
      <trkpt lat="47.1311" lon="-1.63927">
        <ele>59</ele>
        <time>2021-08-29T09:07:14.000Z</time>
      </trkpt>
      <trkpt lat="47.13102" lon="-1.63906">
        <ele>58</ele>
        <time>2021-08-29T09:07:16.000Z</time>
      </trkpt>
      <trkpt lat="47.13094" lon="-1.63886">
        <ele>58</ele>
        <time>2021-08-29T09:07:18.000Z</time>
      </trkpt>
      <trkpt lat="47.13087" lon="-1.63865">
        <ele>58</ele>
        <time>2021-08-29T09:07:20.000Z</time>
      </trkpt>
      <trkpt lat="47.13079" lon="-1.63845">
        <ele>58</ele>
        <time>2021-08-29T09:07:22.000Z</time>
      </trkpt>
      <trkpt lat="47.13071" lon="-1.63825">
        <ele>57</ele>
        <time>2021-08-29T09:07:24.000Z</time>
      </trkpt>
      <trkpt lat="47.13062" lon="-1.63806">
        <ele>58</ele>
        <time>2021-08-29T09:07:26.000Z</time>
      </trkpt>
      <trkpt lat="47.13055" lon="-1.63787">
        <ele>58</ele>
        <time>2021-08-29T09:07:28.000Z</time>
      </trkpt>
      <trkpt lat="47.13046" lon="-1.63769">
        <ele>58</ele>
        <time>2021-08-29T09:07:30.000Z</time>
      </trkpt>
      <trkpt lat="47.13038" lon="-1.63751">
        <ele>58</ele>
        <time>2021-08-29T09:07:32.000Z</time>
      </trkpt>
      <trkpt lat="47.13029" lon="-1.63734">
        <ele>58</ele>
        <time>2021-08-29T09:07:34.000Z</time>
      </trkpt>
      <trkpt lat="47.13021" lon="-1.63717">
        <ele>58</ele>
        <time>2021-08-29T09:07:36.000Z</time>
      </trkpt>
      <trkpt lat="47.13012" lon="-1.63699">
        <ele>58</ele>
        <time>2021-08-29T09:07:38.000Z</time>
      </trkpt>
      <trkpt lat="47.13003" lon="-1.63681">
        <ele>58</ele>
        <time>2021-08-29T09:07:40.000Z</time>
      </trkpt>
      <trkpt lat="47.12994" lon="-1.63662">
        <ele>57</ele>
        <time>2021-08-29T09:07:42.000Z</time>
      </trkpt>
      <trkpt lat="47.12987" lon="-1.63641">
        <ele>57</ele>
        <time>2021-08-29T09:07:44.000Z</time>
      </trkpt>
      <trkpt lat="47.12981" lon="-1.6362">
        <ele>56</ele>
        <time>2021-08-29T09:07:46.000Z</time>
      </trkpt>
      <trkpt lat="47.12974" lon="-1.63601">
        <ele>56</ele>
        <time>2021-08-29T09:07:48.000Z</time>
      </trkpt>
      <trkpt lat="47.12966" lon="-1.63582">
        <ele>56</ele>
        <time>2021-08-29T09:07:50.000Z</time>
      </trkpt>
      <trkpt lat="47.12959" lon="-1.63564">
        <ele>56</ele>
        <time>2021-08-29T09:07:52.000Z</time>
      </trkpt>
      <trkpt lat="47.12951" lon="-1.63546">
        <ele>56</ele>
        <time>2021-08-29T09:07:54.000Z</time>
      </trkpt>
      <trkpt lat="47.12944" lon="-1.63527">
        <ele>55</ele>
        <time>2021-08-29T09:07:56.000Z</time>
      </trkpt>
      <trkpt lat="47.12937" lon="-1.63508">
        <ele>56</ele>
        <time>2021-08-29T09:07:58.000Z</time>
      </trkpt>
      <trkpt lat="47.12929" lon="-1.63489">
        <ele>56</ele>
        <time>2021-08-29T09:08:00.000Z</time>
      </trkpt>
      <trkpt lat="47.12923" lon="-1.6347">
        <ele>55</ele>
        <time>2021-08-29T09:08:02.000Z</time>
      </trkpt>
      <trkpt lat="47.12915" lon="-1.63451">
        <ele>55</ele>
        <time>2021-08-29T09:08:04.000Z</time>
      </trkpt>
      <trkpt lat="47.12908" lon="-1.63433">
        <ele>56</ele>
        <time>2021-08-29T09:08:06.000Z</time>
      </trkpt>
      <trkpt lat="47.129" lon="-1.63414">
        <ele>55</ele>
        <time>2021-08-29T09:08:08.000Z</time>
      </trkpt>
      <trkpt lat="47.12893" lon="-1.63395">
        <ele>55</ele>
        <time>2021-08-29T09:08:10.000Z</time>
      </trkpt>
      <trkpt lat="47.12886" lon="-1.63376">
        <ele>55</ele>
        <time>2021-08-29T09:08:12.000Z</time>
      </trkpt>
      <trkpt lat="47.12878" lon="-1.63357">
        <ele>54</ele>
        <time>2021-08-29T09:08:14.000Z</time>
      </trkpt>
      <trkpt lat="47.12871" lon="-1.63338">
        <ele>54</ele>
        <time>2021-08-29T09:08:16.000Z</time>
      </trkpt>
      <trkpt lat="47.12864" lon="-1.63319">
        <ele>53</ele>
        <time>2021-08-29T09:08:18.000Z</time>
      </trkpt>
      <trkpt lat="47.12857" lon="-1.63301">
        <ele>53</ele>
        <time>2021-08-29T09:08:20.000Z</time>
      </trkpt>
      <trkpt lat="47.1285" lon="-1.63282">
        <ele>53</ele>
        <time>2021-08-29T09:08:22.000Z</time>
      </trkpt>
      <trkpt lat="47.12843" lon="-1.63265">
        <ele>53</ele>
        <time>2021-08-29T09:08:24.000Z</time>
      </trkpt>
      <trkpt lat="47.12834" lon="-1.63247">
        <ele>54</ele>
        <time>2021-08-29T09:08:26.000Z</time>
      </trkpt>
      <trkpt lat="47.12827" lon="-1.63228">
        <ele>54</ele>
        <time>2021-08-29T09:08:28.000Z</time>
      </trkpt>
      <trkpt lat="47.1282" lon="-1.63209">
        <ele>54</ele>
        <time>2021-08-29T09:08:30.000Z</time>
      </trkpt>
      <trkpt lat="47.12812" lon="-1.6319">
        <ele>54</ele>
        <time>2021-08-29T09:08:32.000Z</time>
      </trkpt>
      <trkpt lat="47.12804" lon="-1.63171">
        <ele>54</ele>
        <time>2021-08-29T09:08:34.000Z</time>
      </trkpt>
      <trkpt lat="47.12796" lon="-1.63152">
        <ele>54</ele>
        <time>2021-08-29T09:08:36.000Z</time>
      </trkpt>
      <trkpt lat="47.12789" lon="-1.63133">
        <ele>54</ele>
        <time>2021-08-29T09:08:38.000Z</time>
      </trkpt>
      <trkpt lat="47.12782" lon="-1.63114">
        <ele>55</ele>
        <time>2021-08-29T09:08:40.000Z</time>
      </trkpt>
      <trkpt lat="47.12775" lon="-1.63094">
        <ele>55</ele>
        <time>2021-08-29T09:08:42.000Z</time>
      </trkpt>
      <trkpt lat="47.12767" lon="-1.63076">
        <ele>55</ele>
        <time>2021-08-29T09:08:44.000Z</time>
      </trkpt>
      <trkpt lat="47.1276" lon="-1.63058">
        <ele>56</ele>
        <time>2021-08-29T09:08:46.000Z</time>
      </trkpt>
      <trkpt lat="47.12753" lon="-1.6304">
        <ele>56</ele>
        <time>2021-08-29T09:08:48.000Z</time>
      </trkpt>
      <trkpt lat="47.12747" lon="-1.63022">
        <ele>56</ele>
        <time>2021-08-29T09:08:50.000Z</time>
      </trkpt>
      <trkpt lat="47.1274" lon="-1.63005">
        <ele>57</ele>
        <time>2021-08-29T09:08:52.000Z</time>
      </trkpt>
      <trkpt lat="47.12733" lon="-1.62988">
        <ele>57</ele>
        <time>2021-08-29T09:08:54.000Z</time>
      </trkpt>
      <trkpt lat="47.12726" lon="-1.6297">
        <ele>57</ele>
        <time>2021-08-29T09:08:56.000Z</time>
      </trkpt>
      <trkpt lat="47.1272" lon="-1.62953">
        <ele>57</ele>
        <time>2021-08-29T09:08:58.000Z</time>
      </trkpt>
      <trkpt lat="47.12714" lon="-1.62936">
        <ele>57</ele>
        <time>2021-08-29T09:09:00.000Z</time>
      </trkpt>
      <trkpt lat="47.12708" lon="-1.62919">
        <ele>57</ele>
        <time>2021-08-29T09:09:02.000Z</time>
      </trkpt>
      <trkpt lat="47.12701" lon="-1.62903">
        <ele>57</ele>
        <time>2021-08-29T09:09:04.000Z</time>
      </trkpt>
      <trkpt lat="47.12695" lon="-1.62886">
        <ele>57</ele>
        <time>2021-08-29T09:09:06.000Z</time>
      </trkpt>
      <trkpt lat="47.12688" lon="-1.6287">
        <ele>58</ele>
        <time>2021-08-29T09:09:08.000Z</time>
      </trkpt>
      <trkpt lat="47.12681" lon="-1.62855">
        <ele>59</ele>
        <time>2021-08-29T09:09:10.000Z</time>
      </trkpt>
      <trkpt lat="47.12674" lon="-1.6284">
        <ele>58</ele>
        <time>2021-08-29T09:09:12.000Z</time>
      </trkpt>
      <trkpt lat="47.12666" lon="-1.62827">
        <ele>59</ele>
        <time>2021-08-29T09:09:14.000Z</time>
      </trkpt>
      <trkpt lat="47.12658" lon="-1.62812">
        <ele>58</ele>
        <time>2021-08-29T09:09:16.000Z</time>
      </trkpt>
      <trkpt lat="47.12652" lon="-1.62794">
        <ele>58</ele>
        <time>2021-08-29T09:09:18.000Z</time>
      </trkpt>
      <trkpt lat="47.12646" lon="-1.62776">
        <ele>58</ele>
        <time>2021-08-29T09:09:20.000Z</time>
      </trkpt>
      <trkpt lat="47.12639" lon="-1.6276">
        <ele>58</ele>
        <time>2021-08-29T09:09:22.000Z</time>
      </trkpt>
      <trkpt lat="47.12631" lon="-1.62744">
        <ele>58</ele>
        <time>2021-08-29T09:09:24.000Z</time>
      </trkpt>
      <trkpt lat="47.12623" lon="-1.62727">
        <ele>57</ele>
        <time>2021-08-29T09:09:26.000Z</time>
      </trkpt>
      <trkpt lat="47.12615" lon="-1.62711">
        <ele>57</ele>
        <time>2021-08-29T09:09:28.000Z</time>
      </trkpt>
      <trkpt lat="47.12608" lon="-1.62694">
        <ele>57</ele>
        <time>2021-08-29T09:09:30.000Z</time>
      </trkpt>
      <trkpt lat="47.126" lon="-1.62678">
        <ele>56</ele>
        <time>2021-08-29T09:09:32.000Z</time>
      </trkpt>
      <trkpt lat="47.12592" lon="-1.62661">
        <ele>56</ele>
        <time>2021-08-29T09:09:34.000Z</time>
      </trkpt>
      <trkpt lat="47.12584" lon="-1.62644">
        <ele>56</ele>
        <time>2021-08-29T09:09:36.000Z</time>
      </trkpt>
      <trkpt lat="47.12578" lon="-1.62626">
        <ele>55</ele>
        <time>2021-08-29T09:09:38.000Z</time>
      </trkpt>
      <trkpt lat="47.12573" lon="-1.62608">
        <ele>55</ele>
        <time>2021-08-29T09:09:40.000Z</time>
      </trkpt>
      <trkpt lat="47.12568" lon="-1.6259">
        <ele>56</ele>
        <time>2021-08-29T09:09:42.000Z</time>
      </trkpt>
      <trkpt lat="47.12564" lon="-1.62571">
        <ele>56</ele>
        <time>2021-08-29T09:09:44.000Z</time>
      </trkpt>
      <trkpt lat="47.1256" lon="-1.62551">
        <ele>56</ele>
        <time>2021-08-29T09:09:46.000Z</time>
      </trkpt>
      <trkpt lat="47.12557" lon="-1.62532">
        <ele>56</ele>
        <time>2021-08-29T09:09:48.000Z</time>
      </trkpt>
      <trkpt lat="47.12553" lon="-1.62512">
        <ele>56</ele>
        <time>2021-08-29T09:09:50.000Z</time>
      </trkpt>
      <trkpt lat="47.12549" lon="-1.62492">
        <ele>55</ele>
        <time>2021-08-29T09:09:52.000Z</time>
      </trkpt>
      <trkpt lat="47.12545" lon="-1.62473">
        <ele>55</ele>
        <time>2021-08-29T09:09:54.000Z</time>
      </trkpt>
      <trkpt lat="47.1254" lon="-1.62454">
        <ele>54</ele>
        <time>2021-08-29T09:09:56.000Z</time>
      </trkpt>
      <trkpt lat="47.12534" lon="-1.62435">
        <ele>54</ele>
        <time>2021-08-29T09:09:58.000Z</time>
      </trkpt>
      <trkpt lat="47.12528" lon="-1.62416">
        <ele>54</ele>
        <time>2021-08-29T09:10:00.000Z</time>
      </trkpt>
      <trkpt lat="47.12522" lon="-1.62397">
        <ele>54</ele>
        <time>2021-08-29T09:10:02.000Z</time>
      </trkpt>
      <trkpt lat="47.12515" lon="-1.62378">
        <ele>54</ele>
        <time>2021-08-29T09:10:04.000Z</time>
      </trkpt>
      <trkpt lat="47.12508" lon="-1.6236">
        <ele>54</ele>
        <time>2021-08-29T09:10:06.000Z</time>
      </trkpt>
      <trkpt lat="47.125" lon="-1.62343">
        <ele>54</ele>
        <time>2021-08-29T09:10:08.000Z</time>
      </trkpt>
      <trkpt lat="47.12491" lon="-1.62327">
        <ele>54</ele>
        <time>2021-08-29T09:10:10.000Z</time>
      </trkpt>
      <trkpt lat="47.12481" lon="-1.6231">
        <ele>53</ele>
        <time>2021-08-29T09:10:12.000Z</time>
      </trkpt>
      <trkpt lat="47.12472" lon="-1.62294">
        <ele>53</ele>
        <time>2021-08-29T09:10:14.000Z</time>
      </trkpt>
      <trkpt lat="47.12462" lon="-1.62279">
        <ele>53</ele>
        <time>2021-08-29T09:10:16.000Z</time>
      </trkpt>
      <trkpt lat="47.12453" lon="-1.62265">
        <ele>53</ele>
        <time>2021-08-29T09:10:18.000Z</time>
      </trkpt>
      <trkpt lat="47.12444" lon="-1.6225">
        <ele>53</ele>
        <time>2021-08-29T09:10:20.000Z</time>
      </trkpt>
      <trkpt lat="47.12434" lon="-1.62236">
        <ele>53</ele>
        <time>2021-08-29T09:10:22.000Z</time>
      </trkpt>
      <trkpt lat="47.12424" lon="-1.62222">
        <ele>53</ele>
        <time>2021-08-29T09:10:24.000Z</time>
      </trkpt>
      <trkpt lat="47.12415" lon="-1.62207">
        <ele>54</ele>
        <time>2021-08-29T09:10:26.000Z</time>
      </trkpt>
      <trkpt lat="47.12407" lon="-1.6219">
        <ele>53</ele>
        <time>2021-08-29T09:10:28.000Z</time>
      </trkpt>
      <trkpt lat="47.12399" lon="-1.62174">
        <ele>53</ele>
        <time>2021-08-29T09:10:30.000Z</time>
      </trkpt>
      <trkpt lat="47.12393" lon="-1.62156">
        <ele>54</ele>
        <time>2021-08-29T09:10:32.000Z</time>
      </trkpt>
      <trkpt lat="47.12388" lon="-1.62137">
        <ele>53</ele>
        <time>2021-08-29T09:10:34.000Z</time>
      </trkpt>
      <trkpt lat="47.12384" lon="-1.62118">
        <ele>54</ele>
        <time>2021-08-29T09:10:36.000Z</time>
      </trkpt>
      <trkpt lat="47.12381" lon="-1.62098">
        <ele>53</ele>
        <time>2021-08-29T09:10:38.000Z</time>
      </trkpt>
      <trkpt lat="47.1238" lon="-1.62079">
        <ele>53</ele>
        <time>2021-08-29T09:10:40.000Z</time>
      </trkpt>
      <trkpt lat="47.1238" lon="-1.62061">
        <ele>53</ele>
        <time>2021-08-29T09:10:42.000Z</time>
      </trkpt>
      <trkpt lat="47.12381" lon="-1.62042">
        <ele>54</ele>
        <time>2021-08-29T09:10:44.000Z</time>
      </trkpt>
      <trkpt lat="47.12383" lon="-1.62024">
        <ele>54</ele>
        <time>2021-08-29T09:10:46.000Z</time>
      </trkpt>
      <trkpt lat="47.12387" lon="-1.62005">
        <ele>54</ele>
        <time>2021-08-29T09:10:48.000Z</time>
      </trkpt>
      <trkpt lat="47.12391" lon="-1.61987">
        <ele>54</ele>
        <time>2021-08-29T09:10:50.000Z</time>
      </trkpt>
      <trkpt lat="47.12396" lon="-1.61968">
        <ele>54</ele>
        <time>2021-08-29T09:10:52.000Z</time>
      </trkpt>
      <trkpt lat="47.12401" lon="-1.6195">
        <ele>53</ele>
        <time>2021-08-29T09:10:54.000Z</time>
      </trkpt>
      <trkpt lat="47.12406" lon="-1.61932">
        <ele>54</ele>
        <time>2021-08-29T09:10:56.000Z</time>
      </trkpt>
      <trkpt lat="47.1241" lon="-1.61916">
        <ele>54</ele>
        <time>2021-08-29T09:10:58.000Z</time>
      </trkpt>
      <trkpt lat="47.12414" lon="-1.61899">
        <ele>54</ele>
        <time>2021-08-29T09:11:00.000Z</time>
      </trkpt>
      <trkpt lat="47.12418" lon="-1.61882">
        <ele>54</ele>
        <time>2021-08-29T09:11:02.000Z</time>
      </trkpt>
      <trkpt lat="47.12424" lon="-1.61867">
        <ele>54</ele>
        <time>2021-08-29T09:11:04.000Z</time>
      </trkpt>
      <trkpt lat="47.12429" lon="-1.61852">
        <ele>54</ele>
        <time>2021-08-29T09:11:06.000Z</time>
      </trkpt>
      <trkpt lat="47.12433" lon="-1.61835">
        <ele>54</ele>
        <time>2021-08-29T09:11:08.000Z</time>
      </trkpt>
      <trkpt lat="47.12436" lon="-1.61817">
        <ele>54</ele>
        <time>2021-08-29T09:11:10.000Z</time>
      </trkpt>
      <trkpt lat="47.1244" lon="-1.618">
        <ele>54</ele>
        <time>2021-08-29T09:11:12.000Z</time>
      </trkpt>
      <trkpt lat="47.12444" lon="-1.61784">
        <ele>54</ele>
        <time>2021-08-29T09:11:14.000Z</time>
      </trkpt>
      <trkpt lat="47.12448" lon="-1.61768">
        <ele>54</ele>
        <time>2021-08-29T09:11:16.000Z</time>
      </trkpt>
      <trkpt lat="47.12453" lon="-1.61752">
        <ele>54</ele>
        <time>2021-08-29T09:11:18.000Z</time>
      </trkpt>
      <trkpt lat="47.12457" lon="-1.61736">
        <ele>54</ele>
        <time>2021-08-29T09:11:20.000Z</time>
      </trkpt>
      <trkpt lat="47.1246" lon="-1.6172">
        <ele>54</ele>
        <time>2021-08-29T09:11:22.000Z</time>
      </trkpt>
      <trkpt lat="47.12464" lon="-1.61704">
        <ele>54</ele>
        <time>2021-08-29T09:11:24.000Z</time>
      </trkpt>
      <trkpt lat="47.12468" lon="-1.61688">
        <ele>55</ele>
        <time>2021-08-29T09:11:26.000Z</time>
      </trkpt>
      <trkpt lat="47.1247" lon="-1.61671">
        <ele>55</ele>
        <time>2021-08-29T09:11:28.000Z</time>
      </trkpt>
      <trkpt lat="47.12474" lon="-1.61655">
        <ele>55</ele>
        <time>2021-08-29T09:11:30.000Z</time>
      </trkpt>
      <trkpt lat="47.12476" lon="-1.61638">
        <ele>55</ele>
        <time>2021-08-29T09:11:32.000Z</time>
      </trkpt>
      <trkpt lat="47.12476" lon="-1.6162">
        <ele>55</ele>
        <time>2021-08-29T09:11:34.000Z</time>
      </trkpt>
      <trkpt lat="47.12475" lon="-1.61603">
        <ele>55</ele>
        <time>2021-08-29T09:11:36.000Z</time>
      </trkpt>
      <trkpt lat="47.12474" lon="-1.61585">
        <ele>55</ele>
        <time>2021-08-29T09:11:38.000Z</time>
      </trkpt>
      <trkpt lat="47.12472" lon="-1.61568">
        <ele>56</ele>
        <time>2021-08-29T09:11:40.000Z</time>
      </trkpt>
      <trkpt lat="47.1247" lon="-1.6155">
        <ele>56</ele>
        <time>2021-08-29T09:11:42.000Z</time>
      </trkpt>
      <trkpt lat="47.12468" lon="-1.61532">
        <ele>56</ele>
        <time>2021-08-29T09:11:44.000Z</time>
      </trkpt>
      <trkpt lat="47.12466" lon="-1.61514">
        <ele>56</ele>
        <time>2021-08-29T09:11:46.000Z</time>
      </trkpt>
      <trkpt lat="47.12464" lon="-1.61496">
        <ele>56</ele>
        <time>2021-08-29T09:11:48.000Z</time>
      </trkpt>
      <trkpt lat="47.12462" lon="-1.61478">
        <ele>55</ele>
        <time>2021-08-29T09:11:50.000Z</time>
      </trkpt>
      <trkpt lat="47.1246" lon="-1.61461">
        <ele>56</ele>
        <time>2021-08-29T09:11:52.000Z</time>
      </trkpt>
      <trkpt lat="47.12458" lon="-1.61444">
        <ele>56</ele>
        <time>2021-08-29T09:11:54.000Z</time>
      </trkpt>
      <trkpt lat="47.12456" lon="-1.61426">
        <ele>56</ele>
        <time>2021-08-29T09:11:56.000Z</time>
      </trkpt>
      <trkpt lat="47.12454" lon="-1.61408">
        <ele>57</ele>
        <time>2021-08-29T09:11:58.000Z</time>
      </trkpt>
      <trkpt lat="47.12453" lon="-1.6139">
        <ele>57</ele>
        <time>2021-08-29T09:12:00.000Z</time>
      </trkpt>
      <trkpt lat="47.12453" lon="-1.61373">
        <ele>57</ele>
        <time>2021-08-29T09:12:02.000Z</time>
      </trkpt>
      <trkpt lat="47.12454" lon="-1.61356">
        <ele>57</ele>
        <time>2021-08-29T09:12:04.000Z</time>
      </trkpt>
      <trkpt lat="47.12457" lon="-1.61339">
        <ele>57</ele>
        <time>2021-08-29T09:12:06.000Z</time>
      </trkpt>
      <trkpt lat="47.12461" lon="-1.61323">
        <ele>57</ele>
        <time>2021-08-29T09:12:08.000Z</time>
      </trkpt>
      <trkpt lat="47.12466" lon="-1.61307">
        <ele>56</ele>
        <time>2021-08-29T09:12:10.000Z</time>
      </trkpt>
      <trkpt lat="47.12471" lon="-1.61291">
        <ele>56</ele>
        <time>2021-08-29T09:12:12.000Z</time>
      </trkpt>
      <trkpt lat="47.12477" lon="-1.61274">
        <ele>56</ele>
        <time>2021-08-29T09:12:14.000Z</time>
      </trkpt>
      <trkpt lat="47.12482" lon="-1.61258">
        <ele>56</ele>
        <time>2021-08-29T09:12:16.000Z</time>
      </trkpt>
      <trkpt lat="47.12487" lon="-1.61243">
        <ele>56</ele>
        <time>2021-08-29T09:12:18.000Z</time>
      </trkpt>
      <trkpt lat="47.12492" lon="-1.61224">
        <ele>55</ele>
        <time>2021-08-29T09:12:20.000Z</time>
      </trkpt>
      <trkpt lat="47.12496" lon="-1.61203">
        <ele>55</ele>
        <time>2021-08-29T09:12:22.000Z</time>
      </trkpt>
      <trkpt lat="47.12499" lon="-1.61182">
        <ele>56</ele>
        <time>2021-08-29T09:12:24.000Z</time>
      </trkpt>
      <trkpt lat="47.12502" lon="-1.61162">
        <ele>56</ele>
        <time>2021-08-29T09:12:26.000Z</time>
      </trkpt>
      <trkpt lat="47.12504" lon="-1.61141">
        <ele>56</ele>
        <time>2021-08-29T09:12:28.000Z</time>
      </trkpt>
      <trkpt lat="47.12505" lon="-1.6112">
        <ele>56</ele>
        <time>2021-08-29T09:12:30.000Z</time>
      </trkpt>
      <trkpt lat="47.12507" lon="-1.61099">
        <ele>56</ele>
        <time>2021-08-29T09:12:32.000Z</time>
      </trkpt>
      <trkpt lat="47.12509" lon="-1.61078">
        <ele>57</ele>
        <time>2021-08-29T09:12:34.000Z</time>
      </trkpt>
      <trkpt lat="47.12511" lon="-1.61057">
        <ele>57</ele>
        <time>2021-08-29T09:12:36.000Z</time>
      </trkpt>
      <trkpt lat="47.12513" lon="-1.61036">
        <ele>57</ele>
        <time>2021-08-29T09:12:38.000Z</time>
      </trkpt>
      <trkpt lat="47.12515" lon="-1.61014">
        <ele>57</ele>
        <time>2021-08-29T09:12:40.000Z</time>
      </trkpt>
      <trkpt lat="47.12517" lon="-1.60994">
        <ele>57</ele>
        <time>2021-08-29T09:12:42.000Z</time>
      </trkpt>
      <trkpt lat="47.12519" lon="-1.60972">
        <ele>57</ele>
        <time>2021-08-29T09:12:44.000Z</time>
      </trkpt>
      <trkpt lat="47.1252" lon="-1.60951">
        <ele>57</ele>
        <time>2021-08-29T09:12:46.000Z</time>
      </trkpt>
      <trkpt lat="47.12522" lon="-1.6093">
        <ele>57</ele>
        <time>2021-08-29T09:12:48.000Z</time>
      </trkpt>
      <trkpt lat="47.12524" lon="-1.6091">
        <ele>57</ele>
        <time>2021-08-29T09:12:50.000Z</time>
      </trkpt>
      <trkpt lat="47.12526" lon="-1.6089">
        <ele>57</ele>
        <time>2021-08-29T09:12:52.000Z</time>
      </trkpt>
      <trkpt lat="47.12529" lon="-1.6087">
        <ele>57</ele>
        <time>2021-08-29T09:12:54.000Z</time>
      </trkpt>
      <trkpt lat="47.1253" lon="-1.60848">
        <ele>57</ele>
        <time>2021-08-29T09:12:56.000Z</time>
      </trkpt>
      <trkpt lat="47.12532" lon="-1.60828">
        <ele>57</ele>
        <time>2021-08-29T09:12:58.000Z</time>
      </trkpt>
      <trkpt lat="47.12535" lon="-1.60808">
        <ele>57</ele>
        <time>2021-08-29T09:13:00.000Z</time>
      </trkpt>
      <trkpt lat="47.12536" lon="-1.60786">
        <ele>58</ele>
        <time>2021-08-29T09:13:02.000Z</time>
      </trkpt>
      <trkpt lat="47.12538" lon="-1.60765">
        <ele>57</ele>
        <time>2021-08-29T09:13:04.000Z</time>
      </trkpt>
      <trkpt lat="47.12539" lon="-1.60743">
        <ele>57</ele>
        <time>2021-08-29T09:13:06.000Z</time>
      </trkpt>
      <trkpt lat="47.1254" lon="-1.60721">
        <ele>57</ele>
        <time>2021-08-29T09:13:08.000Z</time>
      </trkpt>
      <trkpt lat="47.1254" lon="-1.607">
        <ele>57</ele>
        <time>2021-08-29T09:13:10.000Z</time>
      </trkpt>
      <trkpt lat="47.12539" lon="-1.60678">
        <ele>57</ele>
        <time>2021-08-29T09:13:12.000Z</time>
      </trkpt>
      <trkpt lat="47.12538" lon="-1.60657">
        <ele>57</ele>
        <time>2021-08-29T09:13:14.000Z</time>
      </trkpt>
      <trkpt lat="47.12538" lon="-1.60635">
        <ele>56</ele>
        <time>2021-08-29T09:13:16.000Z</time>
      </trkpt>
      <trkpt lat="47.12537" lon="-1.60614">
        <ele>56</ele>
        <time>2021-08-29T09:13:18.000Z</time>
      </trkpt>
      <trkpt lat="47.12536" lon="-1.60593">
        <ele>56</ele>
        <time>2021-08-29T09:13:20.000Z</time>
      </trkpt>
      <trkpt lat="47.12536" lon="-1.60571">
        <ele>56</ele>
        <time>2021-08-29T09:13:22.000Z</time>
      </trkpt>
      <trkpt lat="47.12536" lon="-1.6055">
        <ele>55</ele>
        <time>2021-08-29T09:13:24.000Z</time>
      </trkpt>
      <trkpt lat="47.12534" lon="-1.60528">
        <ele>55</ele>
        <time>2021-08-29T09:13:26.000Z</time>
      </trkpt>
      <trkpt lat="47.12533" lon="-1.60507">
        <ele>55</ele>
        <time>2021-08-29T09:13:28.000Z</time>
      </trkpt>
      <trkpt lat="47.1253" lon="-1.60485">
        <ele>55</ele>
        <time>2021-08-29T09:13:30.000Z</time>
      </trkpt>
      <trkpt lat="47.12527" lon="-1.60464">
        <ele>55</ele>
        <time>2021-08-29T09:13:32.000Z</time>
      </trkpt>
      <trkpt lat="47.12524" lon="-1.60444">
        <ele>55</ele>
        <time>2021-08-29T09:13:34.000Z</time>
      </trkpt>
      <trkpt lat="47.1252" lon="-1.60424">
        <ele>54</ele>
        <time>2021-08-29T09:13:36.000Z</time>
      </trkpt>
      <trkpt lat="47.12516" lon="-1.60403">
        <ele>54</ele>
        <time>2021-08-29T09:13:38.000Z</time>
      </trkpt>
      <trkpt lat="47.12511" lon="-1.60382">
        <ele>54</ele>
        <time>2021-08-29T09:13:40.000Z</time>
      </trkpt>
      <trkpt lat="47.12507" lon="-1.60361">
        <ele>53</ele>
        <time>2021-08-29T09:13:42.000Z</time>
      </trkpt>
      <trkpt lat="47.12503" lon="-1.60339">
        <ele>53</ele>
        <time>2021-08-29T09:13:44.000Z</time>
      </trkpt>
      <trkpt lat="47.12499" lon="-1.60317">
        <ele>53</ele>
        <time>2021-08-29T09:13:46.000Z</time>
      </trkpt>
      <trkpt lat="47.12495" lon="-1.60295">
        <ele>53</ele>
        <time>2021-08-29T09:13:48.000Z</time>
      </trkpt>
      <trkpt lat="47.12491" lon="-1.60274">
        <ele>53</ele>
        <time>2021-08-29T09:13:50.000Z</time>
      </trkpt>
      <trkpt lat="47.12486" lon="-1.60252">
        <ele>53</ele>
        <time>2021-08-29T09:13:52.000Z</time>
      </trkpt>
      <trkpt lat="47.12482" lon="-1.60231">
        <ele>53</ele>
        <time>2021-08-29T09:13:54.000Z</time>
      </trkpt>
      <trkpt lat="47.12478" lon="-1.60209">
        <ele>53</ele>
        <time>2021-08-29T09:13:56.000Z</time>
      </trkpt>
      <trkpt lat="47.12476" lon="-1.60188">
        <ele>53</ele>
        <time>2021-08-29T09:13:58.000Z</time>
      </trkpt>
      <trkpt lat="47.12474" lon="-1.60166">
        <ele>53</ele>
        <time>2021-08-29T09:14:00.000Z</time>
      </trkpt>
      <trkpt lat="47.12473" lon="-1.60144">
        <ele>53</ele>
        <time>2021-08-29T09:14:02.000Z</time>
      </trkpt>
      <trkpt lat="47.12471" lon="-1.60123">
        <ele>53</ele>
        <time>2021-08-29T09:14:04.000Z</time>
      </trkpt>
      <trkpt lat="47.12471" lon="-1.60102">
        <ele>54</ele>
        <time>2021-08-29T09:14:06.000Z</time>
      </trkpt>
      <trkpt lat="47.12469" lon="-1.60081">
        <ele>54</ele>
        <time>2021-08-29T09:14:08.000Z</time>
      </trkpt>
      <trkpt lat="47.12468" lon="-1.60059">
        <ele>54</ele>
        <time>2021-08-29T09:14:10.000Z</time>
      </trkpt>
      <trkpt lat="47.12468" lon="-1.60038">
        <ele>54</ele>
        <time>2021-08-29T09:14:12.000Z</time>
      </trkpt>
      <trkpt lat="47.12467" lon="-1.60017">
        <ele>54</ele>
        <time>2021-08-29T09:14:14.000Z</time>
      </trkpt>
      <trkpt lat="47.12466" lon="-1.59996">
        <ele>54</ele>
        <time>2021-08-29T09:14:16.000Z</time>
      </trkpt>
      <trkpt lat="47.12465" lon="-1.59975">
        <ele>54</ele>
        <time>2021-08-29T09:14:18.000Z</time>
      </trkpt>
      <trkpt lat="47.12464" lon="-1.59954">
        <ele>54</ele>
        <time>2021-08-29T09:14:20.000Z</time>
      </trkpt>
      <trkpt lat="47.12463" lon="-1.59933">
        <ele>54</ele>
        <time>2021-08-29T09:14:22.000Z</time>
      </trkpt>
      <trkpt lat="47.12463" lon="-1.59913">
        <ele>55</ele>
        <time>2021-08-29T09:14:24.000Z</time>
      </trkpt>
      <trkpt lat="47.12462" lon="-1.59893">
        <ele>55</ele>
        <time>2021-08-29T09:14:26.000Z</time>
      </trkpt>
      <trkpt lat="47.12461" lon="-1.59873">
        <ele>56</ele>
        <time>2021-08-29T09:14:28.000Z</time>
      </trkpt>
      <trkpt lat="47.1246" lon="-1.59851">
        <ele>55</ele>
        <time>2021-08-29T09:14:30.000Z</time>
      </trkpt>
      <trkpt lat="47.12458" lon="-1.5983">
        <ele>55</ele>
        <time>2021-08-29T09:14:32.000Z</time>
      </trkpt>
      <trkpt lat="47.12457" lon="-1.5981">
        <ele>55</ele>
        <time>2021-08-29T09:14:34.000Z</time>
      </trkpt>
      <trkpt lat="47.12456" lon="-1.59789">
        <ele>55</ele>
        <time>2021-08-29T09:14:36.000Z</time>
      </trkpt>
      <trkpt lat="47.12455" lon="-1.59768">
        <ele>55</ele>
        <time>2021-08-29T09:14:38.000Z</time>
      </trkpt>
      <trkpt lat="47.12455" lon="-1.59748">
        <ele>55</ele>
        <time>2021-08-29T09:14:40.000Z</time>
      </trkpt>
      <trkpt lat="47.12453" lon="-1.59729">
        <ele>55</ele>
        <time>2021-08-29T09:14:42.000Z</time>
      </trkpt>
      <trkpt lat="47.12453" lon="-1.59708">
        <ele>55</ele>
        <time>2021-08-29T09:14:44.000Z</time>
      </trkpt>
      <trkpt lat="47.12452" lon="-1.59688">
        <ele>55</ele>
        <time>2021-08-29T09:14:46.000Z</time>
      </trkpt>
      <trkpt lat="47.12451" lon="-1.59667">
        <ele>55</ele>
        <time>2021-08-29T09:14:48.000Z</time>
      </trkpt>
      <trkpt lat="47.1245" lon="-1.59645">
        <ele>55</ele>
        <time>2021-08-29T09:14:50.000Z</time>
      </trkpt>
      <trkpt lat="47.12449" lon="-1.59623">
        <ele>54</ele>
        <time>2021-08-29T09:14:52.000Z</time>
      </trkpt>
      <trkpt lat="47.12448" lon="-1.59601">
        <ele>54</ele>
        <time>2021-08-29T09:14:54.000Z</time>
      </trkpt>
      <trkpt lat="47.12447" lon="-1.5958">
        <ele>54</ele>
        <time>2021-08-29T09:14:56.000Z</time>
      </trkpt>
      <trkpt lat="47.12445" lon="-1.59548">
        <ele>54</ele>
        <time>2021-08-29T09:14:59.000Z</time>
      </trkpt>
      <trkpt lat="47.12445" lon="-1.59527">
        <ele>54</ele>
        <time>2021-08-29T09:15:01.000Z</time>
      </trkpt>
      <trkpt lat="47.12444" lon="-1.59505">
        <ele>53</ele>
        <time>2021-08-29T09:15:03.000Z</time>
      </trkpt>
      <trkpt lat="47.12442" lon="-1.59483">
        <ele>53</ele>
        <time>2021-08-29T09:15:05.000Z</time>
      </trkpt>
      <trkpt lat="47.12441" lon="-1.59462">
        <ele>53</ele>
        <time>2021-08-29T09:15:07.000Z</time>
      </trkpt>
      <trkpt lat="47.1244" lon="-1.5944">
        <ele>52</ele>
        <time>2021-08-29T09:15:09.000Z</time>
      </trkpt>
      <trkpt lat="47.12439" lon="-1.59408">
        <ele>52</ele>
        <time>2021-08-29T09:15:12.000Z</time>
      </trkpt>
      <trkpt lat="47.12438" lon="-1.59385">
        <ele>52</ele>
        <time>2021-08-29T09:15:14.000Z</time>
      </trkpt>
      <trkpt lat="47.12437" lon="-1.59364">
        <ele>52</ele>
        <time>2021-08-29T09:15:16.000Z</time>
      </trkpt>
      <trkpt lat="47.12436" lon="-1.59343">
        <ele>52</ele>
        <time>2021-08-29T09:15:18.000Z</time>
      </trkpt>
      <trkpt lat="47.12435" lon="-1.59321">
        <ele>52</ele>
        <time>2021-08-29T09:15:20.000Z</time>
      </trkpt>
      <trkpt lat="47.12433" lon="-1.59301">
        <ele>52</ele>
        <time>2021-08-29T09:15:22.000Z</time>
      </trkpt>
      <trkpt lat="47.12431" lon="-1.5928">
        <ele>52</ele>
        <time>2021-08-29T09:15:24.000Z</time>
      </trkpt>
      <trkpt lat="47.12431" lon="-1.5926">
        <ele>52</ele>
        <time>2021-08-29T09:15:26.000Z</time>
      </trkpt>
      <trkpt lat="47.12429" lon="-1.5924">
        <ele>52</ele>
        <time>2021-08-29T09:15:28.000Z</time>
      </trkpt>
      <trkpt lat="47.12427" lon="-1.5922">
        <ele>52</ele>
        <time>2021-08-29T09:15:30.000Z</time>
      </trkpt>
      <trkpt lat="47.12424" lon="-1.592">
        <ele>51</ele>
        <time>2021-08-29T09:15:32.000Z</time>
      </trkpt>
      <trkpt lat="47.12423" lon="-1.59179">
        <ele>52</ele>
        <time>2021-08-29T09:15:34.000Z</time>
      </trkpt>
      <trkpt lat="47.12425" lon="-1.59147">
        <ele>51</ele>
        <time>2021-08-29T09:15:37.000Z</time>
      </trkpt>
      <trkpt lat="47.12426" lon="-1.59126">
        <ele>51</ele>
        <time>2021-08-29T09:15:39.000Z</time>
      </trkpt>
      <trkpt lat="47.12426" lon="-1.59105">
        <ele>50</ele>
        <time>2021-08-29T09:15:41.000Z</time>
      </trkpt>
      <trkpt lat="47.12425" lon="-1.59084">
        <ele>50</ele>
        <time>2021-08-29T09:15:43.000Z</time>
      </trkpt>
      <trkpt lat="47.12424" lon="-1.59063">
        <ele>50</ele>
        <time>2021-08-29T09:15:45.000Z</time>
      </trkpt>
      <trkpt lat="47.12422" lon="-1.59043">
        <ele>50</ele>
        <time>2021-08-29T09:15:47.000Z</time>
      </trkpt>
      <trkpt lat="47.12421" lon="-1.59024">
        <ele>50</ele>
        <time>2021-08-29T09:15:49.000Z</time>
      </trkpt>
      <trkpt lat="47.1242" lon="-1.59005">
        <ele>50</ele>
        <time>2021-08-29T09:15:51.000Z</time>
      </trkpt>
      <trkpt lat="47.12419" lon="-1.58986">
        <ele>51</ele>
        <time>2021-08-29T09:15:53.000Z</time>
      </trkpt>
      <trkpt lat="47.12418" lon="-1.58968">
        <ele>51</ele>
        <time>2021-08-29T09:15:55.000Z</time>
      </trkpt>
      <trkpt lat="47.12417" lon="-1.58949">
        <ele>52</ele>
        <time>2021-08-29T09:15:57.000Z</time>
      </trkpt>
      <trkpt lat="47.12416" lon="-1.58931">
        <ele>53</ele>
        <time>2021-08-29T09:15:59.000Z</time>
      </trkpt>
      <trkpt lat="47.12415" lon="-1.58913">
        <ele>53</ele>
        <time>2021-08-29T09:16:01.000Z</time>
      </trkpt>
      <trkpt lat="47.12414" lon="-1.58896">
        <ele>53</ele>
        <time>2021-08-29T09:16:03.000Z</time>
      </trkpt>
      <trkpt lat="47.12412" lon="-1.58879">
        <ele>54</ele>
        <time>2021-08-29T09:16:05.000Z</time>
      </trkpt>
      <trkpt lat="47.12411" lon="-1.58862">
        <ele>54</ele>
        <time>2021-08-29T09:16:07.000Z</time>
      </trkpt>
      <trkpt lat="47.12409" lon="-1.58845">
        <ele>55</ele>
        <time>2021-08-29T09:16:09.000Z</time>
      </trkpt>
      <trkpt lat="47.12408" lon="-1.58827">
        <ele>55</ele>
        <time>2021-08-29T09:16:11.000Z</time>
      </trkpt>
      <trkpt lat="47.12405" lon="-1.58809">
        <ele>55</ele>
        <time>2021-08-29T09:16:13.000Z</time>
      </trkpt>
      <trkpt lat="47.12403" lon="-1.58791">
        <ele>55</ele>
        <time>2021-08-29T09:16:15.000Z</time>
      </trkpt>
      <trkpt lat="47.12399" lon="-1.58772">
        <ele>56</ele>
        <time>2021-08-29T09:16:17.000Z</time>
      </trkpt>
      <trkpt lat="47.12396" lon="-1.58753">
        <ele>55</ele>
        <time>2021-08-29T09:16:19.000Z</time>
      </trkpt>
      <trkpt lat="47.12392" lon="-1.58734">
        <ele>55</ele>
        <time>2021-08-29T09:16:21.000Z</time>
      </trkpt>
      <trkpt lat="47.12388" lon="-1.58716">
        <ele>55</ele>
        <time>2021-08-29T09:16:23.000Z</time>
      </trkpt>
      <trkpt lat="47.12384" lon="-1.58697">
        <ele>55</ele>
        <time>2021-08-29T09:16:25.000Z</time>
      </trkpt>
      <trkpt lat="47.12381" lon="-1.58678">
        <ele>55</ele>
        <time>2021-08-29T09:16:27.000Z</time>
      </trkpt>
      <trkpt lat="47.12376" lon="-1.58659">
        <ele>55</ele>
        <time>2021-08-29T09:16:29.000Z</time>
      </trkpt>
      <trkpt lat="47.12372" lon="-1.5864">
        <ele>55</ele>
        <time>2021-08-29T09:16:31.000Z</time>
      </trkpt>
      <trkpt lat="47.12367" lon="-1.5862">
        <ele>55</ele>
        <time>2021-08-29T09:16:33.000Z</time>
      </trkpt>
      <trkpt lat="47.12363" lon="-1.586">
        <ele>55</ele>
        <time>2021-08-29T09:16:35.000Z</time>
      </trkpt>
      <trkpt lat="47.12358" lon="-1.5858">
        <ele>54</ele>
        <time>2021-08-29T09:16:37.000Z</time>
      </trkpt>
      <trkpt lat="47.12353" lon="-1.58559">
        <ele>54</ele>
        <time>2021-08-29T09:16:39.000Z</time>
      </trkpt>
      <trkpt lat="47.12348" lon="-1.58538">
        <ele>54</ele>
        <time>2021-08-29T09:16:41.000Z</time>
      </trkpt>
      <trkpt lat="47.12343" lon="-1.58518">
        <ele>53</ele>
        <time>2021-08-29T09:16:43.000Z</time>
      </trkpt>
      <trkpt lat="47.12339" lon="-1.58497">
        <ele>53</ele>
        <time>2021-08-29T09:16:45.000Z</time>
      </trkpt>
      <trkpt lat="47.12334" lon="-1.58478">
        <ele>53</ele>
        <time>2021-08-29T09:16:47.000Z</time>
      </trkpt>
      <trkpt lat="47.1233" lon="-1.58462">
        <ele>53</ele>
        <time>2021-08-29T09:16:49.000Z</time>
      </trkpt>
      <trkpt lat="47.12323" lon="-1.58449">
        <ele>53</ele>
        <time>2021-08-29T09:16:51.000Z</time>
      </trkpt>
      <trkpt lat="47.12315" lon="-1.58435">
        <ele>54</ele>
        <time>2021-08-29T09:16:53.000Z</time>
      </trkpt>
      <trkpt lat="47.12308" lon="-1.5842">
        <ele>54</ele>
        <time>2021-08-29T09:16:55.000Z</time>
      </trkpt>
      <trkpt lat="47.123" lon="-1.58405">
        <ele>55</ele>
        <time>2021-08-29T09:16:57.000Z</time>
      </trkpt>
      <trkpt lat="47.12295" lon="-1.58386">
        <ele>55</ele>
        <time>2021-08-29T09:16:59.000Z</time>
      </trkpt>
      <trkpt lat="47.12294" lon="-1.58365">
        <ele>55</ele>
        <time>2021-08-29T09:17:01.000Z</time>
      </trkpt>
      <trkpt lat="47.12291" lon="-1.58345">
        <ele>54</ele>
        <time>2021-08-29T09:17:03.000Z</time>
      </trkpt>
      <trkpt lat="47.12279" lon="-1.58331">
        <ele>54</ele>
        <time>2021-08-29T09:17:05.000Z</time>
      </trkpt>
      <trkpt lat="47.12264" lon="-1.58319">
        <ele>54</ele>
        <time>2021-08-29T09:17:07.000Z</time>
      </trkpt>
      <trkpt lat="47.1225" lon="-1.58306">
        <ele>54</ele>
        <time>2021-08-29T09:17:09.000Z</time>
      </trkpt>
      <trkpt lat="47.12238" lon="-1.58294">
        <ele>53</ele>
        <time>2021-08-29T09:17:11.000Z</time>
      </trkpt>
      <trkpt lat="47.12225" lon="-1.58281">
        <ele>53</ele>
        <time>2021-08-29T09:17:13.000Z</time>
      </trkpt>
      <trkpt lat="47.12213" lon="-1.58268">
        <ele>52</ele>
        <time>2021-08-29T09:17:15.000Z</time>
      </trkpt>
      <trkpt lat="47.12202" lon="-1.58256">
        <ele>52</ele>
        <time>2021-08-29T09:17:17.000Z</time>
      </trkpt>
      <trkpt lat="47.1219" lon="-1.58245">
        <ele>52</ele>
        <time>2021-08-29T09:17:19.000Z</time>
      </trkpt>
      <trkpt lat="47.12178" lon="-1.58234">
        <ele>52</ele>
        <time>2021-08-29T09:17:21.000Z</time>
      </trkpt>
      <trkpt lat="47.12166" lon="-1.58222">
        <ele>53</ele>
        <time>2021-08-29T09:17:23.000Z</time>
      </trkpt>
      <trkpt lat="47.12154" lon="-1.58211">
        <ele>53</ele>
        <time>2021-08-29T09:17:25.000Z</time>
      </trkpt>
      <trkpt lat="47.12141" lon="-1.582">
        <ele>54</ele>
        <time>2021-08-29T09:17:27.000Z</time>
      </trkpt>
      <trkpt lat="47.12129" lon="-1.58189">
        <ele>54</ele>
        <time>2021-08-29T09:17:29.000Z</time>
      </trkpt>
      <trkpt lat="47.12118" lon="-1.58178">
        <ele>54</ele>
        <time>2021-08-29T09:17:31.000Z</time>
      </trkpt>
      <trkpt lat="47.12107" lon="-1.58168">
        <ele>55</ele>
        <time>2021-08-29T09:17:33.000Z</time>
      </trkpt>
      <trkpt lat="47.12094" lon="-1.58161">
        <ele>55</ele>
        <time>2021-08-29T09:17:35.000Z</time>
      </trkpt>
      <trkpt lat="47.12081" lon="-1.58153">
        <ele>54</ele>
        <time>2021-08-29T09:17:37.000Z</time>
      </trkpt>
      <trkpt lat="47.12069" lon="-1.58146">
        <ele>55</ele>
        <time>2021-08-29T09:17:39.000Z</time>
      </trkpt>
      <trkpt lat="47.12058" lon="-1.58139">
        <ele>56</ele>
        <time>2021-08-29T09:17:41.000Z</time>
      </trkpt>
      <trkpt lat="47.12046" lon="-1.58131">
        <ele>57</ele>
        <time>2021-08-29T09:17:43.000Z</time>
      </trkpt>
      <trkpt lat="47.12034" lon="-1.58124">
        <ele>57</ele>
        <time>2021-08-29T09:17:45.000Z</time>
      </trkpt>
      <trkpt lat="47.12022" lon="-1.58117">
        <ele>58</ele>
        <time>2021-08-29T09:17:47.000Z</time>
      </trkpt>
      <trkpt lat="47.1201" lon="-1.5811">
        <ele>58</ele>
        <time>2021-08-29T09:17:49.000Z</time>
      </trkpt>
      <trkpt lat="47.11997" lon="-1.58107">
        <ele>58</ele>
        <time>2021-08-29T09:17:51.000Z</time>
      </trkpt>
      <trkpt lat="47.11983" lon="-1.58102">
        <ele>59</ele>
        <time>2021-08-29T09:17:53.000Z</time>
      </trkpt>
      <trkpt lat="47.1197" lon="-1.58098">
        <ele>58</ele>
        <time>2021-08-29T09:17:55.000Z</time>
      </trkpt>
      <trkpt lat="47.11956" lon="-1.58094">
        <ele>58</ele>
        <time>2021-08-29T09:17:57.000Z</time>
      </trkpt>
      <trkpt lat="47.11942" lon="-1.58091">
        <ele>59</ele>
        <time>2021-08-29T09:17:59.000Z</time>
      </trkpt>
      <trkpt lat="47.11928" lon="-1.58088">
        <ele>58</ele>
        <time>2021-08-29T09:18:01.000Z</time>
      </trkpt>
      <trkpt lat="47.11914" lon="-1.58084">
        <ele>58</ele>
        <time>2021-08-29T09:18:03.000Z</time>
      </trkpt>
      <trkpt lat="47.11899" lon="-1.5808">
        <ele>57</ele>
        <time>2021-08-29T09:18:05.000Z</time>
      </trkpt>
      <trkpt lat="47.11885" lon="-1.58076">
        <ele>57</ele>
        <time>2021-08-29T09:18:07.000Z</time>
      </trkpt>
      <trkpt lat="47.11871" lon="-1.58072">
        <ele>56</ele>
        <time>2021-08-29T09:18:09.000Z</time>
      </trkpt>
      <trkpt lat="47.11856" lon="-1.58068">
        <ele>56</ele>
        <time>2021-08-29T09:18:11.000Z</time>
      </trkpt>
      <trkpt lat="47.11841" lon="-1.58065">
        <ele>56</ele>
        <time>2021-08-29T09:18:13.000Z</time>
      </trkpt>
      <trkpt lat="47.11825" lon="-1.58061">
        <ele>56</ele>
        <time>2021-08-29T09:18:15.000Z</time>
      </trkpt>
      <trkpt lat="47.1181" lon="-1.58057">
        <ele>55</ele>
        <time>2021-08-29T09:18:17.000Z</time>
      </trkpt>
      <trkpt lat="47.11794" lon="-1.58054">
        <ele>56</ele>
        <time>2021-08-29T09:18:19.000Z</time>
      </trkpt>
      <trkpt lat="47.11778" lon="-1.5805">
        <ele>55</ele>
        <time>2021-08-29T09:18:21.000Z</time>
      </trkpt>
      <trkpt lat="47.11763" lon="-1.58046">
        <ele>55</ele>
        <time>2021-08-29T09:18:23.000Z</time>
      </trkpt>
      <trkpt lat="47.11748" lon="-1.58043">
        <ele>55</ele>
        <time>2021-08-29T09:18:25.000Z</time>
      </trkpt>
      <trkpt lat="47.11732" lon="-1.58041">
        <ele>55</ele>
        <time>2021-08-29T09:18:27.000Z</time>
      </trkpt>
      <trkpt lat="47.11716" lon="-1.58039">
        <ele>54</ele>
        <time>2021-08-29T09:18:29.000Z</time>
      </trkpt>
      <trkpt lat="47.11701" lon="-1.58038">
        <ele>54</ele>
        <time>2021-08-29T09:18:31.000Z</time>
      </trkpt>
      <trkpt lat="47.11686" lon="-1.58036">
        <ele>54</ele>
        <time>2021-08-29T09:18:33.000Z</time>
      </trkpt>
      <trkpt lat="47.1167" lon="-1.58035">
        <ele>54</ele>
        <time>2021-08-29T09:18:35.000Z</time>
      </trkpt>
      <trkpt lat="47.11656" lon="-1.58038">
        <ele>53</ele>
        <time>2021-08-29T09:18:37.000Z</time>
      </trkpt>
      <trkpt lat="47.11642" lon="-1.58045">
        <ele>53</ele>
        <time>2021-08-29T09:18:39.000Z</time>
      </trkpt>
      <trkpt lat="47.11626" lon="-1.58044">
        <ele>52</ele>
        <time>2021-08-29T09:18:41.000Z</time>
      </trkpt>
      <trkpt lat="47.11612" lon="-1.58036">
        <ele>52</ele>
        <time>2021-08-29T09:18:43.000Z</time>
      </trkpt>
      <trkpt lat="47.11597" lon="-1.58031">
        <ele>52</ele>
        <time>2021-08-29T09:18:45.000Z</time>
      </trkpt>
      <trkpt lat="47.11582" lon="-1.58029">
        <ele>52</ele>
        <time>2021-08-29T09:18:47.000Z</time>
      </trkpt>
      <trkpt lat="47.11567" lon="-1.58028">
        <ele>51</ele>
        <time>2021-08-29T09:18:49.000Z</time>
      </trkpt>
      <trkpt lat="47.11551" lon="-1.58027">
        <ele>51</ele>
        <time>2021-08-29T09:18:51.000Z</time>
      </trkpt>
      <trkpt lat="47.11536" lon="-1.58026">
        <ele>51</ele>
        <time>2021-08-29T09:18:53.000Z</time>
      </trkpt>
      <trkpt lat="47.11521" lon="-1.58026">
        <ele>51</ele>
        <time>2021-08-29T09:18:55.000Z</time>
      </trkpt>
      <trkpt lat="47.11506" lon="-1.58026">
        <ele>51</ele>
        <time>2021-08-29T09:18:57.000Z</time>
      </trkpt>
      <trkpt lat="47.11491" lon="-1.58028">
        <ele>52</ele>
        <time>2021-08-29T09:18:59.000Z</time>
      </trkpt>
      <trkpt lat="47.11475" lon="-1.58031">
        <ele>52</ele>
        <time>2021-08-29T09:19:01.000Z</time>
      </trkpt>
      <trkpt lat="47.11459" lon="-1.58036">
        <ele>52</ele>
        <time>2021-08-29T09:19:03.000Z</time>
      </trkpt>
      <trkpt lat="47.11443" lon="-1.58041">
        <ele>51</ele>
        <time>2021-08-29T09:19:05.000Z</time>
      </trkpt>
      <trkpt lat="47.11428" lon="-1.58048">
        <ele>51</ele>
        <time>2021-08-29T09:19:07.000Z</time>
      </trkpt>
      <trkpt lat="47.11414" lon="-1.58057">
        <ele>50</ele>
        <time>2021-08-29T09:19:09.000Z</time>
      </trkpt>
      <trkpt lat="47.114" lon="-1.58066">
        <ele>50</ele>
        <time>2021-08-29T09:19:11.000Z</time>
      </trkpt>
      <trkpt lat="47.11386" lon="-1.58075">
        <ele>51</ele>
        <time>2021-08-29T09:19:13.000Z</time>
      </trkpt>
      <trkpt lat="47.11372" lon="-1.58084">
        <ele>51</ele>
        <time>2021-08-29T09:19:15.000Z</time>
      </trkpt>
      <trkpt lat="47.11358" lon="-1.58093">
        <ele>51</ele>
        <time>2021-08-29T09:19:17.000Z</time>
      </trkpt>
      <trkpt lat="47.11345" lon="-1.58102">
        <ele>51</ele>
        <time>2021-08-29T09:19:19.000Z</time>
      </trkpt>
      <trkpt lat="47.11331" lon="-1.5811">
        <ele>52</ele>
        <time>2021-08-29T09:19:21.000Z</time>
      </trkpt>
      <trkpt lat="47.11317" lon="-1.58119">
        <ele>52</ele>
        <time>2021-08-29T09:19:23.000Z</time>
      </trkpt>
      <trkpt lat="47.11304" lon="-1.58127">
        <ele>52</ele>
        <time>2021-08-29T09:19:25.000Z</time>
      </trkpt>
      <trkpt lat="47.11291" lon="-1.58137">
        <ele>52</ele>
        <time>2021-08-29T09:19:27.000Z</time>
      </trkpt>
      <trkpt lat="47.11278" lon="-1.58148">
        <ele>52</ele>
        <time>2021-08-29T09:19:29.000Z</time>
      </trkpt>
      <trkpt lat="47.11265" lon="-1.58159">
        <ele>52</ele>
        <time>2021-08-29T09:19:31.000Z</time>
      </trkpt>
      <trkpt lat="47.11253" lon="-1.58172">
        <ele>52</ele>
        <time>2021-08-29T09:19:33.000Z</time>
      </trkpt>
      <trkpt lat="47.11241" lon="-1.58185">
        <ele>52</ele>
        <time>2021-08-29T09:19:35.000Z</time>
      </trkpt>
      <trkpt lat="47.11229" lon="-1.58198">
        <ele>52</ele>
        <time>2021-08-29T09:19:37.000Z</time>
      </trkpt>
      <trkpt lat="47.11218" lon="-1.58211">
        <ele>52</ele>
        <time>2021-08-29T09:19:39.000Z</time>
      </trkpt>
      <trkpt lat="47.11207" lon="-1.58226">
        <ele>52</ele>
        <time>2021-08-29T09:19:41.000Z</time>
      </trkpt>
      <trkpt lat="47.11196" lon="-1.58241">
        <ele>52</ele>
        <time>2021-08-29T09:19:43.000Z</time>
      </trkpt>
      <trkpt lat="47.11186" lon="-1.58256">
        <ele>52</ele>
        <time>2021-08-29T09:19:45.000Z</time>
      </trkpt>
      <trkpt lat="47.11176" lon="-1.58272">
        <ele>53</ele>
        <time>2021-08-29T09:19:47.000Z</time>
      </trkpt>
      <trkpt lat="47.11166" lon="-1.58287">
        <ele>53</ele>
        <time>2021-08-29T09:19:49.000Z</time>
      </trkpt>
      <trkpt lat="47.11156" lon="-1.58302">
        <ele>53</ele>
        <time>2021-08-29T09:19:51.000Z</time>
      </trkpt>
      <trkpt lat="47.11146" lon="-1.58317">
        <ele>54</ele>
        <time>2021-08-29T09:19:53.000Z</time>
      </trkpt>
      <trkpt lat="47.11135" lon="-1.58332">
        <ele>54</ele>
        <time>2021-08-29T09:19:55.000Z</time>
      </trkpt>
      <trkpt lat="47.11125" lon="-1.58348">
        <ele>53</ele>
        <time>2021-08-29T09:19:57.000Z</time>
      </trkpt>
      <trkpt lat="47.11115" lon="-1.58364">
        <ele>54</ele>
        <time>2021-08-29T09:19:59.000Z</time>
      </trkpt>
      <trkpt lat="47.11104" lon="-1.5838">
        <ele>54</ele>
        <time>2021-08-29T09:20:01.000Z</time>
      </trkpt>
      <trkpt lat="47.11094" lon="-1.58395">
        <ele>53</ele>
        <time>2021-08-29T09:20:03.000Z</time>
      </trkpt>
      <trkpt lat="47.11084" lon="-1.58411">
        <ele>53</ele>
        <time>2021-08-29T09:20:05.000Z</time>
      </trkpt>
      <trkpt lat="47.11073" lon="-1.58427">
        <ele>54</ele>
        <time>2021-08-29T09:20:07.000Z</time>
      </trkpt>
      <trkpt lat="47.11063" lon="-1.58443">
        <ele>54</ele>
        <time>2021-08-29T09:20:09.000Z</time>
      </trkpt>
      <trkpt lat="47.11053" lon="-1.58458">
        <ele>54</ele>
        <time>2021-08-29T09:20:11.000Z</time>
      </trkpt>
      <trkpt lat="47.11043" lon="-1.58473">
        <ele>54</ele>
        <time>2021-08-29T09:20:13.000Z</time>
      </trkpt>
      <trkpt lat="47.11033" lon="-1.58488">
        <ele>55</ele>
        <time>2021-08-29T09:20:15.000Z</time>
      </trkpt>
      <trkpt lat="47.11023" lon="-1.58503">
        <ele>55</ele>
        <time>2021-08-29T09:20:17.000Z</time>
      </trkpt>
      <trkpt lat="47.11012" lon="-1.58518">
        <ele>55</ele>
        <time>2021-08-29T09:20:19.000Z</time>
      </trkpt>
      <trkpt lat="47.11002" lon="-1.58534">
        <ele>56</ele>
        <time>2021-08-29T09:20:21.000Z</time>
      </trkpt>
      <trkpt lat="47.10992" lon="-1.58549">
        <ele>56</ele>
        <time>2021-08-29T09:20:23.000Z</time>
      </trkpt>
      <trkpt lat="47.10983" lon="-1.58564">
        <ele>56</ele>
        <time>2021-08-29T09:20:25.000Z</time>
      </trkpt>
      <trkpt lat="47.10973" lon="-1.58579">
        <ele>56</ele>
        <time>2021-08-29T09:20:27.000Z</time>
      </trkpt>
      <trkpt lat="47.10963" lon="-1.58594">
        <ele>56</ele>
        <time>2021-08-29T09:20:29.000Z</time>
      </trkpt>
      <trkpt lat="47.10954" lon="-1.58609">
        <ele>56</ele>
        <time>2021-08-29T09:20:31.000Z</time>
      </trkpt>
      <trkpt lat="47.10945" lon="-1.58624">
        <ele>56</ele>
        <time>2021-08-29T09:20:33.000Z</time>
      </trkpt>
      <trkpt lat="47.10935" lon="-1.5864">
        <ele>56</ele>
        <time>2021-08-29T09:20:35.000Z</time>
      </trkpt>
      <trkpt lat="47.10924" lon="-1.58656">
        <ele>56</ele>
        <time>2021-08-29T09:20:37.000Z</time>
      </trkpt>
      <trkpt lat="47.10914" lon="-1.58671">
        <ele>56</ele>
        <time>2021-08-29T09:20:39.000Z</time>
      </trkpt>
      <trkpt lat="47.10903" lon="-1.58686">
        <ele>57</ele>
        <time>2021-08-29T09:20:41.000Z</time>
      </trkpt>
      <trkpt lat="47.10892" lon="-1.58702">
        <ele>57</ele>
        <time>2021-08-29T09:20:43.000Z</time>
      </trkpt>
      <trkpt lat="47.10881" lon="-1.58719">
        <ele>57</ele>
        <time>2021-08-29T09:20:45.000Z</time>
      </trkpt>
      <trkpt lat="47.10871" lon="-1.58735">
        <ele>58</ele>
        <time>2021-08-29T09:20:47.000Z</time>
      </trkpt>
      <trkpt lat="47.1086" lon="-1.5875">
        <ele>59</ele>
        <time>2021-08-29T09:20:49.000Z</time>
      </trkpt>
      <trkpt lat="47.10849" lon="-1.58765">
        <ele>59</ele>
        <time>2021-08-29T09:20:51.000Z</time>
      </trkpt>
      <trkpt lat="47.10838" lon="-1.5878">
        <ele>60</ele>
        <time>2021-08-29T09:20:53.000Z</time>
      </trkpt>
      <trkpt lat="47.10828" lon="-1.58796">
        <ele>60</ele>
        <time>2021-08-29T09:20:55.000Z</time>
      </trkpt>
      <trkpt lat="47.10818" lon="-1.58811">
        <ele>61</ele>
        <time>2021-08-29T09:20:57.000Z</time>
      </trkpt>
      <trkpt lat="47.10808" lon="-1.58826">
        <ele>61</ele>
        <time>2021-08-29T09:20:59.000Z</time>
      </trkpt>
      <trkpt lat="47.10798" lon="-1.58841">
        <ele>61</ele>
        <time>2021-08-29T09:21:01.000Z</time>
      </trkpt>
      <trkpt lat="47.10788" lon="-1.58857">
        <ele>62</ele>
        <time>2021-08-29T09:21:03.000Z</time>
      </trkpt>
      <trkpt lat="47.10778" lon="-1.58873">
        <ele>62</ele>
        <time>2021-08-29T09:21:05.000Z</time>
      </trkpt>
      <trkpt lat="47.10769" lon="-1.5889">
        <ele>63</ele>
        <time>2021-08-29T09:21:07.000Z</time>
      </trkpt>
      <trkpt lat="47.10758" lon="-1.58907">
        <ele>62</ele>
        <time>2021-08-29T09:21:09.000Z</time>
      </trkpt>
      <trkpt lat="47.10747" lon="-1.58924">
        <ele>62</ele>
        <time>2021-08-29T09:21:11.000Z</time>
      </trkpt>
      <trkpt lat="47.1074" lon="-1.58944">
        <ele>63</ele>
        <time>2021-08-29T09:21:13.000Z</time>
      </trkpt>
      <trkpt lat="47.10732" lon="-1.58963">
        <ele>62</ele>
        <time>2021-08-29T09:21:15.000Z</time>
      </trkpt>
      <trkpt lat="47.10723" lon="-1.58983">
        <ele>62</ele>
        <time>2021-08-29T09:21:17.000Z</time>
      </trkpt>
      <trkpt lat="47.10715" lon="-1.59003">
        <ele>62</ele>
        <time>2021-08-29T09:21:19.000Z</time>
      </trkpt>
      <trkpt lat="47.10707" lon="-1.59024">
        <ele>61</ele>
        <time>2021-08-29T09:21:21.000Z</time>
      </trkpt>
      <trkpt lat="47.10699" lon="-1.59045">
        <ele>61</ele>
        <time>2021-08-29T09:21:23.000Z</time>
      </trkpt>
      <trkpt lat="47.10691" lon="-1.59067">
        <ele>61</ele>
        <time>2021-08-29T09:21:25.000Z</time>
      </trkpt>
      <trkpt lat="47.10683" lon="-1.59088">
        <ele>61</ele>
        <time>2021-08-29T09:21:27.000Z</time>
      </trkpt>
      <trkpt lat="47.10676" lon="-1.5911">
        <ele>60</ele>
        <time>2021-08-29T09:21:29.000Z</time>
      </trkpt>
      <trkpt lat="47.10668" lon="-1.59132">
        <ele>60</ele>
        <time>2021-08-29T09:21:31.000Z</time>
      </trkpt>
      <trkpt lat="47.1066" lon="-1.59154">
        <ele>60</ele>
        <time>2021-08-29T09:21:33.000Z</time>
      </trkpt>
      <trkpt lat="47.10651" lon="-1.59175">
        <ele>59</ele>
        <time>2021-08-29T09:21:35.000Z</time>
      </trkpt>
      <trkpt lat="47.10641" lon="-1.59196">
        <ele>59</ele>
        <time>2021-08-29T09:21:37.000Z</time>
      </trkpt>
      <trkpt lat="47.10631" lon="-1.59217">
        <ele>59</ele>
        <time>2021-08-29T09:21:39.000Z</time>
      </trkpt>
      <trkpt lat="47.10619" lon="-1.59236">
        <ele>59</ele>
        <time>2021-08-29T09:21:41.000Z</time>
      </trkpt>
      <trkpt lat="47.10613" lon="-1.59246">
        <ele>58</ele>
        <time>2021-08-29T09:21:42.000Z</time>
      </trkpt>
      <trkpt lat="47.10607" lon="-1.59256">
        <ele>58</ele>
        <time>2021-08-29T09:21:43.000Z</time>
      </trkpt>
      <trkpt lat="47.10601" lon="-1.59266">
        <ele>58</ele>
        <time>2021-08-29T09:21:44.000Z</time>
      </trkpt>
      <trkpt lat="47.10595" lon="-1.59278">
        <ele>57</ele>
        <time>2021-08-29T09:21:45.000Z</time>
      </trkpt>
      <trkpt lat="47.10589" lon="-1.59289">
        <ele>57</ele>
        <time>2021-08-29T09:21:46.000Z</time>
      </trkpt>
      <trkpt lat="47.10583" lon="-1.59299">
        <ele>57</ele>
        <time>2021-08-29T09:21:47.000Z</time>
      </trkpt>
      <trkpt lat="47.10577" lon="-1.5931">
        <ele>57</ele>
        <time>2021-08-29T09:21:48.000Z</time>
      </trkpt>
      <trkpt lat="47.10572" lon="-1.59321">
        <ele>56</ele>
        <time>2021-08-29T09:21:49.000Z</time>
      </trkpt>
      <trkpt lat="47.10566" lon="-1.59332">
        <ele>56</ele>
        <time>2021-08-29T09:21:50.000Z</time>
      </trkpt>
      <trkpt lat="47.10559" lon="-1.59342">
        <ele>55</ele>
        <time>2021-08-29T09:21:51.000Z</time>
      </trkpt>
      <trkpt lat="47.10553" lon="-1.59353">
        <ele>55</ele>
        <time>2021-08-29T09:21:52.000Z</time>
      </trkpt>
      <trkpt lat="47.10547" lon="-1.59364">
        <ele>55</ele>
        <time>2021-08-29T09:21:53.000Z</time>
      </trkpt>
      <trkpt lat="47.10541" lon="-1.59375">
        <ele>55</ele>
        <time>2021-08-29T09:21:54.000Z</time>
      </trkpt>
      <trkpt lat="47.10534" lon="-1.59386">
        <ele>55</ele>
        <time>2021-08-29T09:21:55.000Z</time>
      </trkpt>
      <trkpt lat="47.10528" lon="-1.59397">
        <ele>55</ele>
        <time>2021-08-29T09:21:56.000Z</time>
      </trkpt>
      <trkpt lat="47.10522" lon="-1.59408">
        <ele>55</ele>
        <time>2021-08-29T09:21:57.000Z</time>
      </trkpt>
      <trkpt lat="47.10516" lon="-1.59418">
        <ele>55</ele>
        <time>2021-08-29T09:21:58.000Z</time>
      </trkpt>
      <trkpt lat="47.1051" lon="-1.59428">
        <ele>55</ele>
        <time>2021-08-29T09:21:59.000Z</time>
      </trkpt>
      <trkpt lat="47.10503" lon="-1.59439">
        <ele>55</ele>
        <time>2021-08-29T09:22:00.000Z</time>
      </trkpt>
      <trkpt lat="47.10497" lon="-1.5945">
        <ele>55</ele>
        <time>2021-08-29T09:22:01.000Z</time>
      </trkpt>
      <trkpt lat="47.1049" lon="-1.5946">
        <ele>54</ele>
        <time>2021-08-29T09:22:02.000Z</time>
      </trkpt>
      <trkpt lat="47.10484" lon="-1.59471">
        <ele>54</ele>
        <time>2021-08-29T09:22:03.000Z</time>
      </trkpt>
      <trkpt lat="47.10477" lon="-1.59482">
        <ele>54</ele>
        <time>2021-08-29T09:22:04.000Z</time>
      </trkpt>
      <trkpt lat="47.10471" lon="-1.59492">
        <ele>54</ele>
        <time>2021-08-29T09:22:05.000Z</time>
      </trkpt>
      <trkpt lat="47.10465" lon="-1.59503">
        <ele>54</ele>
        <time>2021-08-29T09:22:06.000Z</time>
      </trkpt>
      <trkpt lat="47.10458" lon="-1.59515">
        <ele>53</ele>
        <time>2021-08-29T09:22:07.000Z</time>
      </trkpt>
      <trkpt lat="47.10451" lon="-1.59526">
        <ele>53</ele>
        <time>2021-08-29T09:22:08.000Z</time>
      </trkpt>
      <trkpt lat="47.10444" lon="-1.59537">
        <ele>54</ele>
        <time>2021-08-29T09:22:09.000Z</time>
      </trkpt>
      <trkpt lat="47.10438" lon="-1.59548">
        <ele>54</ele>
        <time>2021-08-29T09:22:10.000Z</time>
      </trkpt>
      <trkpt lat="47.10431" lon="-1.5956">
        <ele>54</ele>
        <time>2021-08-29T09:22:11.000Z</time>
      </trkpt>
      <trkpt lat="47.10424" lon="-1.59571">
        <ele>53</ele>
        <time>2021-08-29T09:22:12.000Z</time>
      </trkpt>
      <trkpt lat="47.10417" lon="-1.59582">
        <ele>53</ele>
        <time>2021-08-29T09:22:13.000Z</time>
      </trkpt>
      <trkpt lat="47.1041" lon="-1.59594">
        <ele>54</ele>
        <time>2021-08-29T09:22:14.000Z</time>
      </trkpt>
      <trkpt lat="47.10403" lon="-1.59605">
        <ele>54</ele>
        <time>2021-08-29T09:22:15.000Z</time>
      </trkpt>
      <trkpt lat="47.10395" lon="-1.59618">
        <ele>54</ele>
        <time>2021-08-29T09:22:16.000Z</time>
      </trkpt>
      <trkpt lat="47.10388" lon="-1.5963">
        <ele>54</ele>
        <time>2021-08-29T09:22:17.000Z</time>
      </trkpt>
      <trkpt lat="47.1038" lon="-1.59643">
        <ele>54</ele>
        <time>2021-08-29T09:22:18.000Z</time>
      </trkpt>
      <trkpt lat="47.10372" lon="-1.59656">
        <ele>54</ele>
        <time>2021-08-29T09:22:19.000Z</time>
      </trkpt>
      <trkpt lat="47.10365" lon="-1.59667">
        <ele>54</ele>
        <time>2021-08-29T09:22:20.000Z</time>
      </trkpt>
      <trkpt lat="47.10358" lon="-1.59679">
        <ele>54</ele>
        <time>2021-08-29T09:22:21.000Z</time>
      </trkpt>
      <trkpt lat="47.10351" lon="-1.5969">
        <ele>54</ele>
        <time>2021-08-29T09:22:22.000Z</time>
      </trkpt>
      <trkpt lat="47.10344" lon="-1.59702">
        <ele>54</ele>
        <time>2021-08-29T09:22:23.000Z</time>
      </trkpt>
      <trkpt lat="47.10337" lon="-1.59713">
        <ele>54</ele>
        <time>2021-08-29T09:22:24.000Z</time>
      </trkpt>
      <trkpt lat="47.10331" lon="-1.59724">
        <ele>54</ele>
        <time>2021-08-29T09:22:25.000Z</time>
      </trkpt>
      <trkpt lat="47.10325" lon="-1.59736">
        <ele>54</ele>
        <time>2021-08-29T09:22:26.000Z</time>
      </trkpt>
      <trkpt lat="47.10318" lon="-1.59747">
        <ele>54</ele>
        <time>2021-08-29T09:22:27.000Z</time>
      </trkpt>
      <trkpt lat="47.10311" lon="-1.59758">
        <ele>54</ele>
        <time>2021-08-29T09:22:28.000Z</time>
      </trkpt>
      <trkpt lat="47.10305" lon="-1.59769">
        <ele>54</ele>
        <time>2021-08-29T09:22:29.000Z</time>
      </trkpt>
      <trkpt lat="47.10299" lon="-1.5978">
        <ele>54</ele>
        <time>2021-08-29T09:22:30.000Z</time>
      </trkpt>
      <trkpt lat="47.10293" lon="-1.59791">
        <ele>54</ele>
        <time>2021-08-29T09:22:31.000Z</time>
      </trkpt>
      <trkpt lat="47.10286" lon="-1.59802">
        <ele>54</ele>
        <time>2021-08-29T09:22:32.000Z</time>
      </trkpt>
      <trkpt lat="47.10279" lon="-1.59812">
        <ele>54</ele>
        <time>2021-08-29T09:22:33.000Z</time>
      </trkpt>
      <trkpt lat="47.10273" lon="-1.59823">
        <ele>54</ele>
        <time>2021-08-29T09:22:34.000Z</time>
      </trkpt>
      <trkpt lat="47.10267" lon="-1.59834">
        <ele>54</ele>
        <time>2021-08-29T09:22:35.000Z</time>
      </trkpt>
      <trkpt lat="47.1026" lon="-1.59844">
        <ele>54</ele>
        <time>2021-08-29T09:22:36.000Z</time>
      </trkpt>
      <trkpt lat="47.10254" lon="-1.59855">
        <ele>54</ele>
        <time>2021-08-29T09:22:37.000Z</time>
      </trkpt>
      <trkpt lat="47.10248" lon="-1.59865">
        <ele>54</ele>
        <time>2021-08-29T09:22:38.000Z</time>
      </trkpt>
      <trkpt lat="47.10242" lon="-1.59876">
        <ele>54</ele>
        <time>2021-08-29T09:22:39.000Z</time>
      </trkpt>
      <trkpt lat="47.1023" lon="-1.59895">
        <ele>54</ele>
        <time>2021-08-29T09:22:41.000Z</time>
      </trkpt>
      <trkpt lat="47.10225" lon="-1.59905">
        <ele>54</ele>
        <time>2021-08-29T09:22:42.000Z</time>
      </trkpt>
      <trkpt lat="47.10213" lon="-1.59924">
        <ele>53</ele>
        <time>2021-08-29T09:22:44.000Z</time>
      </trkpt>
      <trkpt lat="47.10202" lon="-1.59943">
        <ele>53</ele>
        <time>2021-08-29T09:22:46.000Z</time>
      </trkpt>
      <trkpt lat="47.10191" lon="-1.59961">
        <ele>52</ele>
        <time>2021-08-29T09:22:48.000Z</time>
      </trkpt>
      <trkpt lat="47.1018" lon="-1.5998">
        <ele>52</ele>
        <time>2021-08-29T09:22:50.000Z</time>
      </trkpt>
      <trkpt lat="47.10169" lon="-1.59998">
        <ele>52</ele>
        <time>2021-08-29T09:22:52.000Z</time>
      </trkpt>
      <trkpt lat="47.10158" lon="-1.60016">
        <ele>51</ele>
        <time>2021-08-29T09:22:54.000Z</time>
      </trkpt>
      <trkpt lat="47.10147" lon="-1.60036">
        <ele>51</ele>
        <time>2021-08-29T09:22:56.000Z</time>
      </trkpt>
      <trkpt lat="47.10137" lon="-1.60054">
        <ele>51</ele>
        <time>2021-08-29T09:22:58.000Z</time>
      </trkpt>
      <trkpt lat="47.10125" lon="-1.60071">
        <ele>51</ele>
        <time>2021-08-29T09:23:00.000Z</time>
      </trkpt>
      <trkpt lat="47.10114" lon="-1.60091">
        <ele>51</ele>
        <time>2021-08-29T09:23:02.000Z</time>
      </trkpt>
      <trkpt lat="47.10106" lon="-1.60113">
        <ele>50</ele>
        <time>2021-08-29T09:23:04.000Z</time>
      </trkpt>
      <trkpt lat="47.10103" lon="-1.60137">
        <ele>50</ele>
        <time>2021-08-29T09:23:06.000Z</time>
      </trkpt>
      <trkpt lat="47.10095" lon="-1.60158">
        <ele>50</ele>
        <time>2021-08-29T09:23:08.000Z</time>
      </trkpt>
      <trkpt lat="47.10086" lon="-1.60178">
        <ele>50</ele>
        <time>2021-08-29T09:23:10.000Z</time>
      </trkpt>
      <trkpt lat="47.10083" lon="-1.60203">
        <ele>50</ele>
        <time>2021-08-29T09:23:12.000Z</time>
      </trkpt>
      <trkpt lat="47.1008" lon="-1.60227">
        <ele>50</ele>
        <time>2021-08-29T09:23:14.000Z</time>
      </trkpt>
      <trkpt lat="47.10078" lon="-1.60249">
        <ele>51</ele>
        <time>2021-08-29T09:23:16.000Z</time>
      </trkpt>
      <trkpt lat="47.10076" lon="-1.60272">
        <ele>51</ele>
        <time>2021-08-29T09:23:18.000Z</time>
      </trkpt>
      <trkpt lat="47.10074" lon="-1.60295">
        <ele>51</ele>
        <time>2021-08-29T09:23:20.000Z</time>
      </trkpt>
      <trkpt lat="47.10072" lon="-1.60319">
        <ele>52</ele>
        <time>2021-08-29T09:23:22.000Z</time>
      </trkpt>
      <trkpt lat="47.10069" lon="-1.60342">
        <ele>52</ele>
        <time>2021-08-29T09:23:24.000Z</time>
      </trkpt>
      <trkpt lat="47.10067" lon="-1.60365">
        <ele>52</ele>
        <time>2021-08-29T09:23:26.000Z</time>
      </trkpt>
      <trkpt lat="47.10065" lon="-1.60387">
        <ele>52</ele>
        <time>2021-08-29T09:23:28.000Z</time>
      </trkpt>
      <trkpt lat="47.10063" lon="-1.6041">
        <ele>52</ele>
        <time>2021-08-29T09:23:30.000Z</time>
      </trkpt>
      <trkpt lat="47.1006" lon="-1.60432">
        <ele>52</ele>
        <time>2021-08-29T09:23:32.000Z</time>
      </trkpt>
      <trkpt lat="47.10056" lon="-1.60454">
        <ele>53</ele>
        <time>2021-08-29T09:23:34.000Z</time>
      </trkpt>
      <trkpt lat="47.10052" lon="-1.60477">
        <ele>53</ele>
        <time>2021-08-29T09:23:36.000Z</time>
      </trkpt>
      <trkpt lat="47.10047" lon="-1.60499">
        <ele>53</ele>
        <time>2021-08-29T09:23:38.000Z</time>
      </trkpt>
      <trkpt lat="47.10041" lon="-1.60521">
        <ele>54</ele>
        <time>2021-08-29T09:23:40.000Z</time>
      </trkpt>
      <trkpt lat="47.10035" lon="-1.60543">
        <ele>54</ele>
        <time>2021-08-29T09:23:42.000Z</time>
      </trkpt>
      <trkpt lat="47.10029" lon="-1.60565">
        <ele>54</ele>
        <time>2021-08-29T09:23:44.000Z</time>
      </trkpt>
      <trkpt lat="47.10023" lon="-1.60587">
        <ele>54</ele>
        <time>2021-08-29T09:23:46.000Z</time>
      </trkpt>
      <trkpt lat="47.10016" lon="-1.60609">
        <ele>54</ele>
        <time>2021-08-29T09:23:48.000Z</time>
      </trkpt>
      <trkpt lat="47.1001" lon="-1.60631">
        <ele>54</ele>
        <time>2021-08-29T09:23:50.000Z</time>
      </trkpt>
      <trkpt lat="47.10003" lon="-1.60652">
        <ele>53</ele>
        <time>2021-08-29T09:23:52.000Z</time>
      </trkpt>
      <trkpt lat="47.09997" lon="-1.60674">
        <ele>53</ele>
        <time>2021-08-29T09:23:54.000Z</time>
      </trkpt>
      <trkpt lat="47.09991" lon="-1.60695">
        <ele>53</ele>
        <time>2021-08-29T09:23:56.000Z</time>
      </trkpt>
      <trkpt lat="47.09984" lon="-1.60717">
        <ele>52</ele>
        <time>2021-08-29T09:23:58.000Z</time>
      </trkpt>
      <trkpt lat="47.09978" lon="-1.60739">
        <ele>52</ele>
        <time>2021-08-29T09:24:00.000Z</time>
      </trkpt>
      <trkpt lat="47.09971" lon="-1.60761">
        <ele>52</ele>
        <time>2021-08-29T09:24:02.000Z</time>
      </trkpt>
      <trkpt lat="47.09965" lon="-1.60783">
        <ele>52</ele>
        <time>2021-08-29T09:24:04.000Z</time>
      </trkpt>
      <trkpt lat="47.09958" lon="-1.60805">
        <ele>52</ele>
        <time>2021-08-29T09:24:06.000Z</time>
      </trkpt>
      <trkpt lat="47.09951" lon="-1.60827">
        <ele>52</ele>
        <time>2021-08-29T09:24:08.000Z</time>
      </trkpt>
      <trkpt lat="47.09944" lon="-1.60848">
        <ele>53</ele>
        <time>2021-08-29T09:24:10.000Z</time>
      </trkpt>
      <trkpt lat="47.09936" lon="-1.60869">
        <ele>53</ele>
        <time>2021-08-29T09:24:12.000Z</time>
      </trkpt>
      <trkpt lat="47.09928" lon="-1.60891">
        <ele>53</ele>
        <time>2021-08-29T09:24:14.000Z</time>
      </trkpt>
      <trkpt lat="47.09919" lon="-1.60912">
        <ele>52</ele>
        <time>2021-08-29T09:24:16.000Z</time>
      </trkpt>
      <trkpt lat="47.0991" lon="-1.60935">
        <ele>52</ele>
        <time>2021-08-29T09:24:18.000Z</time>
      </trkpt>
      <trkpt lat="47.09901" lon="-1.60957">
        <ele>52</ele>
        <time>2021-08-29T09:24:20.000Z</time>
      </trkpt>
      <trkpt lat="47.09892" lon="-1.60979">
        <ele>52</ele>
        <time>2021-08-29T09:24:22.000Z</time>
      </trkpt>
      <trkpt lat="47.09888" lon="-1.60991">
        <ele>51</ele>
        <time>2021-08-29T09:24:23.000Z</time>
      </trkpt>
      <trkpt lat="47.09883" lon="-1.61003">
        <ele>51</ele>
        <time>2021-08-29T09:24:24.000Z</time>
      </trkpt>
      <trkpt lat="47.09879" lon="-1.61015">
        <ele>51</ele>
        <time>2021-08-29T09:24:25.000Z</time>
      </trkpt>
      <trkpt lat="47.09874" lon="-1.61027">
        <ele>51</ele>
        <time>2021-08-29T09:24:26.000Z</time>
      </trkpt>
      <trkpt lat="47.09869" lon="-1.61039">
        <ele>50</ele>
        <time>2021-08-29T09:24:27.000Z</time>
      </trkpt>
      <trkpt lat="47.09864" lon="-1.6105">
        <ele>50</ele>
        <time>2021-08-29T09:24:28.000Z</time>
      </trkpt>
      <trkpt lat="47.09858" lon="-1.61062">
        <ele>50</ele>
        <time>2021-08-29T09:24:29.000Z</time>
      </trkpt>
      <trkpt lat="47.09851" lon="-1.61071">
        <ele>50</ele>
        <time>2021-08-29T09:24:30.000Z</time>
      </trkpt>
      <trkpt lat="47.09844" lon="-1.6108">
        <ele>49</ele>
        <time>2021-08-29T09:24:31.000Z</time>
      </trkpt>
      <trkpt lat="47.09836" lon="-1.61088">
        <ele>49</ele>
        <time>2021-08-29T09:24:32.000Z</time>
      </trkpt>
      <trkpt lat="47.09827" lon="-1.61095">
        <ele>50</ele>
        <time>2021-08-29T09:24:33.000Z</time>
      </trkpt>
      <trkpt lat="47.09818" lon="-1.61101">
        <ele>50</ele>
        <time>2021-08-29T09:24:34.000Z</time>
      </trkpt>
      <trkpt lat="47.09809" lon="-1.61106">
        <ele>49</ele>
        <time>2021-08-29T09:24:35.000Z</time>
      </trkpt>
      <trkpt lat="47.09799" lon="-1.61109">
        <ele>49</ele>
        <time>2021-08-29T09:24:36.000Z</time>
      </trkpt>
      <trkpt lat="47.09789" lon="-1.61111">
        <ele>49</ele>
        <time>2021-08-29T09:24:37.000Z</time>
      </trkpt>
      <trkpt lat="47.09779" lon="-1.61112">
        <ele>49</ele>
        <time>2021-08-29T09:24:38.000Z</time>
      </trkpt>
      <trkpt lat="47.09769" lon="-1.61114">
        <ele>49</ele>
        <time>2021-08-29T09:24:39.000Z</time>
      </trkpt>
      <trkpt lat="47.09759" lon="-1.61115">
        <ele>49</ele>
        <time>2021-08-29T09:24:40.000Z</time>
      </trkpt>
      <trkpt lat="47.0975" lon="-1.61116">
        <ele>48</ele>
        <time>2021-08-29T09:24:41.000Z</time>
      </trkpt>
      <trkpt lat="47.09741" lon="-1.61117">
        <ele>49</ele>
        <time>2021-08-29T09:24:42.000Z</time>
      </trkpt>
      <trkpt lat="47.09724" lon="-1.6112">
        <ele>50</ele>
        <time>2021-08-29T09:24:44.000Z</time>
      </trkpt>
      <trkpt lat="47.09706" lon="-1.61121">
        <ele>51</ele>
        <time>2021-08-29T09:24:46.000Z</time>
      </trkpt>
      <trkpt lat="47.09688" lon="-1.61124">
        <ele>51</ele>
        <time>2021-08-29T09:24:48.000Z</time>
      </trkpt>
      <trkpt lat="47.09679" lon="-1.61125">
        <ele>51</ele>
        <time>2021-08-29T09:24:49.000Z</time>
      </trkpt>
      <trkpt lat="47.0967" lon="-1.61126">
        <ele>51</ele>
        <time>2021-08-29T09:24:50.000Z</time>
      </trkpt>
      <trkpt lat="47.09661" lon="-1.61127">
        <ele>52</ele>
        <time>2021-08-29T09:24:51.000Z</time>
      </trkpt>
      <trkpt lat="47.09651" lon="-1.61128">
        <ele>52</ele>
        <time>2021-08-29T09:24:52.000Z</time>
      </trkpt>
      <trkpt lat="47.09642" lon="-1.61129">
        <ele>52</ele>
        <time>2021-08-29T09:24:53.000Z</time>
      </trkpt>
      <trkpt lat="47.09633" lon="-1.61131">
        <ele>52</ele>
        <time>2021-08-29T09:24:54.000Z</time>
      </trkpt>
      <trkpt lat="47.09616" lon="-1.61133">
        <ele>52</ele>
        <time>2021-08-29T09:24:56.000Z</time>
      </trkpt>
      <trkpt lat="47.096" lon="-1.61135">
        <ele>53</ele>
        <time>2021-08-29T09:24:58.000Z</time>
      </trkpt>
      <trkpt lat="47.09583" lon="-1.61137">
        <ele>53</ele>
        <time>2021-08-29T09:25:00.000Z</time>
      </trkpt>
      <trkpt lat="47.09567" lon="-1.61138">
        <ele>53</ele>
        <time>2021-08-29T09:25:02.000Z</time>
      </trkpt>
      <trkpt lat="47.09552" lon="-1.6114">
        <ele>52</ele>
        <time>2021-08-29T09:25:04.000Z</time>
      </trkpt>
      <trkpt lat="47.09536" lon="-1.61142">
        <ele>52</ele>
        <time>2021-08-29T09:25:06.000Z</time>
      </trkpt>
      <trkpt lat="47.09521" lon="-1.61146">
        <ele>52</ele>
        <time>2021-08-29T09:25:08.000Z</time>
      </trkpt>
      <trkpt lat="47.09507" lon="-1.61151">
        <ele>52</ele>
        <time>2021-08-29T09:25:10.000Z</time>
      </trkpt>
      <trkpt lat="47.09492" lon="-1.6116">
        <ele>52</ele>
        <time>2021-08-29T09:25:12.000Z</time>
      </trkpt>
      <trkpt lat="47.09479" lon="-1.61172">
        <ele>51</ele>
        <time>2021-08-29T09:25:14.000Z</time>
      </trkpt>
      <trkpt lat="47.09466" lon="-1.61185">
        <ele>51</ele>
        <time>2021-08-29T09:25:16.000Z</time>
      </trkpt>
      <trkpt lat="47.09453" lon="-1.612">
        <ele>51</ele>
        <time>2021-08-29T09:25:18.000Z</time>
      </trkpt>
      <trkpt lat="47.09441" lon="-1.61214">
        <ele>51</ele>
        <time>2021-08-29T09:25:20.000Z</time>
      </trkpt>
      <trkpt lat="47.0943" lon="-1.61229">
        <ele>51</ele>
        <time>2021-08-29T09:25:22.000Z</time>
      </trkpt>
      <trkpt lat="47.09418" lon="-1.61239">
        <ele>52</ele>
        <time>2021-08-29T09:25:24.000Z</time>
      </trkpt>
      <trkpt lat="47.09404" lon="-1.61236">
        <ele>53</ele>
        <time>2021-08-29T09:25:26.000Z</time>
      </trkpt>
      <trkpt lat="47.0939" lon="-1.61228">
        <ele>53</ele>
        <time>2021-08-29T09:25:28.000Z</time>
      </trkpt>
      <trkpt lat="47.09376" lon="-1.61223">
        <ele>53</ele>
        <time>2021-08-29T09:25:30.000Z</time>
      </trkpt>
      <trkpt lat="47.09362" lon="-1.61217">
        <ele>53</ele>
        <time>2021-08-29T09:25:32.000Z</time>
      </trkpt>
      <trkpt lat="47.09348" lon="-1.61213">
        <ele>54</ele>
        <time>2021-08-29T09:25:34.000Z</time>
      </trkpt>
      <trkpt lat="47.09335" lon="-1.6121">
        <ele>54</ele>
        <time>2021-08-29T09:25:36.000Z</time>
      </trkpt>
      <trkpt lat="47.09323" lon="-1.61207">
        <ele>55</ele>
        <time>2021-08-29T09:25:38.000Z</time>
      </trkpt>
      <trkpt lat="47.0931" lon="-1.61203">
        <ele>56</ele>
        <time>2021-08-29T09:25:40.000Z</time>
      </trkpt>
      <trkpt lat="47.09297" lon="-1.61199">
        <ele>57</ele>
        <time>2021-08-29T09:25:42.000Z</time>
      </trkpt>
      <trkpt lat="47.09285" lon="-1.61195">
        <ele>57</ele>
        <time>2021-08-29T09:25:44.000Z</time>
      </trkpt>
      <trkpt lat="47.09273" lon="-1.61191">
        <ele>57</ele>
        <time>2021-08-29T09:25:46.000Z</time>
      </trkpt>
      <trkpt lat="47.09262" lon="-1.61189">
        <ele>57</ele>
        <time>2021-08-29T09:25:48.000Z</time>
      </trkpt>
      <trkpt lat="47.09251" lon="-1.61185">
        <ele>58</ele>
        <time>2021-08-29T09:25:51.000Z</time>
      </trkpt>
      <trkpt lat="47.09242" lon="-1.61182">
        <ele>59</ele>
        <time>2021-08-29T09:26:17.000Z</time>
      </trkpt>
      <trkpt lat="47.09231" lon="-1.61175">
        <ele>60</ele>
        <time>2021-08-29T09:26:20.000Z</time>
      </trkpt>
      <trkpt lat="47.09221" lon="-1.61165">
        <ele>60</ele>
        <time>2021-08-29T09:26:22.000Z</time>
      </trkpt>
      <trkpt lat="47.09212" lon="-1.61153">
        <ele>61</ele>
        <time>2021-08-29T09:26:24.000Z</time>
      </trkpt>
      <trkpt lat="47.09208" lon="-1.61136">
        <ele>60</ele>
        <time>2021-08-29T09:26:26.000Z</time>
      </trkpt>
      <trkpt lat="47.09207" lon="-1.61117">
        <ele>61</ele>
        <time>2021-08-29T09:26:28.000Z</time>
      </trkpt>
      <trkpt lat="47.09205" lon="-1.61097">
        <ele>60</ele>
        <time>2021-08-29T09:26:30.000Z</time>
      </trkpt>
      <trkpt lat="47.09204" lon="-1.61077">
        <ele>59</ele>
        <time>2021-08-29T09:26:32.000Z</time>
      </trkpt>
      <trkpt lat="47.09203" lon="-1.61059">
        <ele>59</ele>
        <time>2021-08-29T09:26:34.000Z</time>
      </trkpt>
      <trkpt lat="47.09202" lon="-1.6104">
        <ele>59</ele>
        <time>2021-08-29T09:26:36.000Z</time>
      </trkpt>
      <trkpt lat="47.092" lon="-1.61022">
        <ele>59</ele>
        <time>2021-08-29T09:26:38.000Z</time>
      </trkpt>
      <trkpt lat="47.09199" lon="-1.61004">
        <ele>59</ele>
        <time>2021-08-29T09:26:40.000Z</time>
      </trkpt>
      <trkpt lat="47.09197" lon="-1.60986">
        <ele>59</ele>
        <time>2021-08-29T09:26:42.000Z</time>
      </trkpt>
      <trkpt lat="47.09196" lon="-1.60968">
        <ele>59</ele>
        <time>2021-08-29T09:26:44.000Z</time>
      </trkpt>
      <trkpt lat="47.09194" lon="-1.6095">
        <ele>59</ele>
        <time>2021-08-29T09:26:46.000Z</time>
      </trkpt>
      <trkpt lat="47.09192" lon="-1.60932">
        <ele>58</ele>
        <time>2021-08-29T09:26:48.000Z</time>
      </trkpt>
      <trkpt lat="47.09189" lon="-1.60914">
        <ele>58</ele>
        <time>2021-08-29T09:26:50.000Z</time>
      </trkpt>
      <trkpt lat="47.09186" lon="-1.60896">
        <ele>58</ele>
        <time>2021-08-29T09:26:52.000Z</time>
      </trkpt>
      <trkpt lat="47.09182" lon="-1.60878">
        <ele>58</ele>
        <time>2021-08-29T09:26:54.000Z</time>
      </trkpt>
      <trkpt lat="47.09179" lon="-1.6086">
        <ele>57</ele>
        <time>2021-08-29T09:26:56.000Z</time>
      </trkpt>
      <trkpt lat="47.09175" lon="-1.60842">
        <ele>57</ele>
        <time>2021-08-29T09:26:58.000Z</time>
      </trkpt>
      <trkpt lat="47.0917" lon="-1.60824">
        <ele>57</ele>
        <time>2021-08-29T09:27:00.000Z</time>
      </trkpt>
      <trkpt lat="47.09167" lon="-1.60806">
        <ele>57</ele>
        <time>2021-08-29T09:27:02.000Z</time>
      </trkpt>
      <trkpt lat="47.09163" lon="-1.60789">
        <ele>57</ele>
        <time>2021-08-29T09:27:04.000Z</time>
      </trkpt>
      <trkpt lat="47.09159" lon="-1.60772">
        <ele>56</ele>
        <time>2021-08-29T09:27:06.000Z</time>
      </trkpt>
      <trkpt lat="47.09156" lon="-1.60755">
        <ele>56</ele>
        <time>2021-08-29T09:27:08.000Z</time>
      </trkpt>
      <trkpt lat="47.09152" lon="-1.60739">
        <ele>56</ele>
        <time>2021-08-29T09:27:10.000Z</time>
      </trkpt>
      <trkpt lat="47.09149" lon="-1.60722">
        <ele>56</ele>
        <time>2021-08-29T09:27:12.000Z</time>
      </trkpt>
      <trkpt lat="47.09145" lon="-1.60705">
        <ele>56</ele>
        <time>2021-08-29T09:27:14.000Z</time>
      </trkpt>
      <trkpt lat="47.09141" lon="-1.60688">
        <ele>56</ele>
        <time>2021-08-29T09:27:16.000Z</time>
      </trkpt>
      <trkpt lat="47.09137" lon="-1.60671">
        <ele>56</ele>
        <time>2021-08-29T09:27:18.000Z</time>
      </trkpt>
      <trkpt lat="47.09133" lon="-1.60654">
        <ele>57</ele>
        <time>2021-08-29T09:27:20.000Z</time>
      </trkpt>
      <trkpt lat="47.09129" lon="-1.60636">
        <ele>56</ele>
        <time>2021-08-29T09:27:22.000Z</time>
      </trkpt>
      <trkpt lat="47.09123" lon="-1.60619">
        <ele>56</ele>
        <time>2021-08-29T09:27:24.000Z</time>
      </trkpt>
      <trkpt lat="47.09118" lon="-1.60602">
        <ele>56</ele>
        <time>2021-08-29T09:27:26.000Z</time>
      </trkpt>
      <trkpt lat="47.09112" lon="-1.60586">
        <ele>56</ele>
        <time>2021-08-29T09:27:28.000Z</time>
      </trkpt>
      <trkpt lat="47.09106" lon="-1.60571">
        <ele>55</ele>
        <time>2021-08-29T09:27:30.000Z</time>
      </trkpt>
      <trkpt lat="47.09099" lon="-1.60555">
        <ele>56</ele>
        <time>2021-08-29T09:27:32.000Z</time>
      </trkpt>
      <trkpt lat="47.09093" lon="-1.6054">
        <ele>55</ele>
        <time>2021-08-29T09:27:34.000Z</time>
      </trkpt>
      <trkpt lat="47.09086" lon="-1.60525">
        <ele>56</ele>
        <time>2021-08-29T09:27:36.000Z</time>
      </trkpt>
      <trkpt lat="47.0908" lon="-1.60509">
        <ele>56</ele>
        <time>2021-08-29T09:27:38.000Z</time>
      </trkpt>
      <trkpt lat="47.09073" lon="-1.60494">
        <ele>56</ele>
        <time>2021-08-29T09:27:40.000Z</time>
      </trkpt>
      <trkpt lat="47.09066" lon="-1.6048">
        <ele>56</ele>
        <time>2021-08-29T09:27:42.000Z</time>
      </trkpt>
      <trkpt lat="47.09059" lon="-1.60466">
        <ele>56</ele>
        <time>2021-08-29T09:27:44.000Z</time>
      </trkpt>
      <trkpt lat="47.09052" lon="-1.60451">
        <ele>56</ele>
        <time>2021-08-29T09:27:46.000Z</time>
      </trkpt>
      <trkpt lat="47.09044" lon="-1.60438">
        <ele>56</ele>
        <time>2021-08-29T09:27:48.000Z</time>
      </trkpt>
      <trkpt lat="47.09037" lon="-1.60423">
        <ele>56</ele>
        <time>2021-08-29T09:27:50.000Z</time>
      </trkpt>
      <trkpt lat="47.0903" lon="-1.60408">
        <ele>56</ele>
        <time>2021-08-29T09:27:52.000Z</time>
      </trkpt>
      <trkpt lat="47.09022" lon="-1.60393">
        <ele>57</ele>
        <time>2021-08-29T09:27:54.000Z</time>
      </trkpt>
      <trkpt lat="47.09014" lon="-1.60378">
        <ele>56</ele>
        <time>2021-08-29T09:27:56.000Z</time>
      </trkpt>
      <trkpt lat="47.09007" lon="-1.60364">
        <ele>57</ele>
        <time>2021-08-29T09:27:58.000Z</time>
      </trkpt>
      <trkpt lat="47.09" lon="-1.6035">
        <ele>57</ele>
        <time>2021-08-29T09:28:00.000Z</time>
      </trkpt>
      <trkpt lat="47.08993" lon="-1.60337">
        <ele>57</ele>
        <time>2021-08-29T09:28:02.000Z</time>
      </trkpt>
      <trkpt lat="47.08981" lon="-1.60315">
        <ele>57</ele>
        <time>2021-08-29T09:28:05.000Z</time>
      </trkpt>
      <trkpt lat="47.08974" lon="-1.603">
        <ele>57</ele>
        <time>2021-08-29T09:28:07.000Z</time>
      </trkpt>
      <trkpt lat="47.08966" lon="-1.60284">
        <ele>57</ele>
        <time>2021-08-29T09:28:09.000Z</time>
      </trkpt>
      <trkpt lat="47.08958" lon="-1.60269">
        <ele>57</ele>
        <time>2021-08-29T09:28:11.000Z</time>
      </trkpt>
      <trkpt lat="47.08951" lon="-1.60254">
        <ele>57</ele>
        <time>2021-08-29T09:28:13.000Z</time>
      </trkpt>
      <trkpt lat="47.08944" lon="-1.60239">
        <ele>57</ele>
        <time>2021-08-29T09:28:15.000Z</time>
      </trkpt>
      <trkpt lat="47.08936" lon="-1.60224">
        <ele>57</ele>
        <time>2021-08-29T09:28:17.000Z</time>
      </trkpt>
      <trkpt lat="47.08929" lon="-1.60209">
        <ele>57</ele>
        <time>2021-08-29T09:28:19.000Z</time>
      </trkpt>
      <trkpt lat="47.08921" lon="-1.60194">
        <ele>57</ele>
        <time>2021-08-29T09:28:21.000Z</time>
      </trkpt>
      <trkpt lat="47.08913" lon="-1.6018">
        <ele>57</ele>
        <time>2021-08-29T09:28:23.000Z</time>
      </trkpt>
      <trkpt lat="47.08906" lon="-1.60165">
        <ele>57</ele>
        <time>2021-08-29T09:28:25.000Z</time>
      </trkpt>
      <trkpt lat="47.08898" lon="-1.6015">
        <ele>57</ele>
        <time>2021-08-29T09:28:27.000Z</time>
      </trkpt>
      <trkpt lat="47.08887" lon="-1.60127">
        <ele>57</ele>
        <time>2021-08-29T09:28:30.000Z</time>
      </trkpt>
      <trkpt lat="47.08876" lon="-1.60104">
        <ele>57</ele>
        <time>2021-08-29T09:28:33.000Z</time>
      </trkpt>
      <trkpt lat="47.08868" lon="-1.60089">
        <ele>57</ele>
        <time>2021-08-29T09:28:35.000Z</time>
      </trkpt>
      <trkpt lat="47.0886" lon="-1.60075">
        <ele>57</ele>
        <time>2021-08-29T09:28:37.000Z</time>
      </trkpt>
      <trkpt lat="47.08852" lon="-1.60059">
        <ele>57</ele>
        <time>2021-08-29T09:28:39.000Z</time>
      </trkpt>
      <trkpt lat="47.08844" lon="-1.60042">
        <ele>58</ele>
        <time>2021-08-29T09:28:41.000Z</time>
      </trkpt>
      <trkpt lat="47.08837" lon="-1.60023">
        <ele>58</ele>
        <time>2021-08-29T09:28:43.000Z</time>
      </trkpt>
      <trkpt lat="47.08828" lon="-1.60006">
        <ele>60</ele>
        <time>2021-08-29T09:28:45.000Z</time>
      </trkpt>
      <trkpt lat="47.08818" lon="-1.59988">
        <ele>60</ele>
        <time>2021-08-29T09:28:47.000Z</time>
      </trkpt>
      <trkpt lat="47.08807" lon="-1.5997">
        <ele>58</ele>
        <time>2021-08-29T09:28:49.000Z</time>
      </trkpt>
      <trkpt lat="47.08797" lon="-1.59952">
        <ele>57</ele>
        <time>2021-08-29T09:28:51.000Z</time>
      </trkpt>
      <trkpt lat="47.08788" lon="-1.59934">
        <ele>56</ele>
        <time>2021-08-29T09:28:53.000Z</time>
      </trkpt>
      <trkpt lat="47.08778" lon="-1.59916">
        <ele>56</ele>
        <time>2021-08-29T09:28:55.000Z</time>
      </trkpt>
      <trkpt lat="47.08769" lon="-1.59899">
        <ele>55</ele>
        <time>2021-08-29T09:28:57.000Z</time>
      </trkpt>
      <trkpt lat="47.0876" lon="-1.59881">
        <ele>54</ele>
        <time>2021-08-29T09:28:59.000Z</time>
      </trkpt>
      <trkpt lat="47.08751" lon="-1.59864">
        <ele>54</ele>
        <time>2021-08-29T09:29:01.000Z</time>
      </trkpt>
      <trkpt lat="47.08742" lon="-1.59846">
        <ele>54</ele>
        <time>2021-08-29T09:29:03.000Z</time>
      </trkpt>
      <trkpt lat="47.08733" lon="-1.59829">
        <ele>53</ele>
        <time>2021-08-29T09:29:05.000Z</time>
      </trkpt>
      <trkpt lat="47.08724" lon="-1.59813">
        <ele>54</ele>
        <time>2021-08-29T09:29:07.000Z</time>
      </trkpt>
      <trkpt lat="47.08716" lon="-1.59796">
        <ele>53</ele>
        <time>2021-08-29T09:29:09.000Z</time>
      </trkpt>
      <trkpt lat="47.08708" lon="-1.59779">
        <ele>53</ele>
        <time>2021-08-29T09:29:11.000Z</time>
      </trkpt>
      <trkpt lat="47.087" lon="-1.59762">
        <ele>53</ele>
        <time>2021-08-29T09:29:13.000Z</time>
      </trkpt>
      <trkpt lat="47.08692" lon="-1.59745">
        <ele>52</ele>
        <time>2021-08-29T09:29:15.000Z</time>
      </trkpt>
      <trkpt lat="47.08684" lon="-1.59727">
        <ele>52</ele>
        <time>2021-08-29T09:29:17.000Z</time>
      </trkpt>
      <trkpt lat="47.08677" lon="-1.59709">
        <ele>52</ele>
        <time>2021-08-29T09:29:19.000Z</time>
      </trkpt>
      <trkpt lat="47.0867" lon="-1.59691">
        <ele>51</ele>
        <time>2021-08-29T09:29:21.000Z</time>
      </trkpt>
      <trkpt lat="47.08663" lon="-1.59672">
        <ele>51</ele>
        <time>2021-08-29T09:29:23.000Z</time>
      </trkpt>
      <trkpt lat="47.08656" lon="-1.59655">
        <ele>51</ele>
        <time>2021-08-29T09:29:25.000Z</time>
      </trkpt>
      <trkpt lat="47.08649" lon="-1.59637">
        <ele>52</ele>
        <time>2021-08-29T09:29:27.000Z</time>
      </trkpt>
      <trkpt lat="47.08641" lon="-1.59619">
        <ele>52</ele>
        <time>2021-08-29T09:29:29.000Z</time>
      </trkpt>
      <trkpt lat="47.08634" lon="-1.59602">
        <ele>52</ele>
        <time>2021-08-29T09:29:31.000Z</time>
      </trkpt>
      <trkpt lat="47.08627" lon="-1.59584">
        <ele>52</ele>
        <time>2021-08-29T09:29:33.000Z</time>
      </trkpt>
      <trkpt lat="47.0862" lon="-1.59568">
        <ele>52</ele>
        <time>2021-08-29T09:29:35.000Z</time>
      </trkpt>
      <trkpt lat="47.08614" lon="-1.59552">
        <ele>52</ele>
        <time>2021-08-29T09:29:37.000Z</time>
      </trkpt>
      <trkpt lat="47.08607" lon="-1.59535">
        <ele>52</ele>
        <time>2021-08-29T09:29:39.000Z</time>
      </trkpt>
      <trkpt lat="47.086" lon="-1.59519">
        <ele>52</ele>
        <time>2021-08-29T09:29:41.000Z</time>
      </trkpt>
      <trkpt lat="47.08594" lon="-1.59502">
        <ele>52</ele>
        <time>2021-08-29T09:29:43.000Z</time>
      </trkpt>
      <trkpt lat="47.08586" lon="-1.59485">
        <ele>52</ele>
        <time>2021-08-29T09:29:45.000Z</time>
      </trkpt>
      <trkpt lat="47.0858" lon="-1.59467">
        <ele>52</ele>
        <time>2021-08-29T09:29:47.000Z</time>
      </trkpt>
      <trkpt lat="47.08573" lon="-1.5945">
        <ele>52</ele>
        <time>2021-08-29T09:29:49.000Z</time>
      </trkpt>
      <trkpt lat="47.08566" lon="-1.59434">
        <ele>52</ele>
        <time>2021-08-29T09:29:51.000Z</time>
      </trkpt>
      <trkpt lat="47.0856" lon="-1.59417">
        <ele>51</ele>
        <time>2021-08-29T09:29:53.000Z</time>
      </trkpt>
      <trkpt lat="47.08553" lon="-1.59401">
        <ele>51</ele>
        <time>2021-08-29T09:29:55.000Z</time>
      </trkpt>
      <trkpt lat="47.08546" lon="-1.59384">
        <ele>51</ele>
        <time>2021-08-29T09:29:57.000Z</time>
      </trkpt>
      <trkpt lat="47.08539" lon="-1.59368">
        <ele>51</ele>
        <time>2021-08-29T09:29:59.000Z</time>
      </trkpt>
      <trkpt lat="47.08533" lon="-1.59351">
        <ele>51</ele>
        <time>2021-08-29T09:30:01.000Z</time>
      </trkpt>
      <trkpt lat="47.08525" lon="-1.59335">
        <ele>52</ele>
        <time>2021-08-29T09:30:03.000Z</time>
      </trkpt>
      <trkpt lat="47.08519" lon="-1.59317">
        <ele>51</ele>
        <time>2021-08-29T09:30:05.000Z</time>
      </trkpt>
      <trkpt lat="47.08512" lon="-1.59299">
        <ele>51</ele>
        <time>2021-08-29T09:30:07.000Z</time>
      </trkpt>
      <trkpt lat="47.08506" lon="-1.59283">
        <ele>51</ele>
        <time>2021-08-29T09:30:09.000Z</time>
      </trkpt>
      <trkpt lat="47.085" lon="-1.59267">
        <ele>51</ele>
        <time>2021-08-29T09:30:11.000Z</time>
      </trkpt>
      <trkpt lat="47.08494" lon="-1.59251">
        <ele>51</ele>
        <time>2021-08-29T09:30:13.000Z</time>
      </trkpt>
      <trkpt lat="47.08488" lon="-1.59236">
        <ele>51</ele>
        <time>2021-08-29T09:30:15.000Z</time>
      </trkpt>
      <trkpt lat="47.08481" lon="-1.59221">
        <ele>51</ele>
        <time>2021-08-29T09:30:17.000Z</time>
      </trkpt>
      <trkpt lat="47.08475" lon="-1.59206">
        <ele>52</ele>
        <time>2021-08-29T09:30:19.000Z</time>
      </trkpt>
      <trkpt lat="47.08469" lon="-1.59191">
        <ele>52</ele>
        <time>2021-08-29T09:30:21.000Z</time>
      </trkpt>
      <trkpt lat="47.08463" lon="-1.59175">
        <ele>52</ele>
        <time>2021-08-29T09:30:23.000Z</time>
      </trkpt>
      <trkpt lat="47.08456" lon="-1.5916">
        <ele>52</ele>
        <time>2021-08-29T09:30:25.000Z</time>
      </trkpt>
      <trkpt lat="47.0845" lon="-1.59144">
        <ele>52</ele>
        <time>2021-08-29T09:30:27.000Z</time>
      </trkpt>
      <trkpt lat="47.08444" lon="-1.59128">
        <ele>52</ele>
        <time>2021-08-29T09:30:29.000Z</time>
      </trkpt>
      <trkpt lat="47.08437" lon="-1.59112">
        <ele>52</ele>
        <time>2021-08-29T09:30:31.000Z</time>
      </trkpt>
      <trkpt lat="47.08431" lon="-1.59097">
        <ele>52</ele>
        <time>2021-08-29T09:30:33.000Z</time>
      </trkpt>
      <trkpt lat="47.08424" lon="-1.59081">
        <ele>52</ele>
        <time>2021-08-29T09:30:35.000Z</time>
      </trkpt>
      <trkpt lat="47.08418" lon="-1.59066">
        <ele>52</ele>
        <time>2021-08-29T09:30:37.000Z</time>
      </trkpt>
      <trkpt lat="47.08412" lon="-1.5905">
        <ele>52</ele>
        <time>2021-08-29T09:30:39.000Z</time>
      </trkpt>
      <trkpt lat="47.08406" lon="-1.59035">
        <ele>52</ele>
        <time>2021-08-29T09:30:41.000Z</time>
      </trkpt>
      <trkpt lat="47.084" lon="-1.59019">
        <ele>52</ele>
        <time>2021-08-29T09:30:43.000Z</time>
      </trkpt>
      <trkpt lat="47.08393" lon="-1.59003">
        <ele>52</ele>
        <time>2021-08-29T09:30:45.000Z</time>
      </trkpt>
      <trkpt lat="47.08386" lon="-1.58986">
        <ele>52</ele>
        <time>2021-08-29T09:30:47.000Z</time>
      </trkpt>
      <trkpt lat="47.08379" lon="-1.58969">
        <ele>51</ele>
        <time>2021-08-29T09:30:49.000Z</time>
      </trkpt>
      <trkpt lat="47.08373" lon="-1.58952">
        <ele>51</ele>
        <time>2021-08-29T09:30:51.000Z</time>
      </trkpt>
      <trkpt lat="47.08366" lon="-1.58935">
        <ele>51</ele>
        <time>2021-08-29T09:30:53.000Z</time>
      </trkpt>
      <trkpt lat="47.08358" lon="-1.58917">
        <ele>51</ele>
        <time>2021-08-29T09:30:55.000Z</time>
      </trkpt>
      <trkpt lat="47.08351" lon="-1.58899">
        <ele>51</ele>
        <time>2021-08-29T09:30:57.000Z</time>
      </trkpt>
      <trkpt lat="47.08344" lon="-1.58882">
        <ele>51</ele>
        <time>2021-08-29T09:30:59.000Z</time>
      </trkpt>
      <trkpt lat="47.08337" lon="-1.58865">
        <ele>51</ele>
        <time>2021-08-29T09:31:01.000Z</time>
      </trkpt>
      <trkpt lat="47.0833" lon="-1.58848">
        <ele>51</ele>
        <time>2021-08-29T09:31:03.000Z</time>
      </trkpt>
      <trkpt lat="47.08322" lon="-1.58832">
        <ele>52</ele>
        <time>2021-08-29T09:31:05.000Z</time>
      </trkpt>
      <trkpt lat="47.08316" lon="-1.58815">
        <ele>52</ele>
        <time>2021-08-29T09:31:07.000Z</time>
      </trkpt>
      <trkpt lat="47.08309" lon="-1.58799">
        <ele>52</ele>
        <time>2021-08-29T09:31:09.000Z</time>
      </trkpt>
      <trkpt lat="47.08302" lon="-1.58783">
        <ele>52</ele>
        <time>2021-08-29T09:31:11.000Z</time>
      </trkpt>
      <trkpt lat="47.08296" lon="-1.58767">
        <ele>52</ele>
        <time>2021-08-29T09:31:13.000Z</time>
      </trkpt>
      <trkpt lat="47.0829" lon="-1.58751">
        <ele>52</ele>
        <time>2021-08-29T09:31:15.000Z</time>
      </trkpt>
      <trkpt lat="47.08284" lon="-1.58736">
        <ele>52</ele>
        <time>2021-08-29T09:31:17.000Z</time>
      </trkpt>
      <trkpt lat="47.08278" lon="-1.58719">
        <ele>52</ele>
        <time>2021-08-29T09:31:19.000Z</time>
      </trkpt>
      <trkpt lat="47.08272" lon="-1.58703">
        <ele>52</ele>
        <time>2021-08-29T09:31:21.000Z</time>
      </trkpt>
      <trkpt lat="47.08266" lon="-1.58688">
        <ele>53</ele>
        <time>2021-08-29T09:31:23.000Z</time>
      </trkpt>
      <trkpt lat="47.08259" lon="-1.58672">
        <ele>53</ele>
        <time>2021-08-29T09:31:25.000Z</time>
      </trkpt>
      <trkpt lat="47.08253" lon="-1.58656">
        <ele>53</ele>
        <time>2021-08-29T09:31:27.000Z</time>
      </trkpt>
      <trkpt lat="47.08246" lon="-1.5864">
        <ele>53</ele>
        <time>2021-08-29T09:31:29.000Z</time>
      </trkpt>
      <trkpt lat="47.0824" lon="-1.58625">
        <ele>53</ele>
        <time>2021-08-29T09:31:31.000Z</time>
      </trkpt>
      <trkpt lat="47.08233" lon="-1.58609">
        <ele>53</ele>
        <time>2021-08-29T09:31:33.000Z</time>
      </trkpt>
      <trkpt lat="47.08227" lon="-1.58594">
        <ele>53</ele>
        <time>2021-08-29T09:31:35.000Z</time>
      </trkpt>
      <trkpt lat="47.08221" lon="-1.58579">
        <ele>53</ele>
        <time>2021-08-29T09:31:37.000Z</time>
      </trkpt>
      <trkpt lat="47.08215" lon="-1.58563">
        <ele>53</ele>
        <time>2021-08-29T09:31:39.000Z</time>
      </trkpt>
      <trkpt lat="47.08209" lon="-1.58547">
        <ele>53</ele>
        <time>2021-08-29T09:31:41.000Z</time>
      </trkpt>
      <trkpt lat="47.08202" lon="-1.5853">
        <ele>53</ele>
        <time>2021-08-29T09:31:43.000Z</time>
      </trkpt>
      <trkpt lat="47.08195" lon="-1.58515">
        <ele>52</ele>
        <time>2021-08-29T09:31:45.000Z</time>
      </trkpt>
      <trkpt lat="47.08188" lon="-1.58499">
        <ele>52</ele>
        <time>2021-08-29T09:31:47.000Z</time>
      </trkpt>
      <trkpt lat="47.08181" lon="-1.58484">
        <ele>53</ele>
        <time>2021-08-29T09:31:49.000Z</time>
      </trkpt>
      <trkpt lat="47.08176" lon="-1.5847">
        <ele>53</ele>
        <time>2021-08-29T09:31:51.000Z</time>
      </trkpt>
      <trkpt lat="47.0817" lon="-1.58455">
        <ele>54</ele>
        <time>2021-08-29T09:31:53.000Z</time>
      </trkpt>
      <trkpt lat="47.08163" lon="-1.58438">
        <ele>54</ele>
        <time>2021-08-29T09:31:55.000Z</time>
      </trkpt>
      <trkpt lat="47.08157" lon="-1.58422">
        <ele>54</ele>
        <time>2021-08-29T09:31:57.000Z</time>
      </trkpt>
      <trkpt lat="47.08152" lon="-1.58406">
        <ele>54</ele>
        <time>2021-08-29T09:31:59.000Z</time>
      </trkpt>
      <trkpt lat="47.08148" lon="-1.58389">
        <ele>54</ele>
        <time>2021-08-29T09:32:01.000Z</time>
      </trkpt>
      <trkpt lat="47.08144" lon="-1.58373">
        <ele>54</ele>
        <time>2021-08-29T09:32:03.000Z</time>
      </trkpt>
      <trkpt lat="47.08141" lon="-1.58357">
        <ele>54</ele>
        <time>2021-08-29T09:32:05.000Z</time>
      </trkpt>
      <trkpt lat="47.08139" lon="-1.5834">
        <ele>53</ele>
        <time>2021-08-29T09:32:07.000Z</time>
      </trkpt>
      <trkpt lat="47.08136" lon="-1.58323">
        <ele>54</ele>
        <time>2021-08-29T09:32:09.000Z</time>
      </trkpt>
      <trkpt lat="47.08133" lon="-1.58305">
        <ele>53</ele>
        <time>2021-08-29T09:32:11.000Z</time>
      </trkpt>
      <trkpt lat="47.08131" lon="-1.58286">
        <ele>53</ele>
        <time>2021-08-29T09:32:13.000Z</time>
      </trkpt>
      <trkpt lat="47.08128" lon="-1.58268">
        <ele>53</ele>
        <time>2021-08-29T09:32:15.000Z</time>
      </trkpt>
      <trkpt lat="47.08125" lon="-1.58251">
        <ele>53</ele>
        <time>2021-08-29T09:32:17.000Z</time>
      </trkpt>
      <trkpt lat="47.08121" lon="-1.58233">
        <ele>53</ele>
        <time>2021-08-29T09:32:19.000Z</time>
      </trkpt>
      <trkpt lat="47.08116" lon="-1.58218">
        <ele>54</ele>
        <time>2021-08-29T09:32:21.000Z</time>
      </trkpt>
      <trkpt lat="47.0811" lon="-1.58203">
        <ele>54</ele>
        <time>2021-08-29T09:32:23.000Z</time>
      </trkpt>
      <trkpt lat="47.08104" lon="-1.58189">
        <ele>54</ele>
        <time>2021-08-29T09:32:25.000Z</time>
      </trkpt>
      <trkpt lat="47.08096" lon="-1.58175">
        <ele>54</ele>
        <time>2021-08-29T09:32:27.000Z</time>
      </trkpt>
      <trkpt lat="47.08088" lon="-1.58161">
        <ele>54</ele>
        <time>2021-08-29T09:32:29.000Z</time>
      </trkpt>
      <trkpt lat="47.08081" lon="-1.58147">
        <ele>55</ele>
        <time>2021-08-29T09:32:31.000Z</time>
      </trkpt>
      <trkpt lat="47.08073" lon="-1.58133">
        <ele>55</ele>
        <time>2021-08-29T09:32:33.000Z</time>
      </trkpt>
      <trkpt lat="47.08065" lon="-1.58119">
        <ele>55</ele>
        <time>2021-08-29T09:32:35.000Z</time>
      </trkpt>
      <trkpt lat="47.08057" lon="-1.58105">
        <ele>55</ele>
        <time>2021-08-29T09:32:37.000Z</time>
      </trkpt>
      <trkpt lat="47.0805" lon="-1.58091">
        <ele>55</ele>
        <time>2021-08-29T09:32:39.000Z</time>
      </trkpt>
      <trkpt lat="47.08041" lon="-1.58077">
        <ele>55</ele>
        <time>2021-08-29T09:32:41.000Z</time>
      </trkpt>
      <trkpt lat="47.08033" lon="-1.58062">
        <ele>55</ele>
        <time>2021-08-29T09:32:43.000Z</time>
      </trkpt>
      <trkpt lat="47.08026" lon="-1.58047">
        <ele>54</ele>
        <time>2021-08-29T09:32:45.000Z</time>
      </trkpt>
      <trkpt lat="47.08018" lon="-1.58032">
        <ele>54</ele>
        <time>2021-08-29T09:32:47.000Z</time>
      </trkpt>
      <trkpt lat="47.0801" lon="-1.58016">
        <ele>55</ele>
        <time>2021-08-29T09:32:49.000Z</time>
      </trkpt>
      <trkpt lat="47.08002" lon="-1.58001">
        <ele>54</ele>
        <time>2021-08-29T09:32:51.000Z</time>
      </trkpt>
      <trkpt lat="47.07995" lon="-1.57984">
        <ele>55</ele>
        <time>2021-08-29T09:32:53.000Z</time>
      </trkpt>
      <trkpt lat="47.07988" lon="-1.57967">
        <ele>55</ele>
        <time>2021-08-29T09:32:55.000Z</time>
      </trkpt>
      <trkpt lat="47.07981" lon="-1.5795">
        <ele>55</ele>
        <time>2021-08-29T09:32:57.000Z</time>
      </trkpt>
      <trkpt lat="47.07975" lon="-1.57933">
        <ele>55</ele>
        <time>2021-08-29T09:32:59.000Z</time>
      </trkpt>
      <trkpt lat="47.07968" lon="-1.57917">
        <ele>56</ele>
        <time>2021-08-29T09:33:01.000Z</time>
      </trkpt>
      <trkpt lat="47.07961" lon="-1.579">
        <ele>56</ele>
        <time>2021-08-29T09:33:03.000Z</time>
      </trkpt>
      <trkpt lat="47.07955" lon="-1.57883">
        <ele>55</ele>
        <time>2021-08-29T09:33:05.000Z</time>
      </trkpt>
      <trkpt lat="47.07948" lon="-1.57868">
        <ele>56</ele>
        <time>2021-08-29T09:33:07.000Z</time>
      </trkpt>
      <trkpt lat="47.07942" lon="-1.57851">
        <ele>56</ele>
        <time>2021-08-29T09:33:09.000Z</time>
      </trkpt>
      <trkpt lat="47.07935" lon="-1.57835">
        <ele>56</ele>
        <time>2021-08-29T09:33:11.000Z</time>
      </trkpt>
      <trkpt lat="47.07929" lon="-1.57818">
        <ele>55</ele>
        <time>2021-08-29T09:33:13.000Z</time>
      </trkpt>
      <trkpt lat="47.07922" lon="-1.57801">
        <ele>55</ele>
        <time>2021-08-29T09:33:15.000Z</time>
      </trkpt>
      <trkpt lat="47.07916" lon="-1.57784">
        <ele>54</ele>
        <time>2021-08-29T09:33:17.000Z</time>
      </trkpt>
      <trkpt lat="47.07909" lon="-1.57767">
        <ele>54</ele>
        <time>2021-08-29T09:33:19.000Z</time>
      </trkpt>
      <trkpt lat="47.07903" lon="-1.57751">
        <ele>54</ele>
        <time>2021-08-29T09:33:21.000Z</time>
      </trkpt>
      <trkpt lat="47.07896" lon="-1.57734">
        <ele>54</ele>
        <time>2021-08-29T09:33:23.000Z</time>
      </trkpt>
      <trkpt lat="47.07889" lon="-1.57718">
        <ele>54</ele>
        <time>2021-08-29T09:33:25.000Z</time>
      </trkpt>
      <trkpt lat="47.07883" lon="-1.57702">
        <ele>54</ele>
        <time>2021-08-29T09:33:27.000Z</time>
      </trkpt>
      <trkpt lat="47.07876" lon="-1.57684">
        <ele>54</ele>
        <time>2021-08-29T09:33:29.000Z</time>
      </trkpt>
      <trkpt lat="47.07869" lon="-1.57667">
        <ele>54</ele>
        <time>2021-08-29T09:33:31.000Z</time>
      </trkpt>
      <trkpt lat="47.07862" lon="-1.57649">
        <ele>53</ele>
        <time>2021-08-29T09:33:33.000Z</time>
      </trkpt>
      <trkpt lat="47.07856" lon="-1.57632">
        <ele>53</ele>
        <time>2021-08-29T09:33:35.000Z</time>
      </trkpt>
      <trkpt lat="47.0785" lon="-1.57614">
        <ele>53</ele>
        <time>2021-08-29T09:33:37.000Z</time>
      </trkpt>
      <trkpt lat="47.07844" lon="-1.57597">
        <ele>54</ele>
        <time>2021-08-29T09:33:39.000Z</time>
      </trkpt>
      <trkpt lat="47.07838" lon="-1.5758">
        <ele>55</ele>
        <time>2021-08-29T09:33:41.000Z</time>
      </trkpt>
      <trkpt lat="47.07832" lon="-1.57562">
        <ele>55</ele>
        <time>2021-08-29T09:33:43.000Z</time>
      </trkpt>
      <trkpt lat="47.07827" lon="-1.57545">
        <ele>56</ele>
        <time>2021-08-29T09:33:45.000Z</time>
      </trkpt>
      <trkpt lat="47.07822" lon="-1.57527">
        <ele>55</ele>
        <time>2021-08-29T09:33:47.000Z</time>
      </trkpt>
      <trkpt lat="47.07818" lon="-1.57509">
        <ele>55</ele>
        <time>2021-08-29T09:33:49.000Z</time>
      </trkpt>
      <trkpt lat="47.07813" lon="-1.57491">
        <ele>55</ele>
        <time>2021-08-29T09:33:51.000Z</time>
      </trkpt>
      <trkpt lat="47.07808" lon="-1.57473">
        <ele>55</ele>
        <time>2021-08-29T09:33:53.000Z</time>
      </trkpt>
      <trkpt lat="47.07803" lon="-1.57454">
        <ele>54</ele>
        <time>2021-08-29T09:33:55.000Z</time>
      </trkpt>
      <trkpt lat="47.07798" lon="-1.57436">
        <ele>54</ele>
        <time>2021-08-29T09:33:57.000Z</time>
      </trkpt>
      <trkpt lat="47.07793" lon="-1.57418">
        <ele>54</ele>
        <time>2021-08-29T09:33:59.000Z</time>
      </trkpt>
      <trkpt lat="47.07788" lon="-1.574">
        <ele>53</ele>
        <time>2021-08-29T09:34:01.000Z</time>
      </trkpt>
      <trkpt lat="47.07783" lon="-1.57384">
        <ele>52</ele>
        <time>2021-08-29T09:34:03.000Z</time>
      </trkpt>
      <trkpt lat="47.07778" lon="-1.5737">
        <ele>52</ele>
        <time>2021-08-29T09:34:05.000Z</time>
      </trkpt>
      <trkpt lat="47.07777" lon="-1.57357">
        <ele>51</ele>
        <time>2021-08-29T09:34:07.000Z</time>
      </trkpt>
      <trkpt lat="47.07783" lon="-1.57343">
        <ele>51</ele>
        <time>2021-08-29T09:34:09.000Z</time>
      </trkpt>
      <trkpt lat="47.07793" lon="-1.57331">
        <ele>51</ele>
        <time>2021-08-29T09:34:11.000Z</time>
      </trkpt>
      <trkpt lat="47.07802" lon="-1.5732">
        <ele>51</ele>
        <time>2021-08-29T09:34:13.000Z</time>
      </trkpt>
      <trkpt lat="47.07811" lon="-1.57309">
        <ele>52</ele>
        <time>2021-08-29T09:34:15.000Z</time>
      </trkpt>
      <trkpt lat="47.0782" lon="-1.57298">
        <ele>52</ele>
        <time>2021-08-29T09:34:17.000Z</time>
      </trkpt>
      <trkpt lat="47.07829" lon="-1.57288">
        <ele>52</ele>
        <time>2021-08-29T09:34:19.000Z</time>
      </trkpt>
      <trkpt lat="47.07838" lon="-1.57277">
        <ele>53</ele>
        <time>2021-08-29T09:34:21.000Z</time>
      </trkpt>
      <trkpt lat="47.07846" lon="-1.57265">
        <ele>54</ele>
        <time>2021-08-29T09:34:23.000Z</time>
      </trkpt>
      <trkpt lat="47.07853" lon="-1.57253">
        <ele>55</ele>
        <time>2021-08-29T09:34:25.000Z</time>
      </trkpt>
      <trkpt lat="47.07859" lon="-1.57239">
        <ele>56</ele>
        <time>2021-08-29T09:34:27.000Z</time>
      </trkpt>
      <trkpt lat="47.07864" lon="-1.57225">
        <ele>56</ele>
        <time>2021-08-29T09:34:29.000Z</time>
      </trkpt>
      <trkpt lat="47.07868" lon="-1.5721">
        <ele>57</ele>
        <time>2021-08-29T09:34:31.000Z</time>
      </trkpt>
      <trkpt lat="47.07871" lon="-1.57196">
        <ele>57</ele>
        <time>2021-08-29T09:34:33.000Z</time>
      </trkpt>
      <trkpt lat="47.07874" lon="-1.57181">
        <ele>58</ele>
        <time>2021-08-29T09:34:35.000Z</time>
      </trkpt>
      <trkpt lat="47.07876" lon="-1.57165">
        <ele>58</ele>
        <time>2021-08-29T09:34:37.000Z</time>
      </trkpt>
      <trkpt lat="47.07878" lon="-1.57149">
        <ele>58</ele>
        <time>2021-08-29T09:34:39.000Z</time>
      </trkpt>
      <trkpt lat="47.07881" lon="-1.57133">
        <ele>59</ele>
        <time>2021-08-29T09:34:41.000Z</time>
      </trkpt>
      <trkpt lat="47.07883" lon="-1.57117">
        <ele>59</ele>
        <time>2021-08-29T09:34:43.000Z</time>
      </trkpt>
      <trkpt lat="47.07886" lon="-1.57101">
        <ele>59</ele>
        <time>2021-08-29T09:34:45.000Z</time>
      </trkpt>
      <trkpt lat="47.07888" lon="-1.57085">
        <ele>59</ele>
        <time>2021-08-29T09:34:47.000Z</time>
      </trkpt>
      <trkpt lat="47.07891" lon="-1.57069">
        <ele>60</ele>
        <time>2021-08-29T09:34:49.000Z</time>
      </trkpt>
      <trkpt lat="47.07894" lon="-1.57052">
        <ele>60</ele>
        <time>2021-08-29T09:34:51.000Z</time>
      </trkpt>
      <trkpt lat="47.07897" lon="-1.57037">
        <ele>60</ele>
        <time>2021-08-29T09:34:53.000Z</time>
      </trkpt>
      <trkpt lat="47.079" lon="-1.57021">
        <ele>60</ele>
        <time>2021-08-29T09:34:55.000Z</time>
      </trkpt>
      <trkpt lat="47.07903" lon="-1.57005">
        <ele>61</ele>
        <time>2021-08-29T09:34:57.000Z</time>
      </trkpt>
      <trkpt lat="47.07906" lon="-1.56989">
        <ele>61</ele>
        <time>2021-08-29T09:34:59.000Z</time>
      </trkpt>
      <trkpt lat="47.07908" lon="-1.56973">
        <ele>61</ele>
        <time>2021-08-29T09:35:01.000Z</time>
      </trkpt>
      <trkpt lat="47.07912" lon="-1.56956">
        <ele>61</ele>
        <time>2021-08-29T09:35:03.000Z</time>
      </trkpt>
      <trkpt lat="47.07915" lon="-1.5694">
        <ele>61</ele>
        <time>2021-08-29T09:35:05.000Z</time>
      </trkpt>
      <trkpt lat="47.07918" lon="-1.56924">
        <ele>62</ele>
        <time>2021-08-29T09:35:07.000Z</time>
      </trkpt>
      <trkpt lat="47.0792" lon="-1.56907">
        <ele>61</ele>
        <time>2021-08-29T09:35:09.000Z</time>
      </trkpt>
      <trkpt lat="47.07923" lon="-1.56891">
        <ele>61</ele>
        <time>2021-08-29T09:35:11.000Z</time>
      </trkpt>
      <trkpt lat="47.07926" lon="-1.56876">
        <ele>61</ele>
        <time>2021-08-29T09:35:13.000Z</time>
      </trkpt>
      <trkpt lat="47.07928" lon="-1.56859">
        <ele>61</ele>
        <time>2021-08-29T09:35:15.000Z</time>
      </trkpt>
      <trkpt lat="47.0793" lon="-1.56842">
        <ele>62</ele>
        <time>2021-08-29T09:35:17.000Z</time>
      </trkpt>
      <trkpt lat="47.07931" lon="-1.56825">
        <ele>62</ele>
        <time>2021-08-29T09:35:19.000Z</time>
      </trkpt>
      <trkpt lat="47.07932" lon="-1.56809">
        <ele>62</ele>
        <time>2021-08-29T09:35:21.000Z</time>
      </trkpt>
      <trkpt lat="47.07931" lon="-1.56794">
        <ele>62</ele>
        <time>2021-08-29T09:35:23.000Z</time>
      </trkpt>
      <trkpt lat="47.07929" lon="-1.56778">
        <ele>62</ele>
        <time>2021-08-29T09:35:25.000Z</time>
      </trkpt>
      <trkpt lat="47.07927" lon="-1.56764">
        <ele>62</ele>
        <time>2021-08-29T09:35:27.000Z</time>
      </trkpt>
      <trkpt lat="47.07921" lon="-1.56751">
        <ele>63</ele>
        <time>2021-08-29T09:35:29.000Z</time>
      </trkpt>
      <trkpt lat="47.07912" lon="-1.5674">
        <ele>63</ele>
        <time>2021-08-29T09:35:31.000Z</time>
      </trkpt>
      <trkpt lat="47.07907" lon="-1.56727">
        <ele>63</ele>
        <time>2021-08-29T09:35:33.000Z</time>
      </trkpt>
      <trkpt lat="47.0791" lon="-1.5671">
        <ele>63</ele>
        <time>2021-08-29T09:35:35.000Z</time>
      </trkpt>
      <trkpt lat="47.07917" lon="-1.56697">
        <ele>63</ele>
        <time>2021-08-29T09:35:37.000Z</time>
      </trkpt>
      <trkpt lat="47.07924" lon="-1.56683">
        <ele>63</ele>
        <time>2021-08-29T09:35:39.000Z</time>
      </trkpt>
      <trkpt lat="47.07926" lon="-1.56667">
        <ele>63</ele>
        <time>2021-08-29T09:35:41.000Z</time>
      </trkpt>
      <trkpt lat="47.07928" lon="-1.56651">
        <ele>63</ele>
        <time>2021-08-29T09:35:43.000Z</time>
      </trkpt>
      <trkpt lat="47.07929" lon="-1.56635">
        <ele>63</ele>
        <time>2021-08-29T09:35:45.000Z</time>
      </trkpt>
      <trkpt lat="47.07929" lon="-1.56619">
        <ele>63</ele>
        <time>2021-08-29T09:35:47.000Z</time>
      </trkpt>
      <trkpt lat="47.0793" lon="-1.56604">
        <ele>63</ele>
        <time>2021-08-29T09:35:49.000Z</time>
      </trkpt>
      <trkpt lat="47.0793" lon="-1.56589">
        <ele>63</ele>
        <time>2021-08-29T09:35:51.000Z</time>
      </trkpt>
      <trkpt lat="47.07931" lon="-1.56573">
        <ele>64</ele>
        <time>2021-08-29T09:35:53.000Z</time>
      </trkpt>
      <trkpt lat="47.07931" lon="-1.56557">
        <ele>64</ele>
        <time>2021-08-29T09:35:55.000Z</time>
      </trkpt>
      <trkpt lat="47.07932" lon="-1.56541">
        <ele>63</ele>
        <time>2021-08-29T09:35:57.000Z</time>
      </trkpt>
      <trkpt lat="47.07932" lon="-1.56525">
        <ele>63</ele>
        <time>2021-08-29T09:35:59.000Z</time>
      </trkpt>
      <trkpt lat="47.07932" lon="-1.56509">
        <ele>63</ele>
        <time>2021-08-29T09:36:01.000Z</time>
      </trkpt>
      <trkpt lat="47.07932" lon="-1.56492">
        <ele>64</ele>
        <time>2021-08-29T09:36:03.000Z</time>
      </trkpt>
      <trkpt lat="47.07931" lon="-1.56475">
        <ele>64</ele>
        <time>2021-08-29T09:36:05.000Z</time>
      </trkpt>
      <trkpt lat="47.07931" lon="-1.56458">
        <ele>63</ele>
        <time>2021-08-29T09:36:07.000Z</time>
      </trkpt>
      <trkpt lat="47.07925" lon="-1.56443">
        <ele>63</ele>
        <time>2021-08-29T09:36:09.000Z</time>
      </trkpt>
      <trkpt lat="47.07919" lon="-1.56429">
        <ele>63</ele>
        <time>2021-08-29T09:36:11.000Z</time>
      </trkpt>
      <trkpt lat="47.07917" lon="-1.56412">
        <ele>63</ele>
        <time>2021-08-29T09:36:13.000Z</time>
      </trkpt>
      <trkpt lat="47.07919" lon="-1.56395">
        <ele>63</ele>
        <time>2021-08-29T09:36:15.000Z</time>
      </trkpt>
      <trkpt lat="47.07925" lon="-1.56378">
        <ele>62</ele>
        <time>2021-08-29T09:36:17.000Z</time>
      </trkpt>
      <trkpt lat="47.07927" lon="-1.56361">
        <ele>61</ele>
        <time>2021-08-29T09:36:19.000Z</time>
      </trkpt>
      <trkpt lat="47.07931" lon="-1.56344">
        <ele>61</ele>
        <time>2021-08-29T09:36:21.000Z</time>
      </trkpt>
      <trkpt lat="47.07939" lon="-1.56331">
        <ele>60</ele>
        <time>2021-08-29T09:36:23.000Z</time>
      </trkpt>
      <trkpt lat="47.0795" lon="-1.5632">
        <ele>61</ele>
        <time>2021-08-29T09:36:25.000Z</time>
      </trkpt>
      <trkpt lat="47.07962" lon="-1.56312">
        <ele>61</ele>
        <time>2021-08-29T09:36:27.000Z</time>
      </trkpt>
      <trkpt lat="47.07976" lon="-1.56308">
        <ele>60</ele>
        <time>2021-08-29T09:36:29.000Z</time>
      </trkpt>
      <trkpt lat="47.07989" lon="-1.56305">
        <ele>60</ele>
        <time>2021-08-29T09:36:31.000Z</time>
      </trkpt>
      <trkpt lat="47.08003" lon="-1.56302">
        <ele>59</ele>
        <time>2021-08-29T09:36:33.000Z</time>
      </trkpt>
      <trkpt lat="47.08016" lon="-1.56298">
        <ele>59</ele>
        <time>2021-08-29T09:36:35.000Z</time>
      </trkpt>
      <trkpt lat="47.08029" lon="-1.56294">
        <ele>59</ele>
        <time>2021-08-29T09:36:37.000Z</time>
      </trkpt>
      <trkpt lat="47.08042" lon="-1.56289">
        <ele>59</ele>
        <time>2021-08-29T09:36:39.000Z</time>
      </trkpt>
      <trkpt lat="47.08054" lon="-1.56283">
        <ele>60</ele>
        <time>2021-08-29T09:36:41.000Z</time>
      </trkpt>
      <trkpt lat="47.08064" lon="-1.56275">
        <ele>60</ele>
        <time>2021-08-29T09:36:43.000Z</time>
      </trkpt>
      <trkpt lat="47.08074" lon="-1.56266">
        <ele>60</ele>
        <time>2021-08-29T09:36:45.000Z</time>
      </trkpt>
      <trkpt lat="47.08083" lon="-1.56257">
        <ele>60</ele>
        <time>2021-08-29T09:36:47.000Z</time>
      </trkpt>
      <trkpt lat="47.08091" lon="-1.56246">
        <ele>60</ele>
        <time>2021-08-29T09:36:49.000Z</time>
      </trkpt>
      <trkpt lat="47.08098" lon="-1.56233">
        <ele>61</ele>
        <time>2021-08-29T09:36:51.000Z</time>
      </trkpt>
      <trkpt lat="47.08105" lon="-1.5622">
        <ele>61</ele>
        <time>2021-08-29T09:36:53.000Z</time>
      </trkpt>
      <trkpt lat="47.0811" lon="-1.56205">
        <ele>61</ele>
        <time>2021-08-29T09:36:55.000Z</time>
      </trkpt>
      <trkpt lat="47.08116" lon="-1.56191">
        <ele>61</ele>
        <time>2021-08-29T09:36:57.000Z</time>
      </trkpt>
      <trkpt lat="47.08121" lon="-1.56177">
        <ele>61</ele>
        <time>2021-08-29T09:36:59.000Z</time>
      </trkpt>
      <trkpt lat="47.08126" lon="-1.56163">
        <ele>61</ele>
        <time>2021-08-29T09:37:01.000Z</time>
      </trkpt>
      <trkpt lat="47.0813" lon="-1.56149">
        <ele>62</ele>
        <time>2021-08-29T09:37:03.000Z</time>
      </trkpt>
      <trkpt lat="47.08135" lon="-1.56136">
        <ele>62</ele>
        <time>2021-08-29T09:37:05.000Z</time>
      </trkpt>
      <trkpt lat="47.08139" lon="-1.56121">
        <ele>63</ele>
        <time>2021-08-29T09:37:07.000Z</time>
      </trkpt>
      <trkpt lat="47.08144" lon="-1.56107">
        <ele>63</ele>
        <time>2021-08-29T09:37:09.000Z</time>
      </trkpt>
      <trkpt lat="47.08149" lon="-1.56094">
        <ele>63</ele>
        <time>2021-08-29T09:37:11.000Z</time>
      </trkpt>
      <trkpt lat="47.08153" lon="-1.5608">
        <ele>63</ele>
        <time>2021-08-29T09:37:13.000Z</time>
      </trkpt>
      <trkpt lat="47.08157" lon="-1.56066">
        <ele>63</ele>
        <time>2021-08-29T09:37:15.000Z</time>
      </trkpt>
      <trkpt lat="47.08162" lon="-1.56052">
        <ele>64</ele>
        <time>2021-08-29T09:37:17.000Z</time>
      </trkpt>
      <trkpt lat="47.08167" lon="-1.56038">
        <ele>64</ele>
        <time>2021-08-29T09:37:19.000Z</time>
      </trkpt>
      <trkpt lat="47.08171" lon="-1.56024">
        <ele>64</ele>
        <time>2021-08-29T09:37:21.000Z</time>
      </trkpt>
      <trkpt lat="47.08176" lon="-1.5601">
        <ele>64</ele>
        <time>2021-08-29T09:37:23.000Z</time>
      </trkpt>
      <trkpt lat="47.0818" lon="-1.55996">
        <ele>65</ele>
        <time>2021-08-29T09:37:25.000Z</time>
      </trkpt>
      <trkpt lat="47.08185" lon="-1.55982">
        <ele>65</ele>
        <time>2021-08-29T09:37:27.000Z</time>
      </trkpt>
      <trkpt lat="47.08189" lon="-1.55968">
        <ele>65</ele>
        <time>2021-08-29T09:37:29.000Z</time>
      </trkpt>
      <trkpt lat="47.08194" lon="-1.55955">
        <ele>65</ele>
        <time>2021-08-29T09:37:31.000Z</time>
      </trkpt>
      <trkpt lat="47.08198" lon="-1.5594">
        <ele>65</ele>
        <time>2021-08-29T09:37:33.000Z</time>
      </trkpt>
      <trkpt lat="47.08203" lon="-1.55926">
        <ele>65</ele>
        <time>2021-08-29T09:37:35.000Z</time>
      </trkpt>
      <trkpt lat="47.08207" lon="-1.55912">
        <ele>65</ele>
        <time>2021-08-29T09:37:37.000Z</time>
      </trkpt>
      <trkpt lat="47.08212" lon="-1.55899">
        <ele>65</ele>
        <time>2021-08-29T09:37:39.000Z</time>
      </trkpt>
      <trkpt lat="47.08217" lon="-1.55885">
        <ele>65</ele>
        <time>2021-08-29T09:37:41.000Z</time>
      </trkpt>
      <trkpt lat="47.08222" lon="-1.5587">
        <ele>65</ele>
        <time>2021-08-29T09:37:43.000Z</time>
      </trkpt>
      <trkpt lat="47.08226" lon="-1.55856">
        <ele>65</ele>
        <time>2021-08-29T09:37:45.000Z</time>
      </trkpt>
      <trkpt lat="47.08231" lon="-1.55842">
        <ele>65</ele>
        <time>2021-08-29T09:37:47.000Z</time>
      </trkpt>
      <trkpt lat="47.08236" lon="-1.55827">
        <ele>65</ele>
        <time>2021-08-29T09:37:49.000Z</time>
      </trkpt>
      <trkpt lat="47.0824" lon="-1.55812">
        <ele>65</ele>
        <time>2021-08-29T09:37:51.000Z</time>
      </trkpt>
      <trkpt lat="47.08245" lon="-1.55798">
        <ele>65</ele>
        <time>2021-08-29T09:37:53.000Z</time>
      </trkpt>
      <trkpt lat="47.0825" lon="-1.55782">
        <ele>65</ele>
        <time>2021-08-29T09:37:55.000Z</time>
      </trkpt>
      <trkpt lat="47.08255" lon="-1.55767">
        <ele>65</ele>
        <time>2021-08-29T09:37:57.000Z</time>
      </trkpt>
      <trkpt lat="47.0826" lon="-1.55751">
        <ele>65</ele>
        <time>2021-08-29T09:37:59.000Z</time>
      </trkpt>
      <trkpt lat="47.08265" lon="-1.55736">
        <ele>65</ele>
        <time>2021-08-29T09:38:01.000Z</time>
      </trkpt>
      <trkpt lat="47.0827" lon="-1.55721">
        <ele>65</ele>
        <time>2021-08-29T09:38:03.000Z</time>
      </trkpt>
      <trkpt lat="47.08275" lon="-1.55706">
        <ele>65</ele>
        <time>2021-08-29T09:38:05.000Z</time>
      </trkpt>
      <trkpt lat="47.0828" lon="-1.55691">
        <ele>65</ele>
        <time>2021-08-29T09:38:07.000Z</time>
      </trkpt>
      <trkpt lat="47.08285" lon="-1.55676">
        <ele>65</ele>
        <time>2021-08-29T09:38:09.000Z</time>
      </trkpt>
      <trkpt lat="47.08289" lon="-1.55661">
        <ele>66</ele>
        <time>2021-08-29T09:38:11.000Z</time>
      </trkpt>
      <trkpt lat="47.08293" lon="-1.55647">
        <ele>67</ele>
        <time>2021-08-29T09:38:13.000Z</time>
      </trkpt>
      <trkpt lat="47.08298" lon="-1.55632">
        <ele>68</ele>
        <time>2021-08-29T09:38:15.000Z</time>
      </trkpt>
      <trkpt lat="47.08302" lon="-1.55618">
        <ele>68</ele>
        <time>2021-08-29T09:38:17.000Z</time>
      </trkpt>
      <trkpt lat="47.08306" lon="-1.55604">
        <ele>69</ele>
        <time>2021-08-29T09:38:19.000Z</time>
      </trkpt>
      <trkpt lat="47.08307" lon="-1.55589">
        <ele>68</ele>
        <time>2021-08-29T09:38:21.000Z</time>
      </trkpt>
      <trkpt lat="47.08302" lon="-1.55574">
        <ele>68</ele>
        <time>2021-08-29T09:38:23.000Z</time>
      </trkpt>
      <trkpt lat="47.08293" lon="-1.55563">
        <ele>68</ele>
        <time>2021-08-29T09:38:25.000Z</time>
      </trkpt>
      <trkpt lat="47.08285" lon="-1.55552">
        <ele>68</ele>
        <time>2021-08-29T09:38:27.000Z</time>
      </trkpt>
      <trkpt lat="47.08275" lon="-1.55541">
        <ele>68</ele>
        <time>2021-08-29T09:38:29.000Z</time>
      </trkpt>
      <trkpt lat="47.08266" lon="-1.55529">
        <ele>68</ele>
        <time>2021-08-29T09:38:31.000Z</time>
      </trkpt>
      <trkpt lat="47.08256" lon="-1.55518">
        <ele>67</ele>
        <time>2021-08-29T09:38:33.000Z</time>
      </trkpt>
      <trkpt lat="47.08246" lon="-1.55505">
        <ele>67</ele>
        <time>2021-08-29T09:38:35.000Z</time>
      </trkpt>
      <trkpt lat="47.08236" lon="-1.55492">
        <ele>66</ele>
        <time>2021-08-29T09:38:37.000Z</time>
      </trkpt>
      <trkpt lat="47.08225" lon="-1.55479">
        <ele>66</ele>
        <time>2021-08-29T09:38:39.000Z</time>
      </trkpt>
      <trkpt lat="47.08214" lon="-1.55467">
        <ele>66</ele>
        <time>2021-08-29T09:38:41.000Z</time>
      </trkpt>
      <trkpt lat="47.08203" lon="-1.55453">
        <ele>66</ele>
        <time>2021-08-29T09:38:43.000Z</time>
      </trkpt>
      <trkpt lat="47.08192" lon="-1.55438">
        <ele>65</ele>
        <time>2021-08-29T09:38:45.000Z</time>
      </trkpt>
      <trkpt lat="47.08181" lon="-1.55423">
        <ele>65</ele>
        <time>2021-08-29T09:38:47.000Z</time>
      </trkpt>
      <trkpt lat="47.0817" lon="-1.55409">
        <ele>64</ele>
        <time>2021-08-29T09:38:49.000Z</time>
      </trkpt>
      <trkpt lat="47.08158" lon="-1.55395">
        <ele>64</ele>
        <time>2021-08-29T09:38:51.000Z</time>
      </trkpt>
      <trkpt lat="47.08147" lon="-1.55381">
        <ele>64</ele>
        <time>2021-08-29T09:38:53.000Z</time>
      </trkpt>
      <trkpt lat="47.08136" lon="-1.55366">
        <ele>64</ele>
        <time>2021-08-29T09:38:55.000Z</time>
      </trkpt>
      <trkpt lat="47.08125" lon="-1.55352">
        <ele>64</ele>
        <time>2021-08-29T09:38:57.000Z</time>
      </trkpt>
      <trkpt lat="47.08114" lon="-1.55339">
        <ele>63</ele>
        <time>2021-08-29T09:38:59.000Z</time>
      </trkpt>
      <trkpt lat="47.08103" lon="-1.55324">
        <ele>63</ele>
        <time>2021-08-29T09:39:01.000Z</time>
      </trkpt>
      <trkpt lat="47.08091" lon="-1.55309">
        <ele>62</ele>
        <time>2021-08-29T09:39:03.000Z</time>
      </trkpt>
      <trkpt lat="47.0808" lon="-1.55294">
        <ele>61</ele>
        <time>2021-08-29T09:39:05.000Z</time>
      </trkpt>
      <trkpt lat="47.08069" lon="-1.5528">
        <ele>61</ele>
        <time>2021-08-29T09:39:07.000Z</time>
      </trkpt>
      <trkpt lat="47.08058" lon="-1.55267">
        <ele>61</ele>
        <time>2021-08-29T09:39:09.000Z</time>
      </trkpt>
      <trkpt lat="47.08048" lon="-1.55255">
        <ele>61</ele>
        <time>2021-08-29T09:39:11.000Z</time>
      </trkpt>
      <trkpt lat="47.08038" lon="-1.55243">
        <ele>61</ele>
        <time>2021-08-29T09:39:13.000Z</time>
      </trkpt>
      <trkpt lat="47.08028" lon="-1.55231">
        <ele>61</ele>
        <time>2021-08-29T09:39:15.000Z</time>
      </trkpt>
      <trkpt lat="47.08018" lon="-1.55218">
        <ele>61</ele>
        <time>2021-08-29T09:39:17.000Z</time>
      </trkpt>
      <trkpt lat="47.08008" lon="-1.55206">
        <ele>61</ele>
        <time>2021-08-29T09:39:19.000Z</time>
      </trkpt>
      <trkpt lat="47.07997" lon="-1.55193">
        <ele>62</ele>
        <time>2021-08-29T09:39:21.000Z</time>
      </trkpt>
      <trkpt lat="47.07988" lon="-1.55181">
        <ele>61</ele>
        <time>2021-08-29T09:39:23.000Z</time>
      </trkpt>
      <trkpt lat="47.07978" lon="-1.55168">
        <ele>61</ele>
        <time>2021-08-29T09:39:25.000Z</time>
      </trkpt>
      <trkpt lat="47.07968" lon="-1.55156">
        <ele>61</ele>
        <time>2021-08-29T09:39:27.000Z</time>
      </trkpt>
      <trkpt lat="47.07958" lon="-1.55143">
        <ele>61</ele>
        <time>2021-08-29T09:39:29.000Z</time>
      </trkpt>
      <trkpt lat="47.07948" lon="-1.5513">
        <ele>60</ele>
        <time>2021-08-29T09:39:31.000Z</time>
      </trkpt>
      <trkpt lat="47.07939" lon="-1.55117">
        <ele>60</ele>
        <time>2021-08-29T09:39:33.000Z</time>
      </trkpt>
      <trkpt lat="47.0793" lon="-1.55105">
        <ele>61</ele>
        <time>2021-08-29T09:39:35.000Z</time>
      </trkpt>
      <trkpt lat="47.07921" lon="-1.55093">
        <ele>62</ele>
        <time>2021-08-29T09:39:37.000Z</time>
      </trkpt>
      <trkpt lat="47.07911" lon="-1.55079">
        <ele>62</ele>
        <time>2021-08-29T09:39:39.000Z</time>
      </trkpt>
      <trkpt lat="47.07901" lon="-1.55067">
        <ele>62</ele>
        <time>2021-08-29T09:39:41.000Z</time>
      </trkpt>
      <trkpt lat="47.07892" lon="-1.55055">
        <ele>62</ele>
        <time>2021-08-29T09:39:43.000Z</time>
      </trkpt>
      <trkpt lat="47.07882" lon="-1.55043">
        <ele>62</ele>
        <time>2021-08-29T09:39:45.000Z</time>
      </trkpt>
      <trkpt lat="47.07872" lon="-1.55032">
        <ele>62</ele>
        <time>2021-08-29T09:39:47.000Z</time>
      </trkpt>
      <trkpt lat="47.07862" lon="-1.5502">
        <ele>61</ele>
        <time>2021-08-29T09:39:49.000Z</time>
      </trkpt>
      <trkpt lat="47.07852" lon="-1.55007">
        <ele>61</ele>
        <time>2021-08-29T09:39:51.000Z</time>
      </trkpt>
      <trkpt lat="47.07841" lon="-1.54994">
        <ele>62</ele>
        <time>2021-08-29T09:39:53.000Z</time>
      </trkpt>
      <trkpt lat="47.07832" lon="-1.54981">
        <ele>62</ele>
        <time>2021-08-29T09:39:55.000Z</time>
      </trkpt>
      <trkpt lat="47.07821" lon="-1.5497">
        <ele>63</ele>
        <time>2021-08-29T09:39:57.000Z</time>
      </trkpt>
      <trkpt lat="47.07811" lon="-1.54957">
        <ele>62</ele>
        <time>2021-08-29T09:39:59.000Z</time>
      </trkpt>
      <trkpt lat="47.07802" lon="-1.54945">
        <ele>63</ele>
        <time>2021-08-29T09:40:01.000Z</time>
      </trkpt>
      <trkpt lat="47.07792" lon="-1.54932">
        <ele>63</ele>
        <time>2021-08-29T09:40:03.000Z</time>
      </trkpt>
      <trkpt lat="47.07783" lon="-1.5492">
        <ele>63</ele>
        <time>2021-08-29T09:40:05.000Z</time>
      </trkpt>
      <trkpt lat="47.07773" lon="-1.54908">
        <ele>64</ele>
        <time>2021-08-29T09:40:07.000Z</time>
      </trkpt>
      <trkpt lat="47.07764" lon="-1.54896">
        <ele>64</ele>
        <time>2021-08-29T09:40:09.000Z</time>
      </trkpt>
      <trkpt lat="47.07755" lon="-1.54885">
        <ele>65</ele>
        <time>2021-08-29T09:40:11.000Z</time>
      </trkpt>
      <trkpt lat="47.07745" lon="-1.54875">
        <ele>65</ele>
        <time>2021-08-29T09:40:13.000Z</time>
      </trkpt>
      <trkpt lat="47.07736" lon="-1.54864">
        <ele>65</ele>
        <time>2021-08-29T09:40:15.000Z</time>
      </trkpt>
      <trkpt lat="47.07727" lon="-1.54852">
        <ele>66</ele>
        <time>2021-08-29T09:40:17.000Z</time>
      </trkpt>
      <trkpt lat="47.07718" lon="-1.5484">
        <ele>66</ele>
        <time>2021-08-29T09:40:19.000Z</time>
      </trkpt>
      <trkpt lat="47.0771" lon="-1.54828">
        <ele>67</ele>
        <time>2021-08-29T09:40:21.000Z</time>
      </trkpt>
      <trkpt lat="47.07701" lon="-1.54816">
        <ele>67</ele>
        <time>2021-08-29T09:40:23.000Z</time>
      </trkpt>
      <trkpt lat="47.07692" lon="-1.54804">
        <ele>66</ele>
        <time>2021-08-29T09:40:25.000Z</time>
      </trkpt>
      <trkpt lat="47.07682" lon="-1.5479">
        <ele>65</ele>
        <time>2021-08-29T09:40:27.000Z</time>
      </trkpt>
      <trkpt lat="47.07672" lon="-1.54778">
        <ele>65</ele>
        <time>2021-08-29T09:40:29.000Z</time>
      </trkpt>
      <trkpt lat="47.07663" lon="-1.54765">
        <ele>65</ele>
        <time>2021-08-29T09:40:31.000Z</time>
      </trkpt>
      <trkpt lat="47.07653" lon="-1.54752">
        <ele>64</ele>
        <time>2021-08-29T09:40:33.000Z</time>
      </trkpt>
      <trkpt lat="47.07642" lon="-1.54738">
        <ele>64</ele>
        <time>2021-08-29T09:40:35.000Z</time>
      </trkpt>
      <trkpt lat="47.07631" lon="-1.54725">
        <ele>63</ele>
        <time>2021-08-29T09:40:37.000Z</time>
      </trkpt>
      <trkpt lat="47.07621" lon="-1.54713">
        <ele>63</ele>
        <time>2021-08-29T09:40:39.000Z</time>
      </trkpt>
      <trkpt lat="47.0761" lon="-1.54701">
        <ele>64</ele>
        <time>2021-08-29T09:40:41.000Z</time>
      </trkpt>
      <trkpt lat="47.07601" lon="-1.54689">
        <ele>64</ele>
        <time>2021-08-29T09:40:43.000Z</time>
      </trkpt>
      <trkpt lat="47.07591" lon="-1.54677">
        <ele>65</ele>
        <time>2021-08-29T09:40:45.000Z</time>
      </trkpt>
      <trkpt lat="47.07582" lon="-1.54665">
        <ele>64</ele>
        <time>2021-08-29T09:40:47.000Z</time>
      </trkpt>
      <trkpt lat="47.07573" lon="-1.54653">
        <ele>64</ele>
        <time>2021-08-29T09:40:49.000Z</time>
      </trkpt>
      <trkpt lat="47.07564" lon="-1.54641">
        <ele>63</ele>
        <time>2021-08-29T09:40:51.000Z</time>
      </trkpt>
      <trkpt lat="47.07555" lon="-1.54629">
        <ele>63</ele>
        <time>2021-08-29T09:40:53.000Z</time>
      </trkpt>
      <trkpt lat="47.07544" lon="-1.54615">
        <ele>63</ele>
        <time>2021-08-29T09:40:55.000Z</time>
      </trkpt>
      <trkpt lat="47.07534" lon="-1.54602">
        <ele>63</ele>
        <time>2021-08-29T09:40:57.000Z</time>
      </trkpt>
      <trkpt lat="47.07525" lon="-1.54589">
        <ele>64</ele>
        <time>2021-08-29T09:40:59.000Z</time>
      </trkpt>
      <trkpt lat="47.07515" lon="-1.54577">
        <ele>64</ele>
        <time>2021-08-29T09:41:01.000Z</time>
      </trkpt>
      <trkpt lat="47.07504" lon="-1.54564">
        <ele>65</ele>
        <time>2021-08-29T09:41:03.000Z</time>
      </trkpt>
      <trkpt lat="47.07494" lon="-1.54552">
        <ele>64</ele>
        <time>2021-08-29T09:41:05.000Z</time>
      </trkpt>
      <trkpt lat="47.07484" lon="-1.54539">
        <ele>65</ele>
        <time>2021-08-29T09:41:07.000Z</time>
      </trkpt>
      <trkpt lat="47.07472" lon="-1.54531">
        <ele>65</ele>
        <time>2021-08-29T09:41:09.000Z</time>
      </trkpt>
      <trkpt lat="47.07452" lon="-1.54526">
        <ele>66</ele>
        <time>2021-08-29T09:41:12.000Z</time>
      </trkpt>
      <trkpt lat="47.07439" lon="-1.54524">
        <ele>66</ele>
        <time>2021-08-29T09:41:14.000Z</time>
      </trkpt>
      <trkpt lat="47.07426" lon="-1.54522">
        <ele>66</ele>
        <time>2021-08-29T09:41:16.000Z</time>
      </trkpt>
      <trkpt lat="47.07413" lon="-1.5452">
        <ele>66</ele>
        <time>2021-08-29T09:41:18.000Z</time>
      </trkpt>
      <trkpt lat="47.074" lon="-1.54518">
        <ele>66</ele>
        <time>2021-08-29T09:41:20.000Z</time>
      </trkpt>
      <trkpt lat="47.07387" lon="-1.54516">
        <ele>66</ele>
        <time>2021-08-29T09:41:22.000Z</time>
      </trkpt>
      <trkpt lat="47.07374" lon="-1.54513">
        <ele>67</ele>
        <time>2021-08-29T09:41:24.000Z</time>
      </trkpt>
      <trkpt lat="47.07362" lon="-1.54511">
        <ele>66</ele>
        <time>2021-08-29T09:41:26.000Z</time>
      </trkpt>
      <trkpt lat="47.07343" lon="-1.54509">
        <ele>67</ele>
        <time>2021-08-29T09:41:29.000Z</time>
      </trkpt>
      <trkpt lat="47.07325" lon="-1.54507">
        <ele>68</ele>
        <time>2021-08-29T09:41:32.000Z</time>
      </trkpt>
      <trkpt lat="47.07314" lon="-1.54506">
        <ele>70</ele>
        <time>2021-08-29T09:41:34.000Z</time>
      </trkpt>
      <trkpt lat="47.07303" lon="-1.54504">
        <ele>70</ele>
        <time>2021-08-29T09:41:36.000Z</time>
      </trkpt>
      <trkpt lat="47.07293" lon="-1.54504">
        <ele>70</ele>
        <time>2021-08-29T09:41:38.000Z</time>
      </trkpt>
      <trkpt lat="47.07283" lon="-1.54503">
        <ele>70</ele>
        <time>2021-08-29T09:41:40.000Z</time>
      </trkpt>
      <trkpt lat="47.07272" lon="-1.54502">
        <ele>71</ele>
        <time>2021-08-29T09:41:42.000Z</time>
      </trkpt>
      <trkpt lat="47.07261" lon="-1.545">
        <ele>72</ele>
        <time>2021-08-29T09:41:44.000Z</time>
      </trkpt>
      <trkpt lat="47.07243" lon="-1.54496">
        <ele>73</ele>
        <time>2021-08-29T09:41:47.000Z</time>
      </trkpt>
      <trkpt lat="47.07232" lon="-1.54495">
        <ele>74</ele>
        <time>2021-08-29T09:41:49.000Z</time>
      </trkpt>
      <trkpt lat="47.0722" lon="-1.54491">
        <ele>74</ele>
        <time>2021-08-29T09:41:51.000Z</time>
      </trkpt>
      <trkpt lat="47.07208" lon="-1.54487">
        <ele>74</ele>
        <time>2021-08-29T09:41:53.000Z</time>
      </trkpt>
      <trkpt lat="47.07193" lon="-1.54481">
        <ele>74</ele>
        <time>2021-08-29T09:41:55.000Z</time>
      </trkpt>
      <trkpt lat="47.07177" lon="-1.54477">
        <ele>73</ele>
        <time>2021-08-29T09:41:57.000Z</time>
      </trkpt>
      <trkpt lat="47.07161" lon="-1.54473">
        <ele>71</ele>
        <time>2021-08-29T09:41:59.000Z</time>
      </trkpt>
      <trkpt lat="47.07144" lon="-1.5447">
        <ele>71</ele>
        <time>2021-08-29T09:42:01.000Z</time>
      </trkpt>
      <trkpt lat="47.0713" lon="-1.54468">
        <ele>70</ele>
        <time>2021-08-29T09:42:03.000Z</time>
      </trkpt>
      <trkpt lat="47.07117" lon="-1.54466">
        <ele>69</ele>
        <time>2021-08-29T09:42:05.000Z</time>
      </trkpt>
      <trkpt lat="47.07106" lon="-1.54463">
        <ele>69</ele>
        <time>2021-08-29T09:42:07.000Z</time>
      </trkpt>
      <trkpt lat="47.07096" lon="-1.54455">
        <ele>69</ele>
        <time>2021-08-29T09:42:09.000Z</time>
      </trkpt>
      <trkpt lat="47.07088" lon="-1.54445">
        <ele>70</ele>
        <time>2021-08-29T09:42:11.000Z</time>
      </trkpt>
      <trkpt lat="47.07079" lon="-1.54437">
        <ele>69</ele>
        <time>2021-08-29T09:42:13.000Z</time>
      </trkpt>
      <trkpt lat="47.0707" lon="-1.54428">
        <ele>69</ele>
        <time>2021-08-29T09:42:15.000Z</time>
      </trkpt>
      <trkpt lat="47.07061" lon="-1.5442">
        <ele>70</ele>
        <time>2021-08-29T09:42:17.000Z</time>
      </trkpt>
      <trkpt lat="47.07052" lon="-1.5441">
        <ele>70</ele>
        <time>2021-08-29T09:42:19.000Z</time>
      </trkpt>
      <trkpt lat="47.07043" lon="-1.544">
        <ele>70</ele>
        <time>2021-08-29T09:42:21.000Z</time>
      </trkpt>
      <trkpt lat="47.07034" lon="-1.54391">
        <ele>70</ele>
        <time>2021-08-29T09:42:23.000Z</time>
      </trkpt>
      <trkpt lat="47.07025" lon="-1.54381">
        <ele>70</ele>
        <time>2021-08-29T09:42:25.000Z</time>
      </trkpt>
      <trkpt lat="47.07016" lon="-1.54373">
        <ele>70</ele>
        <time>2021-08-29T09:42:27.000Z</time>
      </trkpt>
      <trkpt lat="47.07008" lon="-1.54365">
        <ele>70</ele>
        <time>2021-08-29T09:42:29.000Z</time>
      </trkpt>
      <trkpt lat="47.06997" lon="-1.54357">
        <ele>69</ele>
        <time>2021-08-29T09:42:32.000Z</time>
      </trkpt>
      <trkpt lat="47.06989" lon="-1.54344">
        <ele>69</ele>
        <time>2021-08-29T09:42:36.000Z</time>
      </trkpt>
      <trkpt lat="47.06989" lon="-1.54324">
        <ele>69</ele>
        <time>2021-08-29T09:42:39.000Z</time>
      </trkpt>
      <trkpt lat="47.06991" lon="-1.54305">
        <ele>68</ele>
        <time>2021-08-29T09:42:41.000Z</time>
      </trkpt>
      <trkpt lat="47.06992" lon="-1.54287">
        <ele>68</ele>
        <time>2021-08-29T09:42:43.000Z</time>
      </trkpt>
      <trkpt lat="47.06992" lon="-1.54268">
        <ele>67</ele>
        <time>2021-08-29T09:42:45.000Z</time>
      </trkpt>
      <trkpt lat="47.06994" lon="-1.54249">
        <ele>66</ele>
        <time>2021-08-29T09:42:47.000Z</time>
      </trkpt>
      <trkpt lat="47.06996" lon="-1.5423">
        <ele>66</ele>
        <time>2021-08-29T09:42:49.000Z</time>
      </trkpt>
      <trkpt lat="47.06998" lon="-1.54212">
        <ele>66</ele>
        <time>2021-08-29T09:42:51.000Z</time>
      </trkpt>
      <trkpt lat="47.07001" lon="-1.54194">
        <ele>66</ele>
        <time>2021-08-29T09:42:53.000Z</time>
      </trkpt>
      <trkpt lat="47.07003" lon="-1.54176">
        <ele>65</ele>
        <time>2021-08-29T09:42:55.000Z</time>
      </trkpt>
      <trkpt lat="47.07006" lon="-1.54158">
        <ele>65</ele>
        <time>2021-08-29T09:42:57.000Z</time>
      </trkpt>
      <trkpt lat="47.07009" lon="-1.54141">
        <ele>66</ele>
        <time>2021-08-29T09:42:59.000Z</time>
      </trkpt>
      <trkpt lat="47.07012" lon="-1.54124">
        <ele>65</ele>
        <time>2021-08-29T09:43:01.000Z</time>
      </trkpt>
      <trkpt lat="47.07015" lon="-1.54107">
        <ele>65</ele>
        <time>2021-08-29T09:43:03.000Z</time>
      </trkpt>
      <trkpt lat="47.07018" lon="-1.54091">
        <ele>65</ele>
        <time>2021-08-29T09:43:05.000Z</time>
      </trkpt>
      <trkpt lat="47.07021" lon="-1.54074">
        <ele>65</ele>
        <time>2021-08-29T09:43:07.000Z</time>
      </trkpt>
      <trkpt lat="47.07024" lon="-1.54058">
        <ele>65</ele>
        <time>2021-08-29T09:43:09.000Z</time>
      </trkpt>
      <trkpt lat="47.07027" lon="-1.54041">
        <ele>65</ele>
        <time>2021-08-29T09:43:11.000Z</time>
      </trkpt>
      <trkpt lat="47.07029" lon="-1.54026">
        <ele>65</ele>
        <time>2021-08-29T09:43:13.000Z</time>
      </trkpt>
      <trkpt lat="47.07027" lon="-1.54011">
        <ele>65</ele>
        <time>2021-08-29T09:43:15.000Z</time>
      </trkpt>
      <trkpt lat="47.0702" lon="-1.53997">
        <ele>65</ele>
        <time>2021-08-29T09:43:17.000Z</time>
      </trkpt>
      <trkpt lat="47.07009" lon="-1.53988">
        <ele>65</ele>
        <time>2021-08-29T09:43:19.000Z</time>
      </trkpt>
      <trkpt lat="47.06997" lon="-1.53983">
        <ele>65</ele>
        <time>2021-08-29T09:43:21.000Z</time>
      </trkpt>
      <trkpt lat="47.06985" lon="-1.53976">
        <ele>65</ele>
        <time>2021-08-29T09:43:23.000Z</time>
      </trkpt>
      <trkpt lat="47.06973" lon="-1.53968">
        <ele>66</ele>
        <time>2021-08-29T09:43:25.000Z</time>
      </trkpt>
      <trkpt lat="47.06964" lon="-1.53955">
        <ele>66</ele>
        <time>2021-08-29T09:43:27.000Z</time>
      </trkpt>
      <trkpt lat="47.06958" lon="-1.53939">
        <ele>66</ele>
        <time>2021-08-29T09:43:29.000Z</time>
      </trkpt>
      <trkpt lat="47.06958" lon="-1.5392">
        <ele>66</ele>
        <time>2021-08-29T09:43:31.000Z</time>
      </trkpt>
      <trkpt lat="47.0696" lon="-1.53901">
        <ele>65</ele>
        <time>2021-08-29T09:43:33.000Z</time>
      </trkpt>
      <trkpt lat="47.06962" lon="-1.53883">
        <ele>65</ele>
        <time>2021-08-29T09:43:35.000Z</time>
      </trkpt>
      <trkpt lat="47.06964" lon="-1.53866">
        <ele>65</ele>
        <time>2021-08-29T09:43:37.000Z</time>
      </trkpt>
      <trkpt lat="47.06966" lon="-1.53847">
        <ele>65</ele>
        <time>2021-08-29T09:43:39.000Z</time>
      </trkpt>
      <trkpt lat="47.06966" lon="-1.53829">
        <ele>65</ele>
        <time>2021-08-29T09:43:41.000Z</time>
      </trkpt>
      <trkpt lat="47.06965" lon="-1.53811">
        <ele>65</ele>
        <time>2021-08-29T09:43:43.000Z</time>
      </trkpt>
      <trkpt lat="47.06964" lon="-1.53794">
        <ele>65</ele>
        <time>2021-08-29T09:43:45.000Z</time>
      </trkpt>
      <trkpt lat="47.06962" lon="-1.53777">
        <ele>65</ele>
        <time>2021-08-29T09:43:47.000Z</time>
      </trkpt>
      <trkpt lat="47.06961" lon="-1.53761">
        <ele>66</ele>
        <time>2021-08-29T09:43:49.000Z</time>
      </trkpt>
      <trkpt lat="47.06958" lon="-1.53745">
        <ele>68</ele>
        <time>2021-08-29T09:43:51.000Z</time>
      </trkpt>
      <trkpt lat="47.06956" lon="-1.53728">
        <ele>68</ele>
        <time>2021-08-29T09:43:53.000Z</time>
      </trkpt>
      <trkpt lat="47.06954" lon="-1.53711">
        <ele>69</ele>
        <time>2021-08-29T09:43:55.000Z</time>
      </trkpt>
      <trkpt lat="47.06952" lon="-1.53693">
        <ele>69</ele>
        <time>2021-08-29T09:43:57.000Z</time>
      </trkpt>
      <trkpt lat="47.0695" lon="-1.53675">
        <ele>69</ele>
        <time>2021-08-29T09:43:59.000Z</time>
      </trkpt>
      <trkpt lat="47.06947" lon="-1.53657">
        <ele>68</ele>
        <time>2021-08-29T09:44:01.000Z</time>
      </trkpt>
      <trkpt lat="47.06945" lon="-1.53639">
        <ele>69</ele>
        <time>2021-08-29T09:44:03.000Z</time>
      </trkpt>
      <trkpt lat="47.06943" lon="-1.53621">
        <ele>69</ele>
        <time>2021-08-29T09:44:05.000Z</time>
      </trkpt>
      <trkpt lat="47.06939" lon="-1.53604">
        <ele>69</ele>
        <time>2021-08-29T09:44:07.000Z</time>
      </trkpt>
      <trkpt lat="47.06937" lon="-1.53586">
        <ele>69</ele>
        <time>2021-08-29T09:44:09.000Z</time>
      </trkpt>
      <trkpt lat="47.06934" lon="-1.53568">
        <ele>69</ele>
        <time>2021-08-29T09:44:11.000Z</time>
      </trkpt>
      <trkpt lat="47.06931" lon="-1.5355">
        <ele>69</ele>
        <time>2021-08-29T09:44:13.000Z</time>
      </trkpt>
      <trkpt lat="47.06929" lon="-1.53532">
        <ele>69</ele>
        <time>2021-08-29T09:44:15.000Z</time>
      </trkpt>
      <trkpt lat="47.06927" lon="-1.53514">
        <ele>69</ele>
        <time>2021-08-29T09:44:17.000Z</time>
      </trkpt>
      <trkpt lat="47.06924" lon="-1.53497">
        <ele>69</ele>
        <time>2021-08-29T09:44:19.000Z</time>
      </trkpt>
      <trkpt lat="47.06921" lon="-1.5348">
        <ele>69</ele>
        <time>2021-08-29T09:44:21.000Z</time>
      </trkpt>
      <trkpt lat="47.06919" lon="-1.53461">
        <ele>69</ele>
        <time>2021-08-29T09:44:23.000Z</time>
      </trkpt>
      <trkpt lat="47.06917" lon="-1.53444">
        <ele>69</ele>
        <time>2021-08-29T09:44:25.000Z</time>
      </trkpt>
      <trkpt lat="47.06915" lon="-1.53428">
        <ele>69</ele>
        <time>2021-08-29T09:44:27.000Z</time>
      </trkpt>
      <trkpt lat="47.06913" lon="-1.53412">
        <ele>69</ele>
        <time>2021-08-29T09:44:29.000Z</time>
      </trkpt>
      <trkpt lat="47.0691" lon="-1.53395">
        <ele>69</ele>
        <time>2021-08-29T09:44:31.000Z</time>
      </trkpt>
      <trkpt lat="47.06908" lon="-1.53378">
        <ele>70</ele>
        <time>2021-08-29T09:44:33.000Z</time>
      </trkpt>
      <trkpt lat="47.06906" lon="-1.53359">
        <ele>70</ele>
        <time>2021-08-29T09:44:35.000Z</time>
      </trkpt>
      <trkpt lat="47.06905" lon="-1.53341">
        <ele>70</ele>
        <time>2021-08-29T09:44:37.000Z</time>
      </trkpt>
      <trkpt lat="47.06902" lon="-1.53323">
        <ele>70</ele>
        <time>2021-08-29T09:44:39.000Z</time>
      </trkpt>
      <trkpt lat="47.06899" lon="-1.53305">
        <ele>71</ele>
        <time>2021-08-29T09:44:41.000Z</time>
      </trkpt>
      <trkpt lat="47.06897" lon="-1.53284">
        <ele>71</ele>
        <time>2021-08-29T09:44:43.000Z</time>
      </trkpt>
      <trkpt lat="47.06894" lon="-1.53265">
        <ele>71</ele>
        <time>2021-08-29T09:44:45.000Z</time>
      </trkpt>
      <trkpt lat="47.06892" lon="-1.53246">
        <ele>70</ele>
        <time>2021-08-29T09:44:47.000Z</time>
      </trkpt>
      <trkpt lat="47.0689" lon="-1.53227">
        <ele>69</ele>
        <time>2021-08-29T09:44:49.000Z</time>
      </trkpt>
      <trkpt lat="47.06887" lon="-1.5321">
        <ele>69</ele>
        <time>2021-08-29T09:44:51.000Z</time>
      </trkpt>
      <trkpt lat="47.06885" lon="-1.53192">
        <ele>69</ele>
        <time>2021-08-29T09:44:53.000Z</time>
      </trkpt>
      <trkpt lat="47.06883" lon="-1.53175">
        <ele>68</ele>
        <time>2021-08-29T09:44:55.000Z</time>
      </trkpt>
      <trkpt lat="47.06881" lon="-1.53158">
        <ele>68</ele>
        <time>2021-08-29T09:44:57.000Z</time>
      </trkpt>
      <trkpt lat="47.06879" lon="-1.53141">
        <ele>68</ele>
        <time>2021-08-29T09:44:59.000Z</time>
      </trkpt>
      <trkpt lat="47.06878" lon="-1.53124">
        <ele>68</ele>
        <time>2021-08-29T09:45:01.000Z</time>
      </trkpt>
      <trkpt lat="47.06877" lon="-1.53105">
        <ele>68</ele>
        <time>2021-08-29T09:45:03.000Z</time>
      </trkpt>
      <trkpt lat="47.06876" lon="-1.53087">
        <ele>68</ele>
        <time>2021-08-29T09:45:05.000Z</time>
      </trkpt>
      <trkpt lat="47.06876" lon="-1.53071">
        <ele>69</ele>
        <time>2021-08-29T09:45:07.000Z</time>
      </trkpt>
      <trkpt lat="47.06875" lon="-1.53054">
        <ele>70</ele>
        <time>2021-08-29T09:45:09.000Z</time>
      </trkpt>
      <trkpt lat="47.06873" lon="-1.53036">
        <ele>70</ele>
        <time>2021-08-29T09:45:11.000Z</time>
      </trkpt>
      <trkpt lat="47.06872" lon="-1.53018">
        <ele>70</ele>
        <time>2021-08-29T09:45:13.000Z</time>
      </trkpt>
      <trkpt lat="47.0687" lon="-1.52999">
        <ele>70</ele>
        <time>2021-08-29T09:45:15.000Z</time>
      </trkpt>
      <trkpt lat="47.06868" lon="-1.52981">
        <ele>70</ele>
        <time>2021-08-29T09:45:17.000Z</time>
      </trkpt>
      <trkpt lat="47.06865" lon="-1.52964">
        <ele>71</ele>
        <time>2021-08-29T09:45:19.000Z</time>
      </trkpt>
      <trkpt lat="47.06862" lon="-1.52947">
        <ele>71</ele>
        <time>2021-08-29T09:45:21.000Z</time>
      </trkpt>
      <trkpt lat="47.06859" lon="-1.5293">
        <ele>72</ele>
        <time>2021-08-29T09:45:23.000Z</time>
      </trkpt>
      <trkpt lat="47.06856" lon="-1.52913">
        <ele>72</ele>
        <time>2021-08-29T09:45:25.000Z</time>
      </trkpt>
      <trkpt lat="47.06852" lon="-1.52897">
        <ele>73</ele>
        <time>2021-08-29T09:45:27.000Z</time>
      </trkpt>
      <trkpt lat="47.06849" lon="-1.52878">
        <ele>73</ele>
        <time>2021-08-29T09:45:29.000Z</time>
      </trkpt>
      <trkpt lat="47.06846" lon="-1.5286">
        <ele>72</ele>
        <time>2021-08-29T09:45:31.000Z</time>
      </trkpt>
      <trkpt lat="47.06843" lon="-1.52844">
        <ele>71</ele>
        <time>2021-08-29T09:45:33.000Z</time>
      </trkpt>
      <trkpt lat="47.0684" lon="-1.52829">
        <ele>72</ele>
        <time>2021-08-29T09:45:35.000Z</time>
      </trkpt>
      <trkpt lat="47.06838" lon="-1.52812">
        <ele>73</ele>
        <time>2021-08-29T09:45:37.000Z</time>
      </trkpt>
      <trkpt lat="47.06842" lon="-1.52793">
        <ele>73</ele>
        <time>2021-08-29T09:45:39.000Z</time>
      </trkpt>
      <trkpt lat="47.06847" lon="-1.52776">
        <ele>72</ele>
        <time>2021-08-29T09:45:41.000Z</time>
      </trkpt>
      <trkpt lat="47.06854" lon="-1.52761">
        <ele>73</ele>
        <time>2021-08-29T09:45:43.000Z</time>
      </trkpt>
      <trkpt lat="47.06859" lon="-1.52747">
        <ele>73</ele>
        <time>2021-08-29T09:45:45.000Z</time>
      </trkpt>
      <trkpt lat="47.06865" lon="-1.52731">
        <ele>72</ele>
        <time>2021-08-29T09:45:47.000Z</time>
      </trkpt>
      <trkpt lat="47.06871" lon="-1.52713">
        <ele>72</ele>
        <time>2021-08-29T09:45:49.000Z</time>
      </trkpt>
      <trkpt lat="47.06873" lon="-1.52695">
        <ele>71</ele>
        <time>2021-08-29T09:45:51.000Z</time>
      </trkpt>
      <trkpt lat="47.06872" lon="-1.52677">
        <ele>71</ele>
        <time>2021-08-29T09:45:53.000Z</time>
      </trkpt>
      <trkpt lat="47.06868" lon="-1.52659">
        <ele>71</ele>
        <time>2021-08-29T09:45:55.000Z</time>
      </trkpt>
      <trkpt lat="47.06864" lon="-1.52643">
        <ele>72</ele>
        <time>2021-08-29T09:45:57.000Z</time>
      </trkpt>
      <trkpt lat="47.0686" lon="-1.52627">
        <ele>72</ele>
        <time>2021-08-29T09:45:59.000Z</time>
      </trkpt>
      <trkpt lat="47.06856" lon="-1.52611">
        <ele>73</ele>
        <time>2021-08-29T09:46:01.000Z</time>
      </trkpt>
      <trkpt lat="47.06852" lon="-1.52596">
        <ele>73</ele>
        <time>2021-08-29T09:46:03.000Z</time>
      </trkpt>
      <trkpt lat="47.06847" lon="-1.52579">
        <ele>74</ele>
        <time>2021-08-29T09:46:05.000Z</time>
      </trkpt>
      <trkpt lat="47.06844" lon="-1.52562">
        <ele>74</ele>
        <time>2021-08-29T09:46:07.000Z</time>
      </trkpt>
      <trkpt lat="47.0684" lon="-1.52545">
        <ele>75</ele>
        <time>2021-08-29T09:46:09.000Z</time>
      </trkpt>
      <trkpt lat="47.06837" lon="-1.52529">
        <ele>75</ele>
        <time>2021-08-29T09:46:11.000Z</time>
      </trkpt>
      <trkpt lat="47.06835" lon="-1.52511">
        <ele>75</ele>
        <time>2021-08-29T09:46:13.000Z</time>
      </trkpt>
      <trkpt lat="47.06832" lon="-1.52494">
        <ele>75</ele>
        <time>2021-08-29T09:46:15.000Z</time>
      </trkpt>
      <trkpt lat="47.06831" lon="-1.52476">
        <ele>75</ele>
        <time>2021-08-29T09:46:17.000Z</time>
      </trkpt>
      <trkpt lat="47.06829" lon="-1.52458">
        <ele>75</ele>
        <time>2021-08-29T09:46:19.000Z</time>
      </trkpt>
      <trkpt lat="47.06826" lon="-1.5244">
        <ele>75</ele>
        <time>2021-08-29T09:46:21.000Z</time>
      </trkpt>
      <trkpt lat="47.06823" lon="-1.52421">
        <ele>75</ele>
        <time>2021-08-29T09:46:23.000Z</time>
      </trkpt>
      <trkpt lat="47.0682" lon="-1.52404">
        <ele>74</ele>
        <time>2021-08-29T09:46:25.000Z</time>
      </trkpt>
      <trkpt lat="47.06817" lon="-1.52386">
        <ele>74</ele>
        <time>2021-08-29T09:46:27.000Z</time>
      </trkpt>
      <trkpt lat="47.06814" lon="-1.52368">
        <ele>73</ele>
        <time>2021-08-29T09:46:29.000Z</time>
      </trkpt>
      <trkpt lat="47.0681" lon="-1.52351">
        <ele>73</ele>
        <time>2021-08-29T09:46:31.000Z</time>
      </trkpt>
      <trkpt lat="47.06806" lon="-1.52334">
        <ele>73</ele>
        <time>2021-08-29T09:46:33.000Z</time>
      </trkpt>
      <trkpt lat="47.06802" lon="-1.52317">
        <ele>73</ele>
        <time>2021-08-29T09:46:35.000Z</time>
      </trkpt>
      <trkpt lat="47.06798" lon="-1.523">
        <ele>72</ele>
        <time>2021-08-29T09:46:37.000Z</time>
      </trkpt>
      <trkpt lat="47.06793" lon="-1.52283">
        <ele>72</ele>
        <time>2021-08-29T09:46:39.000Z</time>
      </trkpt>
      <trkpt lat="47.06789" lon="-1.52267">
        <ele>72</ele>
        <time>2021-08-29T09:46:41.000Z</time>
      </trkpt>
      <trkpt lat="47.06784" lon="-1.5225">
        <ele>72</ele>
        <time>2021-08-29T09:46:43.000Z</time>
      </trkpt>
      <trkpt lat="47.0678" lon="-1.52234">
        <ele>72</ele>
        <time>2021-08-29T09:46:45.000Z</time>
      </trkpt>
      <trkpt lat="47.06775" lon="-1.52218">
        <ele>72</ele>
        <time>2021-08-29T09:46:47.000Z</time>
      </trkpt>
      <trkpt lat="47.0677" lon="-1.52202">
        <ele>72</ele>
        <time>2021-08-29T09:46:49.000Z</time>
      </trkpt>
      <trkpt lat="47.06766" lon="-1.52184">
        <ele>72</ele>
        <time>2021-08-29T09:46:51.000Z</time>
      </trkpt>
      <trkpt lat="47.06761" lon="-1.52167">
        <ele>72</ele>
        <time>2021-08-29T09:46:53.000Z</time>
      </trkpt>
      <trkpt lat="47.06756" lon="-1.5215">
        <ele>72</ele>
        <time>2021-08-29T09:46:55.000Z</time>
      </trkpt>
      <trkpt lat="47.06751" lon="-1.52133">
        <ele>72</ele>
        <time>2021-08-29T09:46:57.000Z</time>
      </trkpt>
      <trkpt lat="47.06744" lon="-1.52118">
        <ele>72</ele>
        <time>2021-08-29T09:46:59.000Z</time>
      </trkpt>
      <trkpt lat="47.06734" lon="-1.52107">
        <ele>72</ele>
        <time>2021-08-29T09:47:01.000Z</time>
      </trkpt>
      <trkpt lat="47.06722" lon="-1.52099">
        <ele>72</ele>
        <time>2021-08-29T09:47:03.000Z</time>
      </trkpt>
      <trkpt lat="47.0671" lon="-1.52099">
        <ele>72</ele>
        <time>2021-08-29T09:47:05.000Z</time>
      </trkpt>
      <trkpt lat="47.06697" lon="-1.521">
        <ele>73</ele>
        <time>2021-08-29T09:47:07.000Z</time>
      </trkpt>
      <trkpt lat="47.06684" lon="-1.52101">
        <ele>73</ele>
        <time>2021-08-29T09:47:09.000Z</time>
      </trkpt>
      <trkpt lat="47.0667" lon="-1.521">
        <ele>73</ele>
        <time>2021-08-29T09:47:11.000Z</time>
      </trkpt>
      <trkpt lat="47.06658" lon="-1.52097">
        <ele>73</ele>
        <time>2021-08-29T09:47:13.000Z</time>
      </trkpt>
      <trkpt lat="47.06645" lon="-1.52095">
        <ele>73</ele>
        <time>2021-08-29T09:47:15.000Z</time>
      </trkpt>
      <trkpt lat="47.06632" lon="-1.5209">
        <ele>72</ele>
        <time>2021-08-29T09:47:17.000Z</time>
      </trkpt>
      <trkpt lat="47.0662" lon="-1.52087">
        <ele>72</ele>
        <time>2021-08-29T09:47:19.000Z</time>
      </trkpt>
      <trkpt lat="47.06608" lon="-1.52083">
        <ele>72</ele>
        <time>2021-08-29T09:47:22.000Z</time>
      </trkpt>
      <trkpt lat="47.066" lon="-1.52074">
        <ele>73</ele>
        <time>2021-08-29T09:47:26.000Z</time>
      </trkpt>
      <trkpt lat="47.066" lon="-1.52058">
        <ele>72</ele>
        <time>2021-08-29T09:47:28.000Z</time>
      </trkpt>
      <trkpt lat="47.06602" lon="-1.52042">
        <ele>72</ele>
        <time>2021-08-29T09:47:30.000Z</time>
      </trkpt>
      <trkpt lat="47.06603" lon="-1.52025">
        <ele>72</ele>
        <time>2021-08-29T09:47:32.000Z</time>
      </trkpt>
      <trkpt lat="47.06604" lon="-1.52008">
        <ele>73</ele>
        <time>2021-08-29T09:47:34.000Z</time>
      </trkpt>
      <trkpt lat="47.06606" lon="-1.5199">
        <ele>72</ele>
        <time>2021-08-29T09:47:36.000Z</time>
      </trkpt>
      <trkpt lat="47.06608" lon="-1.51973">
        <ele>72</ele>
        <time>2021-08-29T09:47:38.000Z</time>
      </trkpt>
      <trkpt lat="47.06609" lon="-1.51955">
        <ele>72</ele>
        <time>2021-08-29T09:47:40.000Z</time>
      </trkpt>
      <trkpt lat="47.06611" lon="-1.51938">
        <ele>72</ele>
        <time>2021-08-29T09:47:42.000Z</time>
      </trkpt>
      <trkpt lat="47.06613" lon="-1.5192">
        <ele>72</ele>
        <time>2021-08-29T09:47:44.000Z</time>
      </trkpt>
      <trkpt lat="47.06616" lon="-1.51904">
        <ele>72</ele>
        <time>2021-08-29T09:47:46.000Z</time>
      </trkpt>
      <trkpt lat="47.0662" lon="-1.51888">
        <ele>72</ele>
        <time>2021-08-29T09:47:48.000Z</time>
      </trkpt>
      <trkpt lat="47.06625" lon="-1.51873">
        <ele>72</ele>
        <time>2021-08-29T09:47:50.000Z</time>
      </trkpt>
      <trkpt lat="47.06631" lon="-1.5186">
        <ele>73</ele>
        <time>2021-08-29T09:47:52.000Z</time>
      </trkpt>
      <trkpt lat="47.06636" lon="-1.51846">
        <ele>73</ele>
        <time>2021-08-29T09:47:54.000Z</time>
      </trkpt>
      <trkpt lat="47.06641" lon="-1.51829">
        <ele>73</ele>
        <time>2021-08-29T09:47:56.000Z</time>
      </trkpt>
      <trkpt lat="47.06645" lon="-1.51811">
        <ele>73</ele>
        <time>2021-08-29T09:47:58.000Z</time>
      </trkpt>
      <trkpt lat="47.06651" lon="-1.51796">
        <ele>73</ele>
        <time>2021-08-29T09:48:00.000Z</time>
      </trkpt>
      <trkpt lat="47.06656" lon="-1.51779">
        <ele>72</ele>
        <time>2021-08-29T09:48:02.000Z</time>
      </trkpt>
      <trkpt lat="47.06654" lon="-1.51759">
        <ele>73</ele>
        <time>2021-08-29T09:48:04.000Z</time>
      </trkpt>
      <trkpt lat="47.06651" lon="-1.5174">
        <ele>73</ele>
        <time>2021-08-29T09:48:06.000Z</time>
      </trkpt>
      <trkpt lat="47.06646" lon="-1.51723">
        <ele>73</ele>
        <time>2021-08-29T09:48:08.000Z</time>
      </trkpt>
      <trkpt lat="47.06641" lon="-1.51705">
        <ele>73</ele>
        <time>2021-08-29T09:48:10.000Z</time>
      </trkpt>
      <trkpt lat="47.06636" lon="-1.51688">
        <ele>73</ele>
        <time>2021-08-29T09:48:12.000Z</time>
      </trkpt>
      <trkpt lat="47.06632" lon="-1.5167">
        <ele>73</ele>
        <time>2021-08-29T09:48:14.000Z</time>
      </trkpt>
      <trkpt lat="47.06627" lon="-1.51652">
        <ele>73</ele>
        <time>2021-08-29T09:48:16.000Z</time>
      </trkpt>
      <trkpt lat="47.06622" lon="-1.51635">
        <ele>73</ele>
        <time>2021-08-29T09:48:18.000Z</time>
      </trkpt>
      <trkpt lat="47.06618" lon="-1.51617">
        <ele>73</ele>
        <time>2021-08-29T09:48:20.000Z</time>
      </trkpt>
      <trkpt lat="47.06613" lon="-1.51599">
        <ele>73</ele>
        <time>2021-08-29T09:48:22.000Z</time>
      </trkpt>
      <trkpt lat="47.06609" lon="-1.51582">
        <ele>73</ele>
        <time>2021-08-29T09:48:24.000Z</time>
      </trkpt>
      <trkpt lat="47.06604" lon="-1.51564">
        <ele>73</ele>
        <time>2021-08-29T09:48:26.000Z</time>
      </trkpt>
      <trkpt lat="47.06599" lon="-1.51547">
        <ele>72</ele>
        <time>2021-08-29T09:48:28.000Z</time>
      </trkpt>
      <trkpt lat="47.06597" lon="-1.51529">
        <ele>73</ele>
        <time>2021-08-29T09:48:30.000Z</time>
      </trkpt>
      <trkpt lat="47.06596" lon="-1.51509">
        <ele>73</ele>
        <time>2021-08-29T09:48:32.000Z</time>
      </trkpt>
      <trkpt lat="47.06597" lon="-1.51491">
        <ele>73</ele>
        <time>2021-08-29T09:48:34.000Z</time>
      </trkpt>
      <trkpt lat="47.06597" lon="-1.51473">
        <ele>74</ele>
        <time>2021-08-29T09:48:36.000Z</time>
      </trkpt>
      <trkpt lat="47.06597" lon="-1.51456">
        <ele>74</ele>
        <time>2021-08-29T09:48:38.000Z</time>
      </trkpt>
      <trkpt lat="47.06597" lon="-1.51439">
        <ele>74</ele>
        <time>2021-08-29T09:48:40.000Z</time>
      </trkpt>
      <trkpt lat="47.06598" lon="-1.51421">
        <ele>75</ele>
        <time>2021-08-29T09:48:42.000Z</time>
      </trkpt>
      <trkpt lat="47.06598" lon="-1.51403">
        <ele>75</ele>
        <time>2021-08-29T09:48:44.000Z</time>
      </trkpt>
      <trkpt lat="47.06598" lon="-1.51386">
        <ele>75</ele>
        <time>2021-08-29T09:48:46.000Z</time>
      </trkpt>
      <trkpt lat="47.06599" lon="-1.51368">
        <ele>75</ele>
        <time>2021-08-29T09:48:48.000Z</time>
      </trkpt>
      <trkpt lat="47.06599" lon="-1.51351">
        <ele>75</ele>
        <time>2021-08-29T09:48:50.000Z</time>
      </trkpt>
      <trkpt lat="47.06599" lon="-1.51334">
        <ele>75</ele>
        <time>2021-08-29T09:48:52.000Z</time>
      </trkpt>
      <trkpt lat="47.066" lon="-1.51315">
        <ele>75</ele>
        <time>2021-08-29T09:48:54.000Z</time>
      </trkpt>
      <trkpt lat="47.066" lon="-1.51297">
        <ele>75</ele>
        <time>2021-08-29T09:48:56.000Z</time>
      </trkpt>
      <trkpt lat="47.06601" lon="-1.51279">
        <ele>75</ele>
        <time>2021-08-29T09:48:58.000Z</time>
      </trkpt>
      <trkpt lat="47.06601" lon="-1.51262">
        <ele>75</ele>
        <time>2021-08-29T09:49:00.000Z</time>
      </trkpt>
      <trkpt lat="47.06601" lon="-1.51245">
        <ele>74</ele>
        <time>2021-08-29T09:49:02.000Z</time>
      </trkpt>
      <trkpt lat="47.06601" lon="-1.51228">
        <ele>75</ele>
        <time>2021-08-29T09:49:04.000Z</time>
      </trkpt>
      <trkpt lat="47.06601" lon="-1.51211">
        <ele>75</ele>
        <time>2021-08-29T09:49:06.000Z</time>
      </trkpt>
      <trkpt lat="47.066" lon="-1.51193">
        <ele>75</ele>
        <time>2021-08-29T09:49:08.000Z</time>
      </trkpt>
      <trkpt lat="47.06599" lon="-1.51176">
        <ele>75</ele>
        <time>2021-08-29T09:49:10.000Z</time>
      </trkpt>
      <trkpt lat="47.06597" lon="-1.51158">
        <ele>75</ele>
        <time>2021-08-29T09:49:12.000Z</time>
      </trkpt>
      <trkpt lat="47.06596" lon="-1.51141">
        <ele>75</ele>
        <time>2021-08-29T09:49:14.000Z</time>
      </trkpt>
      <trkpt lat="47.06594" lon="-1.51124">
        <ele>75</ele>
        <time>2021-08-29T09:49:16.000Z</time>
      </trkpt>
      <trkpt lat="47.06593" lon="-1.51107">
        <ele>76</ele>
        <time>2021-08-29T09:49:18.000Z</time>
      </trkpt>
      <trkpt lat="47.06592" lon="-1.5109">
        <ele>75</ele>
        <time>2021-08-29T09:49:20.000Z</time>
      </trkpt>
      <trkpt lat="47.0659" lon="-1.51072">
        <ele>76</ele>
        <time>2021-08-29T09:49:22.000Z</time>
      </trkpt>
      <trkpt lat="47.06588" lon="-1.51055">
        <ele>76</ele>
        <time>2021-08-29T09:49:24.000Z</time>
      </trkpt>
      <trkpt lat="47.06586" lon="-1.51038">
        <ele>76</ele>
        <time>2021-08-29T09:49:26.000Z</time>
      </trkpt>
      <trkpt lat="47.06584" lon="-1.51022">
        <ele>76</ele>
        <time>2021-08-29T09:49:28.000Z</time>
      </trkpt>
      <trkpt lat="47.0658" lon="-1.51006">
        <ele>76</ele>
        <time>2021-08-29T09:49:30.000Z</time>
      </trkpt>
      <trkpt lat="47.06576" lon="-1.5099">
        <ele>76</ele>
        <time>2021-08-29T09:49:32.000Z</time>
      </trkpt>
      <trkpt lat="47.06572" lon="-1.50973">
        <ele>76</ele>
        <time>2021-08-29T09:49:34.000Z</time>
      </trkpt>
      <trkpt lat="47.06568" lon="-1.50957">
        <ele>76</ele>
        <time>2021-08-29T09:49:36.000Z</time>
      </trkpt>
      <trkpt lat="47.06564" lon="-1.5094">
        <ele>76</ele>
        <time>2021-08-29T09:49:38.000Z</time>
      </trkpt>
      <trkpt lat="47.06559" lon="-1.50924">
        <ele>75</ele>
        <time>2021-08-29T09:49:40.000Z</time>
      </trkpt>
      <trkpt lat="47.06555" lon="-1.50909">
        <ele>76</ele>
        <time>2021-08-29T09:49:42.000Z</time>
      </trkpt>
      <trkpt lat="47.06551" lon="-1.50893">
        <ele>76</ele>
        <time>2021-08-29T09:49:44.000Z</time>
      </trkpt>
      <trkpt lat="47.06546" lon="-1.50877">
        <ele>76</ele>
        <time>2021-08-29T09:49:46.000Z</time>
      </trkpt>
      <trkpt lat="47.06542" lon="-1.50861">
        <ele>76</ele>
        <time>2021-08-29T09:49:48.000Z</time>
      </trkpt>
      <trkpt lat="47.06537" lon="-1.50845">
        <ele>76</ele>
        <time>2021-08-29T09:49:50.000Z</time>
      </trkpt>
      <trkpt lat="47.06533" lon="-1.50829">
        <ele>76</ele>
        <time>2021-08-29T09:49:52.000Z</time>
      </trkpt>
      <trkpt lat="47.06528" lon="-1.50812">
        <ele>76</ele>
        <time>2021-08-29T09:49:54.000Z</time>
      </trkpt>
      <trkpt lat="47.06522" lon="-1.50796">
        <ele>77</ele>
        <time>2021-08-29T09:49:56.000Z</time>
      </trkpt>
      <trkpt lat="47.06517" lon="-1.50779">
        <ele>76</ele>
        <time>2021-08-29T09:49:58.000Z</time>
      </trkpt>
      <trkpt lat="47.06515" lon="-1.50761">
        <ele>76</ele>
        <time>2021-08-29T09:50:00.000Z</time>
      </trkpt>
      <trkpt lat="47.06518" lon="-1.50744">
        <ele>76</ele>
        <time>2021-08-29T09:50:02.000Z</time>
      </trkpt>
      <trkpt lat="47.06524" lon="-1.50728">
        <ele>76</ele>
        <time>2021-08-29T09:50:04.000Z</time>
      </trkpt>
      <trkpt lat="47.06533" lon="-1.50716">
        <ele>76</ele>
        <time>2021-08-29T09:50:06.000Z</time>
      </trkpt>
      <trkpt lat="47.06543" lon="-1.50708">
        <ele>75</ele>
        <time>2021-08-29T09:50:08.000Z</time>
      </trkpt>
      <trkpt lat="47.06553" lon="-1.507">
        <ele>75</ele>
        <time>2021-08-29T09:50:10.000Z</time>
      </trkpt>
      <trkpt lat="47.06564" lon="-1.50692">
        <ele>75</ele>
        <time>2021-08-29T09:50:12.000Z</time>
      </trkpt>
      <trkpt lat="47.06575" lon="-1.50683">
        <ele>74</ele>
        <time>2021-08-29T09:50:14.000Z</time>
      </trkpt>
      <trkpt lat="47.06586" lon="-1.50674">
        <ele>74</ele>
        <time>2021-08-29T09:50:16.000Z</time>
      </trkpt>
      <trkpt lat="47.06594" lon="-1.50662">
        <ele>75</ele>
        <time>2021-08-29T09:50:18.000Z</time>
      </trkpt>
      <trkpt lat="47.066" lon="-1.50646">
        <ele>75</ele>
        <time>2021-08-29T09:50:20.000Z</time>
      </trkpt>
      <trkpt lat="47.06603" lon="-1.50628">
        <ele>75</ele>
        <time>2021-08-29T09:50:22.000Z</time>
      </trkpt>
      <trkpt lat="47.06606" lon="-1.5061">
        <ele>74</ele>
        <time>2021-08-29T09:50:24.000Z</time>
      </trkpt>
      <trkpt lat="47.06609" lon="-1.50593">
        <ele>74</ele>
        <time>2021-08-29T09:50:26.000Z</time>
      </trkpt>
      <trkpt lat="47.06612" lon="-1.50574">
        <ele>74</ele>
        <time>2021-08-29T09:50:28.000Z</time>
      </trkpt>
      <trkpt lat="47.06615" lon="-1.50556">
        <ele>74</ele>
        <time>2021-08-29T09:50:30.000Z</time>
      </trkpt>
      <trkpt lat="47.06618" lon="-1.50537">
        <ele>74</ele>
        <time>2021-08-29T09:50:32.000Z</time>
      </trkpt>
      <trkpt lat="47.06621" lon="-1.50518">
        <ele>74</ele>
        <time>2021-08-29T09:50:34.000Z</time>
      </trkpt>
      <trkpt lat="47.06624" lon="-1.505">
        <ele>74</ele>
        <time>2021-08-29T09:50:36.000Z</time>
      </trkpt>
      <trkpt lat="47.06627" lon="-1.50481">
        <ele>73</ele>
        <time>2021-08-29T09:50:38.000Z</time>
      </trkpt>
      <trkpt lat="47.0663" lon="-1.50462">
        <ele>73</ele>
        <time>2021-08-29T09:50:40.000Z</time>
      </trkpt>
      <trkpt lat="47.06632" lon="-1.50443">
        <ele>72</ele>
        <time>2021-08-29T09:50:42.000Z</time>
      </trkpt>
      <trkpt lat="47.06633" lon="-1.50424">
        <ele>72</ele>
        <time>2021-08-29T09:50:44.000Z</time>
      </trkpt>
      <trkpt lat="47.06632" lon="-1.50404">
        <ele>72</ele>
        <time>2021-08-29T09:50:46.000Z</time>
      </trkpt>
      <trkpt lat="47.0663" lon="-1.50384">
        <ele>72</ele>
        <time>2021-08-29T09:50:48.000Z</time>
      </trkpt>
      <trkpt lat="47.06626" lon="-1.50366">
        <ele>72</ele>
        <time>2021-08-29T09:50:50.000Z</time>
      </trkpt>
      <trkpt lat="47.06622" lon="-1.50347">
        <ele>72</ele>
        <time>2021-08-29T09:50:52.000Z</time>
      </trkpt>
      <trkpt lat="47.06617" lon="-1.50329">
        <ele>72</ele>
        <time>2021-08-29T09:50:54.000Z</time>
      </trkpt>
      <trkpt lat="47.06612" lon="-1.50311">
        <ele>73</ele>
        <time>2021-08-29T09:50:56.000Z</time>
      </trkpt>
      <trkpt lat="47.06607" lon="-1.50293">
        <ele>72</ele>
        <time>2021-08-29T09:50:58.000Z</time>
      </trkpt>
      <trkpt lat="47.06602" lon="-1.50277">
        <ele>72</ele>
        <time>2021-08-29T09:51:00.000Z</time>
      </trkpt>
      <trkpt lat="47.06597" lon="-1.5026">
        <ele>73</ele>
        <time>2021-08-29T09:51:02.000Z</time>
      </trkpt>
      <trkpt lat="47.06593" lon="-1.50242">
        <ele>73</ele>
        <time>2021-08-29T09:51:04.000Z</time>
      </trkpt>
      <trkpt lat="47.06588" lon="-1.50225">
        <ele>73</ele>
        <time>2021-08-29T09:51:06.000Z</time>
      </trkpt>
      <trkpt lat="47.06584" lon="-1.50208">
        <ele>73</ele>
        <time>2021-08-29T09:51:08.000Z</time>
      </trkpt>
      <trkpt lat="47.0658" lon="-1.50189">
        <ele>73</ele>
        <time>2021-08-29T09:51:10.000Z</time>
      </trkpt>
      <trkpt lat="47.06577" lon="-1.50171">
        <ele>72</ele>
        <time>2021-08-29T09:51:12.000Z</time>
      </trkpt>
      <trkpt lat="47.06574" lon="-1.50153">
        <ele>72</ele>
        <time>2021-08-29T09:51:14.000Z</time>
      </trkpt>
      <trkpt lat="47.0657" lon="-1.50135">
        <ele>72</ele>
        <time>2021-08-29T09:51:16.000Z</time>
      </trkpt>
      <trkpt lat="47.06567" lon="-1.50117">
        <ele>72</ele>
        <time>2021-08-29T09:51:18.000Z</time>
      </trkpt>
      <trkpt lat="47.06564" lon="-1.50099">
        <ele>72</ele>
        <time>2021-08-29T09:51:20.000Z</time>
      </trkpt>
      <trkpt lat="47.0656" lon="-1.50081">
        <ele>72</ele>
        <time>2021-08-29T09:51:22.000Z</time>
      </trkpt>
      <trkpt lat="47.06556" lon="-1.50062">
        <ele>72</ele>
        <time>2021-08-29T09:51:24.000Z</time>
      </trkpt>
      <trkpt lat="47.06552" lon="-1.50043">
        <ele>73</ele>
        <time>2021-08-29T09:51:26.000Z</time>
      </trkpt>
      <trkpt lat="47.06549" lon="-1.50025">
        <ele>73</ele>
        <time>2021-08-29T09:51:28.000Z</time>
      </trkpt>
      <trkpt lat="47.06545" lon="-1.50007">
        <ele>73</ele>
        <time>2021-08-29T09:51:30.000Z</time>
      </trkpt>
      <trkpt lat="47.06542" lon="-1.49989">
        <ele>73</ele>
        <time>2021-08-29T09:51:32.000Z</time>
      </trkpt>
      <trkpt lat="47.06538" lon="-1.4997">
        <ele>73</ele>
        <time>2021-08-29T09:51:34.000Z</time>
      </trkpt>
      <trkpt lat="47.06535" lon="-1.49953">
        <ele>73</ele>
        <time>2021-08-29T09:51:36.000Z</time>
      </trkpt>
      <trkpt lat="47.06531" lon="-1.49935">
        <ele>73</ele>
        <time>2021-08-29T09:51:38.000Z</time>
      </trkpt>
      <trkpt lat="47.06527" lon="-1.49918">
        <ele>73</ele>
        <time>2021-08-29T09:51:40.000Z</time>
      </trkpt>
      <trkpt lat="47.06523" lon="-1.499">
        <ele>74</ele>
        <time>2021-08-29T09:51:42.000Z</time>
      </trkpt>
      <trkpt lat="47.0652" lon="-1.49882">
        <ele>74</ele>
        <time>2021-08-29T09:51:44.000Z</time>
      </trkpt>
      <trkpt lat="47.06516" lon="-1.49866">
        <ele>73</ele>
        <time>2021-08-29T09:51:46.000Z</time>
      </trkpt>
      <trkpt lat="47.06512" lon="-1.49849">
        <ele>73</ele>
        <time>2021-08-29T09:51:48.000Z</time>
      </trkpt>
      <trkpt lat="47.0651" lon="-1.49833">
        <ele>73</ele>
        <time>2021-08-29T09:51:50.000Z</time>
      </trkpt>
      <trkpt lat="47.06508" lon="-1.49817">
        <ele>73</ele>
        <time>2021-08-29T09:51:52.000Z</time>
      </trkpt>
      <trkpt lat="47.06509" lon="-1.498">
        <ele>74</ele>
        <time>2021-08-29T09:51:54.000Z</time>
      </trkpt>
      <trkpt lat="47.06511" lon="-1.49784">
        <ele>74</ele>
        <time>2021-08-29T09:51:56.000Z</time>
      </trkpt>
      <trkpt lat="47.06515" lon="-1.49769">
        <ele>73</ele>
        <time>2021-08-29T09:51:58.000Z</time>
      </trkpt>
      <trkpt lat="47.0652" lon="-1.49752">
        <ele>73</ele>
        <time>2021-08-29T09:52:00.000Z</time>
      </trkpt>
      <trkpt lat="47.06524" lon="-1.49737">
        <ele>73</ele>
        <time>2021-08-29T09:52:02.000Z</time>
      </trkpt>
      <trkpt lat="47.06526" lon="-1.49719">
        <ele>72</ele>
        <time>2021-08-29T09:52:04.000Z</time>
      </trkpt>
      <trkpt lat="47.06528" lon="-1.49702">
        <ele>72</ele>
        <time>2021-08-29T09:52:06.000Z</time>
      </trkpt>
      <trkpt lat="47.06529" lon="-1.49684">
        <ele>72</ele>
        <time>2021-08-29T09:52:08.000Z</time>
      </trkpt>
      <trkpt lat="47.0653" lon="-1.49667">
        <ele>72</ele>
        <time>2021-08-29T09:52:10.000Z</time>
      </trkpt>
      <trkpt lat="47.0653" lon="-1.49651">
        <ele>72</ele>
        <time>2021-08-29T09:52:12.000Z</time>
      </trkpt>
      <trkpt lat="47.0653" lon="-1.49637">
        <ele>72</ele>
        <time>2021-08-29T09:52:14.000Z</time>
      </trkpt>
      <trkpt lat="47.06526" lon="-1.4962">
        <ele>72</ele>
        <time>2021-08-29T09:52:17.000Z</time>
      </trkpt>
      <trkpt lat="47.06517" lon="-1.49614">
        <ele>72</ele>
        <time>2021-08-29T09:52:19.000Z</time>
      </trkpt>
      <trkpt lat="47.06507" lon="-1.4961">
        <ele>72</ele>
        <time>2021-08-29T09:52:21.000Z</time>
      </trkpt>
      <trkpt lat="47.06496" lon="-1.49605">
        <ele>71</ele>
        <time>2021-08-29T09:52:23.000Z</time>
      </trkpt>
      <trkpt lat="47.06485" lon="-1.49599">
        <ele>72</ele>
        <time>2021-08-29T09:52:25.000Z</time>
      </trkpt>
      <trkpt lat="47.06474" lon="-1.49593">
        <ele>72</ele>
        <time>2021-08-29T09:52:27.000Z</time>
      </trkpt>
      <trkpt lat="47.06463" lon="-1.49587">
        <ele>72</ele>
        <time>2021-08-29T09:52:29.000Z</time>
      </trkpt>
      <trkpt lat="47.06452" lon="-1.49581">
        <ele>72</ele>
        <time>2021-08-29T09:52:31.000Z</time>
      </trkpt>
      <trkpt lat="47.0644" lon="-1.49575">
        <ele>72</ele>
        <time>2021-08-29T09:52:33.000Z</time>
      </trkpt>
      <trkpt lat="47.06428" lon="-1.49569">
        <ele>72</ele>
        <time>2021-08-29T09:52:35.000Z</time>
      </trkpt>
      <trkpt lat="47.06416" lon="-1.49563">
        <ele>71</ele>
        <time>2021-08-29T09:52:37.000Z</time>
      </trkpt>
      <trkpt lat="47.06403" lon="-1.49556">
        <ele>71</ele>
        <time>2021-08-29T09:52:39.000Z</time>
      </trkpt>
      <trkpt lat="47.06391" lon="-1.4955">
        <ele>71</ele>
        <time>2021-08-29T09:52:41.000Z</time>
      </trkpt>
      <trkpt lat="47.06379" lon="-1.49544">
        <ele>71</ele>
        <time>2021-08-29T09:52:43.000Z</time>
      </trkpt>
      <trkpt lat="47.06367" lon="-1.49538">
        <ele>71</ele>
        <time>2021-08-29T09:52:45.000Z</time>
      </trkpt>
      <trkpt lat="47.06355" lon="-1.49532">
        <ele>71</ele>
        <time>2021-08-29T09:52:47.000Z</time>
      </trkpt>
      <trkpt lat="47.06343" lon="-1.49526">
        <ele>71</ele>
        <time>2021-08-29T09:52:49.000Z</time>
      </trkpt>
      <trkpt lat="47.0633" lon="-1.49519">
        <ele>71</ele>
        <time>2021-08-29T09:52:51.000Z</time>
      </trkpt>
      <trkpt lat="47.06318" lon="-1.49513">
        <ele>71</ele>
        <time>2021-08-29T09:52:53.000Z</time>
      </trkpt>
      <trkpt lat="47.06306" lon="-1.49507">
        <ele>71</ele>
        <time>2021-08-29T09:52:55.000Z</time>
      </trkpt>
      <trkpt lat="47.06293" lon="-1.495">
        <ele>71</ele>
        <time>2021-08-29T09:52:57.000Z</time>
      </trkpt>
      <trkpt lat="47.06282" lon="-1.49493">
        <ele>71</ele>
        <time>2021-08-29T09:52:59.000Z</time>
      </trkpt>
      <trkpt lat="47.0627" lon="-1.49484">
        <ele>70</ele>
        <time>2021-08-29T09:53:01.000Z</time>
      </trkpt>
      <trkpt lat="47.06259" lon="-1.49475">
        <ele>70</ele>
        <time>2021-08-29T09:53:03.000Z</time>
      </trkpt>
      <trkpt lat="47.06248" lon="-1.49465">
        <ele>70</ele>
        <time>2021-08-29T09:53:05.000Z</time>
      </trkpt>
      <trkpt lat="47.06238" lon="-1.49454">
        <ele>71</ele>
        <time>2021-08-29T09:53:07.000Z</time>
      </trkpt>
      <trkpt lat="47.06228" lon="-1.49443">
        <ele>71</ele>
        <time>2021-08-29T09:53:09.000Z</time>
      </trkpt>
      <trkpt lat="47.06218" lon="-1.49431">
        <ele>71</ele>
        <time>2021-08-29T09:53:11.000Z</time>
      </trkpt>
      <trkpt lat="47.06209" lon="-1.49419">
        <ele>71</ele>
        <time>2021-08-29T09:53:13.000Z</time>
      </trkpt>
      <trkpt lat="47.06198" lon="-1.4941">
        <ele>71</ele>
        <time>2021-08-29T09:53:15.000Z</time>
      </trkpt>
      <trkpt lat="47.06188" lon="-1.49399">
        <ele>71</ele>
        <time>2021-08-29T09:53:17.000Z</time>
      </trkpt>
      <trkpt lat="47.06178" lon="-1.49388">
        <ele>71</ele>
        <time>2021-08-29T09:53:19.000Z</time>
      </trkpt>
      <trkpt lat="47.06168" lon="-1.49376">
        <ele>71</ele>
        <time>2021-08-29T09:53:21.000Z</time>
      </trkpt>
      <trkpt lat="47.06158" lon="-1.49364">
        <ele>71</ele>
        <time>2021-08-29T09:53:23.000Z</time>
      </trkpt>
      <trkpt lat="47.06148" lon="-1.49352">
        <ele>70</ele>
        <time>2021-08-29T09:53:25.000Z</time>
      </trkpt>
      <trkpt lat="47.06138" lon="-1.4934">
        <ele>70</ele>
        <time>2021-08-29T09:53:27.000Z</time>
      </trkpt>
      <trkpt lat="47.06129" lon="-1.49326">
        <ele>69</ele>
        <time>2021-08-29T09:53:29.000Z</time>
      </trkpt>
      <trkpt lat="47.0612" lon="-1.49313">
        <ele>69</ele>
        <time>2021-08-29T09:53:31.000Z</time>
      </trkpt>
      <trkpt lat="47.06111" lon="-1.49299">
        <ele>69</ele>
        <time>2021-08-29T09:53:33.000Z</time>
      </trkpt>
      <trkpt lat="47.06102" lon="-1.49285">
        <ele>69</ele>
        <time>2021-08-29T09:53:35.000Z</time>
      </trkpt>
      <trkpt lat="47.06094" lon="-1.49269">
        <ele>69</ele>
        <time>2021-08-29T09:53:37.000Z</time>
      </trkpt>
      <trkpt lat="47.06086" lon="-1.49254">
        <ele>68</ele>
        <time>2021-08-29T09:53:39.000Z</time>
      </trkpt>
      <trkpt lat="47.06078" lon="-1.49239">
        <ele>68</ele>
        <time>2021-08-29T09:53:41.000Z</time>
      </trkpt>
      <trkpt lat="47.06071" lon="-1.49223">
        <ele>69</ele>
        <time>2021-08-29T09:53:43.000Z</time>
      </trkpt>
      <trkpt lat="47.06063" lon="-1.49208">
        <ele>69</ele>
        <time>2021-08-29T09:53:45.000Z</time>
      </trkpt>
      <trkpt lat="47.06055" lon="-1.49193">
        <ele>69</ele>
        <time>2021-08-29T09:53:47.000Z</time>
      </trkpt>
      <trkpt lat="47.06047" lon="-1.49178">
        <ele>69</ele>
        <time>2021-08-29T09:53:49.000Z</time>
      </trkpt>
      <trkpt lat="47.0604" lon="-1.49164">
        <ele>69</ele>
        <time>2021-08-29T09:53:51.000Z</time>
      </trkpt>
      <trkpt lat="47.06032" lon="-1.49149">
        <ele>69</ele>
        <time>2021-08-29T09:53:53.000Z</time>
      </trkpt>
      <trkpt lat="47.06025" lon="-1.49134">
        <ele>68</ele>
        <time>2021-08-29T09:53:55.000Z</time>
      </trkpt>
      <trkpt lat="47.06013" lon="-1.49112">
        <ele>69</ele>
        <time>2021-08-29T09:53:58.000Z</time>
      </trkpt>
      <trkpt lat="47.06005" lon="-1.49098">
        <ele>68</ele>
        <time>2021-08-29T09:54:00.000Z</time>
      </trkpt>
      <trkpt lat="47.05996" lon="-1.49084">
        <ele>68</ele>
        <time>2021-08-29T09:54:02.000Z</time>
      </trkpt>
      <trkpt lat="47.05987" lon="-1.49071">
        <ele>68</ele>
        <time>2021-08-29T09:54:04.000Z</time>
      </trkpt>
      <trkpt lat="47.05977" lon="-1.49059">
        <ele>68</ele>
        <time>2021-08-29T09:54:06.000Z</time>
      </trkpt>
      <trkpt lat="47.05968" lon="-1.49048">
        <ele>68</ele>
        <time>2021-08-29T09:54:08.000Z</time>
      </trkpt>
      <trkpt lat="47.05951" lon="-1.49029">
        <ele>68</ele>
        <time>2021-08-29T09:54:11.000Z</time>
      </trkpt>
      <trkpt lat="47.05939" lon="-1.49018">
        <ele>68</ele>
        <time>2021-08-29T09:54:13.000Z</time>
      </trkpt>
      <trkpt lat="47.05926" lon="-1.49007">
        <ele>68</ele>
        <time>2021-08-29T09:54:15.000Z</time>
      </trkpt>
      <trkpt lat="47.05913" lon="-1.48996">
        <ele>67</ele>
        <time>2021-08-29T09:54:17.000Z</time>
      </trkpt>
      <trkpt lat="47.05901" lon="-1.48985">
        <ele>67</ele>
        <time>2021-08-29T09:54:19.000Z</time>
      </trkpt>
      <trkpt lat="47.05888" lon="-1.48974">
        <ele>67</ele>
        <time>2021-08-29T09:54:21.000Z</time>
      </trkpt>
      <trkpt lat="47.05876" lon="-1.48964">
        <ele>67</ele>
        <time>2021-08-29T09:54:23.000Z</time>
      </trkpt>
      <trkpt lat="47.05864" lon="-1.48955">
        <ele>66</ele>
        <time>2021-08-29T09:54:25.000Z</time>
      </trkpt>
      <trkpt lat="47.05852" lon="-1.48945">
        <ele>66</ele>
        <time>2021-08-29T09:54:27.000Z</time>
      </trkpt>
      <trkpt lat="47.0584" lon="-1.48935">
        <ele>66</ele>
        <time>2021-08-29T09:54:29.000Z</time>
      </trkpt>
      <trkpt lat="47.05828" lon="-1.48923">
        <ele>66</ele>
        <time>2021-08-29T09:54:31.000Z</time>
      </trkpt>
      <trkpt lat="47.05817" lon="-1.4891">
        <ele>66</ele>
        <time>2021-08-29T09:54:33.000Z</time>
      </trkpt>
      <trkpt lat="47.05799" lon="-1.48892">
        <ele>67</ele>
        <time>2021-08-29T09:54:36.000Z</time>
      </trkpt>
      <trkpt lat="47.05786" lon="-1.48884">
        <ele>66</ele>
        <time>2021-08-29T09:54:38.000Z</time>
      </trkpt>
      <trkpt lat="47.05774" lon="-1.48874">
        <ele>67</ele>
        <time>2021-08-29T09:54:40.000Z</time>
      </trkpt>
      <trkpt lat="47.05756" lon="-1.48861">
        <ele>66</ele>
        <time>2021-08-29T09:54:43.000Z</time>
      </trkpt>
      <trkpt lat="47.05745" lon="-1.48852">
        <ele>64</ele>
        <time>2021-08-29T09:54:45.000Z</time>
      </trkpt>
      <trkpt lat="47.05732" lon="-1.48843">
        <ele>64</ele>
        <time>2021-08-29T09:54:47.000Z</time>
      </trkpt>
      <trkpt lat="47.0572" lon="-1.48834">
        <ele>64</ele>
        <time>2021-08-29T09:54:49.000Z</time>
      </trkpt>
      <trkpt lat="47.05707" lon="-1.48824">
        <ele>64</ele>
        <time>2021-08-29T09:54:51.000Z</time>
      </trkpt>
      <trkpt lat="47.05694" lon="-1.48812">
        <ele>64</ele>
        <time>2021-08-29T09:54:53.000Z</time>
      </trkpt>
      <trkpt lat="47.05683" lon="-1.488">
        <ele>64</ele>
        <time>2021-08-29T09:54:55.000Z</time>
      </trkpt>
      <trkpt lat="47.05673" lon="-1.48787">
        <ele>64</ele>
        <time>2021-08-29T09:54:57.000Z</time>
      </trkpt>
      <trkpt lat="47.05663" lon="-1.48777">
        <ele>64</ele>
        <time>2021-08-29T09:54:59.000Z</time>
      </trkpt>
      <trkpt lat="47.05661" lon="-1.4876">
        <ele>65</ele>
        <time>2021-08-29T09:55:01.000Z</time>
      </trkpt>
      <trkpt lat="47.05661" lon="-1.48739">
        <ele>65</ele>
        <time>2021-08-29T09:55:03.000Z</time>
      </trkpt>
      <trkpt lat="47.05659" lon="-1.48719">
        <ele>64</ele>
        <time>2021-08-29T09:55:05.000Z</time>
      </trkpt>
      <trkpt lat="47.05656" lon="-1.48699">
        <ele>65</ele>
        <time>2021-08-29T09:55:07.000Z</time>
      </trkpt>
      <trkpt lat="47.05653" lon="-1.4868">
        <ele>66</ele>
        <time>2021-08-29T09:55:09.000Z</time>
      </trkpt>
      <trkpt lat="47.05649" lon="-1.48662">
        <ele>66</ele>
        <time>2021-08-29T09:55:11.000Z</time>
      </trkpt>
      <trkpt lat="47.05644" lon="-1.48642">
        <ele>65</ele>
        <time>2021-08-29T09:55:13.000Z</time>
      </trkpt>
      <trkpt lat="47.05641" lon="-1.48624">
        <ele>65</ele>
        <time>2021-08-29T09:55:15.000Z</time>
      </trkpt>
      <trkpt lat="47.05638" lon="-1.48607">
        <ele>64</ele>
        <time>2021-08-29T09:55:17.000Z</time>
      </trkpt>
      <trkpt lat="47.05636" lon="-1.4859">
        <ele>64</ele>
        <time>2021-08-29T09:55:19.000Z</time>
      </trkpt>
      <trkpt lat="47.05635" lon="-1.48573">
        <ele>64</ele>
        <time>2021-08-29T09:55:21.000Z</time>
      </trkpt>
      <trkpt lat="47.05636" lon="-1.48559">
        <ele>64</ele>
        <time>2021-08-29T09:55:23.000Z</time>
      </trkpt>
      <trkpt lat="47.05637" lon="-1.48543">
        <ele>63</ele>
        <time>2021-08-29T09:55:26.000Z</time>
      </trkpt>
      <trkpt lat="47.05645" lon="-1.48533">
        <ele>63</ele>
        <time>2021-08-29T09:55:29.000Z</time>
      </trkpt>
      <trkpt lat="47.05658" lon="-1.48528">
        <ele>63</ele>
        <time>2021-08-29T09:55:31.000Z</time>
      </trkpt>
      <trkpt lat="47.05674" lon="-1.48522">
        <ele>63</ele>
        <time>2021-08-29T09:55:33.000Z</time>
      </trkpt>
      <trkpt lat="47.05689" lon="-1.48512">
        <ele>61</ele>
        <time>2021-08-29T09:55:35.000Z</time>
      </trkpt>
      <trkpt lat="47.05701" lon="-1.48502">
        <ele>59</ele>
        <time>2021-08-29T09:55:37.000Z</time>
      </trkpt>
      <trkpt lat="47.05712" lon="-1.4849">
        <ele>59</ele>
        <time>2021-08-29T09:55:39.000Z</time>
      </trkpt>
      <trkpt lat="47.05721" lon="-1.48478">
        <ele>59</ele>
        <time>2021-08-29T09:55:41.000Z</time>
      </trkpt>
      <trkpt lat="47.05728" lon="-1.48464">
        <ele>59</ele>
        <time>2021-08-29T09:55:43.000Z</time>
      </trkpt>
      <trkpt lat="47.05734" lon="-1.4845">
        <ele>59</ele>
        <time>2021-08-29T09:55:45.000Z</time>
      </trkpt>
      <trkpt lat="47.05739" lon="-1.48437">
        <ele>59</ele>
        <time>2021-08-29T09:55:47.000Z</time>
      </trkpt>
      <trkpt lat="47.05744" lon="-1.48424">
        <ele>59</ele>
        <time>2021-08-29T09:55:49.000Z</time>
      </trkpt>
      <trkpt lat="47.0575" lon="-1.48411">
        <ele>59</ele>
        <time>2021-08-29T09:55:51.000Z</time>
      </trkpt>
      <trkpt lat="47.05756" lon="-1.48399">
        <ele>59</ele>
        <time>2021-08-29T09:55:53.000Z</time>
      </trkpt>
      <trkpt lat="47.05763" lon="-1.48387">
        <ele>59</ele>
        <time>2021-08-29T09:55:55.000Z</time>
      </trkpt>
      <trkpt lat="47.0577" lon="-1.48376">
        <ele>60</ele>
        <time>2021-08-29T09:55:57.000Z</time>
      </trkpt>
      <trkpt lat="47.0578" lon="-1.48367">
        <ele>60</ele>
        <time>2021-08-29T09:55:59.000Z</time>
      </trkpt>
      <trkpt lat="47.05789" lon="-1.48358">
        <ele>60</ele>
        <time>2021-08-29T09:56:01.000Z</time>
      </trkpt>
      <trkpt lat="47.05798" lon="-1.48348">
        <ele>60</ele>
        <time>2021-08-29T09:56:03.000Z</time>
      </trkpt>
      <trkpt lat="47.05808" lon="-1.4834">
        <ele>60</ele>
        <time>2021-08-29T09:56:05.000Z</time>
      </trkpt>
      <trkpt lat="47.05817" lon="-1.48331">
        <ele>59</ele>
        <time>2021-08-29T09:56:07.000Z</time>
      </trkpt>
      <trkpt lat="47.05827" lon="-1.48324">
        <ele>60</ele>
        <time>2021-08-29T09:56:09.000Z</time>
      </trkpt>
      <trkpt lat="47.05838" lon="-1.4832">
        <ele>60</ele>
        <time>2021-08-29T09:56:11.000Z</time>
      </trkpt>
      <trkpt lat="47.05848" lon="-1.48318">
        <ele>61</ele>
        <time>2021-08-29T09:56:13.000Z</time>
      </trkpt>
      <trkpt lat="47.05859" lon="-1.48313">
        <ele>60</ele>
        <time>2021-08-29T09:56:15.000Z</time>
      </trkpt>
      <trkpt lat="47.05869" lon="-1.48308">
        <ele>60</ele>
        <time>2021-08-29T09:56:17.000Z</time>
      </trkpt>
      <trkpt lat="47.05879" lon="-1.48305">
        <ele>60</ele>
        <time>2021-08-29T09:56:19.000Z</time>
      </trkpt>
      <trkpt lat="47.0589" lon="-1.48301">
        <ele>60</ele>
        <time>2021-08-29T09:56:21.000Z</time>
      </trkpt>
      <trkpt lat="47.05902" lon="-1.48298">
        <ele>60</ele>
        <time>2021-08-29T09:56:23.000Z</time>
      </trkpt>
      <trkpt lat="47.05913" lon="-1.48295">
        <ele>60</ele>
        <time>2021-08-29T09:56:25.000Z</time>
      </trkpt>
      <trkpt lat="47.05924" lon="-1.48294">
        <ele>60</ele>
        <time>2021-08-29T09:56:27.000Z</time>
      </trkpt>
      <trkpt lat="47.05936" lon="-1.48293">
        <ele>60</ele>
        <time>2021-08-29T09:56:29.000Z</time>
      </trkpt>
      <trkpt lat="47.05948" lon="-1.48293">
        <ele>60</ele>
        <time>2021-08-29T09:56:31.000Z</time>
      </trkpt>
      <trkpt lat="47.0596" lon="-1.48294">
        <ele>60</ele>
        <time>2021-08-29T09:56:33.000Z</time>
      </trkpt>
      <trkpt lat="47.05973" lon="-1.48294">
        <ele>60</ele>
        <time>2021-08-29T09:56:35.000Z</time>
      </trkpt>
      <trkpt lat="47.05985" lon="-1.48293">
        <ele>60</ele>
        <time>2021-08-29T09:56:37.000Z</time>
      </trkpt>
      <trkpt lat="47.05997" lon="-1.4829">
        <ele>60</ele>
        <time>2021-08-29T09:56:39.000Z</time>
      </trkpt>
      <trkpt lat="47.06009" lon="-1.48286">
        <ele>60</ele>
        <time>2021-08-29T09:56:41.000Z</time>
      </trkpt>
      <trkpt lat="47.0602" lon="-1.48282">
        <ele>60</ele>
        <time>2021-08-29T09:56:43.000Z</time>
      </trkpt>
      <trkpt lat="47.06031" lon="-1.48276">
        <ele>60</ele>
        <time>2021-08-29T09:56:45.000Z</time>
      </trkpt>
      <trkpt lat="47.06041" lon="-1.48271">
        <ele>60</ele>
        <time>2021-08-29T09:56:47.000Z</time>
      </trkpt>
      <trkpt lat="47.06051" lon="-1.48264">
        <ele>60</ele>
        <time>2021-08-29T09:56:49.000Z</time>
      </trkpt>
      <trkpt lat="47.0606" lon="-1.48258">
        <ele>60</ele>
        <time>2021-08-29T09:56:51.000Z</time>
      </trkpt>
      <trkpt lat="47.06069" lon="-1.48251">
        <ele>60</ele>
        <time>2021-08-29T09:56:53.000Z</time>
      </trkpt>
      <trkpt lat="47.06078" lon="-1.48244">
        <ele>60</ele>
        <time>2021-08-29T09:56:55.000Z</time>
      </trkpt>
      <trkpt lat="47.06088" lon="-1.48237">
        <ele>60</ele>
        <time>2021-08-29T09:56:57.000Z</time>
      </trkpt>
      <trkpt lat="47.06098" lon="-1.4823">
        <ele>60</ele>
        <time>2021-08-29T09:56:59.000Z</time>
      </trkpt>
      <trkpt lat="47.06107" lon="-1.48223">
        <ele>61</ele>
        <time>2021-08-29T09:57:01.000Z</time>
      </trkpt>
      <trkpt lat="47.06116" lon="-1.48215">
        <ele>61</ele>
        <time>2021-08-29T09:57:03.000Z</time>
      </trkpt>
      <trkpt lat="47.06125" lon="-1.48209">
        <ele>61</ele>
        <time>2021-08-29T09:57:05.000Z</time>
      </trkpt>
      <trkpt lat="47.06134" lon="-1.48202">
        <ele>61</ele>
        <time>2021-08-29T09:57:07.000Z</time>
      </trkpt>
      <trkpt lat="47.06142" lon="-1.48194">
        <ele>61</ele>
        <time>2021-08-29T09:57:09.000Z</time>
      </trkpt>
      <trkpt lat="47.06151" lon="-1.48184">
        <ele>61</ele>
        <time>2021-08-29T09:57:11.000Z</time>
      </trkpt>
      <trkpt lat="47.06159" lon="-1.48174">
        <ele>61</ele>
        <time>2021-08-29T09:57:13.000Z</time>
      </trkpt>
      <trkpt lat="47.06168" lon="-1.48163">
        <ele>61</ele>
        <time>2021-08-29T09:57:15.000Z</time>
      </trkpt>
      <trkpt lat="47.06177" lon="-1.48153">
        <ele>60</ele>
        <time>2021-08-29T09:57:17.000Z</time>
      </trkpt>
      <trkpt lat="47.06186" lon="-1.48142">
        <ele>60</ele>
        <time>2021-08-29T09:57:19.000Z</time>
      </trkpt>
      <trkpt lat="47.06194" lon="-1.4813">
        <ele>60</ele>
        <time>2021-08-29T09:57:21.000Z</time>
      </trkpt>
      <trkpt lat="47.06202" lon="-1.48115">
        <ele>59</ele>
        <time>2021-08-29T09:57:23.000Z</time>
      </trkpt>
      <trkpt lat="47.0621" lon="-1.48102">
        <ele>59</ele>
        <time>2021-08-29T09:57:25.000Z</time>
      </trkpt>
      <trkpt lat="47.0622" lon="-1.48094">
        <ele>59</ele>
        <time>2021-08-29T09:57:27.000Z</time>
      </trkpt>
      <trkpt lat="47.06232" lon="-1.48089">
        <ele>58</ele>
        <time>2021-08-29T09:57:29.000Z</time>
      </trkpt>
      <trkpt lat="47.06243" lon="-1.48084">
        <ele>59</ele>
        <time>2021-08-29T09:57:31.000Z</time>
      </trkpt>
      <trkpt lat="47.06255" lon="-1.48079">
        <ele>59</ele>
        <time>2021-08-29T09:57:33.000Z</time>
      </trkpt>
      <trkpt lat="47.06266" lon="-1.48077">
        <ele>59</ele>
        <time>2021-08-29T09:57:35.000Z</time>
      </trkpt>
      <trkpt lat="47.06278" lon="-1.48074">
        <ele>59</ele>
        <time>2021-08-29T09:57:37.000Z</time>
      </trkpt>
      <trkpt lat="47.06289" lon="-1.4807">
        <ele>59</ele>
        <time>2021-08-29T09:57:39.000Z</time>
      </trkpt>
      <trkpt lat="47.063" lon="-1.48066">
        <ele>59</ele>
        <time>2021-08-29T09:57:41.000Z</time>
      </trkpt>
      <trkpt lat="47.06311" lon="-1.48062">
        <ele>60</ele>
        <time>2021-08-29T09:57:43.000Z</time>
      </trkpt>
      <trkpt lat="47.06321" lon="-1.48059">
        <ele>60</ele>
        <time>2021-08-29T09:57:45.000Z</time>
      </trkpt>
      <trkpt lat="47.06333" lon="-1.48052">
        <ele>61</ele>
        <time>2021-08-29T09:57:48.000Z</time>
      </trkpt>
      <trkpt lat="47.06341" lon="-1.48044">
        <ele>62</ele>
        <time>2021-08-29T09:57:50.000Z</time>
      </trkpt>
      <trkpt lat="47.06348" lon="-1.48033">
        <ele>62</ele>
        <time>2021-08-29T09:57:52.000Z</time>
      </trkpt>
      <trkpt lat="47.06355" lon="-1.48022">
        <ele>62</ele>
        <time>2021-08-29T09:57:54.000Z</time>
      </trkpt>
      <trkpt lat="47.06361" lon="-1.48011">
        <ele>63</ele>
        <time>2021-08-29T09:57:56.000Z</time>
      </trkpt>
      <trkpt lat="47.06367" lon="-1.47998">
        <ele>63</ele>
        <time>2021-08-29T09:57:58.000Z</time>
      </trkpt>
      <trkpt lat="47.06373" lon="-1.47986">
        <ele>64</ele>
        <time>2021-08-29T09:58:00.000Z</time>
      </trkpt>
      <trkpt lat="47.06379" lon="-1.47974">
        <ele>64</ele>
        <time>2021-08-29T09:58:02.000Z</time>
      </trkpt>
      <trkpt lat="47.06384" lon="-1.47962">
        <ele>64</ele>
        <time>2021-08-29T09:58:04.000Z</time>
      </trkpt>
      <trkpt lat="47.06389" lon="-1.47952">
        <ele>65</ele>
        <time>2021-08-29T09:58:06.000Z</time>
      </trkpt>
      <trkpt lat="47.06395" lon="-1.4794">
        <ele>65</ele>
        <time>2021-08-29T09:58:08.000Z</time>
      </trkpt>
      <trkpt lat="47.064" lon="-1.47929">
        <ele>65</ele>
        <time>2021-08-29T09:58:10.000Z</time>
      </trkpt>
      <trkpt lat="47.06405" lon="-1.47917">
        <ele>66</ele>
        <time>2021-08-29T09:58:12.000Z</time>
      </trkpt>
      <trkpt lat="47.0641" lon="-1.47905">
        <ele>66</ele>
        <time>2021-08-29T09:58:14.000Z</time>
      </trkpt>
      <trkpt lat="47.06415" lon="-1.47893">
        <ele>66</ele>
        <time>2021-08-29T09:58:16.000Z</time>
      </trkpt>
      <trkpt lat="47.0642" lon="-1.47882">
        <ele>67</ele>
        <time>2021-08-29T09:58:18.000Z</time>
      </trkpt>
      <trkpt lat="47.06425" lon="-1.4787">
        <ele>67</ele>
        <time>2021-08-29T09:58:20.000Z</time>
      </trkpt>
      <trkpt lat="47.06431" lon="-1.47859">
        <ele>67</ele>
        <time>2021-08-29T09:58:22.000Z</time>
      </trkpt>
      <trkpt lat="47.06436" lon="-1.47847">
        <ele>67</ele>
        <time>2021-08-29T09:58:24.000Z</time>
      </trkpt>
      <trkpt lat="47.06442" lon="-1.47836">
        <ele>67</ele>
        <time>2021-08-29T09:58:26.000Z</time>
      </trkpt>
      <trkpt lat="47.06448" lon="-1.47825">
        <ele>67</ele>
        <time>2021-08-29T09:58:28.000Z</time>
      </trkpt>
      <trkpt lat="47.06453" lon="-1.47814">
        <ele>68</ele>
        <time>2021-08-29T09:58:30.000Z</time>
      </trkpt>
      <trkpt lat="47.06459" lon="-1.47803">
        <ele>68</ele>
        <time>2021-08-29T09:58:32.000Z</time>
      </trkpt>
      <trkpt lat="47.06466" lon="-1.47792">
        <ele>68</ele>
        <time>2021-08-29T09:58:34.000Z</time>
      </trkpt>
      <trkpt lat="47.06473" lon="-1.47783">
        <ele>68</ele>
        <time>2021-08-29T09:58:36.000Z</time>
      </trkpt>
      <trkpt lat="47.0648" lon="-1.47774">
        <ele>68</ele>
        <time>2021-08-29T09:58:38.000Z</time>
      </trkpt>
      <trkpt lat="47.06487" lon="-1.47765">
        <ele>68</ele>
        <time>2021-08-29T09:58:40.000Z</time>
      </trkpt>
      <trkpt lat="47.06494" lon="-1.47754">
        <ele>68</ele>
        <time>2021-08-29T09:58:42.000Z</time>
      </trkpt>
      <trkpt lat="47.065" lon="-1.47744">
        <ele>68</ele>
        <time>2021-08-29T09:58:44.000Z</time>
      </trkpt>
      <trkpt lat="47.06506" lon="-1.47734">
        <ele>69</ele>
        <time>2021-08-29T09:58:46.000Z</time>
      </trkpt>
      <trkpt lat="47.06513" lon="-1.47724">
        <ele>69</ele>
        <time>2021-08-29T09:58:48.000Z</time>
      </trkpt>
      <trkpt lat="47.0652" lon="-1.47713">
        <ele>69</ele>
        <time>2021-08-29T09:58:50.000Z</time>
      </trkpt>
      <trkpt lat="47.06526" lon="-1.47702">
        <ele>69</ele>
        <time>2021-08-29T09:58:52.000Z</time>
      </trkpt>
      <trkpt lat="47.06533" lon="-1.4769">
        <ele>69</ele>
        <time>2021-08-29T09:58:54.000Z</time>
      </trkpt>
      <trkpt lat="47.0654" lon="-1.47679">
        <ele>69</ele>
        <time>2021-08-29T09:58:56.000Z</time>
      </trkpt>
      <trkpt lat="47.06547" lon="-1.47668">
        <ele>69</ele>
        <time>2021-08-29T09:58:58.000Z</time>
      </trkpt>
      <trkpt lat="47.06553" lon="-1.47657">
        <ele>69</ele>
        <time>2021-08-29T09:59:00.000Z</time>
      </trkpt>
      <trkpt lat="47.06559" lon="-1.47646">
        <ele>69</ele>
        <time>2021-08-29T09:59:02.000Z</time>
      </trkpt>
      <trkpt lat="47.06566" lon="-1.47634">
        <ele>69</ele>
        <time>2021-08-29T09:59:04.000Z</time>
      </trkpt>
      <trkpt lat="47.06573" lon="-1.47623">
        <ele>69</ele>
        <time>2021-08-29T09:59:06.000Z</time>
      </trkpt>
      <trkpt lat="47.0658" lon="-1.47611">
        <ele>70</ele>
        <time>2021-08-29T09:59:08.000Z</time>
      </trkpt>
      <trkpt lat="47.06586" lon="-1.476">
        <ele>70</ele>
        <time>2021-08-29T09:59:10.000Z</time>
      </trkpt>
      <trkpt lat="47.06593" lon="-1.47589">
        <ele>70</ele>
        <time>2021-08-29T09:59:12.000Z</time>
      </trkpt>
      <trkpt lat="47.06599" lon="-1.47577">
        <ele>70</ele>
        <time>2021-08-29T09:59:14.000Z</time>
      </trkpt>
      <trkpt lat="47.06606" lon="-1.47566">
        <ele>70</ele>
        <time>2021-08-29T09:59:16.000Z</time>
      </trkpt>
      <trkpt lat="47.06612" lon="-1.47555">
        <ele>70</ele>
        <time>2021-08-29T09:59:18.000Z</time>
      </trkpt>
      <trkpt lat="47.06618" lon="-1.47544">
        <ele>71</ele>
        <time>2021-08-29T09:59:20.000Z</time>
      </trkpt>
      <trkpt lat="47.06624" lon="-1.47534">
        <ele>70</ele>
        <time>2021-08-29T09:59:22.000Z</time>
      </trkpt>
      <trkpt lat="47.0663" lon="-1.47522">
        <ele>71</ele>
        <time>2021-08-29T09:59:24.000Z</time>
      </trkpt>
      <trkpt lat="47.06637" lon="-1.47511">
        <ele>71</ele>
        <time>2021-08-29T09:59:26.000Z</time>
      </trkpt>
      <trkpt lat="47.06643" lon="-1.475">
        <ele>72</ele>
        <time>2021-08-29T09:59:28.000Z</time>
      </trkpt>
      <trkpt lat="47.0665" lon="-1.47489">
        <ele>72</ele>
        <time>2021-08-29T09:59:30.000Z</time>
      </trkpt>
      <trkpt lat="47.06657" lon="-1.47479">
        <ele>73</ele>
        <time>2021-08-29T09:59:32.000Z</time>
      </trkpt>
      <trkpt lat="47.06664" lon="-1.47467">
        <ele>73</ele>
        <time>2021-08-29T09:59:34.000Z</time>
      </trkpt>
      <trkpt lat="47.0667" lon="-1.47456">
        <ele>73</ele>
        <time>2021-08-29T09:59:36.000Z</time>
      </trkpt>
      <trkpt lat="47.06677" lon="-1.47444">
        <ele>74</ele>
        <time>2021-08-29T09:59:38.000Z</time>
      </trkpt>
      <trkpt lat="47.06683" lon="-1.47433">
        <ele>74</ele>
        <time>2021-08-29T09:59:40.000Z</time>
      </trkpt>
      <trkpt lat="47.0669" lon="-1.47422">
        <ele>74</ele>
        <time>2021-08-29T09:59:42.000Z</time>
      </trkpt>
      <trkpt lat="47.06696" lon="-1.47411">
        <ele>75</ele>
        <time>2021-08-29T09:59:44.000Z</time>
      </trkpt>
      <trkpt lat="47.06701" lon="-1.474">
        <ele>75</ele>
        <time>2021-08-29T09:59:46.000Z</time>
      </trkpt>
      <trkpt lat="47.06707" lon="-1.47389">
        <ele>75</ele>
        <time>2021-08-29T09:59:48.000Z</time>
      </trkpt>
      <trkpt lat="47.06714" lon="-1.47372">
        <ele>76</ele>
        <time>2021-08-29T09:59:51.000Z</time>
      </trkpt>
      <trkpt lat="47.06718" lon="-1.47359">
        <ele>76</ele>
        <time>2021-08-29T09:59:53.000Z</time>
      </trkpt>
      <trkpt lat="47.06722" lon="-1.47347">
        <ele>76</ele>
        <time>2021-08-29T09:59:55.000Z</time>
      </trkpt>
      <trkpt lat="47.06726" lon="-1.47335">
        <ele>76</ele>
        <time>2021-08-29T09:59:57.000Z</time>
      </trkpt>
      <trkpt lat="47.0673" lon="-1.47317">
        <ele>77</ele>
        <time>2021-08-29T10:00:00.000Z</time>
      </trkpt>
      <trkpt lat="47.06734" lon="-1.47304">
        <ele>77</ele>
        <time>2021-08-29T10:00:02.000Z</time>
      </trkpt>
      <trkpt lat="47.06737" lon="-1.47291">
        <ele>77</ele>
        <time>2021-08-29T10:00:04.000Z</time>
      </trkpt>
      <trkpt lat="47.06741" lon="-1.47278">
        <ele>78</ele>
        <time>2021-08-29T10:00:06.000Z</time>
      </trkpt>
      <trkpt lat="47.06744" lon="-1.47265">
        <ele>78</ele>
        <time>2021-08-29T10:00:08.000Z</time>
      </trkpt>
      <trkpt lat="47.0675" lon="-1.47247">
        <ele>78</ele>
        <time>2021-08-29T10:00:11.000Z</time>
      </trkpt>
      <trkpt lat="47.06754" lon="-1.47234">
        <ele>79</ele>
        <time>2021-08-29T10:00:13.000Z</time>
      </trkpt>
      <trkpt lat="47.06757" lon="-1.47222">
        <ele>79</ele>
        <time>2021-08-29T10:00:15.000Z</time>
      </trkpt>
      <trkpt lat="47.06762" lon="-1.47203">
        <ele>79</ele>
        <time>2021-08-29T10:00:18.000Z</time>
      </trkpt>
      <trkpt lat="47.06765" lon="-1.47191">
        <ele>79</ele>
        <time>2021-08-29T10:00:20.000Z</time>
      </trkpt>
      <trkpt lat="47.06769" lon="-1.47178">
        <ele>80</ele>
        <time>2021-08-29T10:00:22.000Z</time>
      </trkpt>
      <trkpt lat="47.06772" lon="-1.47165">
        <ele>80</ele>
        <time>2021-08-29T10:00:24.000Z</time>
      </trkpt>
      <trkpt lat="47.06776" lon="-1.47153">
        <ele>80</ele>
        <time>2021-08-29T10:00:26.000Z</time>
      </trkpt>
      <trkpt lat="47.06779" lon="-1.4714">
        <ele>80</ele>
        <time>2021-08-29T10:00:28.000Z</time>
      </trkpt>
      <trkpt lat="47.06783" lon="-1.47127">
        <ele>80</ele>
        <time>2021-08-29T10:00:30.000Z</time>
      </trkpt>
      <trkpt lat="47.06787" lon="-1.47115">
        <ele>80</ele>
        <time>2021-08-29T10:00:32.000Z</time>
      </trkpt>
      <trkpt lat="47.06792" lon="-1.47104">
        <ele>80</ele>
        <time>2021-08-29T10:00:34.000Z</time>
      </trkpt>
      <trkpt lat="47.06798" lon="-1.47093">
        <ele>80</ele>
        <time>2021-08-29T10:00:36.000Z</time>
      </trkpt>
      <trkpt lat="47.06805" lon="-1.47084">
        <ele>80</ele>
        <time>2021-08-29T10:00:38.000Z</time>
      </trkpt>
      <trkpt lat="47.06813" lon="-1.47076">
        <ele>80</ele>
        <time>2021-08-29T10:00:40.000Z</time>
      </trkpt>
      <trkpt lat="47.06822" lon="-1.47072">
        <ele>81</ele>
        <time>2021-08-29T10:00:42.000Z</time>
      </trkpt>
      <trkpt lat="47.06832" lon="-1.4707">
        <ele>81</ele>
        <time>2021-08-29T10:00:44.000Z</time>
      </trkpt>
      <trkpt lat="47.06843" lon="-1.4707">
        <ele>81</ele>
        <time>2021-08-29T10:00:46.000Z</time>
      </trkpt>
      <trkpt lat="47.06852" lon="-1.47072">
        <ele>81</ele>
        <time>2021-08-29T10:00:48.000Z</time>
      </trkpt>
      <trkpt lat="47.06863" lon="-1.47073">
        <ele>81</ele>
        <time>2021-08-29T10:00:50.000Z</time>
      </trkpt>
      <trkpt lat="47.06873" lon="-1.47075">
        <ele>81</ele>
        <time>2021-08-29T10:00:52.000Z</time>
      </trkpt>
      <trkpt lat="47.06883" lon="-1.47077">
        <ele>81</ele>
        <time>2021-08-29T10:00:54.000Z</time>
      </trkpt>
      <trkpt lat="47.06893" lon="-1.47078">
        <ele>81</ele>
        <time>2021-08-29T10:00:56.000Z</time>
      </trkpt>
      <trkpt lat="47.06903" lon="-1.4708">
        <ele>81</ele>
        <time>2021-08-29T10:00:58.000Z</time>
      </trkpt>
      <trkpt lat="47.06914" lon="-1.47081">
        <ele>82</ele>
        <time>2021-08-29T10:01:00.000Z</time>
      </trkpt>
      <trkpt lat="47.06924" lon="-1.47082">
        <ele>82</ele>
        <time>2021-08-29T10:01:02.000Z</time>
      </trkpt>
      <trkpt lat="47.06934" lon="-1.47083">
        <ele>82</ele>
        <time>2021-08-29T10:01:04.000Z</time>
      </trkpt>
      <trkpt lat="47.06945" lon="-1.47083">
        <ele>82</ele>
        <time>2021-08-29T10:01:06.000Z</time>
      </trkpt>
      <trkpt lat="47.06955" lon="-1.47084">
        <ele>82</ele>
        <time>2021-08-29T10:01:08.000Z</time>
      </trkpt>
      <trkpt lat="47.06966" lon="-1.47083">
        <ele>82</ele>
        <time>2021-08-29T10:01:10.000Z</time>
      </trkpt>
      <trkpt lat="47.06976" lon="-1.47082">
        <ele>82</ele>
        <time>2021-08-29T10:01:12.000Z</time>
      </trkpt>
      <trkpt lat="47.06987" lon="-1.47081">
        <ele>82</ele>
        <time>2021-08-29T10:01:14.000Z</time>
      </trkpt>
      <trkpt lat="47.06997" lon="-1.4708">
        <ele>82</ele>
        <time>2021-08-29T10:01:16.000Z</time>
      </trkpt>
      <trkpt lat="47.07007" lon="-1.47078">
        <ele>82</ele>
        <time>2021-08-29T10:01:18.000Z</time>
      </trkpt>
      <trkpt lat="47.07017" lon="-1.47075">
        <ele>82</ele>
        <time>2021-08-29T10:01:20.000Z</time>
      </trkpt>
      <trkpt lat="47.07028" lon="-1.47073">
        <ele>82</ele>
        <time>2021-08-29T10:01:22.000Z</time>
      </trkpt>
      <trkpt lat="47.07039" lon="-1.47071">
        <ele>82</ele>
        <time>2021-08-29T10:01:24.000Z</time>
      </trkpt>
      <trkpt lat="47.0705" lon="-1.47068">
        <ele>81</ele>
        <time>2021-08-29T10:01:26.000Z</time>
      </trkpt>
      <trkpt lat="47.07061" lon="-1.47066">
        <ele>81</ele>
        <time>2021-08-29T10:01:28.000Z</time>
      </trkpt>
      <trkpt lat="47.07072" lon="-1.47063">
        <ele>81</ele>
        <time>2021-08-29T10:01:30.000Z</time>
      </trkpt>
      <trkpt lat="47.07083" lon="-1.47061">
        <ele>80</ele>
        <time>2021-08-29T10:01:32.000Z</time>
      </trkpt>
      <trkpt lat="47.07094" lon="-1.47058">
        <ele>80</ele>
        <time>2021-08-29T10:01:34.000Z</time>
      </trkpt>
      <trkpt lat="47.07106" lon="-1.47056">
        <ele>80</ele>
        <time>2021-08-29T10:01:36.000Z</time>
      </trkpt>
      <trkpt lat="47.07117" lon="-1.47054">
        <ele>80</ele>
        <time>2021-08-29T10:01:38.000Z</time>
      </trkpt>
      <trkpt lat="47.07129" lon="-1.47053">
        <ele>80</ele>
        <time>2021-08-29T10:01:40.000Z</time>
      </trkpt>
      <trkpt lat="47.07141" lon="-1.47053">
        <ele>79</ele>
        <time>2021-08-29T10:01:42.000Z</time>
      </trkpt>
      <trkpt lat="47.07154" lon="-1.47055">
        <ele>79</ele>
        <time>2021-08-29T10:01:44.000Z</time>
      </trkpt>
      <trkpt lat="47.07166" lon="-1.47058">
        <ele>79</ele>
        <time>2021-08-29T10:01:46.000Z</time>
      </trkpt>
      <trkpt lat="47.07179" lon="-1.4706">
        <ele>79</ele>
        <time>2021-08-29T10:01:48.000Z</time>
      </trkpt>
      <trkpt lat="47.07192" lon="-1.47062">
        <ele>78</ele>
        <time>2021-08-29T10:01:50.000Z</time>
      </trkpt>
      <trkpt lat="47.07205" lon="-1.47062">
        <ele>77</ele>
        <time>2021-08-29T10:01:52.000Z</time>
      </trkpt>
      <trkpt lat="47.07218" lon="-1.47061">
        <ele>77</ele>
        <time>2021-08-29T10:01:54.000Z</time>
      </trkpt>
      <trkpt lat="47.07231" lon="-1.47059">
        <ele>76</ele>
        <time>2021-08-29T10:01:56.000Z</time>
      </trkpt>
      <trkpt lat="47.07244" lon="-1.47056">
        <ele>76</ele>
        <time>2021-08-29T10:01:58.000Z</time>
      </trkpt>
      <trkpt lat="47.07258" lon="-1.47052">
        <ele>75</ele>
        <time>2021-08-29T10:02:00.000Z</time>
      </trkpt>
      <trkpt lat="47.07271" lon="-1.47046">
        <ele>74</ele>
        <time>2021-08-29T10:02:02.000Z</time>
      </trkpt>
      <trkpt lat="47.07284" lon="-1.4704">
        <ele>74</ele>
        <time>2021-08-29T10:02:04.000Z</time>
      </trkpt>
      <trkpt lat="47.07297" lon="-1.47033">
        <ele>74</ele>
        <time>2021-08-29T10:02:06.000Z</time>
      </trkpt>
      <trkpt lat="47.0731" lon="-1.47026">
        <ele>74</ele>
        <time>2021-08-29T10:02:08.000Z</time>
      </trkpt>
      <trkpt lat="47.07322" lon="-1.47017">
        <ele>74</ele>
        <time>2021-08-29T10:02:10.000Z</time>
      </trkpt>
      <trkpt lat="47.07333" lon="-1.47008">
        <ele>73</ele>
        <time>2021-08-29T10:02:12.000Z</time>
      </trkpt>
      <trkpt lat="47.07344" lon="-1.46998">
        <ele>73</ele>
        <time>2021-08-29T10:02:14.000Z</time>
      </trkpt>
      <trkpt lat="47.07355" lon="-1.46987">
        <ele>74</ele>
        <time>2021-08-29T10:02:16.000Z</time>
      </trkpt>
      <trkpt lat="47.07366" lon="-1.46975">
        <ele>74</ele>
        <time>2021-08-29T10:02:18.000Z</time>
      </trkpt>
      <trkpt lat="47.07376" lon="-1.46961">
        <ele>74</ele>
        <time>2021-08-29T10:02:20.000Z</time>
      </trkpt>
      <trkpt lat="47.07386" lon="-1.46946">
        <ele>74</ele>
        <time>2021-08-29T10:02:22.000Z</time>
      </trkpt>
      <trkpt lat="47.07394" lon="-1.46932">
        <ele>74</ele>
        <time>2021-08-29T10:02:24.000Z</time>
      </trkpt>
      <trkpt lat="47.07401" lon="-1.46918">
        <ele>74</ele>
        <time>2021-08-29T10:02:26.000Z</time>
      </trkpt>
      <trkpt lat="47.07408" lon="-1.46903">
        <ele>74</ele>
        <time>2021-08-29T10:02:28.000Z</time>
      </trkpt>
      <trkpt lat="47.07415" lon="-1.46889">
        <ele>74</ele>
        <time>2021-08-29T10:02:30.000Z</time>
      </trkpt>
      <trkpt lat="47.07423" lon="-1.46875">
        <ele>74</ele>
        <time>2021-08-29T10:02:32.000Z</time>
      </trkpt>
      <trkpt lat="47.07431" lon="-1.46864">
        <ele>74</ele>
        <time>2021-08-29T10:02:34.000Z</time>
      </trkpt>
      <trkpt lat="47.07439" lon="-1.46853">
        <ele>73</ele>
        <time>2021-08-29T10:02:36.000Z</time>
      </trkpt>
      <trkpt lat="47.07448" lon="-1.46842">
        <ele>73</ele>
        <time>2021-08-29T10:02:38.000Z</time>
      </trkpt>
      <trkpt lat="47.07457" lon="-1.46832">
        <ele>73</ele>
        <time>2021-08-29T10:02:40.000Z</time>
      </trkpt>
      <trkpt lat="47.07467" lon="-1.46823">
        <ele>73</ele>
        <time>2021-08-29T10:02:42.000Z</time>
      </trkpt>
      <trkpt lat="47.07477" lon="-1.46815">
        <ele>73</ele>
        <time>2021-08-29T10:02:44.000Z</time>
      </trkpt>
      <trkpt lat="47.07487" lon="-1.46807">
        <ele>73</ele>
        <time>2021-08-29T10:02:46.000Z</time>
      </trkpt>
      <trkpt lat="47.07498" lon="-1.468">
        <ele>73</ele>
        <time>2021-08-29T10:02:48.000Z</time>
      </trkpt>
      <trkpt lat="47.07509" lon="-1.46794">
        <ele>73</ele>
        <time>2021-08-29T10:02:50.000Z</time>
      </trkpt>
      <trkpt lat="47.07521" lon="-1.46789">
        <ele>73</ele>
        <time>2021-08-29T10:02:52.000Z</time>
      </trkpt>
      <trkpt lat="47.07534" lon="-1.46786">
        <ele>73</ele>
        <time>2021-08-29T10:02:54.000Z</time>
      </trkpt>
      <trkpt lat="47.07546" lon="-1.46783">
        <ele>73</ele>
        <time>2021-08-29T10:02:56.000Z</time>
      </trkpt>
      <trkpt lat="47.07558" lon="-1.46782">
        <ele>72</ele>
        <time>2021-08-29T10:02:58.000Z</time>
      </trkpt>
      <trkpt lat="47.07571" lon="-1.4678">
        <ele>72</ele>
        <time>2021-08-29T10:03:00.000Z</time>
      </trkpt>
      <trkpt lat="47.07584" lon="-1.46781">
        <ele>72</ele>
        <time>2021-08-29T10:03:02.000Z</time>
      </trkpt>
      <trkpt lat="47.07597" lon="-1.46783">
        <ele>72</ele>
        <time>2021-08-29T10:03:04.000Z</time>
      </trkpt>
      <trkpt lat="47.0761" lon="-1.46785">
        <ele>72</ele>
        <time>2021-08-29T10:03:06.000Z</time>
      </trkpt>
      <trkpt lat="47.07623" lon="-1.46788">
        <ele>71</ele>
        <time>2021-08-29T10:03:08.000Z</time>
      </trkpt>
      <trkpt lat="47.07636" lon="-1.46792">
        <ele>71</ele>
        <time>2021-08-29T10:03:10.000Z</time>
      </trkpt>
      <trkpt lat="47.07649" lon="-1.46795">
        <ele>71</ele>
        <time>2021-08-29T10:03:12.000Z</time>
      </trkpt>
      <trkpt lat="47.07662" lon="-1.46798">
        <ele>70</ele>
        <time>2021-08-29T10:03:14.000Z</time>
      </trkpt>
      <trkpt lat="47.07675" lon="-1.468">
        <ele>70</ele>
        <time>2021-08-29T10:03:16.000Z</time>
      </trkpt>
      <trkpt lat="47.07688" lon="-1.46803">
        <ele>70</ele>
        <time>2021-08-29T10:03:18.000Z</time>
      </trkpt>
      <trkpt lat="47.07702" lon="-1.46806">
        <ele>70</ele>
        <time>2021-08-29T10:03:20.000Z</time>
      </trkpt>
      <trkpt lat="47.07715" lon="-1.4681">
        <ele>70</ele>
        <time>2021-08-29T10:03:22.000Z</time>
      </trkpt>
      <trkpt lat="47.07728" lon="-1.46812">
        <ele>69</ele>
        <time>2021-08-29T10:03:24.000Z</time>
      </trkpt>
      <trkpt lat="47.07742" lon="-1.46815">
        <ele>69</ele>
        <time>2021-08-29T10:03:26.000Z</time>
      </trkpt>
      <trkpt lat="47.07755" lon="-1.46816">
        <ele>68</ele>
        <time>2021-08-29T10:03:28.000Z</time>
      </trkpt>
      <trkpt lat="47.07769" lon="-1.46815">
        <ele>68</ele>
        <time>2021-08-29T10:03:30.000Z</time>
      </trkpt>
      <trkpt lat="47.07782" lon="-1.46812">
        <ele>68</ele>
        <time>2021-08-29T10:03:32.000Z</time>
      </trkpt>
      <trkpt lat="47.07795" lon="-1.46808">
        <ele>68</ele>
        <time>2021-08-29T10:03:34.000Z</time>
      </trkpt>
      <trkpt lat="47.07808" lon="-1.46805">
        <ele>68</ele>
        <time>2021-08-29T10:03:36.000Z</time>
      </trkpt>
      <trkpt lat="47.07819" lon="-1.46801">
        <ele>69</ele>
        <time>2021-08-29T10:03:38.000Z</time>
      </trkpt>
      <trkpt lat="47.0783" lon="-1.46798">
        <ele>69</ele>
        <time>2021-08-29T10:03:40.000Z</time>
      </trkpt>
      <trkpt lat="47.07841" lon="-1.46795">
        <ele>70</ele>
        <time>2021-08-29T10:03:42.000Z</time>
      </trkpt>
      <trkpt lat="47.07852" lon="-1.46793">
        <ele>70</ele>
        <time>2021-08-29T10:03:44.000Z</time>
      </trkpt>
      <trkpt lat="47.07863" lon="-1.4679">
        <ele>70</ele>
        <time>2021-08-29T10:03:46.000Z</time>
      </trkpt>
      <trkpt lat="47.07874" lon="-1.46787">
        <ele>71</ele>
        <time>2021-08-29T10:03:48.000Z</time>
      </trkpt>
      <trkpt lat="47.07885" lon="-1.46784">
        <ele>71</ele>
        <time>2021-08-29T10:03:50.000Z</time>
      </trkpt>
      <trkpt lat="47.07895" lon="-1.46781">
        <ele>72</ele>
        <time>2021-08-29T10:03:52.000Z</time>
      </trkpt>
      <trkpt lat="47.07905" lon="-1.46777">
        <ele>72</ele>
        <time>2021-08-29T10:03:54.000Z</time>
      </trkpt>
      <trkpt lat="47.07916" lon="-1.46775">
        <ele>72</ele>
        <time>2021-08-29T10:03:56.000Z</time>
      </trkpt>
      <trkpt lat="47.07926" lon="-1.46772">
        <ele>73</ele>
        <time>2021-08-29T10:03:58.000Z</time>
      </trkpt>
      <trkpt lat="47.07937" lon="-1.46769">
        <ele>73</ele>
        <time>2021-08-29T10:04:00.000Z</time>
      </trkpt>
      <trkpt lat="47.07947" lon="-1.46766">
        <ele>73</ele>
        <time>2021-08-29T10:04:02.000Z</time>
      </trkpt>
      <trkpt lat="47.07958" lon="-1.46763">
        <ele>74</ele>
        <time>2021-08-29T10:04:04.000Z</time>
      </trkpt>
      <trkpt lat="47.07968" lon="-1.46761">
        <ele>74</ele>
        <time>2021-08-29T10:04:06.000Z</time>
      </trkpt>
      <trkpt lat="47.07978" lon="-1.46758">
        <ele>74</ele>
        <time>2021-08-29T10:04:08.000Z</time>
      </trkpt>
      <trkpt lat="47.07988" lon="-1.46756">
        <ele>74</ele>
        <time>2021-08-29T10:04:10.000Z</time>
      </trkpt>
      <trkpt lat="47.07998" lon="-1.46754">
        <ele>75</ele>
        <time>2021-08-29T10:04:12.000Z</time>
      </trkpt>
      <trkpt lat="47.08008" lon="-1.46751">
        <ele>75</ele>
        <time>2021-08-29T10:04:14.000Z</time>
      </trkpt>
      <trkpt lat="47.08017" lon="-1.46748">
        <ele>75</ele>
        <time>2021-08-29T10:04:16.000Z</time>
      </trkpt>
      <trkpt lat="47.08027" lon="-1.46746">
        <ele>75</ele>
        <time>2021-08-29T10:04:18.000Z</time>
      </trkpt>
      <trkpt lat="47.08037" lon="-1.46743">
        <ele>76</ele>
        <time>2021-08-29T10:04:20.000Z</time>
      </trkpt>
      <trkpt lat="47.08046" lon="-1.4674">
        <ele>76</ele>
        <time>2021-08-29T10:04:22.000Z</time>
      </trkpt>
      <trkpt lat="47.08056" lon="-1.46738">
        <ele>76</ele>
        <time>2021-08-29T10:04:24.000Z</time>
      </trkpt>
      <trkpt lat="47.08066" lon="-1.46735">
        <ele>77</ele>
        <time>2021-08-29T10:04:26.000Z</time>
      </trkpt>
      <trkpt lat="47.08075" lon="-1.46732">
        <ele>77</ele>
        <time>2021-08-29T10:04:28.000Z</time>
      </trkpt>
      <trkpt lat="47.08084" lon="-1.46729">
        <ele>77</ele>
        <time>2021-08-29T10:04:30.000Z</time>
      </trkpt>
      <trkpt lat="47.08095" lon="-1.46727">
        <ele>78</ele>
        <time>2021-08-29T10:04:32.000Z</time>
      </trkpt>
      <trkpt lat="47.08105" lon="-1.46724">
        <ele>78</ele>
        <time>2021-08-29T10:04:34.000Z</time>
      </trkpt>
      <trkpt lat="47.08115" lon="-1.46722">
        <ele>78</ele>
        <time>2021-08-29T10:04:36.000Z</time>
      </trkpt>
      <trkpt lat="47.08125" lon="-1.46719">
        <ele>77</ele>
        <time>2021-08-29T10:04:38.000Z</time>
      </trkpt>
      <trkpt lat="47.08135" lon="-1.46716">
        <ele>77</ele>
        <time>2021-08-29T10:04:40.000Z</time>
      </trkpt>
      <trkpt lat="47.08145" lon="-1.46714">
        <ele>77</ele>
        <time>2021-08-29T10:04:42.000Z</time>
      </trkpt>
      <trkpt lat="47.08155" lon="-1.46711">
        <ele>78</ele>
        <time>2021-08-29T10:04:44.000Z</time>
      </trkpt>
      <trkpt lat="47.08166" lon="-1.46709">
        <ele>78</ele>
        <time>2021-08-29T10:04:46.000Z</time>
      </trkpt>
      <trkpt lat="47.08177" lon="-1.46707">
        <ele>77</ele>
        <time>2021-08-29T10:04:48.000Z</time>
      </trkpt>
      <trkpt lat="47.08187" lon="-1.46704">
        <ele>77</ele>
        <time>2021-08-29T10:04:50.000Z</time>
      </trkpt>
      <trkpt lat="47.08198" lon="-1.46701">
        <ele>77</ele>
        <time>2021-08-29T10:04:52.000Z</time>
      </trkpt>
      <trkpt lat="47.0821" lon="-1.46697">
        <ele>76</ele>
        <time>2021-08-29T10:04:54.000Z</time>
      </trkpt>
      <trkpt lat="47.08222" lon="-1.46695">
        <ele>76</ele>
        <time>2021-08-29T10:04:56.000Z</time>
      </trkpt>
      <trkpt lat="47.08233" lon="-1.46691">
        <ele>75</ele>
        <time>2021-08-29T10:04:58.000Z</time>
      </trkpt>
      <trkpt lat="47.08245" lon="-1.46686">
        <ele>75</ele>
        <time>2021-08-29T10:05:00.000Z</time>
      </trkpt>
      <trkpt lat="47.08256" lon="-1.46682">
        <ele>75</ele>
        <time>2021-08-29T10:05:02.000Z</time>
      </trkpt>
      <trkpt lat="47.08266" lon="-1.46676">
        <ele>75</ele>
        <time>2021-08-29T10:05:04.000Z</time>
      </trkpt>
      <trkpt lat="47.08275" lon="-1.46668">
        <ele>75</ele>
        <time>2021-08-29T10:05:06.000Z</time>
      </trkpt>
      <trkpt lat="47.08284" lon="-1.46661">
        <ele>75</ele>
        <time>2021-08-29T10:05:08.000Z</time>
      </trkpt>
      <trkpt lat="47.08292" lon="-1.46652">
        <ele>75</ele>
        <time>2021-08-29T10:05:10.000Z</time>
      </trkpt>
      <trkpt lat="47.083" lon="-1.46643">
        <ele>76</ele>
        <time>2021-08-29T10:05:12.000Z</time>
      </trkpt>
      <trkpt lat="47.08307" lon="-1.46633">
        <ele>75</ele>
        <time>2021-08-29T10:05:14.000Z</time>
      </trkpt>
      <trkpt lat="47.08313" lon="-1.46622">
        <ele>76</ele>
        <time>2021-08-29T10:05:16.000Z</time>
      </trkpt>
      <trkpt lat="47.0832" lon="-1.46611">
        <ele>76</ele>
        <time>2021-08-29T10:05:18.000Z</time>
      </trkpt>
      <trkpt lat="47.08326" lon="-1.46601">
        <ele>76</ele>
        <time>2021-08-29T10:05:20.000Z</time>
      </trkpt>
      <trkpt lat="47.08332" lon="-1.46591">
        <ele>76</ele>
        <time>2021-08-29T10:05:22.000Z</time>
      </trkpt>
      <trkpt lat="47.0834" lon="-1.46576">
        <ele>77</ele>
        <time>2021-08-29T10:05:25.000Z</time>
      </trkpt>
      <trkpt lat="47.08349" lon="-1.46562">
        <ele>77</ele>
        <time>2021-08-29T10:05:28.000Z</time>
      </trkpt>
      <trkpt lat="47.08357" lon="-1.46548">
        <ele>78</ele>
        <time>2021-08-29T10:05:31.000Z</time>
      </trkpt>
      <trkpt lat="47.08365" lon="-1.46533">
        <ele>78</ele>
        <time>2021-08-29T10:05:34.000Z</time>
      </trkpt>
      <trkpt lat="47.08374" lon="-1.46519">
        <ele>78</ele>
        <time>2021-08-29T10:05:37.000Z</time>
      </trkpt>
      <trkpt lat="47.08383" lon="-1.46504">
        <ele>79</ele>
        <time>2021-08-29T10:05:40.000Z</time>
      </trkpt>
      <trkpt lat="47.08391" lon="-1.46489">
        <ele>79</ele>
        <time>2021-08-29T10:05:43.000Z</time>
      </trkpt>
      <trkpt lat="47.084" lon="-1.46475">
        <ele>79</ele>
        <time>2021-08-29T10:05:46.000Z</time>
      </trkpt>
      <trkpt lat="47.08408" lon="-1.46461">
        <ele>79</ele>
        <time>2021-08-29T10:05:49.000Z</time>
      </trkpt>
      <trkpt lat="47.08416" lon="-1.46448">
        <ele>79</ele>
        <time>2021-08-29T10:05:52.000Z</time>
      </trkpt>
      <trkpt lat="47.08424" lon="-1.46435">
        <ele>79</ele>
        <time>2021-08-29T10:05:55.000Z</time>
      </trkpt>
      <trkpt lat="47.08433" lon="-1.46421">
        <ele>80</ele>
        <time>2021-08-29T10:05:58.000Z</time>
      </trkpt>
      <trkpt lat="47.08442" lon="-1.46406">
        <ele>80</ele>
        <time>2021-08-29T10:06:01.000Z</time>
      </trkpt>
      <trkpt lat="47.08448" lon="-1.46396">
        <ele>79</ele>
        <time>2021-08-29T10:06:03.000Z</time>
      </trkpt>
      <trkpt lat="47.08456" lon="-1.46381">
        <ele>79</ele>
        <time>2021-08-29T10:06:06.000Z</time>
      </trkpt>
      <trkpt lat="47.08462" lon="-1.46371">
        <ele>80</ele>
        <time>2021-08-29T10:06:08.000Z</time>
      </trkpt>
      <trkpt lat="47.08471" lon="-1.46357">
        <ele>79</ele>
        <time>2021-08-29T10:06:11.000Z</time>
      </trkpt>
      <trkpt lat="47.08477" lon="-1.46348">
        <ele>79</ele>
        <time>2021-08-29T10:06:13.000Z</time>
      </trkpt>
      <trkpt lat="47.08485" lon="-1.46333">
        <ele>79</ele>
        <time>2021-08-29T10:06:16.000Z</time>
      </trkpt>
      <trkpt lat="47.08494" lon="-1.46319">
        <ele>79</ele>
        <time>2021-08-29T10:06:19.000Z</time>
      </trkpt>
      <trkpt lat="47.08502" lon="-1.46305">
        <ele>80</ele>
        <time>2021-08-29T10:06:22.000Z</time>
      </trkpt>
      <trkpt lat="47.0851" lon="-1.46291">
        <ele>80</ele>
        <time>2021-08-29T10:06:25.000Z</time>
      </trkpt>
      <trkpt lat="47.08519" lon="-1.46276">
        <ele>80</ele>
        <time>2021-08-29T10:06:28.000Z</time>
      </trkpt>
      <trkpt lat="47.08527" lon="-1.46262">
        <ele>80</ele>
        <time>2021-08-29T10:06:31.000Z</time>
      </trkpt>
      <trkpt lat="47.08536" lon="-1.46248">
        <ele>80</ele>
        <time>2021-08-29T10:06:34.000Z</time>
      </trkpt>
      <trkpt lat="47.08544" lon="-1.46234">
        <ele>80</ele>
        <time>2021-08-29T10:06:37.000Z</time>
      </trkpt>
      <trkpt lat="47.08553" lon="-1.46219">
        <ele>80</ele>
        <time>2021-08-29T10:06:40.000Z</time>
      </trkpt>
      <trkpt lat="47.08559" lon="-1.46208">
        <ele>80</ele>
        <time>2021-08-29T10:06:42.000Z</time>
      </trkpt>
      <trkpt lat="47.08566" lon="-1.46197">
        <ele>80</ele>
        <time>2021-08-29T10:06:44.000Z</time>
      </trkpt>
      <trkpt lat="47.08572" lon="-1.46186">
        <ele>79</ele>
        <time>2021-08-29T10:06:46.000Z</time>
      </trkpt>
      <trkpt lat="47.08578" lon="-1.46173">
        <ele>79</ele>
        <time>2021-08-29T10:06:48.000Z</time>
      </trkpt>
      <trkpt lat="47.08584" lon="-1.4616">
        <ele>79</ele>
        <time>2021-08-29T10:06:50.000Z</time>
      </trkpt>
      <trkpt lat="47.0859" lon="-1.46146">
        <ele>79</ele>
        <time>2021-08-29T10:06:52.000Z</time>
      </trkpt>
      <trkpt lat="47.08596" lon="-1.46131">
        <ele>79</ele>
        <time>2021-08-29T10:06:54.000Z</time>
      </trkpt>
      <trkpt lat="47.08604" lon="-1.46109">
        <ele>79</ele>
        <time>2021-08-29T10:06:57.000Z</time>
      </trkpt>
      <trkpt lat="47.0861" lon="-1.46093">
        <ele>78</ele>
        <time>2021-08-29T10:06:59.000Z</time>
      </trkpt>
      <trkpt lat="47.08615" lon="-1.46077">
        <ele>78</ele>
        <time>2021-08-29T10:07:01.000Z</time>
      </trkpt>
      <trkpt lat="47.0862" lon="-1.46062">
        <ele>78</ele>
        <time>2021-08-29T10:07:03.000Z</time>
      </trkpt>
      <trkpt lat="47.08626" lon="-1.46046">
        <ele>77</ele>
        <time>2021-08-29T10:07:05.000Z</time>
      </trkpt>
      <trkpt lat="47.08631" lon="-1.4603">
        <ele>77</ele>
        <time>2021-08-29T10:07:07.000Z</time>
      </trkpt>
      <trkpt lat="47.08637" lon="-1.46015">
        <ele>77</ele>
        <time>2021-08-29T10:07:09.000Z</time>
      </trkpt>
      <trkpt lat="47.08642" lon="-1.45999">
        <ele>77</ele>
        <time>2021-08-29T10:07:11.000Z</time>
      </trkpt>
      <trkpt lat="47.08648" lon="-1.45983">
        <ele>76</ele>
        <time>2021-08-29T10:07:13.000Z</time>
      </trkpt>
      <trkpt lat="47.08653" lon="-1.45967">
        <ele>76</ele>
        <time>2021-08-29T10:07:15.000Z</time>
      </trkpt>
      <trkpt lat="47.08659" lon="-1.45951">
        <ele>76</ele>
        <time>2021-08-29T10:07:17.000Z</time>
      </trkpt>
      <trkpt lat="47.08665" lon="-1.45935">
        <ele>77</ele>
        <time>2021-08-29T10:07:19.000Z</time>
      </trkpt>
      <trkpt lat="47.0867" lon="-1.45919">
        <ele>77</ele>
        <time>2021-08-29T10:07:21.000Z</time>
      </trkpt>
      <trkpt lat="47.08675" lon="-1.45904">
        <ele>77</ele>
        <time>2021-08-29T10:07:23.000Z</time>
      </trkpt>
      <trkpt lat="47.08681" lon="-1.45889">
        <ele>77</ele>
        <time>2021-08-29T10:07:25.000Z</time>
      </trkpt>
      <trkpt lat="47.08686" lon="-1.45874">
        <ele>76</ele>
        <time>2021-08-29T10:07:27.000Z</time>
      </trkpt>
      <trkpt lat="47.08693" lon="-1.45852">
        <ele>76</ele>
        <time>2021-08-29T10:07:30.000Z</time>
      </trkpt>
      <trkpt lat="47.08699" lon="-1.45837">
        <ele>76</ele>
        <time>2021-08-29T10:07:32.000Z</time>
      </trkpt>
      <trkpt lat="47.08704" lon="-1.45823">
        <ele>75</ele>
        <time>2021-08-29T10:07:34.000Z</time>
      </trkpt>
      <trkpt lat="47.0871" lon="-1.45808">
        <ele>75</ele>
        <time>2021-08-29T10:07:36.000Z</time>
      </trkpt>
      <trkpt lat="47.08714" lon="-1.45794">
        <ele>75</ele>
        <time>2021-08-29T10:07:38.000Z</time>
      </trkpt>
      <trkpt lat="47.08719" lon="-1.4578">
        <ele>75</ele>
        <time>2021-08-29T10:07:40.000Z</time>
      </trkpt>
      <trkpt lat="47.08723" lon="-1.45767">
        <ele>75</ele>
        <time>2021-08-29T10:07:42.000Z</time>
      </trkpt>
      <trkpt lat="47.08727" lon="-1.45755">
        <ele>76</ele>
        <time>2021-08-29T10:07:44.000Z</time>
      </trkpt>
      <trkpt lat="47.08734" lon="-1.45737">
        <ele>77</ele>
        <time>2021-08-29T10:07:47.000Z</time>
      </trkpt>
      <trkpt lat="47.08739" lon="-1.45725">
        <ele>77</ele>
        <time>2021-08-29T10:07:49.000Z</time>
      </trkpt>
      <trkpt lat="47.08744" lon="-1.45714">
        <ele>78</ele>
        <time>2021-08-29T10:07:51.000Z</time>
      </trkpt>
      <trkpt lat="47.08752" lon="-1.45699">
        <ele>79</ele>
        <time>2021-08-29T10:07:54.000Z</time>
      </trkpt>
      <trkpt lat="47.08759" lon="-1.45685">
        <ele>80</ele>
        <time>2021-08-29T10:07:57.000Z</time>
      </trkpt>
      <trkpt lat="47.08767" lon="-1.45672">
        <ele>81</ele>
        <time>2021-08-29T10:08:00.000Z</time>
      </trkpt>
      <trkpt lat="47.08776" lon="-1.45659">
        <ele>82</ele>
        <time>2021-08-29T10:08:03.000Z</time>
      </trkpt>
      <trkpt lat="47.08784" lon="-1.45646">
        <ele>83</ele>
        <time>2021-08-29T10:08:06.000Z</time>
      </trkpt>
      <trkpt lat="47.08792" lon="-1.45634">
        <ele>83</ele>
        <time>2021-08-29T10:08:09.000Z</time>
      </trkpt>
      <trkpt lat="47.08799" lon="-1.45621">
        <ele>84</ele>
        <time>2021-08-29T10:08:12.000Z</time>
      </trkpt>
      <trkpt lat="47.08808" lon="-1.45609">
        <ele>85</ele>
        <time>2021-08-29T10:08:15.000Z</time>
      </trkpt>
      <trkpt lat="47.08816" lon="-1.45595">
        <ele>85</ele>
        <time>2021-08-29T10:08:18.000Z</time>
      </trkpt>
      <trkpt lat="47.08824" lon="-1.45582">
        <ele>86</ele>
        <time>2021-08-29T10:08:21.000Z</time>
      </trkpt>
      <trkpt lat="47.08832" lon="-1.45568">
        <ele>87</ele>
        <time>2021-08-29T10:08:24.000Z</time>
      </trkpt>
      <trkpt lat="47.08841" lon="-1.45555">
        <ele>88</ele>
        <time>2021-08-29T10:08:27.000Z</time>
      </trkpt>
      <trkpt lat="47.08849" lon="-1.45542">
        <ele>88</ele>
        <time>2021-08-29T10:08:30.000Z</time>
      </trkpt>
      <trkpt lat="47.08857" lon="-1.45528">
        <ele>88</ele>
        <time>2021-08-29T10:08:33.000Z</time>
      </trkpt>
      <trkpt lat="47.08866" lon="-1.45514">
        <ele>88</ele>
        <time>2021-08-29T10:08:36.000Z</time>
      </trkpt>
      <trkpt lat="47.08875" lon="-1.45501">
        <ele>88</ele>
        <time>2021-08-29T10:08:39.000Z</time>
      </trkpt>
      <trkpt lat="47.08885" lon="-1.45486">
        <ele>88</ele>
        <time>2021-08-29T10:08:42.000Z</time>
      </trkpt>
      <trkpt lat="47.08894" lon="-1.45472">
        <ele>88</ele>
        <time>2021-08-29T10:08:45.000Z</time>
      </trkpt>
      <trkpt lat="47.08901" lon="-1.45462">
        <ele>88</ele>
        <time>2021-08-29T10:08:47.000Z</time>
      </trkpt>
      <trkpt lat="47.08908" lon="-1.45452">
        <ele>88</ele>
        <time>2021-08-29T10:08:49.000Z</time>
      </trkpt>
      <trkpt lat="47.08916" lon="-1.45442">
        <ele>87</ele>
        <time>2021-08-29T10:08:51.000Z</time>
      </trkpt>
      <trkpt lat="47.08926" lon="-1.4543">
        <ele>87</ele>
        <time>2021-08-29T10:08:53.000Z</time>
      </trkpt>
      <trkpt lat="47.08935" lon="-1.45418">
        <ele>88</ele>
        <time>2021-08-29T10:08:55.000Z</time>
      </trkpt>
      <trkpt lat="47.08944" lon="-1.45407">
        <ele>87</ele>
        <time>2021-08-29T10:08:57.000Z</time>
      </trkpt>
      <trkpt lat="47.08954" lon="-1.45397">
        <ele>87</ele>
        <time>2021-08-29T10:08:59.000Z</time>
      </trkpt>
      <trkpt lat="47.08965" lon="-1.45386">
        <ele>87</ele>
        <time>2021-08-29T10:09:01.000Z</time>
      </trkpt>
      <trkpt lat="47.08975" lon="-1.45375">
        <ele>86</ele>
        <time>2021-08-29T10:09:03.000Z</time>
      </trkpt>
      <trkpt lat="47.08985" lon="-1.45365">
        <ele>86</ele>
        <time>2021-08-29T10:09:05.000Z</time>
      </trkpt>
      <trkpt lat="47.08995" lon="-1.45354">
        <ele>85</ele>
        <time>2021-08-29T10:09:07.000Z</time>
      </trkpt>
      <trkpt lat="47.09005" lon="-1.45343">
        <ele>85</ele>
        <time>2021-08-29T10:09:09.000Z</time>
      </trkpt>
      <trkpt lat="47.09015" lon="-1.45333">
        <ele>85</ele>
        <time>2021-08-29T10:09:11.000Z</time>
      </trkpt>
      <trkpt lat="47.09025" lon="-1.45322">
        <ele>84</ele>
        <time>2021-08-29T10:09:13.000Z</time>
      </trkpt>
      <trkpt lat="47.09034" lon="-1.45312">
        <ele>83</ele>
        <time>2021-08-29T10:09:15.000Z</time>
      </trkpt>
      <trkpt lat="47.09043" lon="-1.45301">
        <ele>83</ele>
        <time>2021-08-29T10:09:17.000Z</time>
      </trkpt>
      <trkpt lat="47.09053" lon="-1.4529">
        <ele>82</ele>
        <time>2021-08-29T10:09:19.000Z</time>
      </trkpt>
      <trkpt lat="47.09063" lon="-1.45278">
        <ele>82</ele>
        <time>2021-08-29T10:09:21.000Z</time>
      </trkpt>
      <trkpt lat="47.09072" lon="-1.45267">
        <ele>81</ele>
        <time>2021-08-29T10:09:23.000Z</time>
      </trkpt>
      <trkpt lat="47.09082" lon="-1.45256">
        <ele>81</ele>
        <time>2021-08-29T10:09:25.000Z</time>
      </trkpt>
      <trkpt lat="47.09092" lon="-1.45245">
        <ele>81</ele>
        <time>2021-08-29T10:09:27.000Z</time>
      </trkpt>
      <trkpt lat="47.09102" lon="-1.45234">
        <ele>81</ele>
        <time>2021-08-29T10:09:29.000Z</time>
      </trkpt>
      <trkpt lat="47.09113" lon="-1.45224">
        <ele>81</ele>
        <time>2021-08-29T10:09:31.000Z</time>
      </trkpt>
      <trkpt lat="47.09122" lon="-1.45215">
        <ele>81</ele>
        <time>2021-08-29T10:09:33.000Z</time>
      </trkpt>
      <trkpt lat="47.09131" lon="-1.45207">
        <ele>81</ele>
        <time>2021-08-29T10:09:35.000Z</time>
      </trkpt>
      <trkpt lat="47.09141" lon="-1.45198">
        <ele>81</ele>
        <time>2021-08-29T10:09:37.000Z</time>
      </trkpt>
      <trkpt lat="47.0915" lon="-1.4519">
        <ele>81</ele>
        <time>2021-08-29T10:09:39.000Z</time>
      </trkpt>
      <trkpt lat="47.0916" lon="-1.45181">
        <ele>81</ele>
        <time>2021-08-29T10:09:41.000Z</time>
      </trkpt>
      <trkpt lat="47.09169" lon="-1.45173">
        <ele>82</ele>
        <time>2021-08-29T10:09:43.000Z</time>
      </trkpt>
      <trkpt lat="47.09178" lon="-1.45166">
        <ele>82</ele>
        <time>2021-08-29T10:09:45.000Z</time>
      </trkpt>
      <trkpt lat="47.09187" lon="-1.45158">
        <ele>82</ele>
        <time>2021-08-29T10:09:47.000Z</time>
      </trkpt>
      <trkpt lat="47.09197" lon="-1.45149">
        <ele>82</ele>
        <time>2021-08-29T10:09:49.000Z</time>
      </trkpt>
      <trkpt lat="47.09207" lon="-1.45141">
        <ele>82</ele>
        <time>2021-08-29T10:09:51.000Z</time>
      </trkpt>
      <trkpt lat="47.09216" lon="-1.45133">
        <ele>81</ele>
        <time>2021-08-29T10:09:53.000Z</time>
      </trkpt>
      <trkpt lat="47.09226" lon="-1.45125">
        <ele>81</ele>
        <time>2021-08-29T10:09:55.000Z</time>
      </trkpt>
      <trkpt lat="47.09235" lon="-1.45117">
        <ele>81</ele>
        <time>2021-08-29T10:09:57.000Z</time>
      </trkpt>
      <trkpt lat="47.09245" lon="-1.45109">
        <ele>82</ele>
        <time>2021-08-29T10:09:59.000Z</time>
      </trkpt>
      <trkpt lat="47.09254" lon="-1.451">
        <ele>82</ele>
        <time>2021-08-29T10:10:01.000Z</time>
      </trkpt>
      <trkpt lat="47.09264" lon="-1.45092">
        <ele>82</ele>
        <time>2021-08-29T10:10:03.000Z</time>
      </trkpt>
      <trkpt lat="47.09273" lon="-1.45083">
        <ele>82</ele>
        <time>2021-08-29T10:10:05.000Z</time>
      </trkpt>
      <trkpt lat="47.09283" lon="-1.45075">
        <ele>82</ele>
        <time>2021-08-29T10:10:07.000Z</time>
      </trkpt>
      <trkpt lat="47.09293" lon="-1.45067">
        <ele>82</ele>
        <time>2021-08-29T10:10:09.000Z</time>
      </trkpt>
      <trkpt lat="47.09302" lon="-1.45059">
        <ele>82</ele>
        <time>2021-08-29T10:10:11.000Z</time>
      </trkpt>
      <trkpt lat="47.09312" lon="-1.45051">
        <ele>82</ele>
        <time>2021-08-29T10:10:13.000Z</time>
      </trkpt>
      <trkpt lat="47.0932" lon="-1.45043">
        <ele>83</ele>
        <time>2021-08-29T10:10:15.000Z</time>
      </trkpt>
      <trkpt lat="47.0933" lon="-1.45035">
        <ele>83</ele>
        <time>2021-08-29T10:10:17.000Z</time>
      </trkpt>
      <trkpt lat="47.0934" lon="-1.45026">
        <ele>83</ele>
        <time>2021-08-29T10:10:19.000Z</time>
      </trkpt>
      <trkpt lat="47.09349" lon="-1.45018">
        <ele>83</ele>
        <time>2021-08-29T10:10:21.000Z</time>
      </trkpt>
      <trkpt lat="47.09358" lon="-1.4501">
        <ele>83</ele>
        <time>2021-08-29T10:10:23.000Z</time>
      </trkpt>
      <trkpt lat="47.09367" lon="-1.45002">
        <ele>83</ele>
        <time>2021-08-29T10:10:25.000Z</time>
      </trkpt>
      <trkpt lat="47.09376" lon="-1.44994">
        <ele>83</ele>
        <time>2021-08-29T10:10:27.000Z</time>
      </trkpt>
      <trkpt lat="47.09386" lon="-1.44986">
        <ele>83</ele>
        <time>2021-08-29T10:10:29.000Z</time>
      </trkpt>
      <trkpt lat="47.09395" lon="-1.44977">
        <ele>84</ele>
        <time>2021-08-29T10:10:31.000Z</time>
      </trkpt>
      <trkpt lat="47.09404" lon="-1.44969">
        <ele>84</ele>
        <time>2021-08-29T10:10:33.000Z</time>
      </trkpt>
      <trkpt lat="47.09412" lon="-1.4496">
        <ele>84</ele>
        <time>2021-08-29T10:10:35.000Z</time>
      </trkpt>
      <trkpt lat="47.09421" lon="-1.44952">
        <ele>84</ele>
        <time>2021-08-29T10:10:37.000Z</time>
      </trkpt>
      <trkpt lat="47.09429" lon="-1.44944">
        <ele>85</ele>
        <time>2021-08-29T10:10:39.000Z</time>
      </trkpt>
      <trkpt lat="47.09436" lon="-1.44934">
        <ele>86</ele>
        <time>2021-08-29T10:10:41.000Z</time>
      </trkpt>
      <trkpt lat="47.09444" lon="-1.44925">
        <ele>86</ele>
        <time>2021-08-29T10:10:43.000Z</time>
      </trkpt>
      <trkpt lat="47.09452" lon="-1.44916">
        <ele>87</ele>
        <time>2021-08-29T10:10:45.000Z</time>
      </trkpt>
      <trkpt lat="47.09459" lon="-1.44906">
        <ele>88</ele>
        <time>2021-08-29T10:10:47.000Z</time>
      </trkpt>
      <trkpt lat="47.09467" lon="-1.44896">
        <ele>88</ele>
        <time>2021-08-29T10:10:49.000Z</time>
      </trkpt>
      <trkpt lat="47.09475" lon="-1.44888">
        <ele>88</ele>
        <time>2021-08-29T10:10:51.000Z</time>
      </trkpt>
      <trkpt lat="47.09484" lon="-1.44883">
        <ele>89</ele>
        <time>2021-08-29T10:10:53.000Z</time>
      </trkpt>
      <trkpt lat="47.09495" lon="-1.44879">
        <ele>89</ele>
        <time>2021-08-29T10:10:55.000Z</time>
      </trkpt>
      <trkpt lat="47.09505" lon="-1.44879">
        <ele>88</ele>
        <time>2021-08-29T10:10:57.000Z</time>
      </trkpt>
      <trkpt lat="47.09516" lon="-1.44882">
        <ele>88</ele>
        <time>2021-08-29T10:10:59.000Z</time>
      </trkpt>
      <trkpt lat="47.09526" lon="-1.44887">
        <ele>88</ele>
        <time>2021-08-29T10:11:01.000Z</time>
      </trkpt>
      <trkpt lat="47.09535" lon="-1.44895">
        <ele>88</ele>
        <time>2021-08-29T10:11:03.000Z</time>
      </trkpt>
      <trkpt lat="47.09543" lon="-1.44905">
        <ele>88</ele>
        <time>2021-08-29T10:11:05.000Z</time>
      </trkpt>
      <trkpt lat="47.0955" lon="-1.44917">
        <ele>89</ele>
        <time>2021-08-29T10:11:07.000Z</time>
      </trkpt>
      <trkpt lat="47.09558" lon="-1.44926">
        <ele>89</ele>
        <time>2021-08-29T10:11:09.000Z</time>
      </trkpt>
      <trkpt lat="47.09568" lon="-1.44931">
        <ele>89</ele>
        <time>2021-08-29T10:11:11.000Z</time>
      </trkpt>
      <trkpt lat="47.09578" lon="-1.44934">
        <ele>89</ele>
        <time>2021-08-29T10:11:13.000Z</time>
      </trkpt>
      <trkpt lat="47.09588" lon="-1.44933">
        <ele>89</ele>
        <time>2021-08-29T10:11:15.000Z</time>
      </trkpt>
      <trkpt lat="47.09597" lon="-1.44931">
        <ele>89</ele>
        <time>2021-08-29T10:11:17.000Z</time>
      </trkpt>
      <trkpt lat="47.09609" lon="-1.44927">
        <ele>89</ele>
        <time>2021-08-29T10:11:20.000Z</time>
      </trkpt>
      <trkpt lat="47.09619" lon="-1.44921">
        <ele>89</ele>
        <time>2021-08-29T10:11:24.000Z</time>
      </trkpt>
      <trkpt lat="47.09627" lon="-1.44907">
        <ele>89</ele>
        <time>2021-08-29T10:11:37.000Z</time>
      </trkpt>
      <trkpt lat="47.09632" lon="-1.44895">
        <ele>89</ele>
        <time>2021-08-29T10:11:39.000Z</time>
      </trkpt>
      <trkpt lat="47.09641" lon="-1.44886">
        <ele>90</ele>
        <time>2021-08-29T10:11:41.000Z</time>
      </trkpt>
      <trkpt lat="47.09651" lon="-1.44882">
        <ele>90</ele>
        <time>2021-08-29T10:11:43.000Z</time>
      </trkpt>
      <trkpt lat="47.09662" lon="-1.44876">
        <ele>89</ele>
        <time>2021-08-29T10:11:45.000Z</time>
      </trkpt>
      <trkpt lat="47.0967" lon="-1.44863">
        <ele>89</ele>
        <time>2021-08-29T10:11:47.000Z</time>
      </trkpt>
      <trkpt lat="47.09676" lon="-1.4485">
        <ele>89</ele>
        <time>2021-08-29T10:11:49.000Z</time>
      </trkpt>
      <trkpt lat="47.09681" lon="-1.44835">
        <ele>89</ele>
        <time>2021-08-29T10:11:51.000Z</time>
      </trkpt>
      <trkpt lat="47.09684" lon="-1.44819">
        <ele>89</ele>
        <time>2021-08-29T10:11:53.000Z</time>
      </trkpt>
      <trkpt lat="47.09684" lon="-1.44802">
        <ele>89</ele>
        <time>2021-08-29T10:11:55.000Z</time>
      </trkpt>
      <trkpt lat="47.09682" lon="-1.44787">
        <ele>90</ele>
        <time>2021-08-29T10:11:57.000Z</time>
      </trkpt>
      <trkpt lat="47.09677" lon="-1.44772">
        <ele>90</ele>
        <time>2021-08-29T10:11:59.000Z</time>
      </trkpt>
      <trkpt lat="47.09669" lon="-1.4476">
        <ele>90</ele>
        <time>2021-08-29T10:12:01.000Z</time>
      </trkpt>
      <trkpt lat="47.09662" lon="-1.44748">
        <ele>91</ele>
        <time>2021-08-29T10:12:03.000Z</time>
      </trkpt>
      <trkpt lat="47.09655" lon="-1.44735">
        <ele>92</ele>
        <time>2021-08-29T10:12:05.000Z</time>
      </trkpt>
      <trkpt lat="47.09649" lon="-1.44721">
        <ele>92</ele>
        <time>2021-08-29T10:12:07.000Z</time>
      </trkpt>
      <trkpt lat="47.09646" lon="-1.44706">
        <ele>93</ele>
        <time>2021-08-29T10:12:09.000Z</time>
      </trkpt>
      <trkpt lat="47.09644" lon="-1.44691">
        <ele>94</ele>
        <time>2021-08-29T10:12:11.000Z</time>
      </trkpt>
      <trkpt lat="47.09644" lon="-1.44676">
        <ele>94</ele>
        <time>2021-08-29T10:12:13.000Z</time>
      </trkpt>
      <trkpt lat="47.09646" lon="-1.44662">
        <ele>94</ele>
        <time>2021-08-29T10:12:15.000Z</time>
      </trkpt>
      <trkpt lat="47.0965" lon="-1.44648">
        <ele>94</ele>
        <time>2021-08-29T10:12:17.000Z</time>
      </trkpt>
      <trkpt lat="47.09655" lon="-1.44635">
        <ele>94</ele>
        <time>2021-08-29T10:12:19.000Z</time>
      </trkpt>
      <trkpt lat="47.09661" lon="-1.44624">
        <ele>94</ele>
        <time>2021-08-29T10:12:21.000Z</time>
      </trkpt>
      <trkpt lat="47.0967" lon="-1.44615">
        <ele>93</ele>
        <time>2021-08-29T10:12:23.000Z</time>
      </trkpt>
      <trkpt lat="47.09679" lon="-1.44607">
        <ele>93</ele>
        <time>2021-08-29T10:12:25.000Z</time>
      </trkpt>
      <trkpt lat="47.09689" lon="-1.44598">
        <ele>92</ele>
        <time>2021-08-29T10:12:27.000Z</time>
      </trkpt>
      <trkpt lat="47.09699" lon="-1.44591">
        <ele>92</ele>
        <time>2021-08-29T10:12:29.000Z</time>
      </trkpt>
      <trkpt lat="47.09709" lon="-1.44585">
        <ele>91</ele>
        <time>2021-08-29T10:12:31.000Z</time>
      </trkpt>
      <trkpt lat="47.0972" lon="-1.44579">
        <ele>91</ele>
        <time>2021-08-29T10:12:33.000Z</time>
      </trkpt>
      <trkpt lat="47.0973" lon="-1.44573">
        <ele>90</ele>
        <time>2021-08-29T10:12:35.000Z</time>
      </trkpt>
      <trkpt lat="47.0974" lon="-1.44567">
        <ele>89</ele>
        <time>2021-08-29T10:12:37.000Z</time>
      </trkpt>
      <trkpt lat="47.09752" lon="-1.44561">
        <ele>89</ele>
        <time>2021-08-29T10:12:39.000Z</time>
      </trkpt>
      <trkpt lat="47.09764" lon="-1.44556">
        <ele>88</ele>
        <time>2021-08-29T10:12:41.000Z</time>
      </trkpt>
      <trkpt lat="47.09776" lon="-1.4455">
        <ele>87</ele>
        <time>2021-08-29T10:12:43.000Z</time>
      </trkpt>
      <trkpt lat="47.09788" lon="-1.44545">
        <ele>87</ele>
        <time>2021-08-29T10:12:45.000Z</time>
      </trkpt>
      <trkpt lat="47.098" lon="-1.4454">
        <ele>86</ele>
        <time>2021-08-29T10:12:47.000Z</time>
      </trkpt>
      <trkpt lat="47.09813" lon="-1.44536">
        <ele>85</ele>
        <time>2021-08-29T10:12:49.000Z</time>
      </trkpt>
      <trkpt lat="47.09826" lon="-1.44531">
        <ele>84</ele>
        <time>2021-08-29T10:12:51.000Z</time>
      </trkpt>
      <trkpt lat="47.0984" lon="-1.44526">
        <ele>83</ele>
        <time>2021-08-29T10:12:53.000Z</time>
      </trkpt>
      <trkpt lat="47.09854" lon="-1.44521">
        <ele>83</ele>
        <time>2021-08-29T10:12:55.000Z</time>
      </trkpt>
      <trkpt lat="47.09869" lon="-1.44515">
        <ele>82</ele>
        <time>2021-08-29T10:12:57.000Z</time>
      </trkpt>
      <trkpt lat="47.09884" lon="-1.4451">
        <ele>81</ele>
        <time>2021-08-29T10:12:59.000Z</time>
      </trkpt>
      <trkpt lat="47.09899" lon="-1.44504">
        <ele>80</ele>
        <time>2021-08-29T10:13:01.000Z</time>
      </trkpt>
      <trkpt lat="47.09915" lon="-1.44499">
        <ele>79</ele>
        <time>2021-08-29T10:13:03.000Z</time>
      </trkpt>
      <trkpt lat="47.09931" lon="-1.44493">
        <ele>78</ele>
        <time>2021-08-29T10:13:05.000Z</time>
      </trkpt>
      <trkpt lat="47.09946" lon="-1.44486">
        <ele>78</ele>
        <time>2021-08-29T10:13:07.000Z</time>
      </trkpt>
      <trkpt lat="47.09961" lon="-1.44481">
        <ele>77</ele>
        <time>2021-08-29T10:13:09.000Z</time>
      </trkpt>
      <trkpt lat="47.09975" lon="-1.44475">
        <ele>76</ele>
        <time>2021-08-29T10:13:11.000Z</time>
      </trkpt>
      <trkpt lat="47.09989" lon="-1.44469">
        <ele>75</ele>
        <time>2021-08-29T10:13:13.000Z</time>
      </trkpt>
      <trkpt lat="47.10004" lon="-1.44464">
        <ele>75</ele>
        <time>2021-08-29T10:13:15.000Z</time>
      </trkpt>
      <trkpt lat="47.10018" lon="-1.44458">
        <ele>74</ele>
        <time>2021-08-29T10:13:17.000Z</time>
      </trkpt>
      <trkpt lat="47.10032" lon="-1.44453">
        <ele>73</ele>
        <time>2021-08-29T10:13:19.000Z</time>
      </trkpt>
      <trkpt lat="47.10046" lon="-1.44447">
        <ele>72</ele>
        <time>2021-08-29T10:13:21.000Z</time>
      </trkpt>
      <trkpt lat="47.10061" lon="-1.44442">
        <ele>72</ele>
        <time>2021-08-29T10:13:23.000Z</time>
      </trkpt>
      <trkpt lat="47.10075" lon="-1.44437">
        <ele>71</ele>
        <time>2021-08-29T10:13:25.000Z</time>
      </trkpt>
      <trkpt lat="47.10089" lon="-1.44432">
        <ele>71</ele>
        <time>2021-08-29T10:13:27.000Z</time>
      </trkpt>
      <trkpt lat="47.10103" lon="-1.44426">
        <ele>71</ele>
        <time>2021-08-29T10:13:29.000Z</time>
      </trkpt>
      <trkpt lat="47.10116" lon="-1.4442">
        <ele>71</ele>
        <time>2021-08-29T10:13:31.000Z</time>
      </trkpt>
      <trkpt lat="47.10129" lon="-1.44411">
        <ele>71</ele>
        <time>2021-08-29T10:13:33.000Z</time>
      </trkpt>
      <trkpt lat="47.10141" lon="-1.444">
        <ele>71</ele>
        <time>2021-08-29T10:13:35.000Z</time>
      </trkpt>
      <trkpt lat="47.10153" lon="-1.44388">
        <ele>71</ele>
        <time>2021-08-29T10:13:37.000Z</time>
      </trkpt>
      <trkpt lat="47.10164" lon="-1.44375">
        <ele>70</ele>
        <time>2021-08-29T10:13:39.000Z</time>
      </trkpt>
      <trkpt lat="47.10175" lon="-1.44363">
        <ele>70</ele>
        <time>2021-08-29T10:13:41.000Z</time>
      </trkpt>
      <trkpt lat="47.10185" lon="-1.4435">
        <ele>70</ele>
        <time>2021-08-29T10:13:43.000Z</time>
      </trkpt>
      <trkpt lat="47.10196" lon="-1.44338">
        <ele>70</ele>
        <time>2021-08-29T10:13:45.000Z</time>
      </trkpt>
      <trkpt lat="47.10207" lon="-1.44326">
        <ele>71</ele>
        <time>2021-08-29T10:13:47.000Z</time>
      </trkpt>
      <trkpt lat="47.10218" lon="-1.44314">
        <ele>71</ele>
        <time>2021-08-29T10:13:49.000Z</time>
      </trkpt>
      <trkpt lat="47.10229" lon="-1.443">
        <ele>71</ele>
        <time>2021-08-29T10:13:51.000Z</time>
      </trkpt>
      <trkpt lat="47.1024" lon="-1.44287">
        <ele>71</ele>
        <time>2021-08-29T10:13:53.000Z</time>
      </trkpt>
      <trkpt lat="47.10251" lon="-1.44275">
        <ele>71</ele>
        <time>2021-08-29T10:13:55.000Z</time>
      </trkpt>
      <trkpt lat="47.10262" lon="-1.44263">
        <ele>70</ele>
        <time>2021-08-29T10:13:57.000Z</time>
      </trkpt>
      <trkpt lat="47.10273" lon="-1.44251">
        <ele>70</ele>
        <time>2021-08-29T10:13:59.000Z</time>
      </trkpt>
      <trkpt lat="47.10284" lon="-1.4424">
        <ele>70</ele>
        <time>2021-08-29T10:14:01.000Z</time>
      </trkpt>
      <trkpt lat="47.10297" lon="-1.44232">
        <ele>69</ele>
        <time>2021-08-29T10:14:03.000Z</time>
      </trkpt>
      <trkpt lat="47.1031" lon="-1.44225">
        <ele>68</ele>
        <time>2021-08-29T10:14:05.000Z</time>
      </trkpt>
      <trkpt lat="47.10323" lon="-1.44218">
        <ele>68</ele>
        <time>2021-08-29T10:14:07.000Z</time>
      </trkpt>
      <trkpt lat="47.10335" lon="-1.44212">
        <ele>69</ele>
        <time>2021-08-29T10:14:09.000Z</time>
      </trkpt>
      <trkpt lat="47.10347" lon="-1.44206">
        <ele>69</ele>
        <time>2021-08-29T10:14:11.000Z</time>
      </trkpt>
      <trkpt lat="47.10359" lon="-1.44201">
        <ele>68</ele>
        <time>2021-08-29T10:14:13.000Z</time>
      </trkpt>
      <trkpt lat="47.10371" lon="-1.44195">
        <ele>68</ele>
        <time>2021-08-29T10:14:15.000Z</time>
      </trkpt>
      <trkpt lat="47.10382" lon="-1.4419">
        <ele>69</ele>
        <time>2021-08-29T10:14:17.000Z</time>
      </trkpt>
      <trkpt lat="47.10394" lon="-1.44185">
        <ele>68</ele>
        <time>2021-08-29T10:14:19.000Z</time>
      </trkpt>
      <trkpt lat="47.10406" lon="-1.44179">
        <ele>68</ele>
        <time>2021-08-29T10:14:21.000Z</time>
      </trkpt>
      <trkpt lat="47.10417" lon="-1.44173">
        <ele>68</ele>
        <time>2021-08-29T10:14:23.000Z</time>
      </trkpt>
      <trkpt lat="47.10429" lon="-1.44168">
        <ele>68</ele>
        <time>2021-08-29T10:14:25.000Z</time>
      </trkpt>
      <trkpt lat="47.10439" lon="-1.44163">
        <ele>68</ele>
        <time>2021-08-29T10:14:27.000Z</time>
      </trkpt>
      <trkpt lat="47.1045" lon="-1.44158">
        <ele>68</ele>
        <time>2021-08-29T10:14:29.000Z</time>
      </trkpt>
      <trkpt lat="47.1046" lon="-1.44152">
        <ele>68</ele>
        <time>2021-08-29T10:14:31.000Z</time>
      </trkpt>
      <trkpt lat="47.1047" lon="-1.44148">
        <ele>69</ele>
        <time>2021-08-29T10:14:33.000Z</time>
      </trkpt>
      <trkpt lat="47.10479" lon="-1.44143">
        <ele>69</ele>
        <time>2021-08-29T10:14:35.000Z</time>
      </trkpt>
      <trkpt lat="47.10488" lon="-1.44137">
        <ele>69</ele>
        <time>2021-08-29T10:14:37.000Z</time>
      </trkpt>
      <trkpt lat="47.10498" lon="-1.44132">
        <ele>69</ele>
        <time>2021-08-29T10:14:39.000Z</time>
      </trkpt>
      <trkpt lat="47.10507" lon="-1.44126">
        <ele>69</ele>
        <time>2021-08-29T10:14:41.000Z</time>
      </trkpt>
      <trkpt lat="47.10516" lon="-1.44119">
        <ele>69</ele>
        <time>2021-08-29T10:14:43.000Z</time>
      </trkpt>
      <trkpt lat="47.10525" lon="-1.44112">
        <ele>69</ele>
        <time>2021-08-29T10:14:45.000Z</time>
      </trkpt>
      <trkpt lat="47.10534" lon="-1.44105">
        <ele>70</ele>
        <time>2021-08-29T10:14:47.000Z</time>
      </trkpt>
      <trkpt lat="47.10543" lon="-1.44097">
        <ele>70</ele>
        <time>2021-08-29T10:14:49.000Z</time>
      </trkpt>
      <trkpt lat="47.10551" lon="-1.4409">
        <ele>70</ele>
        <time>2021-08-29T10:14:51.000Z</time>
      </trkpt>
      <trkpt lat="47.1056" lon="-1.44082">
        <ele>70</ele>
        <time>2021-08-29T10:14:53.000Z</time>
      </trkpt>
      <trkpt lat="47.10568" lon="-1.44074">
        <ele>70</ele>
        <time>2021-08-29T10:14:55.000Z</time>
      </trkpt>
      <trkpt lat="47.10576" lon="-1.44065">
        <ele>70</ele>
        <time>2021-08-29T10:14:57.000Z</time>
      </trkpt>
      <trkpt lat="47.10585" lon="-1.44056">
        <ele>70</ele>
        <time>2021-08-29T10:14:59.000Z</time>
      </trkpt>
      <trkpt lat="47.10594" lon="-1.44049">
        <ele>70</ele>
        <time>2021-08-29T10:15:01.000Z</time>
      </trkpt>
      <trkpt lat="47.10603" lon="-1.44042">
        <ele>70</ele>
        <time>2021-08-29T10:15:03.000Z</time>
      </trkpt>
      <trkpt lat="47.10612" lon="-1.44036">
        <ele>70</ele>
        <time>2021-08-29T10:15:05.000Z</time>
      </trkpt>
      <trkpt lat="47.10621" lon="-1.4403">
        <ele>70</ele>
        <time>2021-08-29T10:15:07.000Z</time>
      </trkpt>
      <trkpt lat="47.10631" lon="-1.44024">
        <ele>70</ele>
        <time>2021-08-29T10:15:09.000Z</time>
      </trkpt>
      <trkpt lat="47.1064" lon="-1.44019">
        <ele>70</ele>
        <time>2021-08-29T10:15:11.000Z</time>
      </trkpt>
      <trkpt lat="47.10648" lon="-1.44013">
        <ele>70</ele>
        <time>2021-08-29T10:15:13.000Z</time>
      </trkpt>
      <trkpt lat="47.10658" lon="-1.44008">
        <ele>71</ele>
        <time>2021-08-29T10:15:15.000Z</time>
      </trkpt>
      <trkpt lat="47.10667" lon="-1.44002">
        <ele>71</ele>
        <time>2021-08-29T10:15:17.000Z</time>
      </trkpt>
      <trkpt lat="47.10676" lon="-1.43998">
        <ele>71</ele>
        <time>2021-08-29T10:15:19.000Z</time>
      </trkpt>
      <trkpt lat="47.10685" lon="-1.43993">
        <ele>72</ele>
        <time>2021-08-29T10:15:21.000Z</time>
      </trkpt>
      <trkpt lat="47.10694" lon="-1.43988">
        <ele>72</ele>
        <time>2021-08-29T10:15:23.000Z</time>
      </trkpt>
      <trkpt lat="47.10702" lon="-1.43982">
        <ele>73</ele>
        <time>2021-08-29T10:15:25.000Z</time>
      </trkpt>
      <trkpt lat="47.10711" lon="-1.43976">
        <ele>73</ele>
        <time>2021-08-29T10:15:27.000Z</time>
      </trkpt>
      <trkpt lat="47.10719" lon="-1.43969">
        <ele>73</ele>
        <time>2021-08-29T10:15:29.000Z</time>
      </trkpt>
      <trkpt lat="47.10727" lon="-1.43962">
        <ele>73</ele>
        <time>2021-08-29T10:15:31.000Z</time>
      </trkpt>
      <trkpt lat="47.10736" lon="-1.43953">
        <ele>73</ele>
        <time>2021-08-29T10:15:33.000Z</time>
      </trkpt>
      <trkpt lat="47.10744" lon="-1.43944">
        <ele>73</ele>
        <time>2021-08-29T10:15:35.000Z</time>
      </trkpt>
      <trkpt lat="47.10752" lon="-1.43935">
        <ele>73</ele>
        <time>2021-08-29T10:15:37.000Z</time>
      </trkpt>
      <trkpt lat="47.1076" lon="-1.43927">
        <ele>74</ele>
        <time>2021-08-29T10:15:39.000Z</time>
      </trkpt>
      <trkpt lat="47.10768" lon="-1.43921">
        <ele>74</ele>
        <time>2021-08-29T10:15:41.000Z</time>
      </trkpt>
      <trkpt lat="47.10777" lon="-1.43914">
        <ele>75</ele>
        <time>2021-08-29T10:15:43.000Z</time>
      </trkpt>
      <trkpt lat="47.10785" lon="-1.43906">
        <ele>75</ele>
        <time>2021-08-29T10:15:45.000Z</time>
      </trkpt>
      <trkpt lat="47.10793" lon="-1.43898">
        <ele>76</ele>
        <time>2021-08-29T10:15:47.000Z</time>
      </trkpt>
      <trkpt lat="47.10801" lon="-1.43891">
        <ele>77</ele>
        <time>2021-08-29T10:15:49.000Z</time>
      </trkpt>
      <trkpt lat="47.10809" lon="-1.43884">
        <ele>77</ele>
        <time>2021-08-29T10:15:51.000Z</time>
      </trkpt>
      <trkpt lat="47.1082" lon="-1.43875">
        <ele>77</ele>
        <time>2021-08-29T10:15:54.000Z</time>
      </trkpt>
      <trkpt lat="47.10832" lon="-1.43865">
        <ele>78</ele>
        <time>2021-08-29T10:15:57.000Z</time>
      </trkpt>
      <trkpt lat="47.10839" lon="-1.43857">
        <ele>78</ele>
        <time>2021-08-29T10:15:59.000Z</time>
      </trkpt>
      <trkpt lat="47.10847" lon="-1.43849">
        <ele>78</ele>
        <time>2021-08-29T10:16:01.000Z</time>
      </trkpt>
      <trkpt lat="47.10856" lon="-1.43841">
        <ele>78</ele>
        <time>2021-08-29T10:16:03.000Z</time>
      </trkpt>
      <trkpt lat="47.10865" lon="-1.43834">
        <ele>79</ele>
        <time>2021-08-29T10:16:05.000Z</time>
      </trkpt>
      <trkpt lat="47.10873" lon="-1.43828">
        <ele>79</ele>
        <time>2021-08-29T10:16:07.000Z</time>
      </trkpt>
      <trkpt lat="47.10882" lon="-1.4382">
        <ele>79</ele>
        <time>2021-08-29T10:16:09.000Z</time>
      </trkpt>
      <trkpt lat="47.1089" lon="-1.43811">
        <ele>79</ele>
        <time>2021-08-29T10:16:11.000Z</time>
      </trkpt>
      <trkpt lat="47.10899" lon="-1.43802">
        <ele>79</ele>
        <time>2021-08-29T10:16:13.000Z</time>
      </trkpt>
      <trkpt lat="47.10907" lon="-1.43793">
        <ele>80</ele>
        <time>2021-08-29T10:16:15.000Z</time>
      </trkpt>
      <trkpt lat="47.10915" lon="-1.43785">
        <ele>80</ele>
        <time>2021-08-29T10:16:17.000Z</time>
      </trkpt>
      <trkpt lat="47.10923" lon="-1.43777">
        <ele>81</ele>
        <time>2021-08-29T10:16:19.000Z</time>
      </trkpt>
      <trkpt lat="47.10931" lon="-1.43769">
        <ele>82</ele>
        <time>2021-08-29T10:16:21.000Z</time>
      </trkpt>
      <trkpt lat="47.1094" lon="-1.4376">
        <ele>81</ele>
        <time>2021-08-29T10:16:23.000Z</time>
      </trkpt>
      <trkpt lat="47.10948" lon="-1.43751">
        <ele>82</ele>
        <time>2021-08-29T10:16:25.000Z</time>
      </trkpt>
      <trkpt lat="47.10956" lon="-1.43742">
        <ele>82</ele>
        <time>2021-08-29T10:16:27.000Z</time>
      </trkpt>
      <trkpt lat="47.10964" lon="-1.43734">
        <ele>82</ele>
        <time>2021-08-29T10:16:29.000Z</time>
      </trkpt>
      <trkpt lat="47.10973" lon="-1.43726">
        <ele>82</ele>
        <time>2021-08-29T10:16:31.000Z</time>
      </trkpt>
      <trkpt lat="47.1098" lon="-1.43718">
        <ele>82</ele>
        <time>2021-08-29T10:16:33.000Z</time>
      </trkpt>
      <trkpt lat="47.10988" lon="-1.4371">
        <ele>83</ele>
        <time>2021-08-29T10:16:35.000Z</time>
      </trkpt>
      <trkpt lat="47.10995" lon="-1.437">
        <ele>83</ele>
        <time>2021-08-29T10:16:37.000Z</time>
      </trkpt>
      <trkpt lat="47.11004" lon="-1.43691">
        <ele>84</ele>
        <time>2021-08-29T10:16:39.000Z</time>
      </trkpt>
      <trkpt lat="47.11012" lon="-1.43682">
        <ele>84</ele>
        <time>2021-08-29T10:16:41.000Z</time>
      </trkpt>
      <trkpt lat="47.1102" lon="-1.43673">
        <ele>84</ele>
        <time>2021-08-29T10:16:43.000Z</time>
      </trkpt>
      <trkpt lat="47.11028" lon="-1.43664">
        <ele>84</ele>
        <time>2021-08-29T10:16:45.000Z</time>
      </trkpt>
      <trkpt lat="47.11035" lon="-1.43654">
        <ele>84</ele>
        <time>2021-08-29T10:16:47.000Z</time>
      </trkpt>
      <trkpt lat="47.11042" lon="-1.43643">
        <ele>84</ele>
        <time>2021-08-29T10:16:49.000Z</time>
      </trkpt>
      <trkpt lat="47.11049" lon="-1.43633">
        <ele>85</ele>
        <time>2021-08-29T10:16:51.000Z</time>
      </trkpt>
      <trkpt lat="47.11056" lon="-1.43624">
        <ele>85</ele>
        <time>2021-08-29T10:16:53.000Z</time>
      </trkpt>
      <trkpt lat="47.11064" lon="-1.43615">
        <ele>85</ele>
        <time>2021-08-29T10:16:55.000Z</time>
      </trkpt>
      <trkpt lat="47.11072" lon="-1.43606">
        <ele>86</ele>
        <time>2021-08-29T10:16:57.000Z</time>
      </trkpt>
      <trkpt lat="47.11079" lon="-1.43598">
        <ele>86</ele>
        <time>2021-08-29T10:16:59.000Z</time>
      </trkpt>
      <trkpt lat="47.11087" lon="-1.43591">
        <ele>86</ele>
        <time>2021-08-29T10:17:01.000Z</time>
      </trkpt>
      <trkpt lat="47.11099" lon="-1.43581">
        <ele>87</ele>
        <time>2021-08-29T10:17:04.000Z</time>
      </trkpt>
      <trkpt lat="47.11106" lon="-1.4357">
        <ele>86</ele>
        <time>2021-08-29T10:17:06.000Z</time>
      </trkpt>
      <trkpt lat="47.11113" lon="-1.4356">
        <ele>86</ele>
        <time>2021-08-29T10:17:08.000Z</time>
      </trkpt>
      <trkpt lat="47.11119" lon="-1.43549">
        <ele>86</ele>
        <time>2021-08-29T10:17:10.000Z</time>
      </trkpt>
      <trkpt lat="47.11126" lon="-1.43538">
        <ele>86</ele>
        <time>2021-08-29T10:17:12.000Z</time>
      </trkpt>
      <trkpt lat="47.11133" lon="-1.43528">
        <ele>86</ele>
        <time>2021-08-29T10:17:14.000Z</time>
      </trkpt>
      <trkpt lat="47.11139" lon="-1.43516">
        <ele>86</ele>
        <time>2021-08-29T10:17:16.000Z</time>
      </trkpt>
      <trkpt lat="47.11145" lon="-1.43505">
        <ele>86</ele>
        <time>2021-08-29T10:17:18.000Z</time>
      </trkpt>
      <trkpt lat="47.11152" lon="-1.43494">
        <ele>86</ele>
        <time>2021-08-29T10:17:20.000Z</time>
      </trkpt>
      <trkpt lat="47.11158" lon="-1.43483">
        <ele>86</ele>
        <time>2021-08-29T10:17:22.000Z</time>
      </trkpt>
      <trkpt lat="47.11165" lon="-1.43471">
        <ele>85</ele>
        <time>2021-08-29T10:17:24.000Z</time>
      </trkpt>
      <trkpt lat="47.11171" lon="-1.4346">
        <ele>85</ele>
        <time>2021-08-29T10:17:26.000Z</time>
      </trkpt>
      <trkpt lat="47.11177" lon="-1.43449">
        <ele>85</ele>
        <time>2021-08-29T10:17:28.000Z</time>
      </trkpt>
      <trkpt lat="47.11184" lon="-1.43438">
        <ele>86</ele>
        <time>2021-08-29T10:17:30.000Z</time>
      </trkpt>
      <trkpt lat="47.11191" lon="-1.43426">
        <ele>86</ele>
        <time>2021-08-29T10:17:32.000Z</time>
      </trkpt>
      <trkpt lat="47.11198" lon="-1.43414">
        <ele>86</ele>
        <time>2021-08-29T10:17:34.000Z</time>
      </trkpt>
      <trkpt lat="47.11205" lon="-1.43401">
        <ele>87</ele>
        <time>2021-08-29T10:17:36.000Z</time>
      </trkpt>
      <trkpt lat="47.11212" lon="-1.43389">
        <ele>87</ele>
        <time>2021-08-29T10:17:38.000Z</time>
      </trkpt>
      <trkpt lat="47.11219" lon="-1.43376">
        <ele>87</ele>
        <time>2021-08-29T10:17:40.000Z</time>
      </trkpt>
      <trkpt lat="47.11226" lon="-1.43364">
        <ele>87</ele>
        <time>2021-08-29T10:17:42.000Z</time>
      </trkpt>
      <trkpt lat="47.11233" lon="-1.43352">
        <ele>87</ele>
        <time>2021-08-29T10:17:44.000Z</time>
      </trkpt>
      <trkpt lat="47.1124" lon="-1.43339">
        <ele>87</ele>
        <time>2021-08-29T10:17:46.000Z</time>
      </trkpt>
      <trkpt lat="47.11248" lon="-1.43328">
        <ele>86</ele>
        <time>2021-08-29T10:17:48.000Z</time>
      </trkpt>
      <trkpt lat="47.11255" lon="-1.43317">
        <ele>86</ele>
        <time>2021-08-29T10:17:50.000Z</time>
      </trkpt>
      <trkpt lat="47.11264" lon="-1.43306">
        <ele>86</ele>
        <time>2021-08-29T10:17:52.000Z</time>
      </trkpt>
      <trkpt lat="47.11272" lon="-1.43295">
        <ele>86</ele>
        <time>2021-08-29T10:17:54.000Z</time>
      </trkpt>
      <trkpt lat="47.11281" lon="-1.43285">
        <ele>86</ele>
        <time>2021-08-29T10:17:56.000Z</time>
      </trkpt>
      <trkpt lat="47.1129" lon="-1.43274">
        <ele>85</ele>
        <time>2021-08-29T10:17:58.000Z</time>
      </trkpt>
      <trkpt lat="47.11299" lon="-1.43264">
        <ele>85</ele>
        <time>2021-08-29T10:18:00.000Z</time>
      </trkpt>
      <trkpt lat="47.11308" lon="-1.43253">
        <ele>85</ele>
        <time>2021-08-29T10:18:02.000Z</time>
      </trkpt>
      <trkpt lat="47.11317" lon="-1.43243">
        <ele>85</ele>
        <time>2021-08-29T10:18:04.000Z</time>
      </trkpt>
      <trkpt lat="47.11326" lon="-1.43232">
        <ele>85</ele>
        <time>2021-08-29T10:18:06.000Z</time>
      </trkpt>
      <trkpt lat="47.11335" lon="-1.43221">
        <ele>85</ele>
        <time>2021-08-29T10:18:08.000Z</time>
      </trkpt>
      <trkpt lat="47.11344" lon="-1.4321">
        <ele>85</ele>
        <time>2021-08-29T10:18:10.000Z</time>
      </trkpt>
      <trkpt lat="47.11353" lon="-1.43199">
        <ele>84</ele>
        <time>2021-08-29T10:18:12.000Z</time>
      </trkpt>
      <trkpt lat="47.11363" lon="-1.43188">
        <ele>84</ele>
        <time>2021-08-29T10:18:14.000Z</time>
      </trkpt>
      <trkpt lat="47.11372" lon="-1.43177">
        <ele>84</ele>
        <time>2021-08-29T10:18:16.000Z</time>
      </trkpt>
      <trkpt lat="47.11381" lon="-1.43165">
        <ele>84</ele>
        <time>2021-08-29T10:18:18.000Z</time>
      </trkpt>
      <trkpt lat="47.1139" lon="-1.43153">
        <ele>84</ele>
        <time>2021-08-29T10:18:20.000Z</time>
      </trkpt>
      <trkpt lat="47.114" lon="-1.43142">
        <ele>83</ele>
        <time>2021-08-29T10:18:22.000Z</time>
      </trkpt>
      <trkpt lat="47.11409" lon="-1.4313">
        <ele>83</ele>
        <time>2021-08-29T10:18:24.000Z</time>
      </trkpt>
      <trkpt lat="47.11418" lon="-1.43118">
        <ele>83</ele>
        <time>2021-08-29T10:18:26.000Z</time>
      </trkpt>
      <trkpt lat="47.11428" lon="-1.43106">
        <ele>82</ele>
        <time>2021-08-29T10:18:28.000Z</time>
      </trkpt>
      <trkpt lat="47.11437" lon="-1.43095">
        <ele>82</ele>
        <time>2021-08-29T10:18:30.000Z</time>
      </trkpt>
      <trkpt lat="47.11448" lon="-1.43085">
        <ele>82</ele>
        <time>2021-08-29T10:18:32.000Z</time>
      </trkpt>
      <trkpt lat="47.11459" lon="-1.43074">
        <ele>81</ele>
        <time>2021-08-29T10:18:34.000Z</time>
      </trkpt>
      <trkpt lat="47.1147" lon="-1.43063">
        <ele>81</ele>
        <time>2021-08-29T10:18:36.000Z</time>
      </trkpt>
      <trkpt lat="47.11481" lon="-1.43053">
        <ele>80</ele>
        <time>2021-08-29T10:18:38.000Z</time>
      </trkpt>
      <trkpt lat="47.11493" lon="-1.43042">
        <ele>80</ele>
        <time>2021-08-29T10:18:40.000Z</time>
      </trkpt>
      <trkpt lat="47.11504" lon="-1.43032">
        <ele>80</ele>
        <time>2021-08-29T10:18:42.000Z</time>
      </trkpt>
      <trkpt lat="47.11515" lon="-1.43022">
        <ele>79</ele>
        <time>2021-08-29T10:18:44.000Z</time>
      </trkpt>
      <trkpt lat="47.11526" lon="-1.43012">
        <ele>78</ele>
        <time>2021-08-29T10:18:46.000Z</time>
      </trkpt>
      <trkpt lat="47.11538" lon="-1.43001">
        <ele>78</ele>
        <time>2021-08-29T10:18:48.000Z</time>
      </trkpt>
      <trkpt lat="47.11549" lon="-1.42991">
        <ele>77</ele>
        <time>2021-08-29T10:18:50.000Z</time>
      </trkpt>
      <trkpt lat="47.11561" lon="-1.4298">
        <ele>76</ele>
        <time>2021-08-29T10:18:52.000Z</time>
      </trkpt>
      <trkpt lat="47.11572" lon="-1.4297">
        <ele>75</ele>
        <time>2021-08-29T10:18:54.000Z</time>
      </trkpt>
      <trkpt lat="47.11584" lon="-1.42959">
        <ele>74</ele>
        <time>2021-08-29T10:18:56.000Z</time>
      </trkpt>
      <trkpt lat="47.11596" lon="-1.42947">
        <ele>74</ele>
        <time>2021-08-29T10:18:58.000Z</time>
      </trkpt>
      <trkpt lat="47.11608" lon="-1.42935">
        <ele>73</ele>
        <time>2021-08-29T10:19:00.000Z</time>
      </trkpt>
      <trkpt lat="47.11619" lon="-1.42921">
        <ele>72</ele>
        <time>2021-08-29T10:19:02.000Z</time>
      </trkpt>
      <trkpt lat="47.11629" lon="-1.42904">
        <ele>72</ele>
        <time>2021-08-29T10:19:04.000Z</time>
      </trkpt>
      <trkpt lat="47.11637" lon="-1.42888">
        <ele>72</ele>
        <time>2021-08-29T10:19:06.000Z</time>
      </trkpt>
      <trkpt lat="47.11645" lon="-1.42872">
        <ele>72</ele>
        <time>2021-08-29T10:19:08.000Z</time>
      </trkpt>
      <trkpt lat="47.11652" lon="-1.42855">
        <ele>72</ele>
        <time>2021-08-29T10:19:10.000Z</time>
      </trkpt>
      <trkpt lat="47.11658" lon="-1.42838">
        <ele>73</ele>
        <time>2021-08-29T10:19:12.000Z</time>
      </trkpt>
      <trkpt lat="47.11665" lon="-1.42822">
        <ele>74</ele>
        <time>2021-08-29T10:19:14.000Z</time>
      </trkpt>
      <trkpt lat="47.11671" lon="-1.42806">
        <ele>74</ele>
        <time>2021-08-29T10:19:16.000Z</time>
      </trkpt>
      <trkpt lat="47.11676" lon="-1.42791">
        <ele>75</ele>
        <time>2021-08-29T10:19:18.000Z</time>
      </trkpt>
      <trkpt lat="47.1168" lon="-1.42778">
        <ele>75</ele>
        <time>2021-08-29T10:19:20.000Z</time>
      </trkpt>
      <trkpt lat="47.11683" lon="-1.42765">
        <ele>76</ele>
        <time>2021-08-29T10:19:22.000Z</time>
      </trkpt>
      <trkpt lat="47.11687" lon="-1.42747">
        <ele>78</ele>
        <time>2021-08-29T10:19:25.000Z</time>
      </trkpt>
      <trkpt lat="47.11691" lon="-1.4273">
        <ele>78</ele>
        <time>2021-08-29T10:19:28.000Z</time>
      </trkpt>
      <trkpt lat="47.11696" lon="-1.42715">
        <ele>79</ele>
        <time>2021-08-29T10:19:31.000Z</time>
      </trkpt>
      <trkpt lat="47.11703" lon="-1.42702">
        <ele>80</ele>
        <time>2021-08-29T10:19:34.000Z</time>
      </trkpt>
      <trkpt lat="47.11714" lon="-1.42693">
        <ele>80</ele>
        <time>2021-08-29T10:19:37.000Z</time>
      </trkpt>
      <trkpt lat="47.11724" lon="-1.42685">
        <ele>81</ele>
        <time>2021-08-29T10:19:40.000Z</time>
      </trkpt>
      <trkpt lat="47.11736" lon="-1.42678">
        <ele>81</ele>
        <time>2021-08-29T10:19:43.000Z</time>
      </trkpt>
      <trkpt lat="47.11747" lon="-1.42672">
        <ele>82</ele>
        <time>2021-08-29T10:19:46.000Z</time>
      </trkpt>
      <trkpt lat="47.11758" lon="-1.42666">
        <ele>82</ele>
        <time>2021-08-29T10:19:49.000Z</time>
      </trkpt>
      <trkpt lat="47.11768" lon="-1.42659">
        <ele>83</ele>
        <time>2021-08-29T10:19:52.000Z</time>
      </trkpt>
      <trkpt lat="47.1178" lon="-1.42653">
        <ele>83</ele>
        <time>2021-08-29T10:19:55.000Z</time>
      </trkpt>
      <trkpt lat="47.1179" lon="-1.42647">
        <ele>83</ele>
        <time>2021-08-29T10:19:58.000Z</time>
      </trkpt>
      <trkpt lat="47.118" lon="-1.42641">
        <ele>84</ele>
        <time>2021-08-29T10:20:01.000Z</time>
      </trkpt>
      <trkpt lat="47.1181" lon="-1.42635">
        <ele>85</ele>
        <time>2021-08-29T10:20:04.000Z</time>
      </trkpt>
      <trkpt lat="47.1182" lon="-1.42628">
        <ele>85</ele>
        <time>2021-08-29T10:20:07.000Z</time>
      </trkpt>
      <trkpt lat="47.1183" lon="-1.42623">
        <ele>86</ele>
        <time>2021-08-29T10:20:10.000Z</time>
      </trkpt>
      <trkpt lat="47.11839" lon="-1.42616">
        <ele>87</ele>
        <time>2021-08-29T10:20:13.000Z</time>
      </trkpt>
      <trkpt lat="47.11849" lon="-1.4261">
        <ele>88</ele>
        <time>2021-08-29T10:20:16.000Z</time>
      </trkpt>
      <trkpt lat="47.11859" lon="-1.42603">
        <ele>88</ele>
        <time>2021-08-29T10:20:19.000Z</time>
      </trkpt>
      <trkpt lat="47.11868" lon="-1.42594">
        <ele>88</ele>
        <time>2021-08-29T10:20:22.000Z</time>
      </trkpt>
      <trkpt lat="47.11878" lon="-1.42585">
        <ele>89</ele>
        <time>2021-08-29T10:20:25.000Z</time>
      </trkpt>
      <trkpt lat="47.11888" lon="-1.42575">
        <ele>89</ele>
        <time>2021-08-29T10:20:28.000Z</time>
      </trkpt>
      <trkpt lat="47.11898" lon="-1.42566">
        <ele>90</ele>
        <time>2021-08-29T10:20:31.000Z</time>
      </trkpt>
      <trkpt lat="47.11908" lon="-1.42555">
        <ele>90</ele>
        <time>2021-08-29T10:20:34.000Z</time>
      </trkpt>
      <trkpt lat="47.11917" lon="-1.42546">
        <ele>91</ele>
        <time>2021-08-29T10:20:37.000Z</time>
      </trkpt>
      <trkpt lat="47.11927" lon="-1.42536">
        <ele>91</ele>
        <time>2021-08-29T10:20:40.000Z</time>
      </trkpt>
      <trkpt lat="47.11938" lon="-1.42526">
        <ele>92</ele>
        <time>2021-08-29T10:20:43.000Z</time>
      </trkpt>
      <trkpt lat="47.11948" lon="-1.42516">
        <ele>92</ele>
        <time>2021-08-29T10:20:46.000Z</time>
      </trkpt>
      <trkpt lat="47.11959" lon="-1.42505">
        <ele>92</ele>
        <time>2021-08-29T10:20:49.000Z</time>
      </trkpt>
      <trkpt lat="47.1197" lon="-1.42495">
        <ele>93</ele>
        <time>2021-08-29T10:20:52.000Z</time>
      </trkpt>
      <trkpt lat="47.11981" lon="-1.42485">
        <ele>93</ele>
        <time>2021-08-29T10:20:55.000Z</time>
      </trkpt>
      <trkpt lat="47.11991" lon="-1.42474">
        <ele>93</ele>
        <time>2021-08-29T10:20:58.000Z</time>
      </trkpt>
      <trkpt lat="47.11999" lon="-1.42467">
        <ele>94</ele>
        <time>2021-08-29T10:21:00.000Z</time>
      </trkpt>
      <trkpt lat="47.12007" lon="-1.4246">
        <ele>94</ele>
        <time>2021-08-29T10:21:02.000Z</time>
      </trkpt>
      <trkpt lat="47.12014" lon="-1.42452">
        <ele>94</ele>
        <time>2021-08-29T10:21:04.000Z</time>
      </trkpt>
      <trkpt lat="47.12025" lon="-1.42441">
        <ele>94</ele>
        <time>2021-08-29T10:21:07.000Z</time>
      </trkpt>
      <trkpt lat="47.12036" lon="-1.4243">
        <ele>94</ele>
        <time>2021-08-29T10:21:10.000Z</time>
      </trkpt>
      <trkpt lat="47.12045" lon="-1.42417">
        <ele>95</ele>
        <time>2021-08-29T10:21:13.000Z</time>
      </trkpt>
      <trkpt lat="47.12051" lon="-1.42407">
        <ele>95</ele>
        <time>2021-08-29T10:21:15.000Z</time>
      </trkpt>
      <trkpt lat="47.12057" lon="-1.42396">
        <ele>95</ele>
        <time>2021-08-29T10:21:17.000Z</time>
      </trkpt>
      <trkpt lat="47.12063" lon="-1.42384">
        <ele>95</ele>
        <time>2021-08-29T10:21:19.000Z</time>
      </trkpt>
      <trkpt lat="47.12068" lon="-1.42371">
        <ele>95</ele>
        <time>2021-08-29T10:21:21.000Z</time>
      </trkpt>
      <trkpt lat="47.12072" lon="-1.42357">
        <ele>96</ele>
        <time>2021-08-29T10:21:23.000Z</time>
      </trkpt>
      <trkpt lat="47.12076" lon="-1.42342">
        <ele>96</ele>
        <time>2021-08-29T10:21:25.000Z</time>
      </trkpt>
      <trkpt lat="47.12081" lon="-1.42326">
        <ele>97</ele>
        <time>2021-08-29T10:21:27.000Z</time>
      </trkpt>
      <trkpt lat="47.12085" lon="-1.42312">
        <ele>97</ele>
        <time>2021-08-29T10:21:29.000Z</time>
      </trkpt>
      <trkpt lat="47.12089" lon="-1.42297">
        <ele>97</ele>
        <time>2021-08-29T10:21:31.000Z</time>
      </trkpt>
      <trkpt lat="47.12094" lon="-1.42282">
        <ele>97</ele>
        <time>2021-08-29T10:21:33.000Z</time>
      </trkpt>
      <trkpt lat="47.12099" lon="-1.42267">
        <ele>97</ele>
        <time>2021-08-29T10:21:35.000Z</time>
      </trkpt>
      <trkpt lat="47.12103" lon="-1.42252">
        <ele>97</ele>
        <time>2021-08-29T10:21:37.000Z</time>
      </trkpt>
      <trkpt lat="47.12108" lon="-1.42237">
        <ele>97</ele>
        <time>2021-08-29T10:21:39.000Z</time>
      </trkpt>
      <trkpt lat="47.12113" lon="-1.42222">
        <ele>97</ele>
        <time>2021-08-29T10:21:41.000Z</time>
      </trkpt>
      <trkpt lat="47.12118" lon="-1.42208">
        <ele>96</ele>
        <time>2021-08-29T10:21:43.000Z</time>
      </trkpt>
      <trkpt lat="47.12124" lon="-1.42194">
        <ele>97</ele>
        <time>2021-08-29T10:21:45.000Z</time>
      </trkpt>
      <trkpt lat="47.12132" lon="-1.42183">
        <ele>96</ele>
        <time>2021-08-29T10:21:47.000Z</time>
      </trkpt>
      <trkpt lat="47.12141" lon="-1.42173">
        <ele>96</ele>
        <time>2021-08-29T10:21:49.000Z</time>
      </trkpt>
      <trkpt lat="47.1215" lon="-1.42164">
        <ele>96</ele>
        <time>2021-08-29T10:21:51.000Z</time>
      </trkpt>
      <trkpt lat="47.1216" lon="-1.42157">
        <ele>96</ele>
        <time>2021-08-29T10:21:53.000Z</time>
      </trkpt>
      <trkpt lat="47.1217" lon="-1.42152">
        <ele>96</ele>
        <time>2021-08-29T10:21:55.000Z</time>
      </trkpt>
      <trkpt lat="47.1218" lon="-1.42146">
        <ele>95</ele>
        <time>2021-08-29T10:21:57.000Z</time>
      </trkpt>
      <trkpt lat="47.1219" lon="-1.4214">
        <ele>95</ele>
        <time>2021-08-29T10:21:59.000Z</time>
      </trkpt>
      <trkpt lat="47.12201" lon="-1.42135">
        <ele>95</ele>
        <time>2021-08-29T10:22:01.000Z</time>
      </trkpt>
      <trkpt lat="47.12211" lon="-1.42129">
        <ele>95</ele>
        <time>2021-08-29T10:22:03.000Z</time>
      </trkpt>
      <trkpt lat="47.12221" lon="-1.42124">
        <ele>95</ele>
        <time>2021-08-29T10:22:05.000Z</time>
      </trkpt>
      <trkpt lat="47.1223" lon="-1.42115">
        <ele>95</ele>
        <time>2021-08-29T10:22:07.000Z</time>
      </trkpt>
      <trkpt lat="47.12239" lon="-1.42106">
        <ele>95</ele>
        <time>2021-08-29T10:22:09.000Z</time>
      </trkpt>
      <trkpt lat="47.12248" lon="-1.42098">
        <ele>95</ele>
        <time>2021-08-29T10:22:11.000Z</time>
      </trkpt>
      <trkpt lat="47.12257" lon="-1.42091">
        <ele>95</ele>
        <time>2021-08-29T10:22:13.000Z</time>
      </trkpt>
      <trkpt lat="47.12266" lon="-1.42083">
        <ele>95</ele>
        <time>2021-08-29T10:22:15.000Z</time>
      </trkpt>
      <trkpt lat="47.12276" lon="-1.42076">
        <ele>96</ele>
        <time>2021-08-29T10:22:17.000Z</time>
      </trkpt>
      <trkpt lat="47.12285" lon="-1.42068">
        <ele>96</ele>
        <time>2021-08-29T10:22:19.000Z</time>
      </trkpt>
      <trkpt lat="47.12294" lon="-1.42061">
        <ele>96</ele>
        <time>2021-08-29T10:22:21.000Z</time>
      </trkpt>
      <trkpt lat="47.12304" lon="-1.42054">
        <ele>96</ele>
        <time>2021-08-29T10:22:23.000Z</time>
      </trkpt>
      <trkpt lat="47.12313" lon="-1.42048">
        <ele>96</ele>
        <time>2021-08-29T10:22:25.000Z</time>
      </trkpt>
      <trkpt lat="47.12323" lon="-1.42042">
        <ele>97</ele>
        <time>2021-08-29T10:22:27.000Z</time>
      </trkpt>
      <trkpt lat="47.12335" lon="-1.4205">
        <ele>96</ele>
        <time>2021-08-29T10:22:30.000Z</time>
      </trkpt>
      <trkpt lat="47.1234" lon="-1.42063">
        <ele>96</ele>
        <time>2021-08-29T10:22:32.000Z</time>
      </trkpt>
      <trkpt lat="47.12348" lon="-1.42076">
        <ele>96</ele>
        <time>2021-08-29T10:22:34.000Z</time>
      </trkpt>
      <trkpt lat="47.12354" lon="-1.42088">
        <ele>97</ele>
        <time>2021-08-29T10:22:36.000Z</time>
      </trkpt>
      <trkpt lat="47.12362" lon="-1.42101">
        <ele>97</ele>
        <time>2021-08-29T10:22:38.000Z</time>
      </trkpt>
      <trkpt lat="47.12369" lon="-1.42113">
        <ele>97</ele>
        <time>2021-08-29T10:22:40.000Z</time>
      </trkpt>
      <trkpt lat="47.12376" lon="-1.42125">
        <ele>97</ele>
        <time>2021-08-29T10:22:42.000Z</time>
      </trkpt>
      <trkpt lat="47.12383" lon="-1.42139">
        <ele>97</ele>
        <time>2021-08-29T10:22:44.000Z</time>
      </trkpt>
      <trkpt lat="47.12388" lon="-1.42153">
        <ele>97</ele>
        <time>2021-08-29T10:22:46.000Z</time>
      </trkpt>
      <trkpt lat="47.12392" lon="-1.42168">
        <ele>97</ele>
        <time>2021-08-29T10:22:48.000Z</time>
      </trkpt>
      <trkpt lat="47.12396" lon="-1.42182">
        <ele>97</ele>
        <time>2021-08-29T10:22:50.000Z</time>
      </trkpt>
      <trkpt lat="47.12399" lon="-1.42197">
        <ele>97</ele>
        <time>2021-08-29T10:22:52.000Z</time>
      </trkpt>
      <trkpt lat="47.12403" lon="-1.42212">
        <ele>97</ele>
        <time>2021-08-29T10:22:54.000Z</time>
      </trkpt>
      <trkpt lat="47.12406" lon="-1.42227">
        <ele>97</ele>
        <time>2021-08-29T10:22:56.000Z</time>
      </trkpt>
      <trkpt lat="47.1241" lon="-1.42242">
        <ele>98</ele>
        <time>2021-08-29T10:22:58.000Z</time>
      </trkpt>
      <trkpt lat="47.12414" lon="-1.42256">
        <ele>98</ele>
        <time>2021-08-29T10:23:00.000Z</time>
      </trkpt>
      <trkpt lat="47.12417" lon="-1.42271">
        <ele>99</ele>
        <time>2021-08-29T10:23:02.000Z</time>
      </trkpt>
      <trkpt lat="47.12421" lon="-1.42286">
        <ele>99</ele>
        <time>2021-08-29T10:23:04.000Z</time>
      </trkpt>
      <trkpt lat="47.12424" lon="-1.423">
        <ele>100</ele>
        <time>2021-08-29T10:23:06.000Z</time>
      </trkpt>
      <trkpt lat="47.12428" lon="-1.42316">
        <ele>101</ele>
        <time>2021-08-29T10:23:08.000Z</time>
      </trkpt>
      <trkpt lat="47.12431" lon="-1.42331">
        <ele>101</ele>
        <time>2021-08-29T10:23:10.000Z</time>
      </trkpt>
      <trkpt lat="47.12433" lon="-1.42347">
        <ele>102</ele>
        <time>2021-08-29T10:23:12.000Z</time>
      </trkpt>
      <trkpt lat="47.12437" lon="-1.42362">
        <ele>102</ele>
        <time>2021-08-29T10:23:14.000Z</time>
      </trkpt>
      <trkpt lat="47.12442" lon="-1.42376">
        <ele>102</ele>
        <time>2021-08-29T10:23:16.000Z</time>
      </trkpt>
      <trkpt lat="47.12447" lon="-1.42391">
        <ele>102</ele>
        <time>2021-08-29T10:23:18.000Z</time>
      </trkpt>
      <trkpt lat="47.12446" lon="-1.42407">
        <ele>102</ele>
        <time>2021-08-29T10:23:20.000Z</time>
      </trkpt>
      <trkpt lat="47.12446" lon="-1.42424">
        <ele>103</ele>
        <time>2021-08-29T10:23:22.000Z</time>
      </trkpt>
      <trkpt lat="47.12449" lon="-1.42442">
        <ele>103</ele>
        <time>2021-08-29T10:23:24.000Z</time>
      </trkpt>
      <trkpt lat="47.12452" lon="-1.4246">
        <ele>103</ele>
        <time>2021-08-29T10:23:26.000Z</time>
      </trkpt>
      <trkpt lat="47.12454" lon="-1.42478">
        <ele>103</ele>
        <time>2021-08-29T10:23:28.000Z</time>
      </trkpt>
      <trkpt lat="47.12454" lon="-1.42495">
        <ele>103</ele>
        <time>2021-08-29T10:23:30.000Z</time>
      </trkpt>
      <trkpt lat="47.12455" lon="-1.42513">
        <ele>103</ele>
        <time>2021-08-29T10:23:32.000Z</time>
      </trkpt>
      <trkpt lat="47.12455" lon="-1.42532">
        <ele>103</ele>
        <time>2021-08-29T10:23:34.000Z</time>
      </trkpt>
      <trkpt lat="47.12456" lon="-1.4255">
        <ele>103</ele>
        <time>2021-08-29T10:23:36.000Z</time>
      </trkpt>
      <trkpt lat="47.12457" lon="-1.42568">
        <ele>103</ele>
        <time>2021-08-29T10:23:38.000Z</time>
      </trkpt>
      <trkpt lat="47.12458" lon="-1.42587">
        <ele>103</ele>
        <time>2021-08-29T10:23:40.000Z</time>
      </trkpt>
      <trkpt lat="47.12459" lon="-1.42605">
        <ele>103</ele>
        <time>2021-08-29T10:23:42.000Z</time>
      </trkpt>
      <trkpt lat="47.12459" lon="-1.42624">
        <ele>103</ele>
        <time>2021-08-29T10:23:44.000Z</time>
      </trkpt>
      <trkpt lat="47.12458" lon="-1.42642">
        <ele>103</ele>
        <time>2021-08-29T10:23:46.000Z</time>
      </trkpt>
      <trkpt lat="47.12457" lon="-1.4266">
        <ele>103</ele>
        <time>2021-08-29T10:23:48.000Z</time>
      </trkpt>
      <trkpt lat="47.12456" lon="-1.42678">
        <ele>102</ele>
        <time>2021-08-29T10:23:50.000Z</time>
      </trkpt>
      <trkpt lat="47.12454" lon="-1.42696">
        <ele>102</ele>
        <time>2021-08-29T10:23:52.000Z</time>
      </trkpt>
      <trkpt lat="47.12454" lon="-1.42714">
        <ele>102</ele>
        <time>2021-08-29T10:23:54.000Z</time>
      </trkpt>
      <trkpt lat="47.12456" lon="-1.42731">
        <ele>102</ele>
        <time>2021-08-29T10:23:56.000Z</time>
      </trkpt>
      <trkpt lat="47.1246" lon="-1.42749">
        <ele>102</ele>
        <time>2021-08-29T10:23:58.000Z</time>
      </trkpt>
      <trkpt lat="47.12466" lon="-1.42765">
        <ele>102</ele>
        <time>2021-08-29T10:24:00.000Z</time>
      </trkpt>
      <trkpt lat="47.12472" lon="-1.42779">
        <ele>102</ele>
        <time>2021-08-29T10:24:02.000Z</time>
      </trkpt>
      <trkpt lat="47.12479" lon="-1.42793">
        <ele>102</ele>
        <time>2021-08-29T10:24:04.000Z</time>
      </trkpt>
      <trkpt lat="47.12486" lon="-1.42807">
        <ele>102</ele>
        <time>2021-08-29T10:24:06.000Z</time>
      </trkpt>
      <trkpt lat="47.12493" lon="-1.42821">
        <ele>102</ele>
        <time>2021-08-29T10:24:08.000Z</time>
      </trkpt>
      <trkpt lat="47.125" lon="-1.42835">
        <ele>102</ele>
        <time>2021-08-29T10:24:10.000Z</time>
      </trkpt>
      <trkpt lat="47.12507" lon="-1.42849">
        <ele>102</ele>
        <time>2021-08-29T10:24:12.000Z</time>
      </trkpt>
      <trkpt lat="47.12514" lon="-1.42862">
        <ele>102</ele>
        <time>2021-08-29T10:24:14.000Z</time>
      </trkpt>
      <trkpt lat="47.1252" lon="-1.42877">
        <ele>101</ele>
        <time>2021-08-29T10:24:16.000Z</time>
      </trkpt>
      <trkpt lat="47.12527" lon="-1.42891">
        <ele>101</ele>
        <time>2021-08-29T10:24:18.000Z</time>
      </trkpt>
      <trkpt lat="47.12534" lon="-1.42906">
        <ele>100</ele>
        <time>2021-08-29T10:24:20.000Z</time>
      </trkpt>
      <trkpt lat="47.12541" lon="-1.4292">
        <ele>100</ele>
        <time>2021-08-29T10:24:22.000Z</time>
      </trkpt>
      <trkpt lat="47.12548" lon="-1.42934">
        <ele>100</ele>
        <time>2021-08-29T10:24:24.000Z</time>
      </trkpt>
      <trkpt lat="47.12555" lon="-1.42948">
        <ele>101</ele>
        <time>2021-08-29T10:24:26.000Z</time>
      </trkpt>
      <trkpt lat="47.12561" lon="-1.42963">
        <ele>101</ele>
        <time>2021-08-29T10:24:28.000Z</time>
      </trkpt>
      <trkpt lat="47.12568" lon="-1.42977">
        <ele>101</ele>
        <time>2021-08-29T10:24:30.000Z</time>
      </trkpt>
      <trkpt lat="47.12574" lon="-1.42991">
        <ele>101</ele>
        <time>2021-08-29T10:24:32.000Z</time>
      </trkpt>
      <trkpt lat="47.1258" lon="-1.43005">
        <ele>101</ele>
        <time>2021-08-29T10:24:34.000Z</time>
      </trkpt>
      <trkpt lat="47.12586" lon="-1.4302">
        <ele>101</ele>
        <time>2021-08-29T10:24:36.000Z</time>
      </trkpt>
      <trkpt lat="47.12593" lon="-1.43035">
        <ele>101</ele>
        <time>2021-08-29T10:24:38.000Z</time>
      </trkpt>
      <trkpt lat="47.12598" lon="-1.43049">
        <ele>100</ele>
        <time>2021-08-29T10:24:40.000Z</time>
      </trkpt>
      <trkpt lat="47.12605" lon="-1.43064">
        <ele>101</ele>
        <time>2021-08-29T10:24:42.000Z</time>
      </trkpt>
      <trkpt lat="47.12611" lon="-1.43078">
        <ele>101</ele>
        <time>2021-08-29T10:24:44.000Z</time>
      </trkpt>
      <trkpt lat="47.12616" lon="-1.43093">
        <ele>101</ele>
        <time>2021-08-29T10:24:46.000Z</time>
      </trkpt>
      <trkpt lat="47.12622" lon="-1.43107">
        <ele>101</ele>
        <time>2021-08-29T10:24:48.000Z</time>
      </trkpt>
      <trkpt lat="47.12629" lon="-1.43122">
        <ele>101</ele>
        <time>2021-08-29T10:24:50.000Z</time>
      </trkpt>
      <trkpt lat="47.12634" lon="-1.43137">
        <ele>100</ele>
        <time>2021-08-29T10:24:52.000Z</time>
      </trkpt>
      <trkpt lat="47.1264" lon="-1.43153">
        <ele>100</ele>
        <time>2021-08-29T10:24:54.000Z</time>
      </trkpt>
      <trkpt lat="47.12645" lon="-1.43169">
        <ele>100</ele>
        <time>2021-08-29T10:24:56.000Z</time>
      </trkpt>
      <trkpt lat="47.12649" lon="-1.43185">
        <ele>101</ele>
        <time>2021-08-29T10:24:58.000Z</time>
      </trkpt>
      <trkpt lat="47.12653" lon="-1.43202">
        <ele>101</ele>
        <time>2021-08-29T10:25:00.000Z</time>
      </trkpt>
      <trkpt lat="47.12657" lon="-1.43219">
        <ele>101</ele>
        <time>2021-08-29T10:25:02.000Z</time>
      </trkpt>
      <trkpt lat="47.1266" lon="-1.43236">
        <ele>100</ele>
        <time>2021-08-29T10:25:04.000Z</time>
      </trkpt>
      <trkpt lat="47.12665" lon="-1.43252">
        <ele>100</ele>
        <time>2021-08-29T10:25:06.000Z</time>
      </trkpt>
      <trkpt lat="47.12669" lon="-1.43269">
        <ele>100</ele>
        <time>2021-08-29T10:25:08.000Z</time>
      </trkpt>
      <trkpt lat="47.12675" lon="-1.43286">
        <ele>101</ele>
        <time>2021-08-29T10:25:10.000Z</time>
      </trkpt>
      <trkpt lat="47.1268" lon="-1.43301">
        <ele>100</ele>
        <time>2021-08-29T10:25:12.000Z</time>
      </trkpt>
      <trkpt lat="47.12687" lon="-1.43317">
        <ele>100</ele>
        <time>2021-08-29T10:25:14.000Z</time>
      </trkpt>
      <trkpt lat="47.12693" lon="-1.43332">
        <ele>100</ele>
        <time>2021-08-29T10:25:16.000Z</time>
      </trkpt>
      <trkpt lat="47.127" lon="-1.43348">
        <ele>100</ele>
        <time>2021-08-29T10:25:18.000Z</time>
      </trkpt>
      <trkpt lat="47.12707" lon="-1.43363">
        <ele>99</ele>
        <time>2021-08-29T10:25:20.000Z</time>
      </trkpt>
      <trkpt lat="47.12713" lon="-1.43379">
        <ele>100</ele>
        <time>2021-08-29T10:25:22.000Z</time>
      </trkpt>
      <trkpt lat="47.1272" lon="-1.43394">
        <ele>100</ele>
        <time>2021-08-29T10:25:24.000Z</time>
      </trkpt>
      <trkpt lat="47.12726" lon="-1.43409">
        <ele>99</ele>
        <time>2021-08-29T10:25:26.000Z</time>
      </trkpt>
      <trkpt lat="47.12733" lon="-1.43425">
        <ele>99</ele>
        <time>2021-08-29T10:25:28.000Z</time>
      </trkpt>
      <trkpt lat="47.12739" lon="-1.4344">
        <ele>99</ele>
        <time>2021-08-29T10:25:30.000Z</time>
      </trkpt>
      <trkpt lat="47.12745" lon="-1.43456">
        <ele>99</ele>
        <time>2021-08-29T10:25:32.000Z</time>
      </trkpt>
      <trkpt lat="47.12752" lon="-1.43472">
        <ele>99</ele>
        <time>2021-08-29T10:25:34.000Z</time>
      </trkpt>
      <trkpt lat="47.12758" lon="-1.43488">
        <ele>99</ele>
        <time>2021-08-29T10:25:36.000Z</time>
      </trkpt>
      <trkpt lat="47.12765" lon="-1.43505">
        <ele>99</ele>
        <time>2021-08-29T10:25:38.000Z</time>
      </trkpt>
      <trkpt lat="47.1277" lon="-1.43522">
        <ele>98</ele>
        <time>2021-08-29T10:25:40.000Z</time>
      </trkpt>
      <trkpt lat="47.12776" lon="-1.4354">
        <ele>99</ele>
        <time>2021-08-29T10:25:42.000Z</time>
      </trkpt>
      <trkpt lat="47.12781" lon="-1.43557">
        <ele>99</ele>
        <time>2021-08-29T10:25:44.000Z</time>
      </trkpt>
      <trkpt lat="47.12787" lon="-1.43576">
        <ele>99</ele>
        <time>2021-08-29T10:25:46.000Z</time>
      </trkpt>
      <trkpt lat="47.12792" lon="-1.43595">
        <ele>99</ele>
        <time>2021-08-29T10:25:48.000Z</time>
      </trkpt>
      <trkpt lat="47.12798" lon="-1.43614">
        <ele>99</ele>
        <time>2021-08-29T10:25:50.000Z</time>
      </trkpt>
      <trkpt lat="47.12805" lon="-1.43633">
        <ele>99</ele>
        <time>2021-08-29T10:25:52.000Z</time>
      </trkpt>
      <trkpt lat="47.12812" lon="-1.43652">
        <ele>99</ele>
        <time>2021-08-29T10:25:54.000Z</time>
      </trkpt>
      <trkpt lat="47.1282" lon="-1.4367">
        <ele>99</ele>
        <time>2021-08-29T10:25:56.000Z</time>
      </trkpt>
      <trkpt lat="47.12827" lon="-1.43689">
        <ele>99</ele>
        <time>2021-08-29T10:25:58.000Z</time>
      </trkpt>
      <trkpt lat="47.12834" lon="-1.43708">
        <ele>99</ele>
        <time>2021-08-29T10:26:00.000Z</time>
      </trkpt>
      <trkpt lat="47.12841" lon="-1.43727">
        <ele>99</ele>
        <time>2021-08-29T10:26:02.000Z</time>
      </trkpt>
      <trkpt lat="47.12847" lon="-1.43745">
        <ele>100</ele>
        <time>2021-08-29T10:26:04.000Z</time>
      </trkpt>
      <trkpt lat="47.12852" lon="-1.43764">
        <ele>99</ele>
        <time>2021-08-29T10:26:06.000Z</time>
      </trkpt>
      <trkpt lat="47.12856" lon="-1.43784">
        <ele>99</ele>
        <time>2021-08-29T10:26:08.000Z</time>
      </trkpt>
      <trkpt lat="47.12861" lon="-1.43802">
        <ele>98</ele>
        <time>2021-08-29T10:26:10.000Z</time>
      </trkpt>
      <trkpt lat="47.12867" lon="-1.4382">
        <ele>97</ele>
        <time>2021-08-29T10:26:12.000Z</time>
      </trkpt>
      <trkpt lat="47.12873" lon="-1.43839">
        <ele>97</ele>
        <time>2021-08-29T10:26:14.000Z</time>
      </trkpt>
      <trkpt lat="47.12879" lon="-1.43857">
        <ele>97</ele>
        <time>2021-08-29T10:26:16.000Z</time>
      </trkpt>
      <trkpt lat="47.12885" lon="-1.43875">
        <ele>97</ele>
        <time>2021-08-29T10:26:18.000Z</time>
      </trkpt>
      <trkpt lat="47.12891" lon="-1.43893">
        <ele>97</ele>
        <time>2021-08-29T10:26:20.000Z</time>
      </trkpt>
      <trkpt lat="47.12898" lon="-1.43911">
        <ele>97</ele>
        <time>2021-08-29T10:26:22.000Z</time>
      </trkpt>
      <trkpt lat="47.12905" lon="-1.43928">
        <ele>96</ele>
        <time>2021-08-29T10:26:24.000Z</time>
      </trkpt>
      <trkpt lat="47.12913" lon="-1.43946">
        <ele>96</ele>
        <time>2021-08-29T10:26:26.000Z</time>
      </trkpt>
      <trkpt lat="47.1292" lon="-1.43962">
        <ele>96</ele>
        <time>2021-08-29T10:26:28.000Z</time>
      </trkpt>
      <trkpt lat="47.12927" lon="-1.43979">
        <ele>96</ele>
        <time>2021-08-29T10:26:30.000Z</time>
      </trkpt>
      <trkpt lat="47.12935" lon="-1.43996">
        <ele>96</ele>
        <time>2021-08-29T10:26:32.000Z</time>
      </trkpt>
      <trkpt lat="47.12942" lon="-1.44014">
        <ele>96</ele>
        <time>2021-08-29T10:26:34.000Z</time>
      </trkpt>
      <trkpt lat="47.12949" lon="-1.44032">
        <ele>96</ele>
        <time>2021-08-29T10:26:36.000Z</time>
      </trkpt>
      <trkpt lat="47.12957" lon="-1.4405">
        <ele>96</ele>
        <time>2021-08-29T10:26:38.000Z</time>
      </trkpt>
      <trkpt lat="47.12964" lon="-1.44068">
        <ele>95</ele>
        <time>2021-08-29T10:26:40.000Z</time>
      </trkpt>
      <trkpt lat="47.1297" lon="-1.44085">
        <ele>96</ele>
        <time>2021-08-29T10:26:42.000Z</time>
      </trkpt>
      <trkpt lat="47.12977" lon="-1.44102">
        <ele>96</ele>
        <time>2021-08-29T10:26:44.000Z</time>
      </trkpt>
      <trkpt lat="47.12983" lon="-1.44118">
        <ele>96</ele>
        <time>2021-08-29T10:26:46.000Z</time>
      </trkpt>
      <trkpt lat="47.12989" lon="-1.44135">
        <ele>96</ele>
        <time>2021-08-29T10:26:48.000Z</time>
      </trkpt>
      <trkpt lat="47.12996" lon="-1.44152">
        <ele>96</ele>
        <time>2021-08-29T10:26:50.000Z</time>
      </trkpt>
      <trkpt lat="47.13002" lon="-1.44169">
        <ele>96</ele>
        <time>2021-08-29T10:26:52.000Z</time>
      </trkpt>
      <trkpt lat="47.13008" lon="-1.44186">
        <ele>96</ele>
        <time>2021-08-29T10:26:54.000Z</time>
      </trkpt>
      <trkpt lat="47.13013" lon="-1.44204">
        <ele>96</ele>
        <time>2021-08-29T10:26:56.000Z</time>
      </trkpt>
      <trkpt lat="47.13017" lon="-1.44223">
        <ele>96</ele>
        <time>2021-08-29T10:26:58.000Z</time>
      </trkpt>
      <trkpt lat="47.13022" lon="-1.44241">
        <ele>96</ele>
        <time>2021-08-29T10:27:00.000Z</time>
      </trkpt>
      <trkpt lat="47.13025" lon="-1.44258">
        <ele>96</ele>
        <time>2021-08-29T10:27:02.000Z</time>
      </trkpt>
      <trkpt lat="47.13029" lon="-1.44273">
        <ele>96</ele>
        <time>2021-08-29T10:27:04.000Z</time>
      </trkpt>
      <trkpt lat="47.13033" lon="-1.4429">
        <ele>96</ele>
        <time>2021-08-29T10:27:07.000Z</time>
      </trkpt>
      <trkpt lat="47.13038" lon="-1.44304">
        <ele>95</ele>
        <time>2021-08-29T10:27:12.000Z</time>
      </trkpt>
      <trkpt lat="47.13042" lon="-1.44322">
        <ele>95</ele>
        <time>2021-08-29T10:27:15.000Z</time>
      </trkpt>
      <trkpt lat="47.13044" lon="-1.44338">
        <ele>95</ele>
        <time>2021-08-29T10:27:17.000Z</time>
      </trkpt>
      <trkpt lat="47.13045" lon="-1.44357">
        <ele>95</ele>
        <time>2021-08-29T10:27:19.000Z</time>
      </trkpt>
      <trkpt lat="47.13048" lon="-1.44376">
        <ele>95</ele>
        <time>2021-08-29T10:27:21.000Z</time>
      </trkpt>
      <trkpt lat="47.13051" lon="-1.44395">
        <ele>95</ele>
        <time>2021-08-29T10:27:23.000Z</time>
      </trkpt>
      <trkpt lat="47.13055" lon="-1.44412">
        <ele>95</ele>
        <time>2021-08-29T10:27:25.000Z</time>
      </trkpt>
      <trkpt lat="47.13061" lon="-1.4443">
        <ele>95</ele>
        <time>2021-08-29T10:27:27.000Z</time>
      </trkpt>
      <trkpt lat="47.13066" lon="-1.44447">
        <ele>96</ele>
        <time>2021-08-29T10:27:29.000Z</time>
      </trkpt>
      <trkpt lat="47.13072" lon="-1.44464">
        <ele>96</ele>
        <time>2021-08-29T10:27:31.000Z</time>
      </trkpt>
      <trkpt lat="47.13077" lon="-1.44482">
        <ele>96</ele>
        <time>2021-08-29T10:27:33.000Z</time>
      </trkpt>
      <trkpt lat="47.13083" lon="-1.44499">
        <ele>96</ele>
        <time>2021-08-29T10:27:35.000Z</time>
      </trkpt>
      <trkpt lat="47.13089" lon="-1.44516">
        <ele>96</ele>
        <time>2021-08-29T10:27:37.000Z</time>
      </trkpt>
      <trkpt lat="47.13094" lon="-1.44533">
        <ele>96</ele>
        <time>2021-08-29T10:27:39.000Z</time>
      </trkpt>
      <trkpt lat="47.13098" lon="-1.44551">
        <ele>96</ele>
        <time>2021-08-29T10:27:41.000Z</time>
      </trkpt>
      <trkpt lat="47.131" lon="-1.4457">
        <ele>96</ele>
        <time>2021-08-29T10:27:43.000Z</time>
      </trkpt>
      <trkpt lat="47.13102" lon="-1.44588">
        <ele>96</ele>
        <time>2021-08-29T10:27:45.000Z</time>
      </trkpt>
      <trkpt lat="47.13103" lon="-1.44608">
        <ele>97</ele>
        <time>2021-08-29T10:27:47.000Z</time>
      </trkpt>
      <trkpt lat="47.13104" lon="-1.44627">
        <ele>97</ele>
        <time>2021-08-29T10:27:49.000Z</time>
      </trkpt>
      <trkpt lat="47.13105" lon="-1.44646">
        <ele>97</ele>
        <time>2021-08-29T10:27:51.000Z</time>
      </trkpt>
      <trkpt lat="47.13107" lon="-1.44666">
        <ele>97</ele>
        <time>2021-08-29T10:27:53.000Z</time>
      </trkpt>
      <trkpt lat="47.13108" lon="-1.44686">
        <ele>96</ele>
        <time>2021-08-29T10:27:55.000Z</time>
      </trkpt>
      <trkpt lat="47.1311" lon="-1.44705">
        <ele>97</ele>
        <time>2021-08-29T10:27:57.000Z</time>
      </trkpt>
      <trkpt lat="47.13113" lon="-1.44724">
        <ele>96</ele>
        <time>2021-08-29T10:27:59.000Z</time>
      </trkpt>
      <trkpt lat="47.13117" lon="-1.44741">
        <ele>96</ele>
        <time>2021-08-29T10:28:01.000Z</time>
      </trkpt>
      <trkpt lat="47.13121" lon="-1.44758">
        <ele>96</ele>
        <time>2021-08-29T10:28:03.000Z</time>
      </trkpt>
      <trkpt lat="47.13125" lon="-1.44778">
        <ele>96</ele>
        <time>2021-08-29T10:28:05.000Z</time>
      </trkpt>
      <trkpt lat="47.13129" lon="-1.44796">
        <ele>96</ele>
        <time>2021-08-29T10:28:07.000Z</time>
      </trkpt>
      <trkpt lat="47.13133" lon="-1.44815">
        <ele>96</ele>
        <time>2021-08-29T10:28:09.000Z</time>
      </trkpt>
      <trkpt lat="47.13134" lon="-1.44834">
        <ele>95</ele>
        <time>2021-08-29T10:28:11.000Z</time>
      </trkpt>
      <trkpt lat="47.13133" lon="-1.44853">
        <ele>95</ele>
        <time>2021-08-29T10:28:13.000Z</time>
      </trkpt>
      <trkpt lat="47.13131" lon="-1.44872">
        <ele>95</ele>
        <time>2021-08-29T10:28:15.000Z</time>
      </trkpt>
      <trkpt lat="47.13128" lon="-1.44891">
        <ele>95</ele>
        <time>2021-08-29T10:28:17.000Z</time>
      </trkpt>
      <trkpt lat="47.13125" lon="-1.4491">
        <ele>95</ele>
        <time>2021-08-29T10:28:19.000Z</time>
      </trkpt>
      <trkpt lat="47.13123" lon="-1.44928">
        <ele>96</ele>
        <time>2021-08-29T10:28:21.000Z</time>
      </trkpt>
      <trkpt lat="47.1312" lon="-1.44946">
        <ele>96</ele>
        <time>2021-08-29T10:28:23.000Z</time>
      </trkpt>
      <trkpt lat="47.13118" lon="-1.44965">
        <ele>95</ele>
        <time>2021-08-29T10:28:25.000Z</time>
      </trkpt>
      <trkpt lat="47.13115" lon="-1.44983">
        <ele>96</ele>
        <time>2021-08-29T10:28:27.000Z</time>
      </trkpt>
      <trkpt lat="47.13114" lon="-1.45002">
        <ele>96</ele>
        <time>2021-08-29T10:28:29.000Z</time>
      </trkpt>
      <trkpt lat="47.13111" lon="-1.45022">
        <ele>96</ele>
        <time>2021-08-29T10:28:31.000Z</time>
      </trkpt>
      <trkpt lat="47.13109" lon="-1.45043">
        <ele>96</ele>
        <time>2021-08-29T10:28:33.000Z</time>
      </trkpt>
      <trkpt lat="47.13108" lon="-1.45064">
        <ele>96</ele>
        <time>2021-08-29T10:28:35.000Z</time>
      </trkpt>
      <trkpt lat="47.13106" lon="-1.45084">
        <ele>96</ele>
        <time>2021-08-29T10:28:37.000Z</time>
      </trkpt>
      <trkpt lat="47.13103" lon="-1.45103">
        <ele>97</ele>
        <time>2021-08-29T10:28:39.000Z</time>
      </trkpt>
      <trkpt lat="47.131" lon="-1.45122">
        <ele>97</ele>
        <time>2021-08-29T10:28:41.000Z</time>
      </trkpt>
      <trkpt lat="47.13096" lon="-1.45141">
        <ele>97</ele>
        <time>2021-08-29T10:28:43.000Z</time>
      </trkpt>
      <trkpt lat="47.13092" lon="-1.45158">
        <ele>97</ele>
        <time>2021-08-29T10:28:45.000Z</time>
      </trkpt>
      <trkpt lat="47.13088" lon="-1.45176">
        <ele>98</ele>
        <time>2021-08-29T10:28:47.000Z</time>
      </trkpt>
      <trkpt lat="47.13084" lon="-1.45193">
        <ele>98</ele>
        <time>2021-08-29T10:28:49.000Z</time>
      </trkpt>
      <trkpt lat="47.13082" lon="-1.45208">
        <ele>98</ele>
        <time>2021-08-29T10:28:51.000Z</time>
      </trkpt>
      <trkpt lat="47.1308" lon="-1.45225">
        <ele>98</ele>
        <time>2021-08-29T10:28:53.000Z</time>
      </trkpt>
      <trkpt lat="47.13078" lon="-1.45242">
        <ele>98</ele>
        <time>2021-08-29T10:28:55.000Z</time>
      </trkpt>
      <trkpt lat="47.13076" lon="-1.45258">
        <ele>98</ele>
        <time>2021-08-29T10:28:57.000Z</time>
      </trkpt>
      <trkpt lat="47.13076" lon="-1.45273">
        <ele>98</ele>
        <time>2021-08-29T10:28:59.000Z</time>
      </trkpt>
      <trkpt lat="47.13082" lon="-1.45286">
        <ele>98</ele>
        <time>2021-08-29T10:29:01.000Z</time>
      </trkpt>
      <trkpt lat="47.13091" lon="-1.45296">
        <ele>98</ele>
        <time>2021-08-29T10:29:03.000Z</time>
      </trkpt>
      <trkpt lat="47.13103" lon="-1.45305">
        <ele>97</ele>
        <time>2021-08-29T10:29:05.000Z</time>
      </trkpt>
      <trkpt lat="47.13114" lon="-1.45314">
        <ele>97</ele>
        <time>2021-08-29T10:29:07.000Z</time>
      </trkpt>
      <trkpt lat="47.13126" lon="-1.45324">
        <ele>97</ele>
        <time>2021-08-29T10:29:09.000Z</time>
      </trkpt>
      <trkpt lat="47.13137" lon="-1.45333">
        <ele>97</ele>
        <time>2021-08-29T10:29:11.000Z</time>
      </trkpt>
      <trkpt lat="47.13148" lon="-1.45343">
        <ele>97</ele>
        <time>2021-08-29T10:29:13.000Z</time>
      </trkpt>
      <trkpt lat="47.13158" lon="-1.45353">
        <ele>98</ele>
        <time>2021-08-29T10:29:15.000Z</time>
      </trkpt>
      <trkpt lat="47.13168" lon="-1.45363">
        <ele>98</ele>
        <time>2021-08-29T10:29:17.000Z</time>
      </trkpt>
      <trkpt lat="47.13179" lon="-1.45374">
        <ele>97</ele>
        <time>2021-08-29T10:29:19.000Z</time>
      </trkpt>
      <trkpt lat="47.13188" lon="-1.45385">
        <ele>97</ele>
        <time>2021-08-29T10:29:21.000Z</time>
      </trkpt>
      <trkpt lat="47.13197" lon="-1.45397">
        <ele>97</ele>
        <time>2021-08-29T10:29:23.000Z</time>
      </trkpt>
      <trkpt lat="47.13206" lon="-1.4541">
        <ele>97</ele>
        <time>2021-08-29T10:29:25.000Z</time>
      </trkpt>
      <trkpt lat="47.13215" lon="-1.45422">
        <ele>97</ele>
        <time>2021-08-29T10:29:27.000Z</time>
      </trkpt>
      <trkpt lat="47.13224" lon="-1.45435">
        <ele>97</ele>
        <time>2021-08-29T10:29:29.000Z</time>
      </trkpt>
      <trkpt lat="47.13233" lon="-1.45448">
        <ele>97</ele>
        <time>2021-08-29T10:29:31.000Z</time>
      </trkpt>
      <trkpt lat="47.13242" lon="-1.45462">
        <ele>96</ele>
        <time>2021-08-29T10:29:33.000Z</time>
      </trkpt>
      <trkpt lat="47.1325" lon="-1.45475">
        <ele>96</ele>
        <time>2021-08-29T10:29:35.000Z</time>
      </trkpt>
      <trkpt lat="47.13259" lon="-1.4549">
        <ele>96</ele>
        <time>2021-08-29T10:29:37.000Z</time>
      </trkpt>
      <trkpt lat="47.13267" lon="-1.45504">
        <ele>96</ele>
        <time>2021-08-29T10:29:39.000Z</time>
      </trkpt>
      <trkpt lat="47.13277" lon="-1.45518">
        <ele>95</ele>
        <time>2021-08-29T10:29:41.000Z</time>
      </trkpt>
      <trkpt lat="47.13286" lon="-1.45533">
        <ele>95</ele>
        <time>2021-08-29T10:29:43.000Z</time>
      </trkpt>
      <trkpt lat="47.13295" lon="-1.45547">
        <ele>95</ele>
        <time>2021-08-29T10:29:45.000Z</time>
      </trkpt>
      <trkpt lat="47.13304" lon="-1.45562">
        <ele>95</ele>
        <time>2021-08-29T10:29:47.000Z</time>
      </trkpt>
      <trkpt lat="47.13314" lon="-1.45578">
        <ele>94</ele>
        <time>2021-08-29T10:29:49.000Z</time>
      </trkpt>
      <trkpt lat="47.13324" lon="-1.45593">
        <ele>94</ele>
        <time>2021-08-29T10:29:51.000Z</time>
      </trkpt>
      <trkpt lat="47.13334" lon="-1.45609">
        <ele>94</ele>
        <time>2021-08-29T10:29:53.000Z</time>
      </trkpt>
      <trkpt lat="47.13343" lon="-1.45624">
        <ele>94</ele>
        <time>2021-08-29T10:29:55.000Z</time>
      </trkpt>
      <trkpt lat="47.13353" lon="-1.45639">
        <ele>93</ele>
        <time>2021-08-29T10:29:57.000Z</time>
      </trkpt>
      <trkpt lat="47.13362" lon="-1.45655">
        <ele>93</ele>
        <time>2021-08-29T10:29:59.000Z</time>
      </trkpt>
      <trkpt lat="47.13371" lon="-1.45669">
        <ele>93</ele>
        <time>2021-08-29T10:30:01.000Z</time>
      </trkpt>
      <trkpt lat="47.13381" lon="-1.45684">
        <ele>93</ele>
        <time>2021-08-29T10:30:03.000Z</time>
      </trkpt>
      <trkpt lat="47.1339" lon="-1.45697">
        <ele>93</ele>
        <time>2021-08-29T10:30:05.000Z</time>
      </trkpt>
      <trkpt lat="47.13399" lon="-1.45711">
        <ele>93</ele>
        <time>2021-08-29T10:30:07.000Z</time>
      </trkpt>
      <trkpt lat="47.13407" lon="-1.45723">
        <ele>93</ele>
        <time>2021-08-29T10:30:09.000Z</time>
      </trkpt>
      <trkpt lat="47.13416" lon="-1.45736">
        <ele>93</ele>
        <time>2021-08-29T10:30:11.000Z</time>
      </trkpt>
      <trkpt lat="47.13424" lon="-1.45748">
        <ele>93</ele>
        <time>2021-08-29T10:30:13.000Z</time>
      </trkpt>
      <trkpt lat="47.13433" lon="-1.4576">
        <ele>93</ele>
        <time>2021-08-29T10:30:15.000Z</time>
      </trkpt>
      <trkpt lat="47.13441" lon="-1.45772">
        <ele>94</ele>
        <time>2021-08-29T10:30:17.000Z</time>
      </trkpt>
      <trkpt lat="47.13449" lon="-1.45784">
        <ele>94</ele>
        <time>2021-08-29T10:30:19.000Z</time>
      </trkpt>
      <trkpt lat="47.13457" lon="-1.45795">
        <ele>94</ele>
        <time>2021-08-29T10:30:21.000Z</time>
      </trkpt>
      <trkpt lat="47.13465" lon="-1.45807">
        <ele>94</ele>
        <time>2021-08-29T10:30:23.000Z</time>
      </trkpt>
      <trkpt lat="47.13473" lon="-1.45819">
        <ele>95</ele>
        <time>2021-08-29T10:30:25.000Z</time>
      </trkpt>
      <trkpt lat="47.13481" lon="-1.45831">
        <ele>95</ele>
        <time>2021-08-29T10:30:27.000Z</time>
      </trkpt>
      <trkpt lat="47.1349" lon="-1.45844">
        <ele>95</ele>
        <time>2021-08-29T10:30:29.000Z</time>
      </trkpt>
      <trkpt lat="47.13499" lon="-1.45857">
        <ele>95</ele>
        <time>2021-08-29T10:30:31.000Z</time>
      </trkpt>
      <trkpt lat="47.13507" lon="-1.45869">
        <ele>95</ele>
        <time>2021-08-29T10:30:33.000Z</time>
      </trkpt>
      <trkpt lat="47.13515" lon="-1.45881">
        <ele>95</ele>
        <time>2021-08-29T10:30:35.000Z</time>
      </trkpt>
      <trkpt lat="47.13523" lon="-1.45894">
        <ele>95</ele>
        <time>2021-08-29T10:30:37.000Z</time>
      </trkpt>
      <trkpt lat="47.13531" lon="-1.45907">
        <ele>95</ele>
        <time>2021-08-29T10:30:39.000Z</time>
      </trkpt>
      <trkpt lat="47.13538" lon="-1.4592">
        <ele>95</ele>
        <time>2021-08-29T10:30:41.000Z</time>
      </trkpt>
      <trkpt lat="47.13546" lon="-1.45932">
        <ele>96</ele>
        <time>2021-08-29T10:30:43.000Z</time>
      </trkpt>
      <trkpt lat="47.13554" lon="-1.45944">
        <ele>96</ele>
        <time>2021-08-29T10:30:45.000Z</time>
      </trkpt>
      <trkpt lat="47.13561" lon="-1.45957">
        <ele>96</ele>
        <time>2021-08-29T10:30:47.000Z</time>
      </trkpt>
      <trkpt lat="47.13567" lon="-1.45971">
        <ele>96</ele>
        <time>2021-08-29T10:30:49.000Z</time>
      </trkpt>
      <trkpt lat="47.13571" lon="-1.45986">
        <ele>97</ele>
        <time>2021-08-29T10:30:51.000Z</time>
      </trkpt>
      <trkpt lat="47.13577" lon="-1.46002">
        <ele>97</ele>
        <time>2021-08-29T10:30:53.000Z</time>
      </trkpt>
      <trkpt lat="47.13583" lon="-1.46018">
        <ele>97</ele>
        <time>2021-08-29T10:30:55.000Z</time>
      </trkpt>
      <trkpt lat="47.13589" lon="-1.46033">
        <ele>97</ele>
        <time>2021-08-29T10:30:57.000Z</time>
      </trkpt>
      <trkpt lat="47.13593" lon="-1.4605">
        <ele>97</ele>
        <time>2021-08-29T10:30:59.000Z</time>
      </trkpt>
      <trkpt lat="47.13598" lon="-1.46067">
        <ele>97</ele>
        <time>2021-08-29T10:31:01.000Z</time>
      </trkpt>
      <trkpt lat="47.13602" lon="-1.46083">
        <ele>97</ele>
        <time>2021-08-29T10:31:03.000Z</time>
      </trkpt>
      <trkpt lat="47.13607" lon="-1.46099">
        <ele>97</ele>
        <time>2021-08-29T10:31:05.000Z</time>
      </trkpt>
      <trkpt lat="47.13612" lon="-1.46115">
        <ele>97</ele>
        <time>2021-08-29T10:31:07.000Z</time>
      </trkpt>
      <trkpt lat="47.13617" lon="-1.46131">
        <ele>97</ele>
        <time>2021-08-29T10:31:09.000Z</time>
      </trkpt>
      <trkpt lat="47.13622" lon="-1.46147">
        <ele>97</ele>
        <time>2021-08-29T10:31:11.000Z</time>
      </trkpt>
      <trkpt lat="47.13627" lon="-1.46163">
        <ele>98</ele>
        <time>2021-08-29T10:31:13.000Z</time>
      </trkpt>
      <trkpt lat="47.13632" lon="-1.46179">
        <ele>98</ele>
        <time>2021-08-29T10:31:15.000Z</time>
      </trkpt>
      <trkpt lat="47.13637" lon="-1.46195">
        <ele>98</ele>
        <time>2021-08-29T10:31:17.000Z</time>
      </trkpt>
      <trkpt lat="47.13642" lon="-1.46211">
        <ele>98</ele>
        <time>2021-08-29T10:31:19.000Z</time>
      </trkpt>
      <trkpt lat="47.13648" lon="-1.46227">
        <ele>98</ele>
        <time>2021-08-29T10:31:21.000Z</time>
      </trkpt>
      <trkpt lat="47.13653" lon="-1.46243">
        <ele>97</ele>
        <time>2021-08-29T10:31:23.000Z</time>
      </trkpt>
      <trkpt lat="47.13657" lon="-1.46259">
        <ele>97</ele>
        <time>2021-08-29T10:31:25.000Z</time>
      </trkpt>
      <trkpt lat="47.13662" lon="-1.46275">
        <ele>97</ele>
        <time>2021-08-29T10:31:27.000Z</time>
      </trkpt>
      <trkpt lat="47.13667" lon="-1.46291">
        <ele>97</ele>
        <time>2021-08-29T10:31:29.000Z</time>
      </trkpt>
      <trkpt lat="47.1367" lon="-1.46307">
        <ele>98</ele>
        <time>2021-08-29T10:31:31.000Z</time>
      </trkpt>
      <trkpt lat="47.13673" lon="-1.46325">
        <ele>98</ele>
        <time>2021-08-29T10:31:33.000Z</time>
      </trkpt>
      <trkpt lat="47.13676" lon="-1.46341">
        <ele>98</ele>
        <time>2021-08-29T10:31:35.000Z</time>
      </trkpt>
      <trkpt lat="47.13677" lon="-1.46359">
        <ele>98</ele>
        <time>2021-08-29T10:31:37.000Z</time>
      </trkpt>
      <trkpt lat="47.13677" lon="-1.46377">
        <ele>98</ele>
        <time>2021-08-29T10:31:39.000Z</time>
      </trkpt>
      <trkpt lat="47.13676" lon="-1.46394">
        <ele>98</ele>
        <time>2021-08-29T10:31:41.000Z</time>
      </trkpt>
      <trkpt lat="47.13675" lon="-1.46412">
        <ele>98</ele>
        <time>2021-08-29T10:31:43.000Z</time>
      </trkpt>
      <trkpt lat="47.13673" lon="-1.4643">
        <ele>98</ele>
        <time>2021-08-29T10:31:45.000Z</time>
      </trkpt>
      <trkpt lat="47.13672" lon="-1.46447">
        <ele>98</ele>
        <time>2021-08-29T10:31:47.000Z</time>
      </trkpt>
      <trkpt lat="47.13674" lon="-1.46464">
        <ele>98</ele>
        <time>2021-08-29T10:31:49.000Z</time>
      </trkpt>
      <trkpt lat="47.13678" lon="-1.46482">
        <ele>98</ele>
        <time>2021-08-29T10:31:51.000Z</time>
      </trkpt>
      <trkpt lat="47.13683" lon="-1.46498">
        <ele>97</ele>
        <time>2021-08-29T10:31:53.000Z</time>
      </trkpt>
      <trkpt lat="47.13688" lon="-1.46514">
        <ele>98</ele>
        <time>2021-08-29T10:31:55.000Z</time>
      </trkpt>
      <trkpt lat="47.13694" lon="-1.4653">
        <ele>98</ele>
        <time>2021-08-29T10:31:57.000Z</time>
      </trkpt>
      <trkpt lat="47.13701" lon="-1.46545">
        <ele>97</ele>
        <time>2021-08-29T10:31:59.000Z</time>
      </trkpt>
      <trkpt lat="47.13707" lon="-1.46561">
        <ele>97</ele>
        <time>2021-08-29T10:32:01.000Z</time>
      </trkpt>
      <trkpt lat="47.13713" lon="-1.46577">
        <ele>98</ele>
        <time>2021-08-29T10:32:03.000Z</time>
      </trkpt>
      <trkpt lat="47.13718" lon="-1.46595">
        <ele>97</ele>
        <time>2021-08-29T10:32:05.000Z</time>
      </trkpt>
      <trkpt lat="47.13721" lon="-1.46613">
        <ele>96</ele>
        <time>2021-08-29T10:32:07.000Z</time>
      </trkpt>
      <trkpt lat="47.13725" lon="-1.46631">
        <ele>96</ele>
        <time>2021-08-29T10:32:09.000Z</time>
      </trkpt>
      <trkpt lat="47.13729" lon="-1.4665">
        <ele>96</ele>
        <time>2021-08-29T10:32:11.000Z</time>
      </trkpt>
      <trkpt lat="47.13732" lon="-1.46668">
        <ele>96</ele>
        <time>2021-08-29T10:32:13.000Z</time>
      </trkpt>
      <trkpt lat="47.13736" lon="-1.46686">
        <ele>96</ele>
        <time>2021-08-29T10:32:15.000Z</time>
      </trkpt>
      <trkpt lat="47.13739" lon="-1.46703">
        <ele>96</ele>
        <time>2021-08-29T10:32:17.000Z</time>
      </trkpt>
      <trkpt lat="47.13742" lon="-1.4672">
        <ele>96</ele>
        <time>2021-08-29T10:32:19.000Z</time>
      </trkpt>
      <trkpt lat="47.13745" lon="-1.46736">
        <ele>96</ele>
        <time>2021-08-29T10:32:21.000Z</time>
      </trkpt>
      <trkpt lat="47.13748" lon="-1.4675">
        <ele>95</ele>
        <time>2021-08-29T10:32:23.000Z</time>
      </trkpt>
      <trkpt lat="47.13757" lon="-1.46761">
        <ele>95</ele>
        <time>2021-08-29T10:32:27.000Z</time>
      </trkpt>
      <trkpt lat="47.13767" lon="-1.46761">
        <ele>96</ele>
        <time>2021-08-29T10:32:30.000Z</time>
      </trkpt>
      <trkpt lat="47.1378" lon="-1.46759">
        <ele>96</ele>
        <time>2021-08-29T10:32:33.000Z</time>
      </trkpt>
      <trkpt lat="47.13793" lon="-1.46755">
        <ele>95</ele>
        <time>2021-08-29T10:32:35.000Z</time>
      </trkpt>
      <trkpt lat="47.13805" lon="-1.46752">
        <ele>95</ele>
        <time>2021-08-29T10:32:37.000Z</time>
      </trkpt>
      <trkpt lat="47.13817" lon="-1.46749">
        <ele>95</ele>
        <time>2021-08-29T10:32:39.000Z</time>
      </trkpt>
      <trkpt lat="47.13836" lon="-1.46745">
        <ele>95</ele>
        <time>2021-08-29T10:32:42.000Z</time>
      </trkpt>
      <trkpt lat="47.13849" lon="-1.46741">
        <ele>95</ele>
        <time>2021-08-29T10:32:44.000Z</time>
      </trkpt>
      <trkpt lat="47.13862" lon="-1.46739">
        <ele>94</ele>
        <time>2021-08-29T10:32:46.000Z</time>
      </trkpt>
      <trkpt lat="47.13874" lon="-1.46736">
        <ele>94</ele>
        <time>2021-08-29T10:32:48.000Z</time>
      </trkpt>
      <trkpt lat="47.13887" lon="-1.46734">
        <ele>95</ele>
        <time>2021-08-29T10:32:50.000Z</time>
      </trkpt>
      <trkpt lat="47.139" lon="-1.46731">
        <ele>94</ele>
        <time>2021-08-29T10:32:52.000Z</time>
      </trkpt>
      <trkpt lat="47.1392" lon="-1.46727">
        <ele>93</ele>
        <time>2021-08-29T10:32:55.000Z</time>
      </trkpt>
      <trkpt lat="47.13935" lon="-1.46724">
        <ele>92</ele>
        <time>2021-08-29T10:32:57.000Z</time>
      </trkpt>
      <trkpt lat="47.1395" lon="-1.46722">
        <ele>92</ele>
        <time>2021-08-29T10:32:59.000Z</time>
      </trkpt>
      <trkpt lat="47.13964" lon="-1.46722">
        <ele>91</ele>
        <time>2021-08-29T10:33:01.000Z</time>
      </trkpt>
      <trkpt lat="47.13979" lon="-1.46723">
        <ele>90</ele>
        <time>2021-08-29T10:33:03.000Z</time>
      </trkpt>
      <trkpt lat="47.13993" lon="-1.46724">
        <ele>90</ele>
        <time>2021-08-29T10:33:05.000Z</time>
      </trkpt>
      <trkpt lat="47.14016" lon="-1.46728">
        <ele>89</ele>
        <time>2021-08-29T10:33:08.000Z</time>
      </trkpt>
      <trkpt lat="47.1403" lon="-1.46731">
        <ele>89</ele>
        <time>2021-08-29T10:33:10.000Z</time>
      </trkpt>
      <trkpt lat="47.14045" lon="-1.46734">
        <ele>88</ele>
        <time>2021-08-29T10:33:12.000Z</time>
      </trkpt>
      <trkpt lat="47.1406" lon="-1.46737">
        <ele>88</ele>
        <time>2021-08-29T10:33:14.000Z</time>
      </trkpt>
      <trkpt lat="47.14083" lon="-1.46741">
        <ele>87</ele>
        <time>2021-08-29T10:33:17.000Z</time>
      </trkpt>
      <trkpt lat="47.14098" lon="-1.46744">
        <ele>87</ele>
        <time>2021-08-29T10:33:19.000Z</time>
      </trkpt>
      <trkpt lat="47.14114" lon="-1.46747">
        <ele>86</ele>
        <time>2021-08-29T10:33:21.000Z</time>
      </trkpt>
      <trkpt lat="47.14137" lon="-1.46751">
        <ele>86</ele>
        <time>2021-08-29T10:33:24.000Z</time>
      </trkpt>
      <trkpt lat="47.14153" lon="-1.46754">
        <ele>85</ele>
        <time>2021-08-29T10:33:26.000Z</time>
      </trkpt>
      <trkpt lat="47.14177" lon="-1.46759">
        <ele>85</ele>
        <time>2021-08-29T10:33:29.000Z</time>
      </trkpt>
      <trkpt lat="47.14194" lon="-1.46761">
        <ele>83</ele>
        <time>2021-08-29T10:33:31.000Z</time>
      </trkpt>
      <trkpt lat="47.1421" lon="-1.46764">
        <ele>82</ele>
        <time>2021-08-29T10:33:33.000Z</time>
      </trkpt>
      <trkpt lat="47.14234" lon="-1.46768">
        <ele>82</ele>
        <time>2021-08-29T10:33:36.000Z</time>
      </trkpt>
      <trkpt lat="47.1425" lon="-1.46771">
        <ele>82</ele>
        <time>2021-08-29T10:33:38.000Z</time>
      </trkpt>
      <trkpt lat="47.14266" lon="-1.46774">
        <ele>81</ele>
        <time>2021-08-29T10:33:40.000Z</time>
      </trkpt>
      <trkpt lat="47.14283" lon="-1.46777">
        <ele>80</ele>
        <time>2021-08-29T10:33:42.000Z</time>
      </trkpt>
      <trkpt lat="47.14292" lon="-1.46778">
        <ele>80</ele>
        <time>2021-08-29T10:33:43.000Z</time>
      </trkpt>
      <trkpt lat="47.14309" lon="-1.46781">
        <ele>79</ele>
        <time>2021-08-29T10:33:45.000Z</time>
      </trkpt>
      <trkpt lat="47.14326" lon="-1.46785">
        <ele>79</ele>
        <time>2021-08-29T10:33:47.000Z</time>
      </trkpt>
      <trkpt lat="47.14343" lon="-1.46788">
        <ele>78</ele>
        <time>2021-08-29T10:33:49.000Z</time>
      </trkpt>
      <trkpt lat="47.14359" lon="-1.4679">
        <ele>78</ele>
        <time>2021-08-29T10:33:51.000Z</time>
      </trkpt>
      <trkpt lat="47.14376" lon="-1.46792">
        <ele>78</ele>
        <time>2021-08-29T10:33:53.000Z</time>
      </trkpt>
      <trkpt lat="47.14393" lon="-1.46795">
        <ele>78</ele>
        <time>2021-08-29T10:33:55.000Z</time>
      </trkpt>
      <trkpt lat="47.1441" lon="-1.46799">
        <ele>77</ele>
        <time>2021-08-29T10:33:57.000Z</time>
      </trkpt>
      <trkpt lat="47.14419" lon="-1.46802">
        <ele>77</ele>
        <time>2021-08-29T10:33:58.000Z</time>
      </trkpt>
      <trkpt lat="47.14437" lon="-1.46808">
        <ele>77</ele>
        <time>2021-08-29T10:34:00.000Z</time>
      </trkpt>
      <trkpt lat="47.14453" lon="-1.46814">
        <ele>77</ele>
        <time>2021-08-29T10:34:02.000Z</time>
      </trkpt>
      <trkpt lat="47.14471" lon="-1.46821">
        <ele>77</ele>
        <time>2021-08-29T10:34:04.000Z</time>
      </trkpt>
      <trkpt lat="47.14479" lon="-1.46826">
        <ele>77</ele>
        <time>2021-08-29T10:34:05.000Z</time>
      </trkpt>
      <trkpt lat="47.14488" lon="-1.46831">
        <ele>77</ele>
        <time>2021-08-29T10:34:06.000Z</time>
      </trkpt>
      <trkpt lat="47.14496" lon="-1.46835">
        <ele>77</ele>
        <time>2021-08-29T10:34:07.000Z</time>
      </trkpt>
      <trkpt lat="47.14505" lon="-1.46841">
        <ele>76</ele>
        <time>2021-08-29T10:34:08.000Z</time>
      </trkpt>
      <trkpt lat="47.14514" lon="-1.46846">
        <ele>76</ele>
        <time>2021-08-29T10:34:09.000Z</time>
      </trkpt>
      <trkpt lat="47.14523" lon="-1.46852">
        <ele>76</ele>
        <time>2021-08-29T10:34:10.000Z</time>
      </trkpt>
      <trkpt lat="47.14532" lon="-1.46857">
        <ele>75</ele>
        <time>2021-08-29T10:34:11.000Z</time>
      </trkpt>
      <trkpt lat="47.14541" lon="-1.46862">
        <ele>75</ele>
        <time>2021-08-29T10:34:12.000Z</time>
      </trkpt>
      <trkpt lat="47.1455" lon="-1.46867">
        <ele>75</ele>
        <time>2021-08-29T10:34:13.000Z</time>
      </trkpt>
      <trkpt lat="47.14559" lon="-1.46872">
        <ele>75</ele>
        <time>2021-08-29T10:34:14.000Z</time>
      </trkpt>
      <trkpt lat="47.14568" lon="-1.46877">
        <ele>75</ele>
        <time>2021-08-29T10:34:15.000Z</time>
      </trkpt>
      <trkpt lat="47.14584" lon="-1.46885">
        <ele>74</ele>
        <time>2021-08-29T10:34:17.000Z</time>
      </trkpt>
      <trkpt lat="47.14593" lon="-1.46888">
        <ele>74</ele>
        <time>2021-08-29T10:34:18.000Z</time>
      </trkpt>
      <trkpt lat="47.14602" lon="-1.46887">
        <ele>74</ele>
        <time>2021-08-29T10:34:19.000Z</time>
      </trkpt>
      <trkpt lat="47.14611" lon="-1.46884">
        <ele>74</ele>
        <time>2021-08-29T10:34:20.000Z</time>
      </trkpt>
      <trkpt lat="47.14629" lon="-1.46881">
        <ele>73</ele>
        <time>2021-08-29T10:34:22.000Z</time>
      </trkpt>
      <trkpt lat="47.14638" lon="-1.46879">
        <ele>73</ele>
        <time>2021-08-29T10:34:23.000Z</time>
      </trkpt>
      <trkpt lat="47.14647" lon="-1.46877">
        <ele>73</ele>
        <time>2021-08-29T10:34:24.000Z</time>
      </trkpt>
      <trkpt lat="47.14657" lon="-1.46875">
        <ele>72</ele>
        <time>2021-08-29T10:34:25.000Z</time>
      </trkpt>
      <trkpt lat="47.14666" lon="-1.46872">
        <ele>72</ele>
        <time>2021-08-29T10:34:26.000Z</time>
      </trkpt>
      <trkpt lat="47.14683" lon="-1.46869">
        <ele>71</ele>
        <time>2021-08-29T10:34:28.000Z</time>
      </trkpt>
      <trkpt lat="47.14692" lon="-1.46869">
        <ele>71</ele>
        <time>2021-08-29T10:34:29.000Z</time>
      </trkpt>
      <trkpt lat="47.14702" lon="-1.46868">
        <ele>71</ele>
        <time>2021-08-29T10:34:30.000Z</time>
      </trkpt>
      <trkpt lat="47.1472" lon="-1.46867">
        <ele>71</ele>
        <time>2021-08-29T10:34:32.000Z</time>
      </trkpt>
      <trkpt lat="47.14729" lon="-1.46867">
        <ele>70</ele>
        <time>2021-08-29T10:34:33.000Z</time>
      </trkpt>
      <trkpt lat="47.14738" lon="-1.46866">
        <ele>70</ele>
        <time>2021-08-29T10:34:34.000Z</time>
      </trkpt>
      <trkpt lat="47.14747" lon="-1.46866">
        <ele>70</ele>
        <time>2021-08-29T10:34:35.000Z</time>
      </trkpt>
      <trkpt lat="47.14756" lon="-1.46866">
        <ele>69</ele>
        <time>2021-08-29T10:34:36.000Z</time>
      </trkpt>
      <trkpt lat="47.14766" lon="-1.46866">
        <ele>68</ele>
        <time>2021-08-29T10:34:37.000Z</time>
      </trkpt>
      <trkpt lat="47.14775" lon="-1.46866">
        <ele>66</ele>
        <time>2021-08-29T10:34:38.000Z</time>
      </trkpt>
      <trkpt lat="47.14793" lon="-1.46865">
        <ele>65</ele>
        <time>2021-08-29T10:34:40.000Z</time>
      </trkpt>
      <trkpt lat="47.14802" lon="-1.46865">
        <ele>64</ele>
        <time>2021-08-29T10:34:41.000Z</time>
      </trkpt>
      <trkpt lat="47.14819" lon="-1.46865">
        <ele>63</ele>
        <time>2021-08-29T10:34:43.000Z</time>
      </trkpt>
      <trkpt lat="47.14837" lon="-1.46866">
        <ele>62</ele>
        <time>2021-08-29T10:34:45.000Z</time>
      </trkpt>
      <trkpt lat="47.14854" lon="-1.46866">
        <ele>60</ele>
        <time>2021-08-29T10:34:47.000Z</time>
      </trkpt>
      <trkpt lat="47.1487" lon="-1.46867">
        <ele>59</ele>
        <time>2021-08-29T10:34:49.000Z</time>
      </trkpt>
      <trkpt lat="47.14884" lon="-1.46867">
        <ele>58</ele>
        <time>2021-08-29T10:34:51.000Z</time>
      </trkpt>
      <trkpt lat="47.14899" lon="-1.46866">
        <ele>57</ele>
        <time>2021-08-29T10:34:53.000Z</time>
      </trkpt>
      <trkpt lat="47.14913" lon="-1.46865">
        <ele>56</ele>
        <time>2021-08-29T10:34:55.000Z</time>
      </trkpt>
      <trkpt lat="47.14926" lon="-1.46863">
        <ele>56</ele>
        <time>2021-08-29T10:34:57.000Z</time>
      </trkpt>
      <trkpt lat="47.1494" lon="-1.46864">
        <ele>54</ele>
        <time>2021-08-29T10:34:59.000Z</time>
      </trkpt>
      <trkpt lat="47.14954" lon="-1.46861">
        <ele>53</ele>
        <time>2021-08-29T10:35:01.000Z</time>
      </trkpt>
      <trkpt lat="47.14968" lon="-1.46859">
        <ele>53</ele>
        <time>2021-08-29T10:35:03.000Z</time>
      </trkpt>
      <trkpt lat="47.14981" lon="-1.46858">
        <ele>54</ele>
        <time>2021-08-29T10:35:05.000Z</time>
      </trkpt>
      <trkpt lat="47.14994" lon="-1.46856">
        <ele>54</ele>
        <time>2021-08-29T10:35:07.000Z</time>
      </trkpt>
      <trkpt lat="47.15007" lon="-1.46855">
        <ele>54</ele>
        <time>2021-08-29T10:35:09.000Z</time>
      </trkpt>
      <trkpt lat="47.1502" lon="-1.46852">
        <ele>54</ele>
        <time>2021-08-29T10:35:11.000Z</time>
      </trkpt>
      <trkpt lat="47.15031" lon="-1.46851">
        <ele>55</ele>
        <time>2021-08-29T10:35:13.000Z</time>
      </trkpt>
      <trkpt lat="47.15043" lon="-1.46852">
        <ele>56</ele>
        <time>2021-08-29T10:35:15.000Z</time>
      </trkpt>
      <trkpt lat="47.15056" lon="-1.46853">
        <ele>56</ele>
        <time>2021-08-29T10:35:17.000Z</time>
      </trkpt>
      <trkpt lat="47.15069" lon="-1.46854">
        <ele>56</ele>
        <time>2021-08-29T10:35:19.000Z</time>
      </trkpt>
      <trkpt lat="47.15082" lon="-1.46855">
        <ele>56</ele>
        <time>2021-08-29T10:35:21.000Z</time>
      </trkpt>
      <trkpt lat="47.15095" lon="-1.46854">
        <ele>55</ele>
        <time>2021-08-29T10:35:23.000Z</time>
      </trkpt>
      <trkpt lat="47.15109" lon="-1.46854">
        <ele>54</ele>
        <time>2021-08-29T10:35:25.000Z</time>
      </trkpt>
      <trkpt lat="47.15122" lon="-1.46853">
        <ele>54</ele>
        <time>2021-08-29T10:35:27.000Z</time>
      </trkpt>
      <trkpt lat="47.15135" lon="-1.46852">
        <ele>54</ele>
        <time>2021-08-29T10:35:29.000Z</time>
      </trkpt>
      <trkpt lat="47.15149" lon="-1.46851">
        <ele>54</ele>
        <time>2021-08-29T10:35:31.000Z</time>
      </trkpt>
      <trkpt lat="47.15163" lon="-1.4685">
        <ele>54</ele>
        <time>2021-08-29T10:35:33.000Z</time>
      </trkpt>
      <trkpt lat="47.15177" lon="-1.46849">
        <ele>54</ele>
        <time>2021-08-29T10:35:35.000Z</time>
      </trkpt>
      <trkpt lat="47.15192" lon="-1.46848">
        <ele>53</ele>
        <time>2021-08-29T10:35:37.000Z</time>
      </trkpt>
      <trkpt lat="47.15206" lon="-1.46846">
        <ele>53</ele>
        <time>2021-08-29T10:35:39.000Z</time>
      </trkpt>
      <trkpt lat="47.1522" lon="-1.46845">
        <ele>53</ele>
        <time>2021-08-29T10:35:41.000Z</time>
      </trkpt>
      <trkpt lat="47.15233" lon="-1.46842">
        <ele>52</ele>
        <time>2021-08-29T10:35:43.000Z</time>
      </trkpt>
      <trkpt lat="47.15247" lon="-1.46839">
        <ele>52</ele>
        <time>2021-08-29T10:35:45.000Z</time>
      </trkpt>
      <trkpt lat="47.15261" lon="-1.46837">
        <ele>52</ele>
        <time>2021-08-29T10:35:47.000Z</time>
      </trkpt>
      <trkpt lat="47.15274" lon="-1.46833">
        <ele>52</ele>
        <time>2021-08-29T10:35:49.000Z</time>
      </trkpt>
      <trkpt lat="47.15287" lon="-1.46828">
        <ele>53</ele>
        <time>2021-08-29T10:35:51.000Z</time>
      </trkpt>
      <trkpt lat="47.153" lon="-1.46823">
        <ele>52</ele>
        <time>2021-08-29T10:35:53.000Z</time>
      </trkpt>
      <trkpt lat="47.15314" lon="-1.46817">
        <ele>52</ele>
        <time>2021-08-29T10:35:55.000Z</time>
      </trkpt>
      <trkpt lat="47.15327" lon="-1.46811">
        <ele>52</ele>
        <time>2021-08-29T10:35:57.000Z</time>
      </trkpt>
      <trkpt lat="47.1534" lon="-1.46804">
        <ele>53</ele>
        <time>2021-08-29T10:35:59.000Z</time>
      </trkpt>
      <trkpt lat="47.15352" lon="-1.46798">
        <ele>52</ele>
        <time>2021-08-29T10:36:01.000Z</time>
      </trkpt>
      <trkpt lat="47.15365" lon="-1.46791">
        <ele>53</ele>
        <time>2021-08-29T10:36:03.000Z</time>
      </trkpt>
      <trkpt lat="47.15377" lon="-1.46784">
        <ele>53</ele>
        <time>2021-08-29T10:36:05.000Z</time>
      </trkpt>
      <trkpt lat="47.1539" lon="-1.46777">
        <ele>53</ele>
        <time>2021-08-29T10:36:07.000Z</time>
      </trkpt>
      <trkpt lat="47.15401" lon="-1.46768">
        <ele>54</ele>
        <time>2021-08-29T10:36:09.000Z</time>
      </trkpt>
      <trkpt lat="47.15413" lon="-1.4676">
        <ele>54</ele>
        <time>2021-08-29T10:36:11.000Z</time>
      </trkpt>
      <trkpt lat="47.15424" lon="-1.46752">
        <ele>54</ele>
        <time>2021-08-29T10:36:13.000Z</time>
      </trkpt>
      <trkpt lat="47.15435" lon="-1.46744">
        <ele>54</ele>
        <time>2021-08-29T10:36:15.000Z</time>
      </trkpt>
      <trkpt lat="47.15445" lon="-1.46736">
        <ele>55</ele>
        <time>2021-08-29T10:36:17.000Z</time>
      </trkpt>
      <trkpt lat="47.15455" lon="-1.46728">
        <ele>55</ele>
        <time>2021-08-29T10:36:19.000Z</time>
      </trkpt>
      <trkpt lat="47.15465" lon="-1.4672">
        <ele>55</ele>
        <time>2021-08-29T10:36:21.000Z</time>
      </trkpt>
      <trkpt lat="47.15476" lon="-1.46713">
        <ele>56</ele>
        <time>2021-08-29T10:36:23.000Z</time>
      </trkpt>
      <trkpt lat="47.15486" lon="-1.46706">
        <ele>56</ele>
        <time>2021-08-29T10:36:25.000Z</time>
      </trkpt>
      <trkpt lat="47.15496" lon="-1.46698">
        <ele>56</ele>
        <time>2021-08-29T10:36:27.000Z</time>
      </trkpt>
      <trkpt lat="47.15506" lon="-1.46691">
        <ele>57</ele>
        <time>2021-08-29T10:36:29.000Z</time>
      </trkpt>
      <trkpt lat="47.15516" lon="-1.46684">
        <ele>57</ele>
        <time>2021-08-29T10:36:31.000Z</time>
      </trkpt>
      <trkpt lat="47.15526" lon="-1.46677">
        <ele>58</ele>
        <time>2021-08-29T10:36:33.000Z</time>
      </trkpt>
      <trkpt lat="47.15536" lon="-1.46671">
        <ele>58</ele>
        <time>2021-08-29T10:36:35.000Z</time>
      </trkpt>
      <trkpt lat="47.15546" lon="-1.46665">
        <ele>59</ele>
        <time>2021-08-29T10:36:37.000Z</time>
      </trkpt>
      <trkpt lat="47.15557" lon="-1.4666">
        <ele>60</ele>
        <time>2021-08-29T10:36:39.000Z</time>
      </trkpt>
      <trkpt lat="47.15568" lon="-1.46655">
        <ele>60</ele>
        <time>2021-08-29T10:36:41.000Z</time>
      </trkpt>
      <trkpt lat="47.15579" lon="-1.46649">
        <ele>61</ele>
        <time>2021-08-29T10:36:43.000Z</time>
      </trkpt>
      <trkpt lat="47.1559" lon="-1.46644">
        <ele>62</ele>
        <time>2021-08-29T10:36:45.000Z</time>
      </trkpt>
      <trkpt lat="47.15601" lon="-1.4664">
        <ele>62</ele>
        <time>2021-08-29T10:36:47.000Z</time>
      </trkpt>
      <trkpt lat="47.15612" lon="-1.46637">
        <ele>63</ele>
        <time>2021-08-29T10:36:49.000Z</time>
      </trkpt>
      <trkpt lat="47.15623" lon="-1.46633">
        <ele>63</ele>
        <time>2021-08-29T10:36:51.000Z</time>
      </trkpt>
      <trkpt lat="47.15634" lon="-1.46631">
        <ele>63</ele>
        <time>2021-08-29T10:36:53.000Z</time>
      </trkpt>
      <trkpt lat="47.15646" lon="-1.46629">
        <ele>64</ele>
        <time>2021-08-29T10:36:55.000Z</time>
      </trkpt>
      <trkpt lat="47.15657" lon="-1.46629">
        <ele>64</ele>
        <time>2021-08-29T10:36:57.000Z</time>
      </trkpt>
      <trkpt lat="47.15669" lon="-1.46627">
        <ele>64</ele>
        <time>2021-08-29T10:36:59.000Z</time>
      </trkpt>
      <trkpt lat="47.1568" lon="-1.46627">
        <ele>64</ele>
        <time>2021-08-29T10:37:01.000Z</time>
      </trkpt>
      <trkpt lat="47.15691" lon="-1.46626">
        <ele>65</ele>
        <time>2021-08-29T10:37:03.000Z</time>
      </trkpt>
      <trkpt lat="47.15703" lon="-1.46625">
        <ele>65</ele>
        <time>2021-08-29T10:37:05.000Z</time>
      </trkpt>
      <trkpt lat="47.15714" lon="-1.46625">
        <ele>66</ele>
        <time>2021-08-29T10:37:07.000Z</time>
      </trkpt>
      <trkpt lat="47.15725" lon="-1.46624">
        <ele>66</ele>
        <time>2021-08-29T10:37:09.000Z</time>
      </trkpt>
      <trkpt lat="47.15736" lon="-1.46624">
        <ele>66</ele>
        <time>2021-08-29T10:37:11.000Z</time>
      </trkpt>
      <trkpt lat="47.15747" lon="-1.46624">
        <ele>66</ele>
        <time>2021-08-29T10:37:13.000Z</time>
      </trkpt>
      <trkpt lat="47.15758" lon="-1.46623">
        <ele>67</ele>
        <time>2021-08-29T10:37:15.000Z</time>
      </trkpt>
      <trkpt lat="47.15769" lon="-1.46623">
        <ele>67</ele>
        <time>2021-08-29T10:37:17.000Z</time>
      </trkpt>
      <trkpt lat="47.15779" lon="-1.46623">
        <ele>67</ele>
        <time>2021-08-29T10:37:19.000Z</time>
      </trkpt>
      <trkpt lat="47.15789" lon="-1.46622">
        <ele>68</ele>
        <time>2021-08-29T10:37:21.000Z</time>
      </trkpt>
      <trkpt lat="47.158" lon="-1.46622">
        <ele>68</ele>
        <time>2021-08-29T10:37:23.000Z</time>
      </trkpt>
      <trkpt lat="47.1581" lon="-1.46621">
        <ele>69</ele>
        <time>2021-08-29T10:37:25.000Z</time>
      </trkpt>
      <trkpt lat="47.1582" lon="-1.4662">
        <ele>69</ele>
        <time>2021-08-29T10:37:27.000Z</time>
      </trkpt>
      <trkpt lat="47.15831" lon="-1.4662">
        <ele>69</ele>
        <time>2021-08-29T10:37:29.000Z</time>
      </trkpt>
      <trkpt lat="47.15842" lon="-1.4662">
        <ele>69</ele>
        <time>2021-08-29T10:37:31.000Z</time>
      </trkpt>
      <trkpt lat="47.15852" lon="-1.4662">
        <ele>70</ele>
        <time>2021-08-29T10:37:33.000Z</time>
      </trkpt>
      <trkpt lat="47.15863" lon="-1.46619">
        <ele>70</ele>
        <time>2021-08-29T10:37:35.000Z</time>
      </trkpt>
      <trkpt lat="47.15874" lon="-1.46619">
        <ele>71</ele>
        <time>2021-08-29T10:37:37.000Z</time>
      </trkpt>
      <trkpt lat="47.15885" lon="-1.46619">
        <ele>71</ele>
        <time>2021-08-29T10:37:39.000Z</time>
      </trkpt>
      <trkpt lat="47.15895" lon="-1.46618">
        <ele>71</ele>
        <time>2021-08-29T10:37:41.000Z</time>
      </trkpt>
      <trkpt lat="47.15906" lon="-1.46619">
        <ele>71</ele>
        <time>2021-08-29T10:37:43.000Z</time>
      </trkpt>
      <trkpt lat="47.15916" lon="-1.46619">
        <ele>71</ele>
        <time>2021-08-29T10:37:45.000Z</time>
      </trkpt>
      <trkpt lat="47.15927" lon="-1.4662">
        <ele>72</ele>
        <time>2021-08-29T10:37:47.000Z</time>
      </trkpt>
      <trkpt lat="47.15938" lon="-1.46621">
        <ele>72</ele>
        <time>2021-08-29T10:37:49.000Z</time>
      </trkpt>
      <trkpt lat="47.15948" lon="-1.46623">
        <ele>72</ele>
        <time>2021-08-29T10:37:51.000Z</time>
      </trkpt>
      <trkpt lat="47.15958" lon="-1.46625">
        <ele>72</ele>
        <time>2021-08-29T10:37:53.000Z</time>
      </trkpt>
      <trkpt lat="47.15968" lon="-1.46627">
        <ele>73</ele>
        <time>2021-08-29T10:37:55.000Z</time>
      </trkpt>
      <trkpt lat="47.15978" lon="-1.4663">
        <ele>73</ele>
        <time>2021-08-29T10:37:57.000Z</time>
      </trkpt>
      <trkpt lat="47.15988" lon="-1.46633">
        <ele>74</ele>
        <time>2021-08-29T10:37:59.000Z</time>
      </trkpt>
      <trkpt lat="47.15998" lon="-1.46636">
        <ele>74</ele>
        <time>2021-08-29T10:38:01.000Z</time>
      </trkpt>
      <trkpt lat="47.16009" lon="-1.4664">
        <ele>74</ele>
        <time>2021-08-29T10:38:03.000Z</time>
      </trkpt>
      <trkpt lat="47.16019" lon="-1.46644">
        <ele>75</ele>
        <time>2021-08-29T10:38:05.000Z</time>
      </trkpt>
      <trkpt lat="47.16029" lon="-1.46649">
        <ele>75</ele>
        <time>2021-08-29T10:38:07.000Z</time>
      </trkpt>
      <trkpt lat="47.16038" lon="-1.46654">
        <ele>76</ele>
        <time>2021-08-29T10:38:09.000Z</time>
      </trkpt>
      <trkpt lat="47.16048" lon="-1.4666">
        <ele>76</ele>
        <time>2021-08-29T10:38:11.000Z</time>
      </trkpt>
      <trkpt lat="47.16058" lon="-1.46666">
        <ele>75</ele>
        <time>2021-08-29T10:38:13.000Z</time>
      </trkpt>
      <trkpt lat="47.16069" lon="-1.46673">
        <ele>75</ele>
        <time>2021-08-29T10:38:15.000Z</time>
      </trkpt>
      <trkpt lat="47.16079" lon="-1.4668">
        <ele>75</ele>
        <time>2021-08-29T10:38:17.000Z</time>
      </trkpt>
      <trkpt lat="47.16089" lon="-1.46688">
        <ele>75</ele>
        <time>2021-08-29T10:38:19.000Z</time>
      </trkpt>
      <trkpt lat="47.161" lon="-1.46695">
        <ele>74</ele>
        <time>2021-08-29T10:38:21.000Z</time>
      </trkpt>
      <trkpt lat="47.1611" lon="-1.46703">
        <ele>74</ele>
        <time>2021-08-29T10:38:23.000Z</time>
      </trkpt>
      <trkpt lat="47.16121" lon="-1.46711">
        <ele>74</ele>
        <time>2021-08-29T10:38:25.000Z</time>
      </trkpt>
      <trkpt lat="47.16132" lon="-1.46719">
        <ele>73</ele>
        <time>2021-08-29T10:38:27.000Z</time>
      </trkpt>
      <trkpt lat="47.16143" lon="-1.46728">
        <ele>73</ele>
        <time>2021-08-29T10:38:29.000Z</time>
      </trkpt>
      <trkpt lat="47.16154" lon="-1.46736">
        <ele>72</ele>
        <time>2021-08-29T10:38:31.000Z</time>
      </trkpt>
      <trkpt lat="47.16166" lon="-1.46745">
        <ele>72</ele>
        <time>2021-08-29T10:38:33.000Z</time>
      </trkpt>
      <trkpt lat="47.16178" lon="-1.46754">
        <ele>72</ele>
        <time>2021-08-29T10:38:35.000Z</time>
      </trkpt>
      <trkpt lat="47.16191" lon="-1.46764">
        <ele>72</ele>
        <time>2021-08-29T10:38:37.000Z</time>
      </trkpt>
      <trkpt lat="47.16204" lon="-1.46774">
        <ele>71</ele>
        <time>2021-08-29T10:38:39.000Z</time>
      </trkpt>
      <trkpt lat="47.16217" lon="-1.46783">
        <ele>71</ele>
        <time>2021-08-29T10:38:41.000Z</time>
      </trkpt>
      <trkpt lat="47.1623" lon="-1.46794">
        <ele>71</ele>
        <time>2021-08-29T10:38:43.000Z</time>
      </trkpt>
      <trkpt lat="47.16242" lon="-1.46801">
        <ele>72</ele>
        <time>2021-08-29T10:38:45.000Z</time>
      </trkpt>
      <trkpt lat="47.16254" lon="-1.46801">
        <ele>72</ele>
        <time>2021-08-29T10:38:47.000Z</time>
      </trkpt>
      <trkpt lat="47.16265" lon="-1.46799">
        <ele>72</ele>
        <time>2021-08-29T10:38:49.000Z</time>
      </trkpt>
      <trkpt lat="47.16275" lon="-1.46806">
        <ele>72</ele>
        <time>2021-08-29T10:38:51.000Z</time>
      </trkpt>
      <trkpt lat="47.16277" lon="-1.46824">
        <ele>72</ele>
        <time>2021-08-29T10:38:53.000Z</time>
      </trkpt>
      <trkpt lat="47.16271" lon="-1.46842">
        <ele>71</ele>
        <time>2021-08-29T10:38:55.000Z</time>
      </trkpt>
      <trkpt lat="47.16266" lon="-1.46859">
        <ele>69</ele>
        <time>2021-08-29T10:38:57.000Z</time>
      </trkpt>
      <trkpt lat="47.16264" lon="-1.46879">
        <ele>69</ele>
        <time>2021-08-29T10:38:59.000Z</time>
      </trkpt>
      <trkpt lat="47.16262" lon="-1.46899">
        <ele>69</ele>
        <time>2021-08-29T10:39:01.000Z</time>
      </trkpt>
      <trkpt lat="47.16261" lon="-1.4692">
        <ele>69</ele>
        <time>2021-08-29T10:39:03.000Z</time>
      </trkpt>
      <trkpt lat="47.16259" lon="-1.4694">
        <ele>68</ele>
        <time>2021-08-29T10:39:05.000Z</time>
      </trkpt>
      <trkpt lat="47.16258" lon="-1.4696">
        <ele>68</ele>
        <time>2021-08-29T10:39:07.000Z</time>
      </trkpt>
      <trkpt lat="47.16258" lon="-1.46983">
        <ele>68</ele>
        <time>2021-08-29T10:39:09.000Z</time>
      </trkpt>
      <trkpt lat="47.16258" lon="-1.4701">
        <ele>68</ele>
        <time>2021-08-29T10:39:11.000Z</time>
      </trkpt>
      <trkpt lat="47.16259" lon="-1.47023">
        <ele>68</ele>
        <time>2021-08-29T10:39:12.000Z</time>
      </trkpt>
      <trkpt lat="47.1626" lon="-1.47037">
        <ele>68</ele>
        <time>2021-08-29T10:39:13.000Z</time>
      </trkpt>
      <trkpt lat="47.16261" lon="-1.47051">
        <ele>67</ele>
        <time>2021-08-29T10:39:14.000Z</time>
      </trkpt>
      <trkpt lat="47.16262" lon="-1.47065">
        <ele>66</ele>
        <time>2021-08-29T10:39:15.000Z</time>
      </trkpt>
      <trkpt lat="47.16263" lon="-1.47078">
        <ele>66</ele>
        <time>2021-08-29T10:39:16.000Z</time>
      </trkpt>
      <trkpt lat="47.16265" lon="-1.47092">
        <ele>66</ele>
        <time>2021-08-29T10:39:17.000Z</time>
      </trkpt>
      <trkpt lat="47.16267" lon="-1.47106">
        <ele>65</ele>
        <time>2021-08-29T10:39:18.000Z</time>
      </trkpt>
      <trkpt lat="47.1627" lon="-1.4712">
        <ele>65</ele>
        <time>2021-08-29T10:39:19.000Z</time>
      </trkpt>
      <trkpt lat="47.16272" lon="-1.47133">
        <ele>64</ele>
        <time>2021-08-29T10:39:20.000Z</time>
      </trkpt>
      <trkpt lat="47.16275" lon="-1.47147">
        <ele>64</ele>
        <time>2021-08-29T10:39:21.000Z</time>
      </trkpt>
      <trkpt lat="47.16278" lon="-1.4716">
        <ele>63</ele>
        <time>2021-08-29T10:39:22.000Z</time>
      </trkpt>
      <trkpt lat="47.16282" lon="-1.47174">
        <ele>62</ele>
        <time>2021-08-29T10:39:23.000Z</time>
      </trkpt>
      <trkpt lat="47.16287" lon="-1.47187">
        <ele>62</ele>
        <time>2021-08-29T10:39:24.000Z</time>
      </trkpt>
      <trkpt lat="47.16291" lon="-1.472">
        <ele>61</ele>
        <time>2021-08-29T10:39:25.000Z</time>
      </trkpt>
      <trkpt lat="47.16296" lon="-1.47213">
        <ele>61</ele>
        <time>2021-08-29T10:39:26.000Z</time>
      </trkpt>
      <trkpt lat="47.163" lon="-1.47225">
        <ele>61</ele>
        <time>2021-08-29T10:39:27.000Z</time>
      </trkpt>
      <trkpt lat="47.16305" lon="-1.47238">
        <ele>60</ele>
        <time>2021-08-29T10:39:28.000Z</time>
      </trkpt>
      <trkpt lat="47.1631" lon="-1.4725">
        <ele>60</ele>
        <time>2021-08-29T10:39:29.000Z</time>
      </trkpt>
      <trkpt lat="47.16314" lon="-1.47262">
        <ele>60</ele>
        <time>2021-08-29T10:39:30.000Z</time>
      </trkpt>
      <trkpt lat="47.16318" lon="-1.47274">
        <ele>60</ele>
        <time>2021-08-29T10:39:31.000Z</time>
      </trkpt>
      <trkpt lat="47.16323" lon="-1.47286">
        <ele>59</ele>
        <time>2021-08-29T10:39:32.000Z</time>
      </trkpt>
      <trkpt lat="47.16326" lon="-1.47298">
        <ele>59</ele>
        <time>2021-08-29T10:39:33.000Z</time>
      </trkpt>
      <trkpt lat="47.16329" lon="-1.47311">
        <ele>59</ele>
        <time>2021-08-29T10:39:34.000Z</time>
      </trkpt>
      <trkpt lat="47.16335" lon="-1.47335">
        <ele>58</ele>
        <time>2021-08-29T10:39:36.000Z</time>
      </trkpt>
      <trkpt lat="47.16335" lon="-1.47358">
        <ele>58</ele>
        <time>2021-08-29T10:39:38.000Z</time>
      </trkpt>
      <trkpt lat="47.16332" lon="-1.47382">
        <ele>58</ele>
        <time>2021-08-29T10:39:40.000Z</time>
      </trkpt>
      <trkpt lat="47.16334" lon="-1.47404">
        <ele>58</ele>
        <time>2021-08-29T10:39:42.000Z</time>
      </trkpt>
      <trkpt lat="47.1634" lon="-1.47427">
        <ele>57</ele>
        <time>2021-08-29T10:39:44.000Z</time>
      </trkpt>
      <trkpt lat="47.16346" lon="-1.4745">
        <ele>57</ele>
        <time>2021-08-29T10:39:46.000Z</time>
      </trkpt>
      <trkpt lat="47.16351" lon="-1.47472">
        <ele>56</ele>
        <time>2021-08-29T10:39:48.000Z</time>
      </trkpt>
      <trkpt lat="47.16356" lon="-1.47496">
        <ele>55</ele>
        <time>2021-08-29T10:39:50.000Z</time>
      </trkpt>
      <trkpt lat="47.16361" lon="-1.47518">
        <ele>55</ele>
        <time>2021-08-29T10:39:52.000Z</time>
      </trkpt>
      <trkpt lat="47.16366" lon="-1.47541">
        <ele>55</ele>
        <time>2021-08-29T10:39:54.000Z</time>
      </trkpt>
      <trkpt lat="47.16372" lon="-1.47564">
        <ele>55</ele>
        <time>2021-08-29T10:39:56.000Z</time>
      </trkpt>
      <trkpt lat="47.16377" lon="-1.47586">
        <ele>55</ele>
        <time>2021-08-29T10:39:58.000Z</time>
      </trkpt>
      <trkpt lat="47.16382" lon="-1.47609">
        <ele>55</ele>
        <time>2021-08-29T10:40:00.000Z</time>
      </trkpt>
      <trkpt lat="47.16387" lon="-1.47631">
        <ele>55</ele>
        <time>2021-08-29T10:40:02.000Z</time>
      </trkpt>
      <trkpt lat="47.16392" lon="-1.47654">
        <ele>55</ele>
        <time>2021-08-29T10:40:04.000Z</time>
      </trkpt>
      <trkpt lat="47.16396" lon="-1.47676">
        <ele>55</ele>
        <time>2021-08-29T10:40:06.000Z</time>
      </trkpt>
      <trkpt lat="47.164" lon="-1.47698">
        <ele>55</ele>
        <time>2021-08-29T10:40:08.000Z</time>
      </trkpt>
      <trkpt lat="47.16404" lon="-1.4772">
        <ele>54</ele>
        <time>2021-08-29T10:40:10.000Z</time>
      </trkpt>
      <trkpt lat="47.16408" lon="-1.47741">
        <ele>54</ele>
        <time>2021-08-29T10:40:12.000Z</time>
      </trkpt>
      <trkpt lat="47.16413" lon="-1.47763">
        <ele>54</ele>
        <time>2021-08-29T10:40:14.000Z</time>
      </trkpt>
      <trkpt lat="47.16417" lon="-1.47785">
        <ele>54</ele>
        <time>2021-08-29T10:40:16.000Z</time>
      </trkpt>
      <trkpt lat="47.16422" lon="-1.47807">
        <ele>53</ele>
        <time>2021-08-29T10:40:18.000Z</time>
      </trkpt>
      <trkpt lat="47.16427" lon="-1.47827">
        <ele>53</ele>
        <time>2021-08-29T10:40:20.000Z</time>
      </trkpt>
      <trkpt lat="47.16432" lon="-1.47847">
        <ele>53</ele>
        <time>2021-08-29T10:40:22.000Z</time>
      </trkpt>
      <trkpt lat="47.16437" lon="-1.47869">
        <ele>53</ele>
        <time>2021-08-29T10:40:24.000Z</time>
      </trkpt>
      <trkpt lat="47.16442" lon="-1.47889">
        <ele>53</ele>
        <time>2021-08-29T10:40:26.000Z</time>
      </trkpt>
      <trkpt lat="47.16447" lon="-1.47909">
        <ele>52</ele>
        <time>2021-08-29T10:40:28.000Z</time>
      </trkpt>
      <trkpt lat="47.16452" lon="-1.4793">
        <ele>52</ele>
        <time>2021-08-29T10:40:30.000Z</time>
      </trkpt>
      <trkpt lat="47.16456" lon="-1.4795">
        <ele>51</ele>
        <time>2021-08-29T10:40:32.000Z</time>
      </trkpt>
      <trkpt lat="47.16461" lon="-1.4797">
        <ele>52</ele>
        <time>2021-08-29T10:40:34.000Z</time>
      </trkpt>
      <trkpt lat="47.16466" lon="-1.47989">
        <ele>51</ele>
        <time>2021-08-29T10:40:36.000Z</time>
      </trkpt>
      <trkpt lat="47.16471" lon="-1.48008">
        <ele>51</ele>
        <time>2021-08-29T10:40:38.000Z</time>
      </trkpt>
      <trkpt lat="47.16476" lon="-1.48027">
        <ele>51</ele>
        <time>2021-08-29T10:40:40.000Z</time>
      </trkpt>
      <trkpt lat="47.1648" lon="-1.48045">
        <ele>52</ele>
        <time>2021-08-29T10:40:42.000Z</time>
      </trkpt>
      <trkpt lat="47.16484" lon="-1.48061">
        <ele>52</ele>
        <time>2021-08-29T10:40:44.000Z</time>
      </trkpt>
      <trkpt lat="47.16487" lon="-1.48076">
        <ele>53</ele>
        <time>2021-08-29T10:40:46.000Z</time>
      </trkpt>
      <trkpt lat="47.1649" lon="-1.48091">
        <ele>54</ele>
        <time>2021-08-29T10:40:48.000Z</time>
      </trkpt>
      <trkpt lat="47.16494" lon="-1.4811">
        <ele>54</ele>
        <time>2021-08-29T10:40:50.000Z</time>
      </trkpt>
      <trkpt lat="47.16496" lon="-1.48129">
        <ele>55</ele>
        <time>2021-08-29T10:40:52.000Z</time>
      </trkpt>
      <trkpt lat="47.165" lon="-1.48146">
        <ele>55</ele>
        <time>2021-08-29T10:40:54.000Z</time>
      </trkpt>
      <trkpt lat="47.16505" lon="-1.48165">
        <ele>55</ele>
        <time>2021-08-29T10:40:56.000Z</time>
      </trkpt>
      <trkpt lat="47.16509" lon="-1.48184">
        <ele>56</ele>
        <time>2021-08-29T10:40:58.000Z</time>
      </trkpt>
      <trkpt lat="47.16513" lon="-1.48202">
        <ele>56</ele>
        <time>2021-08-29T10:41:00.000Z</time>
      </trkpt>
      <trkpt lat="47.16517" lon="-1.4822">
        <ele>56</ele>
        <time>2021-08-29T10:41:02.000Z</time>
      </trkpt>
      <trkpt lat="47.16522" lon="-1.48239">
        <ele>56</ele>
        <time>2021-08-29T10:41:04.000Z</time>
      </trkpt>
      <trkpt lat="47.16522" lon="-1.48259">
        <ele>55</ele>
        <time>2021-08-29T10:41:06.000Z</time>
      </trkpt>
      <trkpt lat="47.16519" lon="-1.48279">
        <ele>54</ele>
        <time>2021-08-29T10:41:08.000Z</time>
      </trkpt>
      <trkpt lat="47.16515" lon="-1.483">
        <ele>54</ele>
        <time>2021-08-29T10:41:10.000Z</time>
      </trkpt>
      <trkpt lat="47.16512" lon="-1.4832">
        <ele>54</ele>
        <time>2021-08-29T10:41:12.000Z</time>
      </trkpt>
      <trkpt lat="47.1651" lon="-1.48342">
        <ele>54</ele>
        <time>2021-08-29T10:41:14.000Z</time>
      </trkpt>
      <trkpt lat="47.16511" lon="-1.48363">
        <ele>53</ele>
        <time>2021-08-29T10:41:16.000Z</time>
      </trkpt>
      <trkpt lat="47.16514" lon="-1.48382">
        <ele>54</ele>
        <time>2021-08-29T10:41:18.000Z</time>
      </trkpt>
      <trkpt lat="47.16519" lon="-1.484">
        <ele>54</ele>
        <time>2021-08-29T10:41:20.000Z</time>
      </trkpt>
      <trkpt lat="47.16523" lon="-1.48419">
        <ele>54</ele>
        <time>2021-08-29T10:41:22.000Z</time>
      </trkpt>
      <trkpt lat="47.16527" lon="-1.48438">
        <ele>55</ele>
        <time>2021-08-29T10:41:24.000Z</time>
      </trkpt>
      <trkpt lat="47.1653" lon="-1.48458">
        <ele>55</ele>
        <time>2021-08-29T10:41:26.000Z</time>
      </trkpt>
      <trkpt lat="47.16534" lon="-1.48477">
        <ele>55</ele>
        <time>2021-08-29T10:41:28.000Z</time>
      </trkpt>
      <trkpt lat="47.16537" lon="-1.48497">
        <ele>56</ele>
        <time>2021-08-29T10:41:30.000Z</time>
      </trkpt>
      <trkpt lat="47.1654" lon="-1.48516">
        <ele>56</ele>
        <time>2021-08-29T10:41:32.000Z</time>
      </trkpt>
      <trkpt lat="47.16543" lon="-1.48535">
        <ele>56</ele>
        <time>2021-08-29T10:41:34.000Z</time>
      </trkpt>
      <trkpt lat="47.16545" lon="-1.48554">
        <ele>56</ele>
        <time>2021-08-29T10:41:36.000Z</time>
      </trkpt>
      <trkpt lat="47.16546" lon="-1.48574">
        <ele>57</ele>
        <time>2021-08-29T10:41:38.000Z</time>
      </trkpt>
      <trkpt lat="47.16545" lon="-1.48592">
        <ele>58</ele>
        <time>2021-08-29T10:41:40.000Z</time>
      </trkpt>
      <trkpt lat="47.16541" lon="-1.48611">
        <ele>58</ele>
        <time>2021-08-29T10:41:42.000Z</time>
      </trkpt>
      <trkpt lat="47.16537" lon="-1.48632">
        <ele>59</ele>
        <time>2021-08-29T10:41:44.000Z</time>
      </trkpt>
      <trkpt lat="47.16534" lon="-1.48653">
        <ele>59</ele>
        <time>2021-08-29T10:41:46.000Z</time>
      </trkpt>
      <trkpt lat="47.16531" lon="-1.48673">
        <ele>60</ele>
        <time>2021-08-29T10:41:48.000Z</time>
      </trkpt>
      <trkpt lat="47.16528" lon="-1.48693">
        <ele>60</ele>
        <time>2021-08-29T10:41:50.000Z</time>
      </trkpt>
      <trkpt lat="47.16525" lon="-1.48713">
        <ele>61</ele>
        <time>2021-08-29T10:41:52.000Z</time>
      </trkpt>
      <trkpt lat="47.16522" lon="-1.48732">
        <ele>60</ele>
        <time>2021-08-29T10:41:54.000Z</time>
      </trkpt>
      <trkpt lat="47.16521" lon="-1.48751">
        <ele>59</ele>
        <time>2021-08-29T10:41:56.000Z</time>
      </trkpt>
      <trkpt lat="47.16525" lon="-1.48771">
        <ele>59</ele>
        <time>2021-08-29T10:41:58.000Z</time>
      </trkpt>
      <trkpt lat="47.16534" lon="-1.48789">
        <ele>58</ele>
        <time>2021-08-29T10:42:00.000Z</time>
      </trkpt>
      <trkpt lat="47.16544" lon="-1.48809">
        <ele>56</ele>
        <time>2021-08-29T10:42:02.000Z</time>
      </trkpt>
      <trkpt lat="47.16555" lon="-1.4883">
        <ele>55</ele>
        <time>2021-08-29T10:42:04.000Z</time>
      </trkpt>
      <trkpt lat="47.1656" lon="-1.48841">
        <ele>55</ele>
        <time>2021-08-29T10:42:05.000Z</time>
      </trkpt>
      <trkpt lat="47.16565" lon="-1.48852">
        <ele>54</ele>
        <time>2021-08-29T10:42:06.000Z</time>
      </trkpt>
      <trkpt lat="47.1657" lon="-1.48863">
        <ele>54</ele>
        <time>2021-08-29T10:42:07.000Z</time>
      </trkpt>
      <trkpt lat="47.1658" lon="-1.48886">
        <ele>54</ele>
        <time>2021-08-29T10:42:09.000Z</time>
      </trkpt>
      <trkpt lat="47.16584" lon="-1.48897">
        <ele>54</ele>
        <time>2021-08-29T10:42:10.000Z</time>
      </trkpt>
      <trkpt lat="47.16588" lon="-1.48909">
        <ele>54</ele>
        <time>2021-08-29T10:42:11.000Z</time>
      </trkpt>
      <trkpt lat="47.16595" lon="-1.48933">
        <ele>54</ele>
        <time>2021-08-29T10:42:13.000Z</time>
      </trkpt>
      <trkpt lat="47.166" lon="-1.48957">
        <ele>53</ele>
        <time>2021-08-29T10:42:15.000Z</time>
      </trkpt>
      <trkpt lat="47.16605" lon="-1.48979">
        <ele>53</ele>
        <time>2021-08-29T10:42:17.000Z</time>
      </trkpt>
      <trkpt lat="47.16609" lon="-1.49">
        <ele>54</ele>
        <time>2021-08-29T10:42:19.000Z</time>
      </trkpt>
      <trkpt lat="47.16611" lon="-1.49019">
        <ele>54</ele>
        <time>2021-08-29T10:42:21.000Z</time>
      </trkpt>
      <trkpt lat="47.1661" lon="-1.49037">
        <ele>55</ele>
        <time>2021-08-29T10:42:23.000Z</time>
      </trkpt>
      <trkpt lat="47.16607" lon="-1.49057">
        <ele>55</ele>
        <time>2021-08-29T10:42:25.000Z</time>
      </trkpt>
      <trkpt lat="47.16602" lon="-1.49076">
        <ele>56</ele>
        <time>2021-08-29T10:42:27.000Z</time>
      </trkpt>
      <trkpt lat="47.16593" lon="-1.49096">
        <ele>57</ele>
        <time>2021-08-29T10:42:29.000Z</time>
      </trkpt>
      <trkpt lat="47.16582" lon="-1.49112">
        <ele>58</ele>
        <time>2021-08-29T10:42:31.000Z</time>
      </trkpt>
      <trkpt lat="47.16572" lon="-1.49128">
        <ele>59</ele>
        <time>2021-08-29T10:42:33.000Z</time>
      </trkpt>
      <trkpt lat="47.16562" lon="-1.49143">
        <ele>59</ele>
        <time>2021-08-29T10:42:35.000Z</time>
      </trkpt>
      <trkpt lat="47.16553" lon="-1.49161">
        <ele>59</ele>
        <time>2021-08-29T10:42:37.000Z</time>
      </trkpt>
      <trkpt lat="47.16546" lon="-1.49179">
        <ele>59</ele>
        <time>2021-08-29T10:42:39.000Z</time>
      </trkpt>
      <trkpt lat="47.16541" lon="-1.49198">
        <ele>59</ele>
        <time>2021-08-29T10:42:41.000Z</time>
      </trkpt>
      <trkpt lat="47.16538" lon="-1.49218">
        <ele>59</ele>
        <time>2021-08-29T10:42:43.000Z</time>
      </trkpt>
      <trkpt lat="47.16539" lon="-1.49239">
        <ele>59</ele>
        <time>2021-08-29T10:42:45.000Z</time>
      </trkpt>
      <trkpt lat="47.16541" lon="-1.49258">
        <ele>59</ele>
        <time>2021-08-29T10:42:47.000Z</time>
      </trkpt>
      <trkpt lat="47.16544" lon="-1.49277">
        <ele>59</ele>
        <time>2021-08-29T10:42:49.000Z</time>
      </trkpt>
      <trkpt lat="47.16549" lon="-1.49296">
        <ele>59</ele>
        <time>2021-08-29T10:42:51.000Z</time>
      </trkpt>
      <trkpt lat="47.16556" lon="-1.49314">
        <ele>59</ele>
        <time>2021-08-29T10:42:53.000Z</time>
      </trkpt>
      <trkpt lat="47.16561" lon="-1.49332">
        <ele>59</ele>
        <time>2021-08-29T10:42:55.000Z</time>
      </trkpt>
      <trkpt lat="47.16568" lon="-1.49349">
        <ele>59</ele>
        <time>2021-08-29T10:42:57.000Z</time>
      </trkpt>
      <trkpt lat="47.16574" lon="-1.49366">
        <ele>59</ele>
        <time>2021-08-29T10:42:59.000Z</time>
      </trkpt>
      <trkpt lat="47.16579" lon="-1.49383">
        <ele>59</ele>
        <time>2021-08-29T10:43:01.000Z</time>
      </trkpt>
      <trkpt lat="47.16584" lon="-1.49401">
        <ele>59</ele>
        <time>2021-08-29T10:43:03.000Z</time>
      </trkpt>
      <trkpt lat="47.16589" lon="-1.49418">
        <ele>60</ele>
        <time>2021-08-29T10:43:05.000Z</time>
      </trkpt>
      <trkpt lat="47.16595" lon="-1.49435">
        <ele>60</ele>
        <time>2021-08-29T10:43:07.000Z</time>
      </trkpt>
      <trkpt lat="47.16602" lon="-1.49451">
        <ele>61</ele>
        <time>2021-08-29T10:43:09.000Z</time>
      </trkpt>
      <trkpt lat="47.16608" lon="-1.49469">
        <ele>61</ele>
        <time>2021-08-29T10:43:11.000Z</time>
      </trkpt>
      <trkpt lat="47.16614" lon="-1.49486">
        <ele>61</ele>
        <time>2021-08-29T10:43:13.000Z</time>
      </trkpt>
      <trkpt lat="47.1662" lon="-1.49503">
        <ele>61</ele>
        <time>2021-08-29T10:43:15.000Z</time>
      </trkpt>
      <trkpt lat="47.16626" lon="-1.49521">
        <ele>61</ele>
        <time>2021-08-29T10:43:17.000Z</time>
      </trkpt>
      <trkpt lat="47.16631" lon="-1.49537">
        <ele>62</ele>
        <time>2021-08-29T10:43:19.000Z</time>
      </trkpt>
      <trkpt lat="47.16636" lon="-1.49555">
        <ele>62</ele>
        <time>2021-08-29T10:43:21.000Z</time>
      </trkpt>
      <trkpt lat="47.16642" lon="-1.49571">
        <ele>63</ele>
        <time>2021-08-29T10:43:23.000Z</time>
      </trkpt>
      <trkpt lat="47.1665" lon="-1.49587">
        <ele>63</ele>
        <time>2021-08-29T10:43:25.000Z</time>
      </trkpt>
      <trkpt lat="47.16657" lon="-1.49602">
        <ele>64</ele>
        <time>2021-08-29T10:43:27.000Z</time>
      </trkpt>
      <trkpt lat="47.16662" lon="-1.49619">
        <ele>64</ele>
        <time>2021-08-29T10:43:29.000Z</time>
      </trkpt>
      <trkpt lat="47.16665" lon="-1.49638">
        <ele>64</ele>
        <time>2021-08-29T10:43:31.000Z</time>
      </trkpt>
      <trkpt lat="47.16669" lon="-1.49657">
        <ele>64</ele>
        <time>2021-08-29T10:43:33.000Z</time>
      </trkpt>
      <trkpt lat="47.16674" lon="-1.49676">
        <ele>65</ele>
        <time>2021-08-29T10:43:35.000Z</time>
      </trkpt>
      <trkpt lat="47.16681" lon="-1.49694">
        <ele>65</ele>
        <time>2021-08-29T10:43:37.000Z</time>
      </trkpt>
      <trkpt lat="47.16687" lon="-1.49712">
        <ele>65</ele>
        <time>2021-08-29T10:43:39.000Z</time>
      </trkpt>
      <trkpt lat="47.16693" lon="-1.49728">
        <ele>65</ele>
        <time>2021-08-29T10:43:41.000Z</time>
      </trkpt>
      <trkpt lat="47.167" lon="-1.49744">
        <ele>65</ele>
        <time>2021-08-29T10:43:43.000Z</time>
      </trkpt>
      <trkpt lat="47.16707" lon="-1.49761">
        <ele>65</ele>
        <time>2021-08-29T10:43:45.000Z</time>
      </trkpt>
      <trkpt lat="47.16714" lon="-1.49777">
        <ele>66</ele>
        <time>2021-08-29T10:43:47.000Z</time>
      </trkpt>
      <trkpt lat="47.16722" lon="-1.49793">
        <ele>66</ele>
        <time>2021-08-29T10:43:49.000Z</time>
      </trkpt>
      <trkpt lat="47.16728" lon="-1.49809">
        <ele>66</ele>
        <time>2021-08-29T10:43:51.000Z</time>
      </trkpt>
      <trkpt lat="47.16735" lon="-1.49826">
        <ele>65</ele>
        <time>2021-08-29T10:43:53.000Z</time>
      </trkpt>
      <trkpt lat="47.16742" lon="-1.49842">
        <ele>65</ele>
        <time>2021-08-29T10:43:55.000Z</time>
      </trkpt>
      <trkpt lat="47.16748" lon="-1.49858">
        <ele>66</ele>
        <time>2021-08-29T10:43:57.000Z</time>
      </trkpt>
      <trkpt lat="47.16754" lon="-1.49875">
        <ele>66</ele>
        <time>2021-08-29T10:43:59.000Z</time>
      </trkpt>
      <trkpt lat="47.1676" lon="-1.49891">
        <ele>66</ele>
        <time>2021-08-29T10:44:01.000Z</time>
      </trkpt>
      <trkpt lat="47.16765" lon="-1.49908">
        <ele>65</ele>
        <time>2021-08-29T10:44:03.000Z</time>
      </trkpt>
      <trkpt lat="47.1677" lon="-1.49926">
        <ele>65</ele>
        <time>2021-08-29T10:44:05.000Z</time>
      </trkpt>
      <trkpt lat="47.16775" lon="-1.49944">
        <ele>65</ele>
        <time>2021-08-29T10:44:07.000Z</time>
      </trkpt>
      <trkpt lat="47.1678" lon="-1.49962">
        <ele>64</ele>
        <time>2021-08-29T10:44:09.000Z</time>
      </trkpt>
      <trkpt lat="47.16785" lon="-1.4998">
        <ele>64</ele>
        <time>2021-08-29T10:44:11.000Z</time>
      </trkpt>
      <trkpt lat="47.1679" lon="-1.49999">
        <ele>64</ele>
        <time>2021-08-29T10:44:13.000Z</time>
      </trkpt>
      <trkpt lat="47.16795" lon="-1.50018">
        <ele>63</ele>
        <time>2021-08-29T10:44:15.000Z</time>
      </trkpt>
      <trkpt lat="47.168" lon="-1.50037">
        <ele>63</ele>
        <time>2021-08-29T10:44:17.000Z</time>
      </trkpt>
      <trkpt lat="47.16805" lon="-1.50057">
        <ele>63</ele>
        <time>2021-08-29T10:44:19.000Z</time>
      </trkpt>
      <trkpt lat="47.1681" lon="-1.50076">
        <ele>63</ele>
        <time>2021-08-29T10:44:21.000Z</time>
      </trkpt>
      <trkpt lat="47.16815" lon="-1.50095">
        <ele>64</ele>
        <time>2021-08-29T10:44:23.000Z</time>
      </trkpt>
      <trkpt lat="47.16821" lon="-1.50113">
        <ele>63</ele>
        <time>2021-08-29T10:44:25.000Z</time>
      </trkpt>
      <trkpt lat="47.16829" lon="-1.50128">
        <ele>63</ele>
        <time>2021-08-29T10:44:27.000Z</time>
      </trkpt>
      <trkpt lat="47.1683" lon="-1.50148">
        <ele>62</ele>
        <time>2021-08-29T10:44:29.000Z</time>
      </trkpt>
      <trkpt lat="47.16834" lon="-1.50168">
        <ele>61</ele>
        <time>2021-08-29T10:44:31.000Z</time>
      </trkpt>
      <trkpt lat="47.16839" lon="-1.5019">
        <ele>61</ele>
        <time>2021-08-29T10:44:33.000Z</time>
      </trkpt>
      <trkpt lat="47.16845" lon="-1.50212">
        <ele>60</ele>
        <time>2021-08-29T10:44:35.000Z</time>
      </trkpt>
      <trkpt lat="47.16851" lon="-1.50234">
        <ele>60</ele>
        <time>2021-08-29T10:44:37.000Z</time>
      </trkpt>
      <trkpt lat="47.1686" lon="-1.50257">
        <ele>60</ele>
        <time>2021-08-29T10:44:39.000Z</time>
      </trkpt>
      <trkpt lat="47.1687" lon="-1.50279">
        <ele>60</ele>
        <time>2021-08-29T10:44:41.000Z</time>
      </trkpt>
      <trkpt lat="47.16875" lon="-1.5029">
        <ele>59</ele>
        <time>2021-08-29T10:44:42.000Z</time>
      </trkpt>
      <trkpt lat="47.1688" lon="-1.50302">
        <ele>59</ele>
        <time>2021-08-29T10:44:43.000Z</time>
      </trkpt>
      <trkpt lat="47.16885" lon="-1.50313">
        <ele>59</ele>
        <time>2021-08-29T10:44:44.000Z</time>
      </trkpt>
      <trkpt lat="47.1689" lon="-1.50324">
        <ele>59</ele>
        <time>2021-08-29T10:44:45.000Z</time>
      </trkpt>
      <trkpt lat="47.169" lon="-1.50346">
        <ele>60</ele>
        <time>2021-08-29T10:44:47.000Z</time>
      </trkpt>
      <trkpt lat="47.16909" lon="-1.50366">
        <ele>60</ele>
        <time>2021-08-29T10:44:49.000Z</time>
      </trkpt>
      <trkpt lat="47.16916" lon="-1.50384">
        <ele>60</ele>
        <time>2021-08-29T10:44:51.000Z</time>
      </trkpt>
      <trkpt lat="47.16922" lon="-1.50402">
        <ele>60</ele>
        <time>2021-08-29T10:44:53.000Z</time>
      </trkpt>
      <trkpt lat="47.16927" lon="-1.50419">
        <ele>60</ele>
        <time>2021-08-29T10:44:55.000Z</time>
      </trkpt>
      <trkpt lat="47.16932" lon="-1.50436">
        <ele>60</ele>
        <time>2021-08-29T10:44:57.000Z</time>
      </trkpt>
      <trkpt lat="47.16935" lon="-1.50453">
        <ele>61</ele>
        <time>2021-08-29T10:44:59.000Z</time>
      </trkpt>
      <trkpt lat="47.16939" lon="-1.5047">
        <ele>61</ele>
        <time>2021-08-29T10:45:01.000Z</time>
      </trkpt>
      <trkpt lat="47.16942" lon="-1.50488">
        <ele>61</ele>
        <time>2021-08-29T10:45:03.000Z</time>
      </trkpt>
      <trkpt lat="47.16945" lon="-1.50504">
        <ele>61</ele>
        <time>2021-08-29T10:45:05.000Z</time>
      </trkpt>
      <trkpt lat="47.16949" lon="-1.5052">
        <ele>61</ele>
        <time>2021-08-29T10:45:07.000Z</time>
      </trkpt>
      <trkpt lat="47.16952" lon="-1.50537">
        <ele>61</ele>
        <time>2021-08-29T10:45:09.000Z</time>
      </trkpt>
      <trkpt lat="47.16955" lon="-1.50553">
        <ele>61</ele>
        <time>2021-08-29T10:45:11.000Z</time>
      </trkpt>
      <trkpt lat="47.16959" lon="-1.50569">
        <ele>62</ele>
        <time>2021-08-29T10:45:13.000Z</time>
      </trkpt>
      <trkpt lat="47.16962" lon="-1.50584">
        <ele>63</ele>
        <time>2021-08-29T10:45:15.000Z</time>
      </trkpt>
      <trkpt lat="47.16965" lon="-1.50599">
        <ele>63</ele>
        <time>2021-08-29T10:45:17.000Z</time>
      </trkpt>
      <trkpt lat="47.16968" lon="-1.50615">
        <ele>64</ele>
        <time>2021-08-29T10:45:19.000Z</time>
      </trkpt>
      <trkpt lat="47.16971" lon="-1.50631">
        <ele>65</ele>
        <time>2021-08-29T10:45:21.000Z</time>
      </trkpt>
      <trkpt lat="47.16974" lon="-1.50646">
        <ele>66</ele>
        <time>2021-08-29T10:45:23.000Z</time>
      </trkpt>
      <trkpt lat="47.16977" lon="-1.50661">
        <ele>67</ele>
        <time>2021-08-29T10:45:25.000Z</time>
      </trkpt>
      <trkpt lat="47.16982" lon="-1.50676">
        <ele>67</ele>
        <time>2021-08-29T10:45:27.000Z</time>
      </trkpt>
      <trkpt lat="47.16987" lon="-1.5069">
        <ele>67</ele>
        <time>2021-08-29T10:45:29.000Z</time>
      </trkpt>
      <trkpt lat="47.16993" lon="-1.50704">
        <ele>67</ele>
        <time>2021-08-29T10:45:31.000Z</time>
      </trkpt>
      <trkpt lat="47.17" lon="-1.50715">
        <ele>67</ele>
        <time>2021-08-29T10:45:33.000Z</time>
      </trkpt>
      <trkpt lat="47.17008" lon="-1.50727">
        <ele>67</ele>
        <time>2021-08-29T10:45:35.000Z</time>
      </trkpt>
      <trkpt lat="47.17017" lon="-1.50737">
        <ele>68</ele>
        <time>2021-08-29T10:45:37.000Z</time>
      </trkpt>
      <trkpt lat="47.17027" lon="-1.50746">
        <ele>68</ele>
        <time>2021-08-29T10:45:39.000Z</time>
      </trkpt>
      <trkpt lat="47.17036" lon="-1.50754">
        <ele>68</ele>
        <time>2021-08-29T10:45:41.000Z</time>
      </trkpt>
      <trkpt lat="47.17045" lon="-1.50763">
        <ele>68</ele>
        <time>2021-08-29T10:45:43.000Z</time>
      </trkpt>
      <trkpt lat="47.17053" lon="-1.50772">
        <ele>68</ele>
        <time>2021-08-29T10:45:45.000Z</time>
      </trkpt>
      <trkpt lat="47.17062" lon="-1.50781">
        <ele>69</ele>
        <time>2021-08-29T10:45:47.000Z</time>
      </trkpt>
      <trkpt lat="47.1707" lon="-1.50792">
        <ele>68</ele>
        <time>2021-08-29T10:45:49.000Z</time>
      </trkpt>
      <trkpt lat="47.17077" lon="-1.50803">
        <ele>69</ele>
        <time>2021-08-29T10:45:51.000Z</time>
      </trkpt>
      <trkpt lat="47.17084" lon="-1.50816">
        <ele>69</ele>
        <time>2021-08-29T10:45:53.000Z</time>
      </trkpt>
      <trkpt lat="47.1709" lon="-1.50828">
        <ele>69</ele>
        <time>2021-08-29T10:45:55.000Z</time>
      </trkpt>
      <trkpt lat="47.17097" lon="-1.5084">
        <ele>69</ele>
        <time>2021-08-29T10:45:57.000Z</time>
      </trkpt>
      <trkpt lat="47.17104" lon="-1.50851">
        <ele>69</ele>
        <time>2021-08-29T10:45:59.000Z</time>
      </trkpt>
      <trkpt lat="47.17113" lon="-1.50872">
        <ele>68</ele>
        <time>2021-08-29T10:46:02.000Z</time>
      </trkpt>
      <trkpt lat="47.17119" lon="-1.50887">
        <ele>68</ele>
        <time>2021-08-29T10:46:04.000Z</time>
      </trkpt>
      <trkpt lat="47.17126" lon="-1.50901">
        <ele>68</ele>
        <time>2021-08-29T10:46:06.000Z</time>
      </trkpt>
      <trkpt lat="47.17132" lon="-1.50915">
        <ele>68</ele>
        <time>2021-08-29T10:46:08.000Z</time>
      </trkpt>
      <trkpt lat="47.17139" lon="-1.50929">
        <ele>68</ele>
        <time>2021-08-29T10:46:10.000Z</time>
      </trkpt>
      <trkpt lat="47.17148" lon="-1.50952">
        <ele>68</ele>
        <time>2021-08-29T10:46:13.000Z</time>
      </trkpt>
      <trkpt lat="47.17154" lon="-1.50968">
        <ele>68</ele>
        <time>2021-08-29T10:46:15.000Z</time>
      </trkpt>
      <trkpt lat="47.17165" lon="-1.50992">
        <ele>68</ele>
        <time>2021-08-29T10:46:18.000Z</time>
      </trkpt>
      <trkpt lat="47.17171" lon="-1.51011">
        <ele>68</ele>
        <time>2021-08-29T10:46:20.000Z</time>
      </trkpt>
      <trkpt lat="47.17176" lon="-1.51031">
        <ele>68</ele>
        <time>2021-08-29T10:46:22.000Z</time>
      </trkpt>
      <trkpt lat="47.17182" lon="-1.51049">
        <ele>68</ele>
        <time>2021-08-29T10:46:24.000Z</time>
      </trkpt>
      <trkpt lat="47.17189" lon="-1.51068">
        <ele>68</ele>
        <time>2021-08-29T10:46:26.000Z</time>
      </trkpt>
      <trkpt lat="47.17196" lon="-1.51085">
        <ele>68</ele>
        <time>2021-08-29T10:46:28.000Z</time>
      </trkpt>
      <trkpt lat="47.17204" lon="-1.51102">
        <ele>68</ele>
        <time>2021-08-29T10:46:30.000Z</time>
      </trkpt>
      <trkpt lat="47.17212" lon="-1.51119">
        <ele>69</ele>
        <time>2021-08-29T10:46:32.000Z</time>
      </trkpt>
      <trkpt lat="47.17221" lon="-1.51137">
        <ele>68</ele>
        <time>2021-08-29T10:46:34.000Z</time>
      </trkpt>
      <trkpt lat="47.1723" lon="-1.51153">
        <ele>69</ele>
        <time>2021-08-29T10:46:36.000Z</time>
      </trkpt>
      <trkpt lat="47.17239" lon="-1.51167">
        <ele>69</ele>
        <time>2021-08-29T10:46:38.000Z</time>
      </trkpt>
      <trkpt lat="47.17248" lon="-1.51181">
        <ele>70</ele>
        <time>2021-08-29T10:46:40.000Z</time>
      </trkpt>
      <trkpt lat="47.17257" lon="-1.51195">
        <ele>69</ele>
        <time>2021-08-29T10:46:42.000Z</time>
      </trkpt>
      <trkpt lat="47.17267" lon="-1.51208">
        <ele>70</ele>
        <time>2021-08-29T10:46:44.000Z</time>
      </trkpt>
      <trkpt lat="47.17277" lon="-1.51223">
        <ele>70</ele>
        <time>2021-08-29T10:46:46.000Z</time>
      </trkpt>
      <trkpt lat="47.17287" lon="-1.51237">
        <ele>70</ele>
        <time>2021-08-29T10:46:48.000Z</time>
      </trkpt>
      <trkpt lat="47.17298" lon="-1.51249">
        <ele>70</ele>
        <time>2021-08-29T10:46:50.000Z</time>
      </trkpt>
      <trkpt lat="47.17308" lon="-1.5126">
        <ele>70</ele>
        <time>2021-08-29T10:46:52.000Z</time>
      </trkpt>
      <trkpt lat="47.17319" lon="-1.5127">
        <ele>71</ele>
        <time>2021-08-29T10:46:54.000Z</time>
      </trkpt>
      <trkpt lat="47.1733" lon="-1.51276">
        <ele>71</ele>
        <time>2021-08-29T10:46:56.000Z</time>
      </trkpt>
      <trkpt lat="47.17342" lon="-1.51279">
        <ele>71</ele>
        <time>2021-08-29T10:46:58.000Z</time>
      </trkpt>
      <trkpt lat="47.17354" lon="-1.51282">
        <ele>72</ele>
        <time>2021-08-29T10:47:00.000Z</time>
      </trkpt>
      <trkpt lat="47.17366" lon="-1.51286">
        <ele>72</ele>
        <time>2021-08-29T10:47:02.000Z</time>
      </trkpt>
      <trkpt lat="47.17379" lon="-1.51288">
        <ele>72</ele>
        <time>2021-08-29T10:47:04.000Z</time>
      </trkpt>
      <trkpt lat="47.17391" lon="-1.5129">
        <ele>72</ele>
        <time>2021-08-29T10:47:06.000Z</time>
      </trkpt>
      <trkpt lat="47.17403" lon="-1.51293">
        <ele>72</ele>
        <time>2021-08-29T10:47:08.000Z</time>
      </trkpt>
      <trkpt lat="47.17414" lon="-1.51298">
        <ele>72</ele>
        <time>2021-08-29T10:47:10.000Z</time>
      </trkpt>
      <trkpt lat="47.17425" lon="-1.51304">
        <ele>72</ele>
        <time>2021-08-29T10:47:12.000Z</time>
      </trkpt>
      <trkpt lat="47.17435" lon="-1.51311">
        <ele>72</ele>
        <time>2021-08-29T10:47:14.000Z</time>
      </trkpt>
      <trkpt lat="47.17444" lon="-1.51319">
        <ele>72</ele>
        <time>2021-08-29T10:47:16.000Z</time>
      </trkpt>
      <trkpt lat="47.17454" lon="-1.51328">
        <ele>72</ele>
        <time>2021-08-29T10:47:18.000Z</time>
      </trkpt>
      <trkpt lat="47.17464" lon="-1.51338">
        <ele>72</ele>
        <time>2021-08-29T10:47:20.000Z</time>
      </trkpt>
      <trkpt lat="47.17472" lon="-1.5135">
        <ele>72</ele>
        <time>2021-08-29T10:47:22.000Z</time>
      </trkpt>
      <trkpt lat="47.1748" lon="-1.51363">
        <ele>72</ele>
        <time>2021-08-29T10:47:24.000Z</time>
      </trkpt>
      <trkpt lat="47.17487" lon="-1.51378">
        <ele>72</ele>
        <time>2021-08-29T10:47:26.000Z</time>
      </trkpt>
      <trkpt lat="47.17493" lon="-1.51393">
        <ele>72</ele>
        <time>2021-08-29T10:47:28.000Z</time>
      </trkpt>
      <trkpt lat="47.17498" lon="-1.5141">
        <ele>72</ele>
        <time>2021-08-29T10:47:30.000Z</time>
      </trkpt>
      <trkpt lat="47.17502" lon="-1.51428">
        <ele>72</ele>
        <time>2021-08-29T10:47:32.000Z</time>
      </trkpt>
      <trkpt lat="47.17506" lon="-1.51445">
        <ele>73</ele>
        <time>2021-08-29T10:47:34.000Z</time>
      </trkpt>
      <trkpt lat="47.17508" lon="-1.51462">
        <ele>73</ele>
        <time>2021-08-29T10:47:36.000Z</time>
      </trkpt>
      <trkpt lat="47.17509" lon="-1.51481">
        <ele>74</ele>
        <time>2021-08-29T10:47:38.000Z</time>
      </trkpt>
      <trkpt lat="47.1751" lon="-1.51499">
        <ele>75</ele>
        <time>2021-08-29T10:47:40.000Z</time>
      </trkpt>
      <trkpt lat="47.1751" lon="-1.51517">
        <ele>75</ele>
        <time>2021-08-29T10:47:42.000Z</time>
      </trkpt>
      <trkpt lat="47.17511" lon="-1.51535">
        <ele>75</ele>
        <time>2021-08-29T10:47:44.000Z</time>
      </trkpt>
      <trkpt lat="47.17512" lon="-1.51554">
        <ele>74</ele>
        <time>2021-08-29T10:47:46.000Z</time>
      </trkpt>
      <trkpt lat="47.17513" lon="-1.51573">
        <ele>73</ele>
        <time>2021-08-29T10:47:48.000Z</time>
      </trkpt>
      <trkpt lat="47.17514" lon="-1.51593">
        <ele>73</ele>
        <time>2021-08-29T10:47:50.000Z</time>
      </trkpt>
      <trkpt lat="47.17515" lon="-1.51613">
        <ele>73</ele>
        <time>2021-08-29T10:47:52.000Z</time>
      </trkpt>
      <trkpt lat="47.17517" lon="-1.51634">
        <ele>73</ele>
        <time>2021-08-29T10:47:54.000Z</time>
      </trkpt>
      <trkpt lat="47.17519" lon="-1.51657">
        <ele>72</ele>
        <time>2021-08-29T10:47:56.000Z</time>
      </trkpt>
      <trkpt lat="47.17523" lon="-1.5168">
        <ele>72</ele>
        <time>2021-08-29T10:47:58.000Z</time>
      </trkpt>
      <trkpt lat="47.17529" lon="-1.51703">
        <ele>71</ele>
        <time>2021-08-29T10:48:00.000Z</time>
      </trkpt>
      <trkpt lat="47.17535" lon="-1.51725">
        <ele>70</ele>
        <time>2021-08-29T10:48:02.000Z</time>
      </trkpt>
      <trkpt lat="47.17543" lon="-1.51748">
        <ele>70</ele>
        <time>2021-08-29T10:48:04.000Z</time>
      </trkpt>
      <trkpt lat="47.1755" lon="-1.51771">
        <ele>69</ele>
        <time>2021-08-29T10:48:06.000Z</time>
      </trkpt>
      <trkpt lat="47.17557" lon="-1.51795">
        <ele>69</ele>
        <time>2021-08-29T10:48:08.000Z</time>
      </trkpt>
      <trkpt lat="47.17563" lon="-1.51817">
        <ele>69</ele>
        <time>2021-08-29T10:48:10.000Z</time>
      </trkpt>
      <trkpt lat="47.17571" lon="-1.51839">
        <ele>69</ele>
        <time>2021-08-29T10:48:12.000Z</time>
      </trkpt>
      <trkpt lat="47.17578" lon="-1.51862">
        <ele>68</ele>
        <time>2021-08-29T10:48:14.000Z</time>
      </trkpt>
      <trkpt lat="47.17586" lon="-1.51885">
        <ele>67</ele>
        <time>2021-08-29T10:48:16.000Z</time>
      </trkpt>
      <trkpt lat="47.17594" lon="-1.51908">
        <ele>66</ele>
        <time>2021-08-29T10:48:18.000Z</time>
      </trkpt>
      <trkpt lat="47.17598" lon="-1.5192">
        <ele>66</ele>
        <time>2021-08-29T10:48:19.000Z</time>
      </trkpt>
      <trkpt lat="47.17605" lon="-1.51943">
        <ele>66</ele>
        <time>2021-08-29T10:48:21.000Z</time>
      </trkpt>
      <trkpt lat="47.17613" lon="-1.51967">
        <ele>65</ele>
        <time>2021-08-29T10:48:23.000Z</time>
      </trkpt>
      <trkpt lat="47.17617" lon="-1.5198">
        <ele>64</ele>
        <time>2021-08-29T10:48:24.000Z</time>
      </trkpt>
      <trkpt lat="47.17621" lon="-1.51992">
        <ele>64</ele>
        <time>2021-08-29T10:48:25.000Z</time>
      </trkpt>
      <trkpt lat="47.17625" lon="-1.52004">
        <ele>63</ele>
        <time>2021-08-29T10:48:26.000Z</time>
      </trkpt>
      <trkpt lat="47.1763" lon="-1.52015">
        <ele>63</ele>
        <time>2021-08-29T10:48:27.000Z</time>
      </trkpt>
      <trkpt lat="47.17636" lon="-1.52026">
        <ele>62</ele>
        <time>2021-08-29T10:48:28.000Z</time>
      </trkpt>
      <trkpt lat="47.17642" lon="-1.52037">
        <ele>62</ele>
        <time>2021-08-29T10:48:29.000Z</time>
      </trkpt>
      <trkpt lat="47.17648" lon="-1.52049">
        <ele>61</ele>
        <time>2021-08-29T10:48:30.000Z</time>
      </trkpt>
      <trkpt lat="47.17653" lon="-1.52061">
        <ele>61</ele>
        <time>2021-08-29T10:48:31.000Z</time>
      </trkpt>
      <trkpt lat="47.17659" lon="-1.52073">
        <ele>60</ele>
        <time>2021-08-29T10:48:32.000Z</time>
      </trkpt>
      <trkpt lat="47.17665" lon="-1.52085">
        <ele>60</ele>
        <time>2021-08-29T10:48:33.000Z</time>
      </trkpt>
      <trkpt lat="47.17671" lon="-1.52097">
        <ele>59</ele>
        <time>2021-08-29T10:48:34.000Z</time>
      </trkpt>
      <trkpt lat="47.17676" lon="-1.52109">
        <ele>58</ele>
        <time>2021-08-29T10:48:35.000Z</time>
      </trkpt>
      <trkpt lat="47.17682" lon="-1.52122">
        <ele>58</ele>
        <time>2021-08-29T10:48:36.000Z</time>
      </trkpt>
      <trkpt lat="47.17688" lon="-1.52132">
        <ele>57</ele>
        <time>2021-08-29T10:48:37.000Z</time>
      </trkpt>
      <trkpt lat="47.17695" lon="-1.52142">
        <ele>57</ele>
        <time>2021-08-29T10:48:38.000Z</time>
      </trkpt>
      <trkpt lat="47.17699" lon="-1.52154">
        <ele>56</ele>
        <time>2021-08-29T10:48:39.000Z</time>
      </trkpt>
      <trkpt lat="47.17703" lon="-1.52166">
        <ele>56</ele>
        <time>2021-08-29T10:48:40.000Z</time>
      </trkpt>
      <trkpt lat="47.17714" lon="-1.52186">
        <ele>55</ele>
        <time>2021-08-29T10:48:42.000Z</time>
      </trkpt>
      <trkpt lat="47.17723" lon="-1.52206">
        <ele>55</ele>
        <time>2021-08-29T10:48:44.000Z</time>
      </trkpt>
      <trkpt lat="47.17731" lon="-1.52225">
        <ele>56</ele>
        <time>2021-08-29T10:48:46.000Z</time>
      </trkpt>
      <trkpt lat="47.17737" lon="-1.52242">
        <ele>56</ele>
        <time>2021-08-29T10:48:48.000Z</time>
      </trkpt>
      <trkpt lat="47.17743" lon="-1.52258">
        <ele>56</ele>
        <time>2021-08-29T10:48:50.000Z</time>
      </trkpt>
      <trkpt lat="47.17749" lon="-1.52274">
        <ele>57</ele>
        <time>2021-08-29T10:48:52.000Z</time>
      </trkpt>
      <trkpt lat="47.17756" lon="-1.5229">
        <ele>57</ele>
        <time>2021-08-29T10:48:54.000Z</time>
      </trkpt>
      <trkpt lat="47.17762" lon="-1.52307">
        <ele>58</ele>
        <time>2021-08-29T10:48:56.000Z</time>
      </trkpt>
      <trkpt lat="47.17768" lon="-1.52322">
        <ele>58</ele>
        <time>2021-08-29T10:48:58.000Z</time>
      </trkpt>
      <trkpt lat="47.17773" lon="-1.52337">
        <ele>59</ele>
        <time>2021-08-29T10:49:00.000Z</time>
      </trkpt>
      <trkpt lat="47.17778" lon="-1.52351">
        <ele>59</ele>
        <time>2021-08-29T10:49:02.000Z</time>
      </trkpt>
      <trkpt lat="47.17784" lon="-1.52365">
        <ele>60</ele>
        <time>2021-08-29T10:49:04.000Z</time>
      </trkpt>
      <trkpt lat="47.1779" lon="-1.52379">
        <ele>61</ele>
        <time>2021-08-29T10:49:06.000Z</time>
      </trkpt>
      <trkpt lat="47.17795" lon="-1.52393">
        <ele>61</ele>
        <time>2021-08-29T10:49:08.000Z</time>
      </trkpt>
      <trkpt lat="47.17799" lon="-1.52407">
        <ele>62</ele>
        <time>2021-08-29T10:49:10.000Z</time>
      </trkpt>
      <trkpt lat="47.17805" lon="-1.5242">
        <ele>62</ele>
        <time>2021-08-29T10:49:12.000Z</time>
      </trkpt>
      <trkpt lat="47.17811" lon="-1.52434">
        <ele>62</ele>
        <time>2021-08-29T10:49:14.000Z</time>
      </trkpt>
      <trkpt lat="47.17816" lon="-1.52449">
        <ele>62</ele>
        <time>2021-08-29T10:49:16.000Z</time>
      </trkpt>
      <trkpt lat="47.17822" lon="-1.52464">
        <ele>62</ele>
        <time>2021-08-29T10:49:18.000Z</time>
      </trkpt>
      <trkpt lat="47.17827" lon="-1.52478">
        <ele>63</ele>
        <time>2021-08-29T10:49:20.000Z</time>
      </trkpt>
      <trkpt lat="47.17831" lon="-1.52493">
        <ele>64</ele>
        <time>2021-08-29T10:49:22.000Z</time>
      </trkpt>
      <trkpt lat="47.17833" lon="-1.52509">
        <ele>64</ele>
        <time>2021-08-29T10:49:24.000Z</time>
      </trkpt>
      <trkpt lat="47.17836" lon="-1.52524">
        <ele>64</ele>
        <time>2021-08-29T10:49:26.000Z</time>
      </trkpt>
      <trkpt lat="47.1784" lon="-1.5254">
        <ele>64</ele>
        <time>2021-08-29T10:49:28.000Z</time>
      </trkpt>
      <trkpt lat="47.17842" lon="-1.52556">
        <ele>64</ele>
        <time>2021-08-29T10:49:30.000Z</time>
      </trkpt>
      <trkpt lat="47.17845" lon="-1.52573">
        <ele>64</ele>
        <time>2021-08-29T10:49:32.000Z</time>
      </trkpt>
      <trkpt lat="47.17848" lon="-1.52589">
        <ele>64</ele>
        <time>2021-08-29T10:49:34.000Z</time>
      </trkpt>
      <trkpt lat="47.17851" lon="-1.52604">
        <ele>65</ele>
        <time>2021-08-29T10:49:36.000Z</time>
      </trkpt>
      <trkpt lat="47.17854" lon="-1.52621">
        <ele>65</ele>
        <time>2021-08-29T10:49:38.000Z</time>
      </trkpt>
      <trkpt lat="47.17857" lon="-1.52637">
        <ele>65</ele>
        <time>2021-08-29T10:49:40.000Z</time>
      </trkpt>
      <trkpt lat="47.17861" lon="-1.52652">
        <ele>65</ele>
        <time>2021-08-29T10:49:42.000Z</time>
      </trkpt>
      <trkpt lat="47.17864" lon="-1.52667">
        <ele>66</ele>
        <time>2021-08-29T10:49:44.000Z</time>
      </trkpt>
      <trkpt lat="47.17866" lon="-1.52683">
        <ele>65</ele>
        <time>2021-08-29T10:49:46.000Z</time>
      </trkpt>
      <trkpt lat="47.17869" lon="-1.52698">
        <ele>66</ele>
        <time>2021-08-29T10:49:48.000Z</time>
      </trkpt>
      <trkpt lat="47.17869" lon="-1.52715">
        <ele>66</ele>
        <time>2021-08-29T10:49:50.000Z</time>
      </trkpt>
      <trkpt lat="47.17869" lon="-1.52733">
        <ele>65</ele>
        <time>2021-08-29T10:49:52.000Z</time>
      </trkpt>
      <trkpt lat="47.17869" lon="-1.52752">
        <ele>65</ele>
        <time>2021-08-29T10:49:54.000Z</time>
      </trkpt>
      <trkpt lat="47.17868" lon="-1.52772">
        <ele>64</ele>
        <time>2021-08-29T10:49:56.000Z</time>
      </trkpt>
      <trkpt lat="47.1787" lon="-1.52792">
        <ele>64</ele>
        <time>2021-08-29T10:49:58.000Z</time>
      </trkpt>
      <trkpt lat="47.17876" lon="-1.52804">
        <ele>64</ele>
        <time>2021-08-29T10:50:00.000Z</time>
      </trkpt>
      <trkpt lat="47.17885" lon="-1.52811">
        <ele>63</ele>
        <time>2021-08-29T10:50:02.000Z</time>
      </trkpt>
      <trkpt lat="47.17893" lon="-1.52821">
        <ele>63</ele>
        <time>2021-08-29T10:50:04.000Z</time>
      </trkpt>
      <trkpt lat="47.17893" lon="-1.52837">
        <ele>62</ele>
        <time>2021-08-29T10:50:06.000Z</time>
      </trkpt>
      <trkpt lat="47.17888" lon="-1.52853">
        <ele>62</ele>
        <time>2021-08-29T10:50:08.000Z</time>
      </trkpt>
      <trkpt lat="47.17882" lon="-1.52867">
        <ele>61</ele>
        <time>2021-08-29T10:50:10.000Z</time>
      </trkpt>
      <trkpt lat="47.17874" lon="-1.5288">
        <ele>61</ele>
        <time>2021-08-29T10:50:12.000Z</time>
      </trkpt>
      <trkpt lat="47.17866" lon="-1.52891">
        <ele>60</ele>
        <time>2021-08-29T10:50:14.000Z</time>
      </trkpt>
      <trkpt lat="47.17858" lon="-1.52902">
        <ele>61</ele>
        <time>2021-08-29T10:50:16.000Z</time>
      </trkpt>
      <trkpt lat="47.1785" lon="-1.52912">
        <ele>61</ele>
        <time>2021-08-29T10:50:18.000Z</time>
      </trkpt>
      <trkpt lat="47.17841" lon="-1.52921">
        <ele>61</ele>
        <time>2021-08-29T10:50:20.000Z</time>
      </trkpt>
      <trkpt lat="47.17832" lon="-1.52929">
        <ele>61</ele>
        <time>2021-08-29T10:50:22.000Z</time>
      </trkpt>
      <trkpt lat="47.17823" lon="-1.52937">
        <ele>62</ele>
        <time>2021-08-29T10:50:24.000Z</time>
      </trkpt>
      <trkpt lat="47.17813" lon="-1.52944">
        <ele>62</ele>
        <time>2021-08-29T10:50:26.000Z</time>
      </trkpt>
      <trkpt lat="47.17805" lon="-1.52953">
        <ele>63</ele>
        <time>2021-08-29T10:50:28.000Z</time>
      </trkpt>
      <trkpt lat="47.17809" lon="-1.52971">
        <ele>62</ele>
        <time>2021-08-29T10:50:31.000Z</time>
      </trkpt>
      <trkpt lat="47.17817" lon="-1.52984">
        <ele>63</ele>
        <time>2021-08-29T10:50:33.000Z</time>
      </trkpt>
      <trkpt lat="47.17823" lon="-1.52998">
        <ele>65</ele>
        <time>2021-08-29T10:50:35.000Z</time>
      </trkpt>
      <trkpt lat="47.1783" lon="-1.53013">
        <ele>65</ele>
        <time>2021-08-29T10:50:37.000Z</time>
      </trkpt>
      <trkpt lat="47.17838" lon="-1.53027">
        <ele>66</ele>
        <time>2021-08-29T10:50:39.000Z</time>
      </trkpt>
      <trkpt lat="47.17846" lon="-1.53039">
        <ele>66</ele>
        <time>2021-08-29T10:50:41.000Z</time>
      </trkpt>
      <trkpt lat="47.17853" lon="-1.53051">
        <ele>67</ele>
        <time>2021-08-29T10:50:43.000Z</time>
      </trkpt>
      <trkpt lat="47.17859" lon="-1.53062">
        <ele>67</ele>
        <time>2021-08-29T10:50:45.000Z</time>
      </trkpt>
      <trkpt lat="47.17866" lon="-1.53071">
        <ele>67</ele>
        <time>2021-08-29T10:50:47.000Z</time>
      </trkpt>
      <trkpt lat="47.17873" lon="-1.53081">
        <ele>68</ele>
        <time>2021-08-29T10:50:49.000Z</time>
      </trkpt>
      <trkpt lat="47.17883" lon="-1.5309">
        <ele>68</ele>
        <time>2021-08-29T10:50:51.000Z</time>
      </trkpt>
      <trkpt lat="47.17888" lon="-1.53104">
        <ele>68</ele>
        <time>2021-08-29T10:50:53.000Z</time>
      </trkpt>
      <trkpt lat="47.17892" lon="-1.53119">
        <ele>68</ele>
        <time>2021-08-29T10:50:55.000Z</time>
      </trkpt>
      <trkpt lat="47.17897" lon="-1.53131">
        <ele>69</ele>
        <time>2021-08-29T10:50:57.000Z</time>
      </trkpt>
      <trkpt lat="47.17903" lon="-1.53144">
        <ele>69</ele>
        <time>2021-08-29T10:50:59.000Z</time>
      </trkpt>
      <trkpt lat="47.17909" lon="-1.53155">
        <ele>69</ele>
        <time>2021-08-29T10:51:01.000Z</time>
      </trkpt>
      <trkpt lat="47.17916" lon="-1.53165">
        <ele>68</ele>
        <time>2021-08-29T10:51:03.000Z</time>
      </trkpt>
      <trkpt lat="47.17923" lon="-1.53175">
        <ele>68</ele>
        <time>2021-08-29T10:51:05.000Z</time>
      </trkpt>
      <trkpt lat="47.17931" lon="-1.53186">
        <ele>68</ele>
        <time>2021-08-29T10:51:07.000Z</time>
      </trkpt>
      <trkpt lat="47.17938" lon="-1.53196">
        <ele>68</ele>
        <time>2021-08-29T10:51:09.000Z</time>
      </trkpt>
      <trkpt lat="47.17945" lon="-1.53207">
        <ele>68</ele>
        <time>2021-08-29T10:51:11.000Z</time>
      </trkpt>
      <trkpt lat="47.17953" lon="-1.53218">
        <ele>68</ele>
        <time>2021-08-29T10:51:13.000Z</time>
      </trkpt>
      <trkpt lat="47.17961" lon="-1.53229">
        <ele>68</ele>
        <time>2021-08-29T10:51:15.000Z</time>
      </trkpt>
      <trkpt lat="47.1797" lon="-1.5324">
        <ele>68</ele>
        <time>2021-08-29T10:51:17.000Z</time>
      </trkpt>
      <trkpt lat="47.17978" lon="-1.53251">
        <ele>68</ele>
        <time>2021-08-29T10:51:19.000Z</time>
      </trkpt>
      <trkpt lat="47.17986" lon="-1.53264">
        <ele>68</ele>
        <time>2021-08-29T10:51:21.000Z</time>
      </trkpt>
      <trkpt lat="47.17992" lon="-1.53278">
        <ele>68</ele>
        <time>2021-08-29T10:51:23.000Z</time>
      </trkpt>
      <trkpt lat="47.17997" lon="-1.53294">
        <ele>68</ele>
        <time>2021-08-29T10:51:25.000Z</time>
      </trkpt>
      <trkpt lat="47.18002" lon="-1.5331">
        <ele>69</ele>
        <time>2021-08-29T10:51:27.000Z</time>
      </trkpt>
      <trkpt lat="47.18003" lon="-1.53327">
        <ele>69</ele>
        <time>2021-08-29T10:51:29.000Z</time>
      </trkpt>
      <trkpt lat="47.18003" lon="-1.53344">
        <ele>69</ele>
        <time>2021-08-29T10:51:31.000Z</time>
      </trkpt>
      <trkpt lat="47.18003" lon="-1.5336">
        <ele>69</ele>
        <time>2021-08-29T10:51:33.000Z</time>
      </trkpt>
      <trkpt lat="47.18003" lon="-1.53375">
        <ele>69</ele>
        <time>2021-08-29T10:51:35.000Z</time>
      </trkpt>
      <trkpt lat="47.18002" lon="-1.53391">
        <ele>69</ele>
        <time>2021-08-29T10:51:37.000Z</time>
      </trkpt>
      <trkpt lat="47.18002" lon="-1.53404">
        <ele>69</ele>
        <time>2021-08-29T10:51:39.000Z</time>
      </trkpt>
      <trkpt lat="47.18" lon="-1.53423">
        <ele>69</ele>
        <time>2021-08-29T10:51:42.000Z</time>
      </trkpt>
      <trkpt lat="47.17999" lon="-1.53443">
        <ele>70</ele>
        <time>2021-08-29T10:51:45.000Z</time>
      </trkpt>
      <trkpt lat="47.17997" lon="-1.5346">
        <ele>70</ele>
        <time>2021-08-29T10:51:47.000Z</time>
      </trkpt>
      <trkpt lat="47.17995" lon="-1.53477">
        <ele>70</ele>
        <time>2021-08-29T10:51:49.000Z</time>
      </trkpt>
      <trkpt lat="47.17995" lon="-1.53495">
        <ele>70</ele>
        <time>2021-08-29T10:51:51.000Z</time>
      </trkpt>
      <trkpt lat="47.17996" lon="-1.53512">
        <ele>70</ele>
        <time>2021-08-29T10:51:53.000Z</time>
      </trkpt>
      <trkpt lat="47.18" lon="-1.53528">
        <ele>71</ele>
        <time>2021-08-29T10:51:55.000Z</time>
      </trkpt>
      <trkpt lat="47.18005" lon="-1.53545">
        <ele>70</ele>
        <time>2021-08-29T10:51:57.000Z</time>
      </trkpt>
      <trkpt lat="47.18009" lon="-1.53562">
        <ele>70</ele>
        <time>2021-08-29T10:51:59.000Z</time>
      </trkpt>
      <trkpt lat="47.18013" lon="-1.53578">
        <ele>71</ele>
        <time>2021-08-29T10:52:01.000Z</time>
      </trkpt>
      <trkpt lat="47.18017" lon="-1.53595">
        <ele>71</ele>
        <time>2021-08-29T10:52:03.000Z</time>
      </trkpt>
      <trkpt lat="47.18021" lon="-1.53611">
        <ele>71</ele>
        <time>2021-08-29T10:52:05.000Z</time>
      </trkpt>
      <trkpt lat="47.18027" lon="-1.53625">
        <ele>71</ele>
        <time>2021-08-29T10:52:07.000Z</time>
      </trkpt>
      <trkpt lat="47.18035" lon="-1.53639">
        <ele>71</ele>
        <time>2021-08-29T10:52:09.000Z</time>
      </trkpt>
      <trkpt lat="47.18045" lon="-1.53652">
        <ele>70</ele>
        <time>2021-08-29T10:52:11.000Z</time>
      </trkpt>
      <trkpt lat="47.18054" lon="-1.53662">
        <ele>70</ele>
        <time>2021-08-29T10:52:13.000Z</time>
      </trkpt>
      <trkpt lat="47.18065" lon="-1.53671">
        <ele>69</ele>
        <time>2021-08-29T10:52:15.000Z</time>
      </trkpt>
      <trkpt lat="47.18075" lon="-1.5368">
        <ele>69</ele>
        <time>2021-08-29T10:52:17.000Z</time>
      </trkpt>
      <trkpt lat="47.18086" lon="-1.53689">
        <ele>69</ele>
        <time>2021-08-29T10:52:19.000Z</time>
      </trkpt>
      <trkpt lat="47.18096" lon="-1.53699">
        <ele>69</ele>
        <time>2021-08-29T10:52:21.000Z</time>
      </trkpt>
      <trkpt lat="47.18106" lon="-1.53709">
        <ele>69</ele>
        <time>2021-08-29T10:52:23.000Z</time>
      </trkpt>
      <trkpt lat="47.18117" lon="-1.53719">
        <ele>69</ele>
        <time>2021-08-29T10:52:25.000Z</time>
      </trkpt>
      <trkpt lat="47.18128" lon="-1.53728">
        <ele>69</ele>
        <time>2021-08-29T10:52:27.000Z</time>
      </trkpt>
      <trkpt lat="47.18138" lon="-1.53739">
        <ele>69</ele>
        <time>2021-08-29T10:52:29.000Z</time>
      </trkpt>
      <trkpt lat="47.18148" lon="-1.53749">
        <ele>69</ele>
        <time>2021-08-29T10:52:31.000Z</time>
      </trkpt>
      <trkpt lat="47.18158" lon="-1.53759">
        <ele>69</ele>
        <time>2021-08-29T10:52:33.000Z</time>
      </trkpt>
      <trkpt lat="47.18168" lon="-1.53769">
        <ele>69</ele>
        <time>2021-08-29T10:52:35.000Z</time>
      </trkpt>
      <trkpt lat="47.18178" lon="-1.53779">
        <ele>70</ele>
        <time>2021-08-29T10:52:37.000Z</time>
      </trkpt>
      <trkpt lat="47.18189" lon="-1.53789">
        <ele>69</ele>
        <time>2021-08-29T10:52:39.000Z</time>
      </trkpt>
      <trkpt lat="47.18199" lon="-1.53798">
        <ele>69</ele>
        <time>2021-08-29T10:52:41.000Z</time>
      </trkpt>
      <trkpt lat="47.18209" lon="-1.53808">
        <ele>70</ele>
        <time>2021-08-29T10:52:43.000Z</time>
      </trkpt>
      <trkpt lat="47.18218" lon="-1.53818">
        <ele>70</ele>
        <time>2021-08-29T10:52:45.000Z</time>
      </trkpt>
      <trkpt lat="47.18228" lon="-1.53827">
        <ele>70</ele>
        <time>2021-08-29T10:52:47.000Z</time>
      </trkpt>
      <trkpt lat="47.18237" lon="-1.53837">
        <ele>70</ele>
        <time>2021-08-29T10:52:49.000Z</time>
      </trkpt>
      <trkpt lat="47.18246" lon="-1.53847">
        <ele>70</ele>
        <time>2021-08-29T10:52:51.000Z</time>
      </trkpt>
      <trkpt lat="47.18255" lon="-1.53856">
        <ele>70</ele>
        <time>2021-08-29T10:52:53.000Z</time>
      </trkpt>
      <trkpt lat="47.18265" lon="-1.53864">
        <ele>70</ele>
        <time>2021-08-29T10:52:55.000Z</time>
      </trkpt>
      <trkpt lat="47.18275" lon="-1.53873">
        <ele>70</ele>
        <time>2021-08-29T10:52:57.000Z</time>
      </trkpt>
      <trkpt lat="47.18285" lon="-1.53881">
        <ele>70</ele>
        <time>2021-08-29T10:52:59.000Z</time>
      </trkpt>
      <trkpt lat="47.18294" lon="-1.53891">
        <ele>70</ele>
        <time>2021-08-29T10:53:01.000Z</time>
      </trkpt>
      <trkpt lat="47.18303" lon="-1.539">
        <ele>70</ele>
        <time>2021-08-29T10:53:03.000Z</time>
      </trkpt>
      <trkpt lat="47.18313" lon="-1.53908">
        <ele>70</ele>
        <time>2021-08-29T10:53:05.000Z</time>
      </trkpt>
      <trkpt lat="47.18322" lon="-1.53916">
        <ele>70</ele>
        <time>2021-08-29T10:53:07.000Z</time>
      </trkpt>
      <trkpt lat="47.18331" lon="-1.53925">
        <ele>71</ele>
        <time>2021-08-29T10:53:09.000Z</time>
      </trkpt>
      <trkpt lat="47.1834" lon="-1.53931">
        <ele>71</ele>
        <time>2021-08-29T10:53:11.000Z</time>
      </trkpt>
      <trkpt lat="47.1835" lon="-1.53939">
        <ele>71</ele>
        <time>2021-08-29T10:53:13.000Z</time>
      </trkpt>
      <trkpt lat="47.18358" lon="-1.53951">
        <ele>71</ele>
        <time>2021-08-29T10:53:15.000Z</time>
      </trkpt>
      <trkpt lat="47.18368" lon="-1.5396">
        <ele>71</ele>
        <time>2021-08-29T10:53:17.000Z</time>
      </trkpt>
      <trkpt lat="47.18378" lon="-1.53969">
        <ele>72</ele>
        <time>2021-08-29T10:53:19.000Z</time>
      </trkpt>
      <trkpt lat="47.18387" lon="-1.53978">
        <ele>72</ele>
        <time>2021-08-29T10:53:21.000Z</time>
      </trkpt>
      <trkpt lat="47.18396" lon="-1.53987">
        <ele>72</ele>
        <time>2021-08-29T10:53:23.000Z</time>
      </trkpt>
      <trkpt lat="47.18405" lon="-1.53995">
        <ele>73</ele>
        <time>2021-08-29T10:53:25.000Z</time>
      </trkpt>
      <trkpt lat="47.18414" lon="-1.54004">
        <ele>73</ele>
        <time>2021-08-29T10:53:27.000Z</time>
      </trkpt>
      <trkpt lat="47.18423" lon="-1.54014">
        <ele>73</ele>
        <time>2021-08-29T10:53:29.000Z</time>
      </trkpt>
      <trkpt lat="47.18433" lon="-1.54023">
        <ele>72</ele>
        <time>2021-08-29T10:53:31.000Z</time>
      </trkpt>
      <trkpt lat="47.18443" lon="-1.54032">
        <ele>72</ele>
        <time>2021-08-29T10:53:33.000Z</time>
      </trkpt>
      <trkpt lat="47.18453" lon="-1.54041">
        <ele>72</ele>
        <time>2021-08-29T10:53:35.000Z</time>
      </trkpt>
      <trkpt lat="47.18462" lon="-1.5405">
        <ele>71</ele>
        <time>2021-08-29T10:53:37.000Z</time>
      </trkpt>
      <trkpt lat="47.18472" lon="-1.54059">
        <ele>71</ele>
        <time>2021-08-29T10:53:39.000Z</time>
      </trkpt>
      <trkpt lat="47.18482" lon="-1.54068">
        <ele>71</ele>
        <time>2021-08-29T10:53:41.000Z</time>
      </trkpt>
      <trkpt lat="47.18493" lon="-1.54077">
        <ele>71</ele>
        <time>2021-08-29T10:53:43.000Z</time>
      </trkpt>
      <trkpt lat="47.18502" lon="-1.54086">
        <ele>71</ele>
        <time>2021-08-29T10:53:45.000Z</time>
      </trkpt>
      <trkpt lat="47.18512" lon="-1.54095">
        <ele>71</ele>
        <time>2021-08-29T10:53:47.000Z</time>
      </trkpt>
      <trkpt lat="47.1852" lon="-1.54104">
        <ele>71</ele>
        <time>2021-08-29T10:53:49.000Z</time>
      </trkpt>
      <trkpt lat="47.1853" lon="-1.54113">
        <ele>72</ele>
        <time>2021-08-29T10:53:51.000Z</time>
      </trkpt>
      <trkpt lat="47.1854" lon="-1.54122">
        <ele>72</ele>
        <time>2021-08-29T10:53:53.000Z</time>
      </trkpt>
      <trkpt lat="47.1855" lon="-1.54132">
        <ele>71</ele>
        <time>2021-08-29T10:53:55.000Z</time>
      </trkpt>
      <trkpt lat="47.1856" lon="-1.54142">
        <ele>71</ele>
        <time>2021-08-29T10:53:57.000Z</time>
      </trkpt>
      <trkpt lat="47.18569" lon="-1.54151">
        <ele>71</ele>
        <time>2021-08-29T10:53:59.000Z</time>
      </trkpt>
      <trkpt lat="47.18579" lon="-1.54161">
        <ele>71</ele>
        <time>2021-08-29T10:54:01.000Z</time>
      </trkpt>
      <trkpt lat="47.18589" lon="-1.54171">
        <ele>71</ele>
        <time>2021-08-29T10:54:03.000Z</time>
      </trkpt>
      <trkpt lat="47.18599" lon="-1.54181">
        <ele>71</ele>
        <time>2021-08-29T10:54:05.000Z</time>
      </trkpt>
      <trkpt lat="47.1861" lon="-1.5419">
        <ele>70</ele>
        <time>2021-08-29T10:54:07.000Z</time>
      </trkpt>
      <trkpt lat="47.1862" lon="-1.542">
        <ele>70</ele>
        <time>2021-08-29T10:54:09.000Z</time>
      </trkpt>
      <trkpt lat="47.1863" lon="-1.5421">
        <ele>69</ele>
        <time>2021-08-29T10:54:11.000Z</time>
      </trkpt>
      <trkpt lat="47.1864" lon="-1.5422">
        <ele>69</ele>
        <time>2021-08-29T10:54:13.000Z</time>
      </trkpt>
      <trkpt lat="47.1865" lon="-1.54232">
        <ele>69</ele>
        <time>2021-08-29T10:54:15.000Z</time>
      </trkpt>
      <trkpt lat="47.18659" lon="-1.54244">
        <ele>69</ele>
        <time>2021-08-29T10:54:17.000Z</time>
      </trkpt>
      <trkpt lat="47.18669" lon="-1.54257">
        <ele>69</ele>
        <time>2021-08-29T10:54:19.000Z</time>
      </trkpt>
      <trkpt lat="47.18679" lon="-1.54271">
        <ele>69</ele>
        <time>2021-08-29T10:54:21.000Z</time>
      </trkpt>
      <trkpt lat="47.18689" lon="-1.54285">
        <ele>68</ele>
        <time>2021-08-29T10:54:23.000Z</time>
      </trkpt>
      <trkpt lat="47.187" lon="-1.54298">
        <ele>68</ele>
        <time>2021-08-29T10:54:25.000Z</time>
      </trkpt>
      <trkpt lat="47.1871" lon="-1.54312">
        <ele>68</ele>
        <time>2021-08-29T10:54:27.000Z</time>
      </trkpt>
      <trkpt lat="47.1872" lon="-1.54325">
        <ele>67</ele>
        <time>2021-08-29T10:54:29.000Z</time>
      </trkpt>
      <trkpt lat="47.18731" lon="-1.5434">
        <ele>66</ele>
        <time>2021-08-29T10:54:31.000Z</time>
      </trkpt>
      <trkpt lat="47.18742" lon="-1.54354">
        <ele>66</ele>
        <time>2021-08-29T10:54:33.000Z</time>
      </trkpt>
      <trkpt lat="47.18753" lon="-1.54368">
        <ele>66</ele>
        <time>2021-08-29T10:54:35.000Z</time>
      </trkpt>
      <trkpt lat="47.18764" lon="-1.54382">
        <ele>65</ele>
        <time>2021-08-29T10:54:37.000Z</time>
      </trkpt>
      <trkpt lat="47.18775" lon="-1.54396">
        <ele>65</ele>
        <time>2021-08-29T10:54:39.000Z</time>
      </trkpt>
      <trkpt lat="47.18785" lon="-1.54411">
        <ele>65</ele>
        <time>2021-08-29T10:54:41.000Z</time>
      </trkpt>
      <trkpt lat="47.18795" lon="-1.54426">
        <ele>65</ele>
        <time>2021-08-29T10:54:43.000Z</time>
      </trkpt>
      <trkpt lat="47.18805" lon="-1.54439">
        <ele>64</ele>
        <time>2021-08-29T10:54:45.000Z</time>
      </trkpt>
      <trkpt lat="47.18816" lon="-1.54453">
        <ele>64</ele>
        <time>2021-08-29T10:54:47.000Z</time>
      </trkpt>
      <trkpt lat="47.18826" lon="-1.54467">
        <ele>63</ele>
        <time>2021-08-29T10:54:49.000Z</time>
      </trkpt>
      <trkpt lat="47.18836" lon="-1.54481">
        <ele>63</ele>
        <time>2021-08-29T10:54:51.000Z</time>
      </trkpt>
      <trkpt lat="47.18846" lon="-1.54493">
        <ele>63</ele>
        <time>2021-08-29T10:54:53.000Z</time>
      </trkpt>
      <trkpt lat="47.18855" lon="-1.54506">
        <ele>63</ele>
        <time>2021-08-29T10:54:55.000Z</time>
      </trkpt>
      <trkpt lat="47.18864" lon="-1.54519">
        <ele>64</ele>
        <time>2021-08-29T10:54:57.000Z</time>
      </trkpt>
      <trkpt lat="47.18871" lon="-1.54533">
        <ele>63</ele>
        <time>2021-08-29T10:54:59.000Z</time>
      </trkpt>
      <trkpt lat="47.18874" lon="-1.5455">
        <ele>63</ele>
        <time>2021-08-29T10:55:01.000Z</time>
      </trkpt>
      <trkpt lat="47.18868" lon="-1.54568">
        <ele>63</ele>
        <time>2021-08-29T10:55:03.000Z</time>
      </trkpt>
      <trkpt lat="47.1886" lon="-1.54583">
        <ele>63</ele>
        <time>2021-08-29T10:55:05.000Z</time>
      </trkpt>
      <trkpt lat="47.18852" lon="-1.54597">
        <ele>63</ele>
        <time>2021-08-29T10:55:07.000Z</time>
      </trkpt>
      <trkpt lat="47.18844" lon="-1.54612">
        <ele>64</ele>
        <time>2021-08-29T10:55:09.000Z</time>
      </trkpt>
      <trkpt lat="47.18838" lon="-1.54628">
        <ele>64</ele>
        <time>2021-08-29T10:55:11.000Z</time>
      </trkpt>
      <trkpt lat="47.18831" lon="-1.54643">
        <ele>64</ele>
        <time>2021-08-29T10:55:13.000Z</time>
      </trkpt>
      <trkpt lat="47.18824" lon="-1.54659">
        <ele>65</ele>
        <time>2021-08-29T10:55:15.000Z</time>
      </trkpt>
      <trkpt lat="47.18818" lon="-1.54674">
        <ele>65</ele>
        <time>2021-08-29T10:55:17.000Z</time>
      </trkpt>
      <trkpt lat="47.18815" lon="-1.54692">
        <ele>65</ele>
        <time>2021-08-29T10:55:19.000Z</time>
      </trkpt>
      <trkpt lat="47.18812" lon="-1.5471">
        <ele>65</ele>
        <time>2021-08-29T10:55:21.000Z</time>
      </trkpt>
      <trkpt lat="47.18806" lon="-1.54728">
        <ele>66</ele>
        <time>2021-08-29T10:55:23.000Z</time>
      </trkpt>
      <trkpt lat="47.18804" lon="-1.54746">
        <ele>67</ele>
        <time>2021-08-29T10:55:25.000Z</time>
      </trkpt>
      <trkpt lat="47.18804" lon="-1.54766">
        <ele>68</ele>
        <time>2021-08-29T10:55:27.000Z</time>
      </trkpt>
      <trkpt lat="47.18805" lon="-1.54785">
        <ele>68</ele>
        <time>2021-08-29T10:55:29.000Z</time>
      </trkpt>
      <trkpt lat="47.18806" lon="-1.54804">
        <ele>68</ele>
        <time>2021-08-29T10:55:31.000Z</time>
      </trkpt>
      <trkpt lat="47.18807" lon="-1.54823">
        <ele>67</ele>
        <time>2021-08-29T10:55:33.000Z</time>
      </trkpt>
      <trkpt lat="47.18809" lon="-1.54841">
        <ele>66</ele>
        <time>2021-08-29T10:55:35.000Z</time>
      </trkpt>
      <trkpt lat="47.1881" lon="-1.5486">
        <ele>65</ele>
        <time>2021-08-29T10:55:37.000Z</time>
      </trkpt>
      <trkpt lat="47.18812" lon="-1.54878">
        <ele>65</ele>
        <time>2021-08-29T10:55:39.000Z</time>
      </trkpt>
      <trkpt lat="47.18815" lon="-1.54895">
        <ele>65</ele>
        <time>2021-08-29T10:55:41.000Z</time>
      </trkpt>
      <trkpt lat="47.18817" lon="-1.54913">
        <ele>65</ele>
        <time>2021-08-29T10:55:43.000Z</time>
      </trkpt>
      <trkpt lat="47.18821" lon="-1.5493">
        <ele>65</ele>
        <time>2021-08-29T10:55:45.000Z</time>
      </trkpt>
      <trkpt lat="47.18825" lon="-1.54947">
        <ele>66</ele>
        <time>2021-08-29T10:55:47.000Z</time>
      </trkpt>
      <trkpt lat="47.18829" lon="-1.54963">
        <ele>66</ele>
        <time>2021-08-29T10:55:49.000Z</time>
      </trkpt>
      <trkpt lat="47.18834" lon="-1.54979">
        <ele>66</ele>
        <time>2021-08-29T10:55:51.000Z</time>
      </trkpt>
      <trkpt lat="47.18839" lon="-1.54996">
        <ele>66</ele>
        <time>2021-08-29T10:55:53.000Z</time>
      </trkpt>
      <trkpt lat="47.18843" lon="-1.55013">
        <ele>67</ele>
        <time>2021-08-29T10:55:55.000Z</time>
      </trkpt>
      <trkpt lat="47.18848" lon="-1.55031">
        <ele>67</ele>
        <time>2021-08-29T10:55:57.000Z</time>
      </trkpt>
      <trkpt lat="47.18853" lon="-1.55048">
        <ele>67</ele>
        <time>2021-08-29T10:55:59.000Z</time>
      </trkpt>
      <trkpt lat="47.18858" lon="-1.55066">
        <ele>67</ele>
        <time>2021-08-29T10:56:01.000Z</time>
      </trkpt>
      <trkpt lat="47.18863" lon="-1.55081">
        <ele>67</ele>
        <time>2021-08-29T10:56:03.000Z</time>
      </trkpt>
      <trkpt lat="47.18869" lon="-1.55095">
        <ele>67</ele>
        <time>2021-08-29T10:56:05.000Z</time>
      </trkpt>
      <trkpt lat="47.18876" lon="-1.55108">
        <ele>67</ele>
        <time>2021-08-29T10:56:07.000Z</time>
      </trkpt>
      <trkpt lat="47.18882" lon="-1.55124">
        <ele>67</ele>
        <time>2021-08-29T10:56:09.000Z</time>
      </trkpt>
      <trkpt lat="47.18889" lon="-1.55139">
        <ele>66</ele>
        <time>2021-08-29T10:56:11.000Z</time>
      </trkpt>
      <trkpt lat="47.18898" lon="-1.55152">
        <ele>66</ele>
        <time>2021-08-29T10:56:13.000Z</time>
      </trkpt>
      <trkpt lat="47.18906" lon="-1.55165">
        <ele>65</ele>
        <time>2021-08-29T10:56:15.000Z</time>
      </trkpt>
      <trkpt lat="47.18913" lon="-1.55179">
        <ele>65</ele>
        <time>2021-08-29T10:56:17.000Z</time>
      </trkpt>
      <trkpt lat="47.18922" lon="-1.55193">
        <ele>65</ele>
        <time>2021-08-29T10:56:19.000Z</time>
      </trkpt>
      <trkpt lat="47.18928" lon="-1.55208">
        <ele>65</ele>
        <time>2021-08-29T10:56:21.000Z</time>
      </trkpt>
      <trkpt lat="47.18922" lon="-1.55225">
        <ele>64</ele>
        <time>2021-08-29T10:56:23.000Z</time>
      </trkpt>
      <trkpt lat="47.18917" lon="-1.55241">
        <ele>64</ele>
        <time>2021-08-29T10:56:25.000Z</time>
      </trkpt>
      <trkpt lat="47.18917" lon="-1.55263">
        <ele>64</ele>
        <time>2021-08-29T10:56:27.000Z</time>
      </trkpt>
      <trkpt lat="47.18917" lon="-1.55285">
        <ele>62</ele>
        <time>2021-08-29T10:56:29.000Z</time>
      </trkpt>
      <trkpt lat="47.18917" lon="-1.55307">
        <ele>62</ele>
        <time>2021-08-29T10:56:31.000Z</time>
      </trkpt>
      <trkpt lat="47.18917" lon="-1.5533">
        <ele>61</ele>
        <time>2021-08-29T10:56:33.000Z</time>
      </trkpt>
      <trkpt lat="47.18917" lon="-1.55352">
        <ele>61</ele>
        <time>2021-08-29T10:56:35.000Z</time>
      </trkpt>
      <trkpt lat="47.18917" lon="-1.55373">
        <ele>60</ele>
        <time>2021-08-29T10:56:37.000Z</time>
      </trkpt>
      <trkpt lat="47.18918" lon="-1.55392">
        <ele>60</ele>
        <time>2021-08-29T10:56:39.000Z</time>
      </trkpt>
      <trkpt lat="47.18918" lon="-1.55411">
        <ele>60</ele>
        <time>2021-08-29T10:56:41.000Z</time>
      </trkpt>
      <trkpt lat="47.18918" lon="-1.55429">
        <ele>61</ele>
        <time>2021-08-29T10:56:43.000Z</time>
      </trkpt>
      <trkpt lat="47.18919" lon="-1.55446">
        <ele>61</ele>
        <time>2021-08-29T10:56:45.000Z</time>
      </trkpt>
      <trkpt lat="47.1892" lon="-1.55464">
        <ele>61</ele>
        <time>2021-08-29T10:56:47.000Z</time>
      </trkpt>
      <trkpt lat="47.1892" lon="-1.55481">
        <ele>61</ele>
        <time>2021-08-29T10:56:49.000Z</time>
      </trkpt>
      <trkpt lat="47.18921" lon="-1.55499">
        <ele>61</ele>
        <time>2021-08-29T10:56:51.000Z</time>
      </trkpt>
      <trkpt lat="47.18921" lon="-1.55516">
        <ele>61</ele>
        <time>2021-08-29T10:56:53.000Z</time>
      </trkpt>
      <trkpt lat="47.18921" lon="-1.55533">
        <ele>61</ele>
        <time>2021-08-29T10:56:55.000Z</time>
      </trkpt>
      <trkpt lat="47.18922" lon="-1.55551">
        <ele>61</ele>
        <time>2021-08-29T10:56:57.000Z</time>
      </trkpt>
      <trkpt lat="47.18923" lon="-1.55568">
        <ele>61</ele>
        <time>2021-08-29T10:56:59.000Z</time>
      </trkpt>
      <trkpt lat="47.18924" lon="-1.55586">
        <ele>61</ele>
        <time>2021-08-29T10:57:01.000Z</time>
      </trkpt>
      <trkpt lat="47.18924" lon="-1.55603">
        <ele>62</ele>
        <time>2021-08-29T10:57:03.000Z</time>
      </trkpt>
      <trkpt lat="47.18923" lon="-1.55621">
        <ele>62</ele>
        <time>2021-08-29T10:57:05.000Z</time>
      </trkpt>
      <trkpt lat="47.18922" lon="-1.55638">
        <ele>62</ele>
        <time>2021-08-29T10:57:07.000Z</time>
      </trkpt>
      <trkpt lat="47.18922" lon="-1.55654">
        <ele>62</ele>
        <time>2021-08-29T10:57:09.000Z</time>
      </trkpt>
      <trkpt lat="47.18921" lon="-1.55672">
        <ele>62</ele>
        <time>2021-08-29T10:57:11.000Z</time>
      </trkpt>
      <trkpt lat="47.18921" lon="-1.55689">
        <ele>62</ele>
        <time>2021-08-29T10:57:13.000Z</time>
      </trkpt>
      <trkpt lat="47.1892" lon="-1.55707">
        <ele>62</ele>
        <time>2021-08-29T10:57:15.000Z</time>
      </trkpt>
      <trkpt lat="47.18919" lon="-1.55724">
        <ele>62</ele>
        <time>2021-08-29T10:57:17.000Z</time>
      </trkpt>
      <trkpt lat="47.18919" lon="-1.55741">
        <ele>62</ele>
        <time>2021-08-29T10:57:19.000Z</time>
      </trkpt>
      <trkpt lat="47.18918" lon="-1.55759">
        <ele>62</ele>
        <time>2021-08-29T10:57:21.000Z</time>
      </trkpt>
      <trkpt lat="47.18917" lon="-1.55776">
        <ele>63</ele>
        <time>2021-08-29T10:57:23.000Z</time>
      </trkpt>
      <trkpt lat="47.18917" lon="-1.55794">
        <ele>63</ele>
        <time>2021-08-29T10:57:25.000Z</time>
      </trkpt>
      <trkpt lat="47.18916" lon="-1.55811">
        <ele>63</ele>
        <time>2021-08-29T10:57:27.000Z</time>
      </trkpt>
      <trkpt lat="47.18914" lon="-1.55828">
        <ele>63</ele>
        <time>2021-08-29T10:57:29.000Z</time>
      </trkpt>
      <trkpt lat="47.18913" lon="-1.55845">
        <ele>63</ele>
        <time>2021-08-29T10:57:31.000Z</time>
      </trkpt>
      <trkpt lat="47.18912" lon="-1.55862">
        <ele>63</ele>
        <time>2021-08-29T10:57:33.000Z</time>
      </trkpt>
      <trkpt lat="47.1891" lon="-1.5588">
        <ele>63</ele>
        <time>2021-08-29T10:57:35.000Z</time>
      </trkpt>
      <trkpt lat="47.18909" lon="-1.55896">
        <ele>64</ele>
        <time>2021-08-29T10:57:37.000Z</time>
      </trkpt>
      <trkpt lat="47.18907" lon="-1.55913">
        <ele>64</ele>
        <time>2021-08-29T10:57:39.000Z</time>
      </trkpt>
      <trkpt lat="47.18906" lon="-1.55931">
        <ele>64</ele>
        <time>2021-08-29T10:57:41.000Z</time>
      </trkpt>
      <trkpt lat="47.18906" lon="-1.55949">
        <ele>63</ele>
        <time>2021-08-29T10:57:43.000Z</time>
      </trkpt>
      <trkpt lat="47.18906" lon="-1.55967">
        <ele>63</ele>
        <time>2021-08-29T10:57:45.000Z</time>
      </trkpt>
      <trkpt lat="47.18905" lon="-1.55983">
        <ele>64</ele>
        <time>2021-08-29T10:57:47.000Z</time>
      </trkpt>
      <trkpt lat="47.18904" lon="-1.56">
        <ele>64</ele>
        <time>2021-08-29T10:57:49.000Z</time>
      </trkpt>
      <trkpt lat="47.18902" lon="-1.56018">
        <ele>64</ele>
        <time>2021-08-29T10:57:51.000Z</time>
      </trkpt>
      <trkpt lat="47.18899" lon="-1.56036">
        <ele>64</ele>
        <time>2021-08-29T10:57:53.000Z</time>
      </trkpt>
      <trkpt lat="47.18897" lon="-1.56054">
        <ele>64</ele>
        <time>2021-08-29T10:57:55.000Z</time>
      </trkpt>
      <trkpt lat="47.18894" lon="-1.56072">
        <ele>63</ele>
        <time>2021-08-29T10:57:57.000Z</time>
      </trkpt>
      <trkpt lat="47.18891" lon="-1.5609">
        <ele>63</ele>
        <time>2021-08-29T10:57:59.000Z</time>
      </trkpt>
      <trkpt lat="47.18888" lon="-1.56107">
        <ele>63</ele>
        <time>2021-08-29T10:58:01.000Z</time>
      </trkpt>
      <trkpt lat="47.18885" lon="-1.56123">
        <ele>64</ele>
        <time>2021-08-29T10:58:03.000Z</time>
      </trkpt>
      <trkpt lat="47.18881" lon="-1.56139">
        <ele>64</ele>
        <time>2021-08-29T10:58:05.000Z</time>
      </trkpt>
      <trkpt lat="47.18879" lon="-1.56156">
        <ele>64</ele>
        <time>2021-08-29T10:58:07.000Z</time>
      </trkpt>
      <trkpt lat="47.18879" lon="-1.56173">
        <ele>64</ele>
        <time>2021-08-29T10:58:09.000Z</time>
      </trkpt>
      <trkpt lat="47.18876" lon="-1.56191">
        <ele>64</ele>
        <time>2021-08-29T10:58:11.000Z</time>
      </trkpt>
      <trkpt lat="47.1887" lon="-1.56208">
        <ele>64</ele>
        <time>2021-08-29T10:58:13.000Z</time>
      </trkpt>
      <trkpt lat="47.18865" lon="-1.56226">
        <ele>63</ele>
        <time>2021-08-29T10:58:15.000Z</time>
      </trkpt>
      <trkpt lat="47.18859" lon="-1.56243">
        <ele>64</ele>
        <time>2021-08-29T10:58:17.000Z</time>
      </trkpt>
      <trkpt lat="47.18853" lon="-1.56259">
        <ele>64</ele>
        <time>2021-08-29T10:58:19.000Z</time>
      </trkpt>
      <trkpt lat="47.18848" lon="-1.56275">
        <ele>64</ele>
        <time>2021-08-29T10:58:21.000Z</time>
      </trkpt>
      <trkpt lat="47.18842" lon="-1.56291">
        <ele>64</ele>
        <time>2021-08-29T10:58:23.000Z</time>
      </trkpt>
      <trkpt lat="47.18835" lon="-1.56307">
        <ele>64</ele>
        <time>2021-08-29T10:58:25.000Z</time>
      </trkpt>
      <trkpt lat="47.18828" lon="-1.56322">
        <ele>64</ele>
        <time>2021-08-29T10:58:27.000Z</time>
      </trkpt>
      <trkpt lat="47.18821" lon="-1.56337">
        <ele>64</ele>
        <time>2021-08-29T10:58:29.000Z</time>
      </trkpt>
      <trkpt lat="47.18812" lon="-1.56349">
        <ele>64</ele>
        <time>2021-08-29T10:58:31.000Z</time>
      </trkpt>
      <trkpt lat="47.188" lon="-1.56352">
        <ele>65</ele>
        <time>2021-08-29T10:58:33.000Z</time>
      </trkpt>
      <trkpt lat="47.18788" lon="-1.56352">
        <ele>65</ele>
        <time>2021-08-29T10:58:35.000Z</time>
      </trkpt>
      <trkpt lat="47.18776" lon="-1.56351">
        <ele>65</ele>
        <time>2021-08-29T10:58:37.000Z</time>
      </trkpt>
      <trkpt lat="47.18764" lon="-1.5635">
        <ele>66</ele>
        <time>2021-08-29T10:58:39.000Z</time>
      </trkpt>
      <trkpt lat="47.18752" lon="-1.56351">
        <ele>66</ele>
        <time>2021-08-29T10:58:41.000Z</time>
      </trkpt>
      <trkpt lat="47.1874" lon="-1.56351">
        <ele>66</ele>
        <time>2021-08-29T10:58:43.000Z</time>
      </trkpt>
      <trkpt lat="47.18728" lon="-1.5635">
        <ele>67</ele>
        <time>2021-08-29T10:58:45.000Z</time>
      </trkpt>
      <trkpt lat="47.18717" lon="-1.5635">
        <ele>67</ele>
        <time>2021-08-29T10:58:47.000Z</time>
      </trkpt>
      <trkpt lat="47.18706" lon="-1.56351">
        <ele>66</ele>
        <time>2021-08-29T10:58:49.000Z</time>
      </trkpt>
      <trkpt lat="47.18695" lon="-1.56352">
        <ele>67</ele>
        <time>2021-08-29T10:58:51.000Z</time>
      </trkpt>
      <trkpt lat="47.18683" lon="-1.56352">
        <ele>67</ele>
        <time>2021-08-29T10:58:53.000Z</time>
      </trkpt>
      <trkpt lat="47.18673" lon="-1.56349">
        <ele>68</ele>
        <time>2021-08-29T10:58:55.000Z</time>
      </trkpt>
      <trkpt lat="47.18661" lon="-1.56344">
        <ele>67</ele>
        <time>2021-08-29T10:58:57.000Z</time>
      </trkpt>
      <trkpt lat="47.1865" lon="-1.56339">
        <ele>67</ele>
        <time>2021-08-29T10:58:59.000Z</time>
      </trkpt>
      <trkpt lat="47.18639" lon="-1.56333">
        <ele>67</ele>
        <time>2021-08-29T10:59:01.000Z</time>
      </trkpt>
      <trkpt lat="47.18628" lon="-1.56328">
        <ele>67</ele>
        <time>2021-08-29T10:59:03.000Z</time>
      </trkpt>
      <trkpt lat="47.18617" lon="-1.56322">
        <ele>67</ele>
        <time>2021-08-29T10:59:05.000Z</time>
      </trkpt>
      <trkpt lat="47.18607" lon="-1.56316">
        <ele>67</ele>
        <time>2021-08-29T10:59:07.000Z</time>
      </trkpt>
      <trkpt lat="47.18599" lon="-1.56307">
        <ele>68</ele>
        <time>2021-08-29T10:59:09.000Z</time>
      </trkpt>
      <trkpt lat="47.18591" lon="-1.56297">
        <ele>68</ele>
        <time>2021-08-29T10:59:11.000Z</time>
      </trkpt>
      <trkpt lat="47.18583" lon="-1.56287">
        <ele>68</ele>
        <time>2021-08-29T10:59:13.000Z</time>
      </trkpt>
      <trkpt lat="47.18572" lon="-1.56288">
        <ele>68</ele>
        <time>2021-08-29T10:59:16.000Z</time>
      </trkpt>
      <trkpt lat="47.18567" lon="-1.56302">
        <ele>68</ele>
        <time>2021-08-29T10:59:18.000Z</time>
      </trkpt>
      <trkpt lat="47.18562" lon="-1.56318">
        <ele>69</ele>
        <time>2021-08-29T10:59:20.000Z</time>
      </trkpt>
      <trkpt lat="47.18558" lon="-1.56335">
        <ele>69</ele>
        <time>2021-08-29T10:59:22.000Z</time>
      </trkpt>
      <trkpt lat="47.18553" lon="-1.56352">
        <ele>69</ele>
        <time>2021-08-29T10:59:24.000Z</time>
      </trkpt>
      <trkpt lat="47.18548" lon="-1.56368">
        <ele>70</ele>
        <time>2021-08-29T10:59:26.000Z</time>
      </trkpt>
      <trkpt lat="47.18539" lon="-1.5638">
        <ele>69</ele>
        <time>2021-08-29T10:59:28.000Z</time>
      </trkpt>
      <trkpt lat="47.18525" lon="-1.56381">
        <ele>69</ele>
        <time>2021-08-29T10:59:30.000Z</time>
      </trkpt>
      <trkpt lat="47.18512" lon="-1.56376">
        <ele>69</ele>
        <time>2021-08-29T10:59:32.000Z</time>
      </trkpt>
      <trkpt lat="47.18496" lon="-1.56367">
        <ele>69</ele>
        <time>2021-08-29T10:59:35.000Z</time>
      </trkpt>
      <trkpt lat="47.18479" lon="-1.5636">
        <ele>69</ele>
        <time>2021-08-29T10:59:38.000Z</time>
      </trkpt>
      <trkpt lat="47.18468" lon="-1.56356">
        <ele>68</ele>
        <time>2021-08-29T10:59:40.000Z</time>
      </trkpt>
      <trkpt lat="47.1845" lon="-1.5635">
        <ele>68</ele>
        <time>2021-08-29T10:59:43.000Z</time>
      </trkpt>
      <trkpt lat="47.18439" lon="-1.5635">
        <ele>68</ele>
        <time>2021-08-29T10:59:45.000Z</time>
      </trkpt>
      <trkpt lat="47.18429" lon="-1.56356">
        <ele>68</ele>
        <time>2021-08-29T10:59:47.000Z</time>
      </trkpt>
      <trkpt lat="47.18426" lon="-1.56372">
        <ele>67</ele>
        <time>2021-08-29T10:59:49.000Z</time>
      </trkpt>
      <trkpt lat="47.18424" lon="-1.56388">
        <ele>68</ele>
        <time>2021-08-29T10:59:51.000Z</time>
      </trkpt>
      <trkpt lat="47.18422" lon="-1.56406">
        <ele>69</ele>
        <time>2021-08-29T10:59:53.000Z</time>
      </trkpt>
      <trkpt lat="47.18419" lon="-1.56424">
        <ele>70</ele>
        <time>2021-08-29T10:59:55.000Z</time>
      </trkpt>
      <trkpt lat="47.18416" lon="-1.56442">
        <ele>69</ele>
        <time>2021-08-29T10:59:57.000Z</time>
      </trkpt>
      <trkpt lat="47.18413" lon="-1.5646">
        <ele>69</ele>
        <time>2021-08-29T10:59:59.000Z</time>
      </trkpt>
      <trkpt lat="47.1841" lon="-1.56478">
        <ele>70</ele>
        <time>2021-08-29T11:00:01.000Z</time>
      </trkpt>
      <trkpt lat="47.18407" lon="-1.56497">
        <ele>70</ele>
        <time>2021-08-29T11:00:03.000Z</time>
      </trkpt>
      <trkpt lat="47.18405" lon="-1.56516">
        <ele>70</ele>
        <time>2021-08-29T11:00:05.000Z</time>
      </trkpt>
      <trkpt lat="47.18402" lon="-1.56535">
        <ele>70</ele>
        <time>2021-08-29T11:00:07.000Z</time>
      </trkpt>
      <trkpt lat="47.18399" lon="-1.56554">
        <ele>70</ele>
        <time>2021-08-29T11:00:09.000Z</time>
      </trkpt>
      <trkpt lat="47.18396" lon="-1.56573">
        <ele>70</ele>
        <time>2021-08-29T11:00:11.000Z</time>
      </trkpt>
      <trkpt lat="47.18393" lon="-1.56592">
        <ele>70</ele>
        <time>2021-08-29T11:00:13.000Z</time>
      </trkpt>
      <trkpt lat="47.1839" lon="-1.56611">
        <ele>70</ele>
        <time>2021-08-29T11:00:15.000Z</time>
      </trkpt>
      <trkpt lat="47.18387" lon="-1.5663">
        <ele>69</ele>
        <time>2021-08-29T11:00:17.000Z</time>
      </trkpt>
      <trkpt lat="47.18383" lon="-1.56649">
        <ele>70</ele>
        <time>2021-08-29T11:00:19.000Z</time>
      </trkpt>
      <trkpt lat="47.1838" lon="-1.56667">
        <ele>70</ele>
        <time>2021-08-29T11:00:21.000Z</time>
      </trkpt>
      <trkpt lat="47.18377" lon="-1.56686">
        <ele>70</ele>
        <time>2021-08-29T11:00:23.000Z</time>
      </trkpt>
      <trkpt lat="47.18374" lon="-1.56705">
        <ele>70</ele>
        <time>2021-08-29T11:00:25.000Z</time>
      </trkpt>
      <trkpt lat="47.1837" lon="-1.56724">
        <ele>70</ele>
        <time>2021-08-29T11:00:27.000Z</time>
      </trkpt>
      <trkpt lat="47.18367" lon="-1.56742">
        <ele>70</ele>
        <time>2021-08-29T11:00:29.000Z</time>
      </trkpt>
      <trkpt lat="47.18365" lon="-1.5676">
        <ele>69</ele>
        <time>2021-08-29T11:00:31.000Z</time>
      </trkpt>
      <trkpt lat="47.18363" lon="-1.56777">
        <ele>69</ele>
        <time>2021-08-29T11:00:33.000Z</time>
      </trkpt>
      <trkpt lat="47.1836" lon="-1.56796">
        <ele>69</ele>
        <time>2021-08-29T11:00:35.000Z</time>
      </trkpt>
      <trkpt lat="47.18356" lon="-1.56814">
        <ele>69</ele>
        <time>2021-08-29T11:00:37.000Z</time>
      </trkpt>
      <trkpt lat="47.18353" lon="-1.56834">
        <ele>69</ele>
        <time>2021-08-29T11:00:39.000Z</time>
      </trkpt>
      <trkpt lat="47.1835" lon="-1.56852">
        <ele>69</ele>
        <time>2021-08-29T11:00:41.000Z</time>
      </trkpt>
      <trkpt lat="47.18348" lon="-1.56871">
        <ele>70</ele>
        <time>2021-08-29T11:00:43.000Z</time>
      </trkpt>
      <trkpt lat="47.18345" lon="-1.5689">
        <ele>70</ele>
        <time>2021-08-29T11:00:45.000Z</time>
      </trkpt>
      <trkpt lat="47.18343" lon="-1.56908">
        <ele>70</ele>
        <time>2021-08-29T11:00:47.000Z</time>
      </trkpt>
      <trkpt lat="47.18341" lon="-1.56927">
        <ele>70</ele>
        <time>2021-08-29T11:00:49.000Z</time>
      </trkpt>
      <trkpt lat="47.18341" lon="-1.56945">
        <ele>70</ele>
        <time>2021-08-29T11:00:51.000Z</time>
      </trkpt>
      <trkpt lat="47.18343" lon="-1.56963">
        <ele>70</ele>
        <time>2021-08-29T11:00:53.000Z</time>
      </trkpt>
      <trkpt lat="47.18343" lon="-1.56981">
        <ele>70</ele>
        <time>2021-08-29T11:00:55.000Z</time>
      </trkpt>
      <trkpt lat="47.18342" lon="-1.56999">
        <ele>70</ele>
        <time>2021-08-29T11:00:57.000Z</time>
      </trkpt>
      <trkpt lat="47.18339" lon="-1.57018">
        <ele>70</ele>
        <time>2021-08-29T11:00:59.000Z</time>
      </trkpt>
      <trkpt lat="47.18335" lon="-1.57037">
        <ele>71</ele>
        <time>2021-08-29T11:01:01.000Z</time>
      </trkpt>
      <trkpt lat="47.18333" lon="-1.57055">
        <ele>71</ele>
        <time>2021-08-29T11:01:03.000Z</time>
      </trkpt>
      <trkpt lat="47.1833" lon="-1.57074">
        <ele>71</ele>
        <time>2021-08-29T11:01:05.000Z</time>
      </trkpt>
      <trkpt lat="47.18327" lon="-1.57093">
        <ele>71</ele>
        <time>2021-08-29T11:01:07.000Z</time>
      </trkpt>
      <trkpt lat="47.18323" lon="-1.57111">
        <ele>71</ele>
        <time>2021-08-29T11:01:09.000Z</time>
      </trkpt>
      <trkpt lat="47.1832" lon="-1.5713">
        <ele>71</ele>
        <time>2021-08-29T11:01:11.000Z</time>
      </trkpt>
      <trkpt lat="47.18318" lon="-1.57148">
        <ele>71</ele>
        <time>2021-08-29T11:01:13.000Z</time>
      </trkpt>
      <trkpt lat="47.18315" lon="-1.57165">
        <ele>71</ele>
        <time>2021-08-29T11:01:15.000Z</time>
      </trkpt>
      <trkpt lat="47.18312" lon="-1.57181">
        <ele>71</ele>
        <time>2021-08-29T11:01:17.000Z</time>
      </trkpt>
      <trkpt lat="47.18309" lon="-1.57198">
        <ele>71</ele>
        <time>2021-08-29T11:01:19.000Z</time>
      </trkpt>
      <trkpt lat="47.18305" lon="-1.57212">
        <ele>71</ele>
        <time>2021-08-29T11:01:21.000Z</time>
      </trkpt>
      <trkpt lat="47.18295" lon="-1.57219">
        <ele>71</ele>
        <time>2021-08-29T11:01:23.000Z</time>
      </trkpt>
      <trkpt lat="47.18282" lon="-1.57217">
        <ele>72</ele>
        <time>2021-08-29T11:01:25.000Z</time>
      </trkpt>
      <trkpt lat="47.18269" lon="-1.57217">
        <ele>71</ele>
        <time>2021-08-29T11:01:27.000Z</time>
      </trkpt>
      <trkpt lat="47.18255" lon="-1.57216">
        <ele>72</ele>
        <time>2021-08-29T11:01:29.000Z</time>
      </trkpt>
      <trkpt lat="47.18242" lon="-1.57216">
        <ele>71</ele>
        <time>2021-08-29T11:01:31.000Z</time>
      </trkpt>
      <trkpt lat="47.18229" lon="-1.57214">
        <ele>72</ele>
        <time>2021-08-29T11:01:33.000Z</time>
      </trkpt>
      <trkpt lat="47.18218" lon="-1.57213">
        <ele>72</ele>
        <time>2021-08-29T11:01:35.000Z</time>
      </trkpt>
      <trkpt lat="47.1821" lon="-1.57221">
        <ele>71</ele>
        <time>2021-08-29T11:01:39.000Z</time>
      </trkpt>
      <trkpt lat="47.18209" lon="-1.5724">
        <ele>71</ele>
        <time>2021-08-29T11:01:42.000Z</time>
      </trkpt>
      <trkpt lat="47.18208" lon="-1.57257">
        <ele>71</ele>
        <time>2021-08-29T11:01:44.000Z</time>
      </trkpt>
      <trkpt lat="47.18207" lon="-1.57274">
        <ele>70</ele>
        <time>2021-08-29T11:01:46.000Z</time>
      </trkpt>
      <trkpt lat="47.18205" lon="-1.57291">
        <ele>71</ele>
        <time>2021-08-29T11:01:48.000Z</time>
      </trkpt>
      <trkpt lat="47.18205" lon="-1.57308">
        <ele>70</ele>
        <time>2021-08-29T11:01:50.000Z</time>
      </trkpt>
      <trkpt lat="47.18206" lon="-1.57326">
        <ele>69</ele>
        <time>2021-08-29T11:01:52.000Z</time>
      </trkpt>
      <trkpt lat="47.18206" lon="-1.57344">
        <ele>69</ele>
        <time>2021-08-29T11:01:54.000Z</time>
      </trkpt>
      <trkpt lat="47.18207" lon="-1.57364">
        <ele>69</ele>
        <time>2021-08-29T11:01:56.000Z</time>
      </trkpt>
      <trkpt lat="47.18207" lon="-1.57382">
        <ele>69</ele>
        <time>2021-08-29T11:01:58.000Z</time>
      </trkpt>
      <trkpt lat="47.18208" lon="-1.57402">
        <ele>69</ele>
        <time>2021-08-29T11:02:00.000Z</time>
      </trkpt>
      <trkpt lat="47.18208" lon="-1.57421">
        <ele>68</ele>
        <time>2021-08-29T11:02:02.000Z</time>
      </trkpt>
      <trkpt lat="47.18208" lon="-1.57441">
        <ele>69</ele>
        <time>2021-08-29T11:02:04.000Z</time>
      </trkpt>
      <trkpt lat="47.18208" lon="-1.57461">
        <ele>69</ele>
        <time>2021-08-29T11:02:06.000Z</time>
      </trkpt>
      <trkpt lat="47.18208" lon="-1.57481">
        <ele>69</ele>
        <time>2021-08-29T11:02:08.000Z</time>
      </trkpt>
      <trkpt lat="47.18207" lon="-1.57499">
        <ele>69</ele>
        <time>2021-08-29T11:02:10.000Z</time>
      </trkpt>
      <trkpt lat="47.18205" lon="-1.57516">
        <ele>69</ele>
        <time>2021-08-29T11:02:12.000Z</time>
      </trkpt>
      <trkpt lat="47.18202" lon="-1.57532">
        <ele>70</ele>
        <time>2021-08-29T11:02:14.000Z</time>
      </trkpt>
      <trkpt lat="47.182" lon="-1.57549">
        <ele>70</ele>
        <time>2021-08-29T11:02:16.000Z</time>
      </trkpt>
      <trkpt lat="47.18198" lon="-1.57566">
        <ele>71</ele>
        <time>2021-08-29T11:02:18.000Z</time>
      </trkpt>
      <trkpt lat="47.18197" lon="-1.5758">
        <ele>72</ele>
        <time>2021-08-29T11:02:20.000Z</time>
      </trkpt>
      <trkpt lat="47.182" lon="-1.57593">
        <ele>72</ele>
        <time>2021-08-29T11:02:23.000Z</time>
      </trkpt>
      <trkpt lat="47.182" lon="-1.57612">
        <ele>72</ele>
        <time>2021-08-29T11:02:26.000Z</time>
      </trkpt>
      <trkpt lat="47.18198" lon="-1.57633">
        <ele>72</ele>
        <time>2021-08-29T11:02:29.000Z</time>
      </trkpt>
      <trkpt lat="47.18196" lon="-1.57649">
        <ele>72</ele>
        <time>2021-08-29T11:02:31.000Z</time>
      </trkpt>
      <trkpt lat="47.18195" lon="-1.57666">
        <ele>72</ele>
        <time>2021-08-29T11:02:33.000Z</time>
      </trkpt>
      <trkpt lat="47.18194" lon="-1.57683">
        <ele>72</ele>
        <time>2021-08-29T11:02:35.000Z</time>
      </trkpt>
      <trkpt lat="47.18193" lon="-1.57699">
        <ele>72</ele>
        <time>2021-08-29T11:02:37.000Z</time>
      </trkpt>
      <trkpt lat="47.18191" lon="-1.57714">
        <ele>72</ele>
        <time>2021-08-29T11:02:39.000Z</time>
      </trkpt>
      <trkpt lat="47.18187" lon="-1.57731">
        <ele>72</ele>
        <time>2021-08-29T11:02:41.000Z</time>
      </trkpt>
      <trkpt lat="47.18183" lon="-1.57748">
        <ele>72</ele>
        <time>2021-08-29T11:02:43.000Z</time>
      </trkpt>
      <trkpt lat="47.18179" lon="-1.57766">
        <ele>73</ele>
        <time>2021-08-29T11:02:45.000Z</time>
      </trkpt>
      <trkpt lat="47.18173" lon="-1.57783">
        <ele>73</ele>
        <time>2021-08-29T11:02:47.000Z</time>
      </trkpt>
      <trkpt lat="47.1817" lon="-1.578">
        <ele>72</ele>
        <time>2021-08-29T11:02:49.000Z</time>
      </trkpt>
      <trkpt lat="47.18166" lon="-1.57818">
        <ele>72</ele>
        <time>2021-08-29T11:02:51.000Z</time>
      </trkpt>
      <trkpt lat="47.18163" lon="-1.57835">
        <ele>72</ele>
        <time>2021-08-29T11:02:53.000Z</time>
      </trkpt>
      <trkpt lat="47.1816" lon="-1.57852">
        <ele>72</ele>
        <time>2021-08-29T11:02:55.000Z</time>
      </trkpt>
      <trkpt lat="47.18158" lon="-1.57868">
        <ele>71</ele>
        <time>2021-08-29T11:02:57.000Z</time>
      </trkpt>
      <trkpt lat="47.18154" lon="-1.57883">
        <ele>72</ele>
        <time>2021-08-29T11:02:59.000Z</time>
      </trkpt>
      <trkpt lat="47.18152" lon="-1.57898">
        <ele>72</ele>
        <time>2021-08-29T11:03:02.000Z</time>
      </trkpt>
      <trkpt lat="47.18154" lon="-1.57919">
        <ele>73</ele>
        <time>2021-08-29T11:03:05.000Z</time>
      </trkpt>
      <trkpt lat="47.18155" lon="-1.57936">
        <ele>74</ele>
        <time>2021-08-29T11:03:07.000Z</time>
      </trkpt>
      <trkpt lat="47.1815" lon="-1.57951">
        <ele>74</ele>
        <time>2021-08-29T11:03:09.000Z</time>
      </trkpt>
      <trkpt lat="47.18139" lon="-1.57962">
        <ele>73</ele>
        <time>2021-08-29T11:03:11.000Z</time>
      </trkpt>
      <trkpt lat="47.18133" lon="-1.57977">
        <ele>73</ele>
        <time>2021-08-29T11:03:13.000Z</time>
      </trkpt>
      <trkpt lat="47.18129" lon="-1.57993">
        <ele>72</ele>
        <time>2021-08-29T11:03:15.000Z</time>
      </trkpt>
      <trkpt lat="47.18126" lon="-1.5801">
        <ele>72</ele>
        <time>2021-08-29T11:03:17.000Z</time>
      </trkpt>
      <trkpt lat="47.18127" lon="-1.58028">
        <ele>73</ele>
        <time>2021-08-29T11:03:19.000Z</time>
      </trkpt>
      <trkpt lat="47.18126" lon="-1.58046">
        <ele>73</ele>
        <time>2021-08-29T11:03:21.000Z</time>
      </trkpt>
      <trkpt lat="47.18121" lon="-1.58066">
        <ele>72</ele>
        <time>2021-08-29T11:03:23.000Z</time>
      </trkpt>
      <trkpt lat="47.18117" lon="-1.58086">
        <ele>72</ele>
        <time>2021-08-29T11:03:25.000Z</time>
      </trkpt>
      <trkpt lat="47.18113" lon="-1.58106">
        <ele>71</ele>
        <time>2021-08-29T11:03:27.000Z</time>
      </trkpt>
      <trkpt lat="47.1811" lon="-1.58126">
        <ele>71</ele>
        <time>2021-08-29T11:03:29.000Z</time>
      </trkpt>
      <trkpt lat="47.18106" lon="-1.58146">
        <ele>71</ele>
        <time>2021-08-29T11:03:31.000Z</time>
      </trkpt>
      <trkpt lat="47.18102" lon="-1.58165">
        <ele>71</ele>
        <time>2021-08-29T11:03:33.000Z</time>
      </trkpt>
      <trkpt lat="47.18098" lon="-1.58185">
        <ele>70</ele>
        <time>2021-08-29T11:03:35.000Z</time>
      </trkpt>
      <trkpt lat="47.18095" lon="-1.58205">
        <ele>70</ele>
        <time>2021-08-29T11:03:37.000Z</time>
      </trkpt>
      <trkpt lat="47.18092" lon="-1.58225">
        <ele>70</ele>
        <time>2021-08-29T11:03:39.000Z</time>
      </trkpt>
      <trkpt lat="47.18089" lon="-1.58244">
        <ele>70</ele>
        <time>2021-08-29T11:03:41.000Z</time>
      </trkpt>
      <trkpt lat="47.18087" lon="-1.58264">
        <ele>70</ele>
        <time>2021-08-29T11:03:43.000Z</time>
      </trkpt>
      <trkpt lat="47.18086" lon="-1.58284">
        <ele>70</ele>
        <time>2021-08-29T11:03:45.000Z</time>
      </trkpt>
      <trkpt lat="47.18086" lon="-1.58305">
        <ele>71</ele>
        <time>2021-08-29T11:03:47.000Z</time>
      </trkpt>
      <trkpt lat="47.18088" lon="-1.58325">
        <ele>71</ele>
        <time>2021-08-29T11:03:49.000Z</time>
      </trkpt>
      <trkpt lat="47.18091" lon="-1.58344">
        <ele>71</ele>
        <time>2021-08-29T11:03:51.000Z</time>
      </trkpt>
      <trkpt lat="47.18096" lon="-1.58362">
        <ele>71</ele>
        <time>2021-08-29T11:03:53.000Z</time>
      </trkpt>
      <trkpt lat="47.18101" lon="-1.5838">
        <ele>70</ele>
        <time>2021-08-29T11:03:55.000Z</time>
      </trkpt>
      <trkpt lat="47.18106" lon="-1.58396">
        <ele>70</ele>
        <time>2021-08-29T11:03:57.000Z</time>
      </trkpt>
      <trkpt lat="47.18113" lon="-1.58411">
        <ele>70</ele>
        <time>2021-08-29T11:03:59.000Z</time>
      </trkpt>
      <trkpt lat="47.18118" lon="-1.58426">
        <ele>71</ele>
        <time>2021-08-29T11:04:01.000Z</time>
      </trkpt>
      <trkpt lat="47.18122" lon="-1.58439">
        <ele>71</ele>
        <time>2021-08-29T11:04:03.000Z</time>
      </trkpt>
      <trkpt lat="47.18119" lon="-1.58453">
        <ele>71</ele>
        <time>2021-08-29T11:04:05.000Z</time>
      </trkpt>
      <trkpt lat="47.18115" lon="-1.58469">
        <ele>71</ele>
        <time>2021-08-29T11:04:07.000Z</time>
      </trkpt>
      <trkpt lat="47.18113" lon="-1.58489">
        <ele>70</ele>
        <time>2021-08-29T11:04:09.000Z</time>
      </trkpt>
      <trkpt lat="47.18112" lon="-1.58508">
        <ele>71</ele>
        <time>2021-08-29T11:04:11.000Z</time>
      </trkpt>
      <trkpt lat="47.1811" lon="-1.58527">
        <ele>70</ele>
        <time>2021-08-29T11:04:13.000Z</time>
      </trkpt>
      <trkpt lat="47.18111" lon="-1.58546">
        <ele>70</ele>
        <time>2021-08-29T11:04:15.000Z</time>
      </trkpt>
      <trkpt lat="47.18112" lon="-1.58564">
        <ele>70</ele>
        <time>2021-08-29T11:04:17.000Z</time>
      </trkpt>
      <trkpt lat="47.18106" lon="-1.58584">
        <ele>69</ele>
        <time>2021-08-29T11:04:19.000Z</time>
      </trkpt>
      <trkpt lat="47.181" lon="-1.58602">
        <ele>69</ele>
        <time>2021-08-29T11:04:21.000Z</time>
      </trkpt>
      <trkpt lat="47.18093" lon="-1.5862">
        <ele>69</ele>
        <time>2021-08-29T11:04:23.000Z</time>
      </trkpt>
      <trkpt lat="47.18087" lon="-1.58638">
        <ele>70</ele>
        <time>2021-08-29T11:04:25.000Z</time>
      </trkpt>
      <trkpt lat="47.1808" lon="-1.58656">
        <ele>70</ele>
        <time>2021-08-29T11:04:27.000Z</time>
      </trkpt>
      <trkpt lat="47.18074" lon="-1.58674">
        <ele>70</ele>
        <time>2021-08-29T11:04:29.000Z</time>
      </trkpt>
      <trkpt lat="47.18068" lon="-1.58691">
        <ele>70</ele>
        <time>2021-08-29T11:04:31.000Z</time>
      </trkpt>
      <trkpt lat="47.18062" lon="-1.58709">
        <ele>70</ele>
        <time>2021-08-29T11:04:33.000Z</time>
      </trkpt>
      <trkpt lat="47.18054" lon="-1.58726">
        <ele>69</ele>
        <time>2021-08-29T11:04:35.000Z</time>
      </trkpt>
      <trkpt lat="47.18046" lon="-1.58742">
        <ele>69</ele>
        <time>2021-08-29T11:04:37.000Z</time>
      </trkpt>
      <trkpt lat="47.18038" lon="-1.58757">
        <ele>69</ele>
        <time>2021-08-29T11:04:39.000Z</time>
      </trkpt>
      <trkpt lat="47.1803" lon="-1.58773">
        <ele>70</ele>
        <time>2021-08-29T11:04:41.000Z</time>
      </trkpt>
      <trkpt lat="47.18023" lon="-1.58789">
        <ele>70</ele>
        <time>2021-08-29T11:04:43.000Z</time>
      </trkpt>
      <trkpt lat="47.18016" lon="-1.58805">
        <ele>71</ele>
        <time>2021-08-29T11:04:45.000Z</time>
      </trkpt>
      <trkpt lat="47.18008" lon="-1.58822">
        <ele>71</ele>
        <time>2021-08-29T11:04:47.000Z</time>
      </trkpt>
      <trkpt lat="47.18001" lon="-1.58838">
        <ele>70</ele>
        <time>2021-08-29T11:04:49.000Z</time>
      </trkpt>
      <trkpt lat="47.17994" lon="-1.58853">
        <ele>70</ele>
        <time>2021-08-29T11:04:51.000Z</time>
      </trkpt>
      <trkpt lat="47.1799" lon="-1.58869">
        <ele>70</ele>
        <time>2021-08-29T11:04:53.000Z</time>
      </trkpt>
      <trkpt lat="47.17992" lon="-1.58884">
        <ele>70</ele>
        <time>2021-08-29T11:04:55.000Z</time>
      </trkpt>
      <trkpt lat="47.18003" lon="-1.58895">
        <ele>70</ele>
        <time>2021-08-29T11:04:57.000Z</time>
      </trkpt>
      <trkpt lat="47.18014" lon="-1.58904">
        <ele>70</ele>
        <time>2021-08-29T11:04:59.000Z</time>
      </trkpt>
      <trkpt lat="47.18025" lon="-1.58914">
        <ele>70</ele>
        <time>2021-08-29T11:05:01.000Z</time>
      </trkpt>
      <trkpt lat="47.18035" lon="-1.58925">
        <ele>70</ele>
        <time>2021-08-29T11:05:03.000Z</time>
      </trkpt>
      <trkpt lat="47.18045" lon="-1.58935">
        <ele>70</ele>
        <time>2021-08-29T11:05:05.000Z</time>
      </trkpt>
      <trkpt lat="47.18055" lon="-1.58946">
        <ele>70</ele>
        <time>2021-08-29T11:05:07.000Z</time>
      </trkpt>
      <trkpt lat="47.18062" lon="-1.58962">
        <ele>69</ele>
        <time>2021-08-29T11:05:09.000Z</time>
      </trkpt>
      <trkpt lat="47.18062" lon="-1.58981">
        <ele>70</ele>
        <time>2021-08-29T11:05:11.000Z</time>
      </trkpt>
      <trkpt lat="47.18063" lon="-1.58998">
        <ele>69</ele>
        <time>2021-08-29T11:05:13.000Z</time>
      </trkpt>
      <trkpt lat="47.18066" lon="-1.59016">
        <ele>70</ele>
        <time>2021-08-29T11:05:15.000Z</time>
      </trkpt>
      <trkpt lat="47.18069" lon="-1.59034">
        <ele>70</ele>
        <time>2021-08-29T11:05:17.000Z</time>
      </trkpt>
      <trkpt lat="47.18073" lon="-1.59051">
        <ele>71</ele>
        <time>2021-08-29T11:05:19.000Z</time>
      </trkpt>
      <trkpt lat="47.18076" lon="-1.5907">
        <ele>71</ele>
        <time>2021-08-29T11:05:21.000Z</time>
      </trkpt>
      <trkpt lat="47.18079" lon="-1.59087">
        <ele>71</ele>
        <time>2021-08-29T11:05:23.000Z</time>
      </trkpt>
      <trkpt lat="47.18081" lon="-1.59106">
        <ele>71</ele>
        <time>2021-08-29T11:05:25.000Z</time>
      </trkpt>
      <trkpt lat="47.18084" lon="-1.59124">
        <ele>71</ele>
        <time>2021-08-29T11:05:27.000Z</time>
      </trkpt>
      <trkpt lat="47.18087" lon="-1.59142">
        <ele>70</ele>
        <time>2021-08-29T11:05:29.000Z</time>
      </trkpt>
      <trkpt lat="47.18091" lon="-1.5916">
        <ele>70</ele>
        <time>2021-08-29T11:05:31.000Z</time>
      </trkpt>
      <trkpt lat="47.18095" lon="-1.59176">
        <ele>69</ele>
        <time>2021-08-29T11:05:33.000Z</time>
      </trkpt>
      <trkpt lat="47.18096" lon="-1.59191">
        <ele>69</ele>
        <time>2021-08-29T11:05:35.000Z</time>
      </trkpt>
      <trkpt lat="47.18087" lon="-1.59205">
        <ele>69</ele>
        <time>2021-08-29T11:05:37.000Z</time>
      </trkpt>
      <trkpt lat="47.18079" lon="-1.59222">
        <ele>69</ele>
        <time>2021-08-29T11:05:39.000Z</time>
      </trkpt>
      <trkpt lat="47.18075" lon="-1.5924">
        <ele>69</ele>
        <time>2021-08-29T11:05:41.000Z</time>
      </trkpt>
      <trkpt lat="47.18071" lon="-1.59259">
        <ele>69</ele>
        <time>2021-08-29T11:05:43.000Z</time>
      </trkpt>
      <trkpt lat="47.18068" lon="-1.59278">
        <ele>70</ele>
        <time>2021-08-29T11:05:45.000Z</time>
      </trkpt>
      <trkpt lat="47.18064" lon="-1.59297">
        <ele>70</ele>
        <time>2021-08-29T11:05:47.000Z</time>
      </trkpt>
      <trkpt lat="47.1806" lon="-1.59315">
        <ele>70</ele>
        <time>2021-08-29T11:05:49.000Z</time>
      </trkpt>
      <trkpt lat="47.18057" lon="-1.59333">
        <ele>70</ele>
        <time>2021-08-29T11:05:51.000Z</time>
      </trkpt>
      <trkpt lat="47.18054" lon="-1.59351">
        <ele>70</ele>
        <time>2021-08-29T11:05:53.000Z</time>
      </trkpt>
      <trkpt lat="47.18051" lon="-1.59369">
        <ele>70</ele>
        <time>2021-08-29T11:05:55.000Z</time>
      </trkpt>
      <trkpt lat="47.18052" lon="-1.59386">
        <ele>70</ele>
        <time>2021-08-29T11:05:57.000Z</time>
      </trkpt>
      <trkpt lat="47.18059" lon="-1.59399">
        <ele>70</ele>
        <time>2021-08-29T11:05:59.000Z</time>
      </trkpt>
      <trkpt lat="47.18066" lon="-1.5941">
        <ele>70</ele>
        <time>2021-08-29T11:06:01.000Z</time>
      </trkpt>
      <trkpt lat="47.18061" lon="-1.59429">
        <ele>69</ele>
        <time>2021-08-29T11:06:03.000Z</time>
      </trkpt>
      <trkpt lat="47.1805" lon="-1.59441">
        <ele>69</ele>
        <time>2021-08-29T11:06:05.000Z</time>
      </trkpt>
      <trkpt lat="47.18042" lon="-1.59457">
        <ele>69</ele>
        <time>2021-08-29T11:06:07.000Z</time>
      </trkpt>
      <trkpt lat="47.18036" lon="-1.59474">
        <ele>69</ele>
        <time>2021-08-29T11:06:09.000Z</time>
      </trkpt>
      <trkpt lat="47.18031" lon="-1.59493">
        <ele>68</ele>
        <time>2021-08-29T11:06:11.000Z</time>
      </trkpt>
      <trkpt lat="47.18026" lon="-1.59512">
        <ele>68</ele>
        <time>2021-08-29T11:06:13.000Z</time>
      </trkpt>
      <trkpt lat="47.18021" lon="-1.59531">
        <ele>68</ele>
        <time>2021-08-29T11:06:15.000Z</time>
      </trkpt>
      <trkpt lat="47.18016" lon="-1.5955">
        <ele>68</ele>
        <time>2021-08-29T11:06:17.000Z</time>
      </trkpt>
      <trkpt lat="47.18011" lon="-1.5957">
        <ele>67</ele>
        <time>2021-08-29T11:06:19.000Z</time>
      </trkpt>
      <trkpt lat="47.18006" lon="-1.5959">
        <ele>67</ele>
        <time>2021-08-29T11:06:21.000Z</time>
      </trkpt>
      <trkpt lat="47.18001" lon="-1.59609">
        <ele>67</ele>
        <time>2021-08-29T11:06:23.000Z</time>
      </trkpt>
      <trkpt lat="47.17995" lon="-1.59628">
        <ele>66</ele>
        <time>2021-08-29T11:06:25.000Z</time>
      </trkpt>
      <trkpt lat="47.1799" lon="-1.59648">
        <ele>66</ele>
        <time>2021-08-29T11:06:27.000Z</time>
      </trkpt>
      <trkpt lat="47.17985" lon="-1.59669">
        <ele>65</ele>
        <time>2021-08-29T11:06:29.000Z</time>
      </trkpt>
      <trkpt lat="47.17981" lon="-1.59689">
        <ele>65</ele>
        <time>2021-08-29T11:06:31.000Z</time>
      </trkpt>
      <trkpt lat="47.17976" lon="-1.5971">
        <ele>65</ele>
        <time>2021-08-29T11:06:33.000Z</time>
      </trkpt>
      <trkpt lat="47.17968" lon="-1.5973">
        <ele>64</ele>
        <time>2021-08-29T11:06:35.000Z</time>
      </trkpt>
      <trkpt lat="47.17962" lon="-1.59752">
        <ele>64</ele>
        <time>2021-08-29T11:06:37.000Z</time>
      </trkpt>
      <trkpt lat="47.17956" lon="-1.59774">
        <ele>63</ele>
        <time>2021-08-29T11:06:39.000Z</time>
      </trkpt>
      <trkpt lat="47.17951" lon="-1.59798">
        <ele>62</ele>
        <time>2021-08-29T11:06:41.000Z</time>
      </trkpt>
      <trkpt lat="47.17949" lon="-1.59811">
        <ele>62</ele>
        <time>2021-08-29T11:06:42.000Z</time>
      </trkpt>
      <trkpt lat="47.17947" lon="-1.59825">
        <ele>61</ele>
        <time>2021-08-29T11:06:43.000Z</time>
      </trkpt>
      <trkpt lat="47.17945" lon="-1.59839">
        <ele>60</ele>
        <time>2021-08-29T11:06:44.000Z</time>
      </trkpt>
      <trkpt lat="47.17943" lon="-1.59852">
        <ele>60</ele>
        <time>2021-08-29T11:06:45.000Z</time>
      </trkpt>
      <trkpt lat="47.17941" lon="-1.59866">
        <ele>60</ele>
        <time>2021-08-29T11:06:46.000Z</time>
      </trkpt>
      <trkpt lat="47.17938" lon="-1.59881">
        <ele>59</ele>
        <time>2021-08-29T11:06:47.000Z</time>
      </trkpt>
      <trkpt lat="47.17934" lon="-1.59894">
        <ele>59</ele>
        <time>2021-08-29T11:06:48.000Z</time>
      </trkpt>
      <trkpt lat="47.1793" lon="-1.59908">
        <ele>58</ele>
        <time>2021-08-29T11:06:49.000Z</time>
      </trkpt>
      <trkpt lat="47.17928" lon="-1.59922">
        <ele>58</ele>
        <time>2021-08-29T11:06:50.000Z</time>
      </trkpt>
      <trkpt lat="47.17923" lon="-1.59935">
        <ele>57</ele>
        <time>2021-08-29T11:06:51.000Z</time>
      </trkpt>
      <trkpt lat="47.17913" lon="-1.59943">
        <ele>57</ele>
        <time>2021-08-29T11:06:52.000Z</time>
      </trkpt>
      <trkpt lat="47.17903" lon="-1.59946">
        <ele>57</ele>
        <time>2021-08-29T11:06:53.000Z</time>
      </trkpt>
      <trkpt lat="47.17894" lon="-1.59947">
        <ele>56</ele>
        <time>2021-08-29T11:06:54.000Z</time>
      </trkpt>
      <trkpt lat="47.17879" lon="-1.5996">
        <ele>56</ele>
        <time>2021-08-29T11:06:56.000Z</time>
      </trkpt>
      <trkpt lat="47.17868" lon="-1.59978">
        <ele>56</ele>
        <time>2021-08-29T11:06:58.000Z</time>
      </trkpt>
      <trkpt lat="47.17858" lon="-1.59996">
        <ele>57</ele>
        <time>2021-08-29T11:07:00.000Z</time>
      </trkpt>
      <trkpt lat="47.17849" lon="-1.60013">
        <ele>57</ele>
        <time>2021-08-29T11:07:02.000Z</time>
      </trkpt>
      <trkpt lat="47.1784" lon="-1.60029">
        <ele>57</ele>
        <time>2021-08-29T11:07:04.000Z</time>
      </trkpt>
      <trkpt lat="47.17832" lon="-1.60043">
        <ele>57</ele>
        <time>2021-08-29T11:07:06.000Z</time>
      </trkpt>
      <trkpt lat="47.17823" lon="-1.60058">
        <ele>57</ele>
        <time>2021-08-29T11:07:08.000Z</time>
      </trkpt>
      <trkpt lat="47.17815" lon="-1.60071">
        <ele>57</ele>
        <time>2021-08-29T11:07:10.000Z</time>
      </trkpt>
      <trkpt lat="47.17807" lon="-1.60084">
        <ele>58</ele>
        <time>2021-08-29T11:07:12.000Z</time>
      </trkpt>
      <trkpt lat="47.178" lon="-1.60098">
        <ele>58</ele>
        <time>2021-08-29T11:07:14.000Z</time>
      </trkpt>
      <trkpt lat="47.17793" lon="-1.6011">
        <ele>59</ele>
        <time>2021-08-29T11:07:16.000Z</time>
      </trkpt>
      <trkpt lat="47.17785" lon="-1.60124">
        <ele>59</ele>
        <time>2021-08-29T11:07:18.000Z</time>
      </trkpt>
      <trkpt lat="47.17777" lon="-1.60136">
        <ele>60</ele>
        <time>2021-08-29T11:07:20.000Z</time>
      </trkpt>
      <trkpt lat="47.1777" lon="-1.60149">
        <ele>60</ele>
        <time>2021-08-29T11:07:22.000Z</time>
      </trkpt>
      <trkpt lat="47.17762" lon="-1.60163">
        <ele>61</ele>
        <time>2021-08-29T11:07:24.000Z</time>
      </trkpt>
      <trkpt lat="47.17756" lon="-1.60177">
        <ele>62</ele>
        <time>2021-08-29T11:07:26.000Z</time>
      </trkpt>
      <trkpt lat="47.17751" lon="-1.60192">
        <ele>62</ele>
        <time>2021-08-29T11:07:28.000Z</time>
      </trkpt>
      <trkpt lat="47.17747" lon="-1.60208">
        <ele>64</ele>
        <time>2021-08-29T11:07:30.000Z</time>
      </trkpt>
      <trkpt lat="47.17744" lon="-1.60225">
        <ele>64</ele>
        <time>2021-08-29T11:07:32.000Z</time>
      </trkpt>
      <trkpt lat="47.1774" lon="-1.60241">
        <ele>64</ele>
        <time>2021-08-29T11:07:34.000Z</time>
      </trkpt>
      <trkpt lat="47.17736" lon="-1.60257">
        <ele>65</ele>
        <time>2021-08-29T11:07:36.000Z</time>
      </trkpt>
      <trkpt lat="47.1773" lon="-1.60272">
        <ele>65</ele>
        <time>2021-08-29T11:07:38.000Z</time>
      </trkpt>
      <trkpt lat="47.17721" lon="-1.60286">
        <ele>65</ele>
        <time>2021-08-29T11:07:40.000Z</time>
      </trkpt>
      <trkpt lat="47.17713" lon="-1.60297">
        <ele>65</ele>
        <time>2021-08-29T11:07:42.000Z</time>
      </trkpt>
      <trkpt lat="47.17704" lon="-1.60309">
        <ele>65</ele>
        <time>2021-08-29T11:07:44.000Z</time>
      </trkpt>
      <trkpt lat="47.17695" lon="-1.60322">
        <ele>65</ele>
        <time>2021-08-29T11:07:46.000Z</time>
      </trkpt>
      <trkpt lat="47.17686" lon="-1.60333">
        <ele>65</ele>
        <time>2021-08-29T11:07:48.000Z</time>
      </trkpt>
      <trkpt lat="47.17677" lon="-1.60345">
        <ele>65</ele>
        <time>2021-08-29T11:07:50.000Z</time>
      </trkpt>
      <trkpt lat="47.17669" lon="-1.60357">
        <ele>65</ele>
        <time>2021-08-29T11:07:52.000Z</time>
      </trkpt>
      <trkpt lat="47.1766" lon="-1.6037">
        <ele>65</ele>
        <time>2021-08-29T11:07:54.000Z</time>
      </trkpt>
      <trkpt lat="47.17652" lon="-1.60382">
        <ele>65</ele>
        <time>2021-08-29T11:07:56.000Z</time>
      </trkpt>
      <trkpt lat="47.17643" lon="-1.60396">
        <ele>64</ele>
        <time>2021-08-29T11:07:58.000Z</time>
      </trkpt>
      <trkpt lat="47.17633" lon="-1.60412">
        <ele>63</ele>
        <time>2021-08-29T11:08:00.000Z</time>
      </trkpt>
      <trkpt lat="47.17624" lon="-1.60427">
        <ele>63</ele>
        <time>2021-08-29T11:08:02.000Z</time>
      </trkpt>
      <trkpt lat="47.17614" lon="-1.60443">
        <ele>63</ele>
        <time>2021-08-29T11:08:04.000Z</time>
      </trkpt>
      <trkpt lat="47.17604" lon="-1.60459">
        <ele>62</ele>
        <time>2021-08-29T11:08:06.000Z</time>
      </trkpt>
      <trkpt lat="47.17594" lon="-1.60475">
        <ele>62</ele>
        <time>2021-08-29T11:08:08.000Z</time>
      </trkpt>
      <trkpt lat="47.17585" lon="-1.6049">
        <ele>63</ele>
        <time>2021-08-29T11:08:10.000Z</time>
      </trkpt>
      <trkpt lat="47.17576" lon="-1.60506">
        <ele>63</ele>
        <time>2021-08-29T11:08:12.000Z</time>
      </trkpt>
      <trkpt lat="47.17566" lon="-1.60521">
        <ele>63</ele>
        <time>2021-08-29T11:08:14.000Z</time>
      </trkpt>
      <trkpt lat="47.17557" lon="-1.60536">
        <ele>63</ele>
        <time>2021-08-29T11:08:16.000Z</time>
      </trkpt>
      <trkpt lat="47.17547" lon="-1.60551">
        <ele>62</ele>
        <time>2021-08-29T11:08:18.000Z</time>
      </trkpt>
      <trkpt lat="47.17537" lon="-1.60567">
        <ele>62</ele>
        <time>2021-08-29T11:08:20.000Z</time>
      </trkpt>
      <trkpt lat="47.17527" lon="-1.60583">
        <ele>62</ele>
        <time>2021-08-29T11:08:22.000Z</time>
      </trkpt>
      <trkpt lat="47.17518" lon="-1.60599">
        <ele>62</ele>
        <time>2021-08-29T11:08:24.000Z</time>
      </trkpt>
      <trkpt lat="47.17508" lon="-1.60614">
        <ele>62</ele>
        <time>2021-08-29T11:08:26.000Z</time>
      </trkpt>
      <trkpt lat="47.17499" lon="-1.6063">
        <ele>62</ele>
        <time>2021-08-29T11:08:28.000Z</time>
      </trkpt>
      <trkpt lat="47.17488" lon="-1.60646">
        <ele>62</ele>
        <time>2021-08-29T11:08:30.000Z</time>
      </trkpt>
      <trkpt lat="47.17479" lon="-1.60662">
        <ele>61</ele>
        <time>2021-08-29T11:08:32.000Z</time>
      </trkpt>
      <trkpt lat="47.17469" lon="-1.60679">
        <ele>61</ele>
        <time>2021-08-29T11:08:34.000Z</time>
      </trkpt>
      <trkpt lat="47.17458" lon="-1.60696">
        <ele>61</ele>
        <time>2021-08-29T11:08:36.000Z</time>
      </trkpt>
      <trkpt lat="47.17448" lon="-1.60713">
        <ele>61</ele>
        <time>2021-08-29T11:08:38.000Z</time>
      </trkpt>
      <trkpt lat="47.17437" lon="-1.60731">
        <ele>60</ele>
        <time>2021-08-29T11:08:40.000Z</time>
      </trkpt>
      <trkpt lat="47.17426" lon="-1.60751">
        <ele>59</ele>
        <time>2021-08-29T11:08:42.000Z</time>
      </trkpt>
      <trkpt lat="47.17417" lon="-1.60773">
        <ele>58</ele>
        <time>2021-08-29T11:08:44.000Z</time>
      </trkpt>
      <trkpt lat="47.17409" lon="-1.60797">
        <ele>57</ele>
        <time>2021-08-29T11:08:46.000Z</time>
      </trkpt>
      <trkpt lat="47.17402" lon="-1.60821">
        <ele>57</ele>
        <time>2021-08-29T11:08:48.000Z</time>
      </trkpt>
      <trkpt lat="47.17399" lon="-1.60834">
        <ele>56</ele>
        <time>2021-08-29T11:08:49.000Z</time>
      </trkpt>
      <trkpt lat="47.17396" lon="-1.6086">
        <ele>56</ele>
        <time>2021-08-29T11:08:51.000Z</time>
      </trkpt>
      <trkpt lat="47.17395" lon="-1.60874">
        <ele>56</ele>
        <time>2021-08-29T11:08:52.000Z</time>
      </trkpt>
      <trkpt lat="47.17395" lon="-1.609">
        <ele>56</ele>
        <time>2021-08-29T11:08:54.000Z</time>
      </trkpt>
      <trkpt lat="47.17395" lon="-1.60913">
        <ele>56</ele>
        <time>2021-08-29T11:08:55.000Z</time>
      </trkpt>
      <trkpt lat="47.17396" lon="-1.60927">
        <ele>56</ele>
        <time>2021-08-29T11:08:56.000Z</time>
      </trkpt>
      <trkpt lat="47.17397" lon="-1.6094">
        <ele>56</ele>
        <time>2021-08-29T11:08:57.000Z</time>
      </trkpt>
      <trkpt lat="47.174" lon="-1.60953">
        <ele>56</ele>
        <time>2021-08-29T11:08:58.000Z</time>
      </trkpt>
      <trkpt lat="47.17403" lon="-1.60966">
        <ele>57</ele>
        <time>2021-08-29T11:08:59.000Z</time>
      </trkpt>
      <trkpt lat="47.17413" lon="-1.60986">
        <ele>57</ele>
        <time>2021-08-29T11:09:01.000Z</time>
      </trkpt>
      <trkpt lat="47.1742" lon="-1.61007">
        <ele>56</ele>
        <time>2021-08-29T11:09:03.000Z</time>
      </trkpt>
      <trkpt lat="47.17421" lon="-1.6103">
        <ele>55</ele>
        <time>2021-08-29T11:09:05.000Z</time>
      </trkpt>
      <trkpt lat="47.17424" lon="-1.6105">
        <ele>56</ele>
        <time>2021-08-29T11:09:07.000Z</time>
      </trkpt>
      <trkpt lat="47.17431" lon="-1.61067">
        <ele>57</ele>
        <time>2021-08-29T11:09:09.000Z</time>
      </trkpt>
      <trkpt lat="47.17438" lon="-1.61085">
        <ele>57</ele>
        <time>2021-08-29T11:09:11.000Z</time>
      </trkpt>
      <trkpt lat="47.17445" lon="-1.61102">
        <ele>58</ele>
        <time>2021-08-29T11:09:13.000Z</time>
      </trkpt>
      <trkpt lat="47.17452" lon="-1.61118">
        <ele>59</ele>
        <time>2021-08-29T11:09:15.000Z</time>
      </trkpt>
      <trkpt lat="47.17458" lon="-1.61134">
        <ele>59</ele>
        <time>2021-08-29T11:09:17.000Z</time>
      </trkpt>
      <trkpt lat="47.17464" lon="-1.6115">
        <ele>59</ele>
        <time>2021-08-29T11:09:19.000Z</time>
      </trkpt>
      <trkpt lat="47.17469" lon="-1.61166">
        <ele>59</ele>
        <time>2021-08-29T11:09:21.000Z</time>
      </trkpt>
      <trkpt lat="47.17476" lon="-1.61181">
        <ele>59</ele>
        <time>2021-08-29T11:09:23.000Z</time>
      </trkpt>
      <trkpt lat="47.17483" lon="-1.61198">
        <ele>59</ele>
        <time>2021-08-29T11:09:25.000Z</time>
      </trkpt>
      <trkpt lat="47.1749" lon="-1.61214">
        <ele>59</ele>
        <time>2021-08-29T11:09:27.000Z</time>
      </trkpt>
      <trkpt lat="47.17496" lon="-1.61229">
        <ele>59</ele>
        <time>2021-08-29T11:09:29.000Z</time>
      </trkpt>
      <trkpt lat="47.17503" lon="-1.61244">
        <ele>60</ele>
        <time>2021-08-29T11:09:31.000Z</time>
      </trkpt>
      <trkpt lat="47.17511" lon="-1.61258">
        <ele>60</ele>
        <time>2021-08-29T11:09:33.000Z</time>
      </trkpt>
      <trkpt lat="47.1752" lon="-1.61273">
        <ele>60</ele>
        <time>2021-08-29T11:09:35.000Z</time>
      </trkpt>
      <trkpt lat="47.17529" lon="-1.61284">
        <ele>60</ele>
        <time>2021-08-29T11:09:37.000Z</time>
      </trkpt>
      <trkpt lat="47.17541" lon="-1.61292">
        <ele>59</ele>
        <time>2021-08-29T11:09:39.000Z</time>
      </trkpt>
      <trkpt lat="47.17552" lon="-1.61299">
        <ele>60</ele>
        <time>2021-08-29T11:09:41.000Z</time>
      </trkpt>
      <trkpt lat="47.17559" lon="-1.61313">
        <ele>59</ele>
        <time>2021-08-29T11:09:43.000Z</time>
      </trkpt>
      <trkpt lat="47.1756" lon="-1.61331">
        <ele>59</ele>
        <time>2021-08-29T11:09:45.000Z</time>
      </trkpt>
      <trkpt lat="47.17551" lon="-1.61348">
        <ele>59</ele>
        <time>2021-08-29T11:09:47.000Z</time>
      </trkpt>
      <trkpt lat="47.17539" lon="-1.6136">
        <ele>59</ele>
        <time>2021-08-29T11:09:49.000Z</time>
      </trkpt>
      <trkpt lat="47.1753" lon="-1.61376">
        <ele>59</ele>
        <time>2021-08-29T11:09:51.000Z</time>
      </trkpt>
      <trkpt lat="47.17524" lon="-1.61396">
        <ele>59</ele>
        <time>2021-08-29T11:09:53.000Z</time>
      </trkpt>
      <trkpt lat="47.17519" lon="-1.61414">
        <ele>60</ele>
        <time>2021-08-29T11:09:55.000Z</time>
      </trkpt>
      <trkpt lat="47.17515" lon="-1.61431">
        <ele>60</ele>
        <time>2021-08-29T11:09:57.000Z</time>
      </trkpt>
      <trkpt lat="47.17511" lon="-1.61448">
        <ele>61</ele>
        <time>2021-08-29T11:09:59.000Z</time>
      </trkpt>
      <trkpt lat="47.17503" lon="-1.6146">
        <ele>62</ele>
        <time>2021-08-29T11:10:01.000Z</time>
      </trkpt>
      <trkpt lat="47.17491" lon="-1.61467">
        <ele>62</ele>
        <time>2021-08-29T11:10:03.000Z</time>
      </trkpt>
      <trkpt lat="47.17478" lon="-1.61473">
        <ele>63</ele>
        <time>2021-08-29T11:10:05.000Z</time>
      </trkpt>
      <trkpt lat="47.17466" lon="-1.61478">
        <ele>63</ele>
        <time>2021-08-29T11:10:07.000Z</time>
      </trkpt>
      <trkpt lat="47.17453" lon="-1.61483">
        <ele>63</ele>
        <time>2021-08-29T11:10:09.000Z</time>
      </trkpt>
      <trkpt lat="47.17441" lon="-1.61489">
        <ele>64</ele>
        <time>2021-08-29T11:10:11.000Z</time>
      </trkpt>
      <trkpt lat="47.17429" lon="-1.61496">
        <ele>64</ele>
        <time>2021-08-29T11:10:13.000Z</time>
      </trkpt>
      <trkpt lat="47.17417" lon="-1.61504">
        <ele>64</ele>
        <time>2021-08-29T11:10:15.000Z</time>
      </trkpt>
      <trkpt lat="47.17406" lon="-1.61511">
        <ele>64</ele>
        <time>2021-08-29T11:10:17.000Z</time>
      </trkpt>
      <trkpt lat="47.17396" lon="-1.61519">
        <ele>64</ele>
        <time>2021-08-29T11:10:19.000Z</time>
      </trkpt>
      <trkpt lat="47.17387" lon="-1.6152">
        <ele>65</ele>
        <time>2021-08-29T11:10:23.000Z</time>
      </trkpt>
      <trkpt lat="47.1738" lon="-1.61511">
        <ele>64</ele>
        <time>2021-08-29T11:11:03.000Z</time>
      </trkpt>
      <trkpt lat="47.17382" lon="-1.61525">
        <ele>67</ele>
        <time>2021-08-29T11:11:54.000Z</time>
      </trkpt>
      <trkpt lat="47.17375" lon="-1.61539">
        <ele>68</ele>
        <time>2021-08-29T11:11:57.000Z</time>
      </trkpt>
      <trkpt lat="47.17367" lon="-1.61548">
        <ele>68</ele>
        <time>2021-08-29T11:11:59.000Z</time>
      </trkpt>
      <trkpt lat="47.17357" lon="-1.61557">
        <ele>68</ele>
        <time>2021-08-29T11:12:01.000Z</time>
      </trkpt>
      <trkpt lat="47.17349" lon="-1.61567">
        <ele>68</ele>
        <time>2021-08-29T11:12:03.000Z</time>
      </trkpt>
      <trkpt lat="47.17339" lon="-1.61579">
        <ele>68</ele>
        <time>2021-08-29T11:12:05.000Z</time>
      </trkpt>
      <trkpt lat="47.1733" lon="-1.61591">
        <ele>68</ele>
        <time>2021-08-29T11:12:07.000Z</time>
      </trkpt>
      <trkpt lat="47.17321" lon="-1.61603">
        <ele>68</ele>
        <time>2021-08-29T11:12:09.000Z</time>
      </trkpt>
      <trkpt lat="47.17312" lon="-1.61616">
        <ele>68</ele>
        <time>2021-08-29T11:12:11.000Z</time>
      </trkpt>
      <trkpt lat="47.17303" lon="-1.6163">
        <ele>68</ele>
        <time>2021-08-29T11:12:13.000Z</time>
      </trkpt>
      <trkpt lat="47.17295" lon="-1.61644">
        <ele>68</ele>
        <time>2021-08-29T11:12:15.000Z</time>
      </trkpt>
      <trkpt lat="47.17287" lon="-1.61659">
        <ele>68</ele>
        <time>2021-08-29T11:12:17.000Z</time>
      </trkpt>
      <trkpt lat="47.17279" lon="-1.61674">
        <ele>68</ele>
        <time>2021-08-29T11:12:19.000Z</time>
      </trkpt>
      <trkpt lat="47.17272" lon="-1.61689">
        <ele>68</ele>
        <time>2021-08-29T11:12:21.000Z</time>
      </trkpt>
      <trkpt lat="47.17264" lon="-1.61704">
        <ele>68</ele>
        <time>2021-08-29T11:12:23.000Z</time>
      </trkpt>
      <trkpt lat="47.17256" lon="-1.61719">
        <ele>68</ele>
        <time>2021-08-29T11:12:25.000Z</time>
      </trkpt>
      <trkpt lat="47.1725" lon="-1.61736">
        <ele>68</ele>
        <time>2021-08-29T11:12:27.000Z</time>
      </trkpt>
      <trkpt lat="47.17245" lon="-1.61754">
        <ele>67</ele>
        <time>2021-08-29T11:12:29.000Z</time>
      </trkpt>
      <trkpt lat="47.17242" lon="-1.61774">
        <ele>67</ele>
        <time>2021-08-29T11:12:31.000Z</time>
      </trkpt>
      <trkpt lat="47.17233" lon="-1.61788">
        <ele>67</ele>
        <time>2021-08-29T11:12:33.000Z</time>
      </trkpt>
      <trkpt lat="47.1722" lon="-1.61798">
        <ele>66</ele>
        <time>2021-08-29T11:12:35.000Z</time>
      </trkpt>
      <trkpt lat="47.17208" lon="-1.61807">
        <ele>66</ele>
        <time>2021-08-29T11:12:37.000Z</time>
      </trkpt>
      <trkpt lat="47.17196" lon="-1.61817">
        <ele>66</ele>
        <time>2021-08-29T11:12:39.000Z</time>
      </trkpt>
      <trkpt lat="47.17185" lon="-1.61827">
        <ele>66</ele>
        <time>2021-08-29T11:12:41.000Z</time>
      </trkpt>
      <trkpt lat="47.17173" lon="-1.61838">
        <ele>66</ele>
        <time>2021-08-29T11:12:43.000Z</time>
      </trkpt>
      <trkpt lat="47.17162" lon="-1.61849">
        <ele>66</ele>
        <time>2021-08-29T11:12:45.000Z</time>
      </trkpt>
      <trkpt lat="47.17151" lon="-1.61859">
        <ele>65</ele>
        <time>2021-08-29T11:12:47.000Z</time>
      </trkpt>
      <trkpt lat="47.1714" lon="-1.6187">
        <ele>65</ele>
        <time>2021-08-29T11:12:49.000Z</time>
      </trkpt>
      <trkpt lat="47.17124" lon="-1.61885">
        <ele>64</ele>
        <time>2021-08-29T11:12:52.000Z</time>
      </trkpt>
      <trkpt lat="47.17112" lon="-1.61896">
        <ele>65</ele>
        <time>2021-08-29T11:12:54.000Z</time>
      </trkpt>
      <trkpt lat="47.17101" lon="-1.61907">
        <ele>65</ele>
        <time>2021-08-29T11:12:56.000Z</time>
      </trkpt>
      <trkpt lat="47.1709" lon="-1.61917">
        <ele>65</ele>
        <time>2021-08-29T11:12:58.000Z</time>
      </trkpt>
      <trkpt lat="47.1708" lon="-1.61927">
        <ele>65</ele>
        <time>2021-08-29T11:13:00.000Z</time>
      </trkpt>
      <trkpt lat="47.17071" lon="-1.61937">
        <ele>65</ele>
        <time>2021-08-29T11:13:02.000Z</time>
      </trkpt>
      <trkpt lat="47.1706" lon="-1.61949">
        <ele>66</ele>
        <time>2021-08-29T11:13:04.000Z</time>
      </trkpt>
      <trkpt lat="47.17051" lon="-1.61962">
        <ele>65</ele>
        <time>2021-08-29T11:13:06.000Z</time>
      </trkpt>
      <trkpt lat="47.17041" lon="-1.61975">
        <ele>65</ele>
        <time>2021-08-29T11:13:08.000Z</time>
      </trkpt>
      <trkpt lat="47.17032" lon="-1.61988">
        <ele>65</ele>
        <time>2021-08-29T11:13:10.000Z</time>
      </trkpt>
      <trkpt lat="47.17022" lon="-1.62002">
        <ele>65</ele>
        <time>2021-08-29T11:13:12.000Z</time>
      </trkpt>
      <trkpt lat="47.17013" lon="-1.62015">
        <ele>65</ele>
        <time>2021-08-29T11:13:14.000Z</time>
      </trkpt>
      <trkpt lat="47.17004" lon="-1.62029">
        <ele>65</ele>
        <time>2021-08-29T11:13:16.000Z</time>
      </trkpt>
      <trkpt lat="47.16996" lon="-1.62045">
        <ele>65</ele>
        <time>2021-08-29T11:13:18.000Z</time>
      </trkpt>
      <trkpt lat="47.16987" lon="-1.62061">
        <ele>65</ele>
        <time>2021-08-29T11:13:20.000Z</time>
      </trkpt>
      <trkpt lat="47.16979" lon="-1.62076">
        <ele>66</ele>
        <time>2021-08-29T11:13:22.000Z</time>
      </trkpt>
      <trkpt lat="47.16971" lon="-1.6209">
        <ele>66</ele>
        <time>2021-08-29T11:13:24.000Z</time>
      </trkpt>
      <trkpt lat="47.16962" lon="-1.62106">
        <ele>66</ele>
        <time>2021-08-29T11:13:26.000Z</time>
      </trkpt>
      <trkpt lat="47.16955" lon="-1.62121">
        <ele>66</ele>
        <time>2021-08-29T11:13:28.000Z</time>
      </trkpt>
      <trkpt lat="47.16947" lon="-1.62136">
        <ele>66</ele>
        <time>2021-08-29T11:13:30.000Z</time>
      </trkpt>
      <trkpt lat="47.16939" lon="-1.62152">
        <ele>66</ele>
        <time>2021-08-29T11:13:32.000Z</time>
      </trkpt>
      <trkpt lat="47.16932" lon="-1.62167">
        <ele>66</ele>
        <time>2021-08-29T11:13:34.000Z</time>
      </trkpt>
      <trkpt lat="47.16924" lon="-1.62183">
        <ele>67</ele>
        <time>2021-08-29T11:13:36.000Z</time>
      </trkpt>
      <trkpt lat="47.16916" lon="-1.62198">
        <ele>67</ele>
        <time>2021-08-29T11:13:38.000Z</time>
      </trkpt>
      <trkpt lat="47.16907" lon="-1.62212">
        <ele>67</ele>
        <time>2021-08-29T11:13:40.000Z</time>
      </trkpt>
      <trkpt lat="47.16897" lon="-1.62226">
        <ele>67</ele>
        <time>2021-08-29T11:13:42.000Z</time>
      </trkpt>
      <trkpt lat="47.16887" lon="-1.62239">
        <ele>67</ele>
        <time>2021-08-29T11:13:44.000Z</time>
      </trkpt>
      <trkpt lat="47.16876" lon="-1.62252">
        <ele>68</ele>
        <time>2021-08-29T11:13:46.000Z</time>
      </trkpt>
      <trkpt lat="47.16866" lon="-1.62264">
        <ele>68</ele>
        <time>2021-08-29T11:13:48.000Z</time>
      </trkpt>
      <trkpt lat="47.16856" lon="-1.62277">
        <ele>68</ele>
        <time>2021-08-29T11:13:50.000Z</time>
      </trkpt>
      <trkpt lat="47.16846" lon="-1.62289">
        <ele>68</ele>
        <time>2021-08-29T11:13:52.000Z</time>
      </trkpt>
      <trkpt lat="47.16835" lon="-1.62302">
        <ele>68</ele>
        <time>2021-08-29T11:13:54.000Z</time>
      </trkpt>
      <trkpt lat="47.16824" lon="-1.62313">
        <ele>68</ele>
        <time>2021-08-29T11:13:56.000Z</time>
      </trkpt>
      <trkpt lat="47.16812" lon="-1.62321">
        <ele>67</ele>
        <time>2021-08-29T11:13:58.000Z</time>
      </trkpt>
      <trkpt lat="47.168" lon="-1.62329">
        <ele>68</ele>
        <time>2021-08-29T11:14:00.000Z</time>
      </trkpt>
      <trkpt lat="47.16788" lon="-1.62336">
        <ele>67</ele>
        <time>2021-08-29T11:14:02.000Z</time>
      </trkpt>
      <trkpt lat="47.16775" lon="-1.62342">
        <ele>67</ele>
        <time>2021-08-29T11:14:04.000Z</time>
      </trkpt>
      <trkpt lat="47.16763" lon="-1.6235">
        <ele>66</ele>
        <time>2021-08-29T11:14:06.000Z</time>
      </trkpt>
      <trkpt lat="47.16751" lon="-1.62359">
        <ele>66</ele>
        <time>2021-08-29T11:14:08.000Z</time>
      </trkpt>
      <trkpt lat="47.1674" lon="-1.62371">
        <ele>65</ele>
        <time>2021-08-29T11:14:10.000Z</time>
      </trkpt>
      <trkpt lat="47.16733" lon="-1.62387">
        <ele>65</ele>
        <time>2021-08-29T11:14:12.000Z</time>
      </trkpt>
      <trkpt lat="47.1673" lon="-1.62405">
        <ele>64</ele>
        <time>2021-08-29T11:14:14.000Z</time>
      </trkpt>
      <trkpt lat="47.16727" lon="-1.62423">
        <ele>64</ele>
        <time>2021-08-29T11:14:16.000Z</time>
      </trkpt>
      <trkpt lat="47.16724" lon="-1.6244">
        <ele>65</ele>
        <time>2021-08-29T11:14:18.000Z</time>
      </trkpt>
      <trkpt lat="47.16719" lon="-1.62458">
        <ele>65</ele>
        <time>2021-08-29T11:14:20.000Z</time>
      </trkpt>
      <trkpt lat="47.16714" lon="-1.62476">
        <ele>65</ele>
        <time>2021-08-29T11:14:22.000Z</time>
      </trkpt>
      <trkpt lat="47.16715" lon="-1.62493">
        <ele>65</ele>
        <time>2021-08-29T11:14:24.000Z</time>
      </trkpt>
      <trkpt lat="47.16727" lon="-1.62501">
        <ele>65</ele>
        <time>2021-08-29T11:14:26.000Z</time>
      </trkpt>
      <trkpt lat="47.16741" lon="-1.62505">
        <ele>66</ele>
        <time>2021-08-29T11:14:28.000Z</time>
      </trkpt>
      <trkpt lat="47.16753" lon="-1.62511">
        <ele>66</ele>
        <time>2021-08-29T11:14:30.000Z</time>
      </trkpt>
      <trkpt lat="47.16764" lon="-1.62517">
        <ele>67</ele>
        <time>2021-08-29T11:14:32.000Z</time>
      </trkpt>
      <trkpt lat="47.16776" lon="-1.62524">
        <ele>67</ele>
        <time>2021-08-29T11:14:34.000Z</time>
      </trkpt>
      <trkpt lat="47.16787" lon="-1.62531">
        <ele>67</ele>
        <time>2021-08-29T11:14:36.000Z</time>
      </trkpt>
      <trkpt lat="47.16798" lon="-1.62538">
        <ele>68</ele>
        <time>2021-08-29T11:14:38.000Z</time>
      </trkpt>
      <trkpt lat="47.16809" lon="-1.62545">
        <ele>67</ele>
        <time>2021-08-29T11:14:40.000Z</time>
      </trkpt>
      <trkpt lat="47.16819" lon="-1.62556">
        <ele>68</ele>
        <time>2021-08-29T11:14:42.000Z</time>
      </trkpt>
      <trkpt lat="47.16828" lon="-1.62567">
        <ele>68</ele>
        <time>2021-08-29T11:14:44.000Z</time>
      </trkpt>
      <trkpt lat="47.16834" lon="-1.62581">
        <ele>68</ele>
        <time>2021-08-29T11:14:46.000Z</time>
      </trkpt>
      <trkpt lat="47.16827" lon="-1.62595">
        <ele>70</ele>
        <time>2021-08-29T11:14:48.000Z</time>
      </trkpt>
      <trkpt lat="47.16818" lon="-1.62609">
        <ele>70</ele>
        <time>2021-08-29T11:14:50.000Z</time>
      </trkpt>
      <trkpt lat="47.1681" lon="-1.62622">
        <ele>70</ele>
        <time>2021-08-29T11:14:52.000Z</time>
      </trkpt>
      <trkpt lat="47.16803" lon="-1.62634">
        <ele>70</ele>
        <time>2021-08-29T11:14:54.000Z</time>
      </trkpt>
      <trkpt lat="47.16796" lon="-1.62645">
        <ele>69</ele>
        <time>2021-08-29T11:14:56.000Z</time>
      </trkpt>
      <trkpt lat="47.16787" lon="-1.62659">
        <ele>69</ele>
        <time>2021-08-29T11:14:59.000Z</time>
      </trkpt>
      <trkpt lat="47.16777" lon="-1.6266">
        <ele>70</ele>
        <time>2021-08-29T11:15:03.000Z</time>
      </trkpt>
    </trkseg>
  </trk>
</gpx>